<?xml version="1.0" encoding="UTF-8" standalone="no" ?>
<gpx xmlns="http://www.topografix.com/GPX/1/1" xmlns:xsi="http://www.w3.org/2001/XMLSchema-instance" xsi:schemaLocation="http://www.topografix.com/GPX/1/1 http://www.topografix.com/GPX/1/1/gpx.xsd" version="1.1" creator="VisuGPX - https://www.visugpx.com">
  <metadata>
    <name>Aller retour Rozier-Montarcher</name>
    <desc><![CDATA[A faire par temps dégagé pour profiter de la vue à Montarcher]]></desc>
  </metadata>
  <trk>
    <name><![CDATA[25/03/2012 9:08]]></name>
    <desc><![CDATA[]]></desc>
    <trkseg>
      <trkpt lat="45.38392" lon="4.14512">
        <ele>866</ele>
        <time>2012-03-26T07:08:16.000Z</time>
      </trkpt>
      <trkpt lat="45.38393" lon="4.14495">
        <ele>868</ele>
        <time>2012-03-26T07:11:11.000Z</time>
      </trkpt>
      <trkpt lat="45.38396" lon="4.1448">
        <ele>870</ele>
        <time>2012-03-26T07:11:16.000Z</time>
      </trkpt>
      <trkpt lat="45.384" lon="4.14463">
        <ele>869</ele>
        <time>2012-03-26T07:11:21.000Z</time>
      </trkpt>
      <trkpt lat="45.38405" lon="4.14447">
        <ele>870</ele>
        <time>2012-03-26T07:11:25.000Z</time>
      </trkpt>
      <trkpt lat="45.38409" lon="4.14432">
        <ele>872</ele>
        <time>2012-03-26T07:11:29.000Z</time>
      </trkpt>
      <trkpt lat="45.38412" lon="4.1442">
        <ele>873</ele>
        <time>2012-03-26T07:11:33.000Z</time>
      </trkpt>
      <trkpt lat="45.38414" lon="4.14406">
        <ele>874</ele>
        <time>2012-03-26T07:11:37.000Z</time>
      </trkpt>
      <trkpt lat="45.38421" lon="4.14387">
        <ele>876</ele>
        <time>2012-03-26T07:11:41.000Z</time>
      </trkpt>
      <trkpt lat="45.38423" lon="4.1437">
        <ele>873</ele>
        <time>2012-03-26T07:11:44.000Z</time>
      </trkpt>
      <trkpt lat="45.38423" lon="4.14356">
        <ele>871</ele>
        <time>2012-03-26T07:11:46.000Z</time>
      </trkpt>
      <trkpt lat="45.38422" lon="4.14341">
        <ele>872</ele>
        <time>2012-03-26T07:11:48.000Z</time>
      </trkpt>
      <trkpt lat="45.38421" lon="4.14327">
        <ele>873</ele>
        <time>2012-03-26T07:11:50.000Z</time>
      </trkpt>
      <trkpt lat="45.38421" lon="4.14312">
        <ele>871</ele>
        <time>2012-03-26T07:11:52.000Z</time>
      </trkpt>
      <trkpt lat="45.38419" lon="4.14297">
        <ele>870</ele>
        <time>2012-03-26T07:11:54.000Z</time>
      </trkpt>
      <trkpt lat="45.38418" lon="4.14282">
        <ele>870</ele>
        <time>2012-03-26T07:11:56.000Z</time>
      </trkpt>
      <trkpt lat="45.38418" lon="4.14268">
        <ele>869</ele>
        <time>2012-03-26T07:11:58.000Z</time>
      </trkpt>
      <trkpt lat="45.38417" lon="4.14249">
        <ele>867</ele>
        <time>2012-03-26T07:12:00.000Z</time>
      </trkpt>
      <trkpt lat="45.38417" lon="4.14229">
        <ele>867</ele>
        <time>2012-03-26T07:12:02.000Z</time>
      </trkpt>
      <trkpt lat="45.38419" lon="4.14208">
        <ele>868</ele>
        <time>2012-03-26T07:12:04.000Z</time>
      </trkpt>
      <trkpt lat="45.38422" lon="4.14186">
        <ele>868</ele>
        <time>2012-03-26T07:12:06.000Z</time>
      </trkpt>
      <trkpt lat="45.38425" lon="4.14165">
        <ele>868</ele>
        <time>2012-03-26T07:12:08.000Z</time>
      </trkpt>
      <trkpt lat="45.38429" lon="4.14144">
        <ele>867</ele>
        <time>2012-03-26T07:12:10.000Z</time>
      </trkpt>
      <trkpt lat="45.38432" lon="4.14123">
        <ele>866</ele>
        <time>2012-03-26T07:12:12.000Z</time>
      </trkpt>
      <trkpt lat="45.38435" lon="4.14102">
        <ele>866</ele>
        <time>2012-03-26T07:12:14.000Z</time>
      </trkpt>
      <trkpt lat="45.38437" lon="4.14081">
        <ele>865</ele>
        <time>2012-03-26T07:12:16.000Z</time>
      </trkpt>
      <trkpt lat="45.38438" lon="4.14061">
        <ele>864</ele>
        <time>2012-03-26T07:12:18.000Z</time>
      </trkpt>
      <trkpt lat="45.38439" lon="4.1404">
        <ele>864</ele>
        <time>2012-03-26T07:12:20.000Z</time>
      </trkpt>
      <trkpt lat="45.3844" lon="4.1402">
        <ele>863</ele>
        <time>2012-03-26T07:12:22.000Z</time>
      </trkpt>
      <trkpt lat="45.38441" lon="4.13999">
        <ele>861</ele>
        <time>2012-03-26T07:12:24.000Z</time>
      </trkpt>
      <trkpt lat="45.38443" lon="4.1398">
        <ele>861</ele>
        <time>2012-03-26T07:12:26.000Z</time>
      </trkpt>
      <trkpt lat="45.38446" lon="4.13959">
        <ele>861</ele>
        <time>2012-03-26T07:12:28.000Z</time>
      </trkpt>
      <trkpt lat="45.38449" lon="4.13939">
        <ele>861</ele>
        <time>2012-03-26T07:12:30.000Z</time>
      </trkpt>
      <trkpt lat="45.38452" lon="4.13918">
        <ele>860</ele>
        <time>2012-03-26T07:12:32.000Z</time>
      </trkpt>
      <trkpt lat="45.38456" lon="4.13897">
        <ele>859</ele>
        <time>2012-03-26T07:12:34.000Z</time>
      </trkpt>
      <trkpt lat="45.3846" lon="4.13876">
        <ele>861</ele>
        <time>2012-03-26T07:12:36.000Z</time>
      </trkpt>
      <trkpt lat="45.38463" lon="4.13856">
        <ele>861</ele>
        <time>2012-03-26T07:12:38.000Z</time>
      </trkpt>
      <trkpt lat="45.38466" lon="4.13837">
        <ele>860</ele>
        <time>2012-03-26T07:12:40.000Z</time>
      </trkpt>
      <trkpt lat="45.38467" lon="4.13818">
        <ele>859</ele>
        <time>2012-03-26T07:12:42.000Z</time>
      </trkpt>
      <trkpt lat="45.38469" lon="4.13801">
        <ele>857</ele>
        <time>2012-03-26T07:12:44.000Z</time>
      </trkpt>
      <trkpt lat="45.38474" lon="4.13786">
        <ele>857</ele>
        <time>2012-03-26T07:12:46.000Z</time>
      </trkpt>
      <trkpt lat="45.38485" lon="4.13776">
        <ele>857</ele>
        <time>2012-03-26T07:12:48.000Z</time>
      </trkpt>
      <trkpt lat="45.38495" lon="4.13767">
        <ele>857</ele>
        <time>2012-03-26T07:12:50.000Z</time>
      </trkpt>
      <trkpt lat="45.38507" lon="4.13757">
        <ele>858</ele>
        <time>2012-03-26T07:12:52.000Z</time>
      </trkpt>
      <trkpt lat="45.38519" lon="4.13752">
        <ele>859</ele>
        <time>2012-03-26T07:12:54.000Z</time>
      </trkpt>
      <trkpt lat="45.38531" lon="4.13745">
        <ele>860</ele>
        <time>2012-03-26T07:12:56.000Z</time>
      </trkpt>
      <trkpt lat="45.38543" lon="4.13736">
        <ele>859</ele>
        <time>2012-03-26T07:12:58.000Z</time>
      </trkpt>
      <trkpt lat="45.38557" lon="4.13727">
        <ele>856</ele>
        <time>2012-03-26T07:13:00.000Z</time>
      </trkpt>
      <trkpt lat="45.38572" lon="4.13718">
        <ele>854</ele>
        <time>2012-03-26T07:13:02.000Z</time>
      </trkpt>
      <trkpt lat="45.38588" lon="4.1371">
        <ele>853</ele>
        <time>2012-03-26T07:13:04.000Z</time>
      </trkpt>
      <trkpt lat="45.38604" lon="4.13703">
        <ele>854</ele>
        <time>2012-03-26T07:13:06.000Z</time>
      </trkpt>
      <trkpt lat="45.38621" lon="4.13697">
        <ele>853</ele>
        <time>2012-03-26T07:13:08.000Z</time>
      </trkpt>
      <trkpt lat="45.38637" lon="4.13692">
        <ele>852</ele>
        <time>2012-03-26T07:13:10.000Z</time>
      </trkpt>
      <trkpt lat="45.38652" lon="4.13685">
        <ele>852</ele>
        <time>2012-03-26T07:13:12.000Z</time>
      </trkpt>
      <trkpt lat="45.38667" lon="4.13678">
        <ele>852</ele>
        <time>2012-03-26T07:13:14.000Z</time>
      </trkpt>
      <trkpt lat="45.38681" lon="4.1367">
        <ele>851</ele>
        <time>2012-03-26T07:13:16.000Z</time>
      </trkpt>
      <trkpt lat="45.38695" lon="4.13661">
        <ele>851</ele>
        <time>2012-03-26T07:13:18.000Z</time>
      </trkpt>
      <trkpt lat="45.38708" lon="4.13652">
        <ele>851</ele>
        <time>2012-03-26T07:13:20.000Z</time>
      </trkpt>
      <trkpt lat="45.38721" lon="4.13644">
        <ele>851</ele>
        <time>2012-03-26T07:13:22.000Z</time>
      </trkpt>
      <trkpt lat="45.38733" lon="4.13635">
        <ele>851</ele>
        <time>2012-03-26T07:13:24.000Z</time>
      </trkpt>
      <trkpt lat="45.38743" lon="4.13627">
        <ele>852</ele>
        <time>2012-03-26T07:13:26.000Z</time>
      </trkpt>
      <trkpt lat="45.38753" lon="4.13618">
        <ele>851</ele>
        <time>2012-03-26T07:13:28.000Z</time>
      </trkpt>
      <trkpt lat="45.38764" lon="4.13611">
        <ele>851</ele>
        <time>2012-03-26T07:13:30.000Z</time>
      </trkpt>
      <trkpt lat="45.38774" lon="4.13604">
        <ele>852</ele>
        <time>2012-03-26T07:13:32.000Z</time>
      </trkpt>
      <trkpt lat="45.38784" lon="4.13598">
        <ele>853</ele>
        <time>2012-03-26T07:13:34.000Z</time>
      </trkpt>
      <trkpt lat="45.38794" lon="4.13592">
        <ele>855</ele>
        <time>2012-03-26T07:13:36.000Z</time>
      </trkpt>
      <trkpt lat="45.38805" lon="4.13585">
        <ele>856</ele>
        <time>2012-03-26T07:13:38.000Z</time>
      </trkpt>
      <trkpt lat="45.38815" lon="4.13577">
        <ele>857</ele>
        <time>2012-03-26T07:13:40.000Z</time>
      </trkpt>
      <trkpt lat="45.38828" lon="4.13568">
        <ele>859</ele>
        <time>2012-03-26T07:13:42.000Z</time>
      </trkpt>
      <trkpt lat="45.38842" lon="4.13559">
        <ele>860</ele>
        <time>2012-03-26T07:13:44.000Z</time>
      </trkpt>
      <trkpt lat="45.38859" lon="4.13548">
        <ele>856</ele>
        <time>2012-03-26T07:13:46.000Z</time>
      </trkpt>
      <trkpt lat="45.3887" lon="4.13541">
        <ele>852</ele>
        <time>2012-03-26T07:13:47.000Z</time>
      </trkpt>
      <trkpt lat="45.38881" lon="4.13538">
        <ele>851</ele>
        <time>2012-03-26T07:13:48.000Z</time>
      </trkpt>
      <trkpt lat="45.38893" lon="4.13536">
        <ele>848</ele>
        <time>2012-03-26T07:13:49.000Z</time>
      </trkpt>
      <trkpt lat="45.38904" lon="4.13535">
        <ele>847</ele>
        <time>2012-03-26T07:13:50.000Z</time>
      </trkpt>
      <trkpt lat="45.38915" lon="4.13535">
        <ele>845</ele>
        <time>2012-03-26T07:13:51.000Z</time>
      </trkpt>
      <trkpt lat="45.38926" lon="4.13535">
        <ele>844</ele>
        <time>2012-03-26T07:13:52.000Z</time>
      </trkpt>
      <trkpt lat="45.38937" lon="4.13536">
        <ele>842</ele>
        <time>2012-03-26T07:13:53.000Z</time>
      </trkpt>
      <trkpt lat="45.38947" lon="4.13537">
        <ele>841</ele>
        <time>2012-03-26T07:13:54.000Z</time>
      </trkpt>
      <trkpt lat="45.38958" lon="4.13537">
        <ele>840</ele>
        <time>2012-03-26T07:13:55.000Z</time>
      </trkpt>
      <trkpt lat="45.38968" lon="4.13538">
        <ele>838</ele>
        <time>2012-03-26T07:13:56.000Z</time>
      </trkpt>
      <trkpt lat="45.38979" lon="4.13539">
        <ele>838</ele>
        <time>2012-03-26T07:13:57.000Z</time>
      </trkpt>
      <trkpt lat="45.38988" lon="4.13539">
        <ele>838</ele>
        <time>2012-03-26T07:13:58.000Z</time>
      </trkpt>
      <trkpt lat="45.38998" lon="4.1354">
        <ele>837</ele>
        <time>2012-03-26T07:13:59.000Z</time>
      </trkpt>
      <trkpt lat="45.39007" lon="4.13541">
        <ele>836</ele>
        <time>2012-03-26T07:14:00.000Z</time>
      </trkpt>
      <trkpt lat="45.39025" lon="4.13542">
        <ele>836</ele>
        <time>2012-03-26T07:14:02.000Z</time>
      </trkpt>
      <trkpt lat="45.39034" lon="4.13542">
        <ele>836</ele>
        <time>2012-03-26T07:14:03.000Z</time>
      </trkpt>
      <trkpt lat="45.39051" lon="4.1354">
        <ele>836</ele>
        <time>2012-03-26T07:14:05.000Z</time>
      </trkpt>
      <trkpt lat="45.39068" lon="4.13535">
        <ele>837</ele>
        <time>2012-03-26T07:14:07.000Z</time>
      </trkpt>
      <trkpt lat="45.39085" lon="4.13531">
        <ele>836</ele>
        <time>2012-03-26T07:14:09.000Z</time>
      </trkpt>
      <trkpt lat="45.391" lon="4.13527">
        <ele>837</ele>
        <time>2012-03-26T07:14:11.000Z</time>
      </trkpt>
      <trkpt lat="45.39116" lon="4.13524">
        <ele>837</ele>
        <time>2012-03-26T07:14:13.000Z</time>
      </trkpt>
      <trkpt lat="45.39131" lon="4.1352">
        <ele>837</ele>
        <time>2012-03-26T07:14:15.000Z</time>
      </trkpt>
      <trkpt lat="45.39146" lon="4.13514">
        <ele>837</ele>
        <time>2012-03-26T07:14:17.000Z</time>
      </trkpt>
      <trkpt lat="45.39161" lon="4.13507">
        <ele>836</ele>
        <time>2012-03-26T07:14:19.000Z</time>
      </trkpt>
      <trkpt lat="45.39169" lon="4.13501">
        <ele>834</ele>
        <time>2012-03-26T07:14:20.000Z</time>
      </trkpt>
      <trkpt lat="45.39177" lon="4.13494">
        <ele>833</ele>
        <time>2012-03-26T07:14:21.000Z</time>
      </trkpt>
      <trkpt lat="45.3919" lon="4.13479">
        <ele>834</ele>
        <time>2012-03-26T07:14:23.000Z</time>
      </trkpt>
      <trkpt lat="45.39198" lon="4.13472">
        <ele>832</ele>
        <time>2012-03-26T07:14:24.000Z</time>
      </trkpt>
      <trkpt lat="45.39205" lon="4.13464">
        <ele>831</ele>
        <time>2012-03-26T07:14:25.000Z</time>
      </trkpt>
      <trkpt lat="45.39213" lon="4.13456">
        <ele>829</ele>
        <time>2012-03-26T07:14:26.000Z</time>
      </trkpt>
      <trkpt lat="45.39221" lon="4.13448">
        <ele>827</ele>
        <time>2012-03-26T07:14:27.000Z</time>
      </trkpt>
      <trkpt lat="45.39229" lon="4.1344">
        <ele>825</ele>
        <time>2012-03-26T07:14:28.000Z</time>
      </trkpt>
      <trkpt lat="45.39238" lon="4.13433">
        <ele>824</ele>
        <time>2012-03-26T07:14:29.000Z</time>
      </trkpt>
      <trkpt lat="45.39247" lon="4.13426">
        <ele>822</ele>
        <time>2012-03-26T07:14:30.000Z</time>
      </trkpt>
      <trkpt lat="45.39256" lon="4.1342">
        <ele>820</ele>
        <time>2012-03-26T07:14:31.000Z</time>
      </trkpt>
      <trkpt lat="45.39265" lon="4.13414">
        <ele>819</ele>
        <time>2012-03-26T07:14:32.000Z</time>
      </trkpt>
      <trkpt lat="45.39273" lon="4.1341">
        <ele>819</ele>
        <time>2012-03-26T07:14:33.000Z</time>
      </trkpt>
      <trkpt lat="45.39288" lon="4.13401">
        <ele>818</ele>
        <time>2012-03-26T07:14:35.000Z</time>
      </trkpt>
      <trkpt lat="45.39298" lon="4.13395">
        <ele>818</ele>
        <time>2012-03-26T07:14:37.000Z</time>
      </trkpt>
      <trkpt lat="45.39296" lon="4.13374">
        <ele>816</ele>
        <time>2012-03-26T07:14:43.000Z</time>
      </trkpt>
      <trkpt lat="45.39291" lon="4.13357">
        <ele>819</ele>
        <time>2012-03-26T07:14:47.000Z</time>
      </trkpt>
      <trkpt lat="45.39285" lon="4.13335">
        <ele>818</ele>
        <time>2012-03-26T07:14:51.000Z</time>
      </trkpt>
      <trkpt lat="45.39281" lon="4.13316">
        <ele>819</ele>
        <time>2012-03-26T07:14:54.000Z</time>
      </trkpt>
      <trkpt lat="45.39281" lon="4.13294">
        <ele>818</ele>
        <time>2012-03-26T07:14:58.000Z</time>
      </trkpt>
      <trkpt lat="45.39284" lon="4.13274">
        <ele>818</ele>
        <time>2012-03-26T07:15:02.000Z</time>
      </trkpt>
      <trkpt lat="45.39287" lon="4.13261">
        <ele>818</ele>
        <time>2012-03-26T07:15:04.000Z</time>
      </trkpt>
      <trkpt lat="45.39289" lon="4.13247">
        <ele>819</ele>
        <time>2012-03-26T07:15:06.000Z</time>
      </trkpt>
      <trkpt lat="45.39291" lon="4.13232">
        <ele>818</ele>
        <time>2012-03-26T07:15:08.000Z</time>
      </trkpt>
      <trkpt lat="45.39294" lon="4.13217">
        <ele>816</ele>
        <time>2012-03-26T07:15:10.000Z</time>
      </trkpt>
      <trkpt lat="45.39296" lon="4.13201">
        <ele>815</ele>
        <time>2012-03-26T07:15:12.000Z</time>
      </trkpt>
      <trkpt lat="45.39297" lon="4.13184">
        <ele>815</ele>
        <time>2012-03-26T07:15:14.000Z</time>
      </trkpt>
      <trkpt lat="45.39297" lon="4.13167">
        <ele>816</ele>
        <time>2012-03-26T07:15:16.000Z</time>
      </trkpt>
      <trkpt lat="45.39296" lon="4.13151">
        <ele>816</ele>
        <time>2012-03-26T07:15:18.000Z</time>
      </trkpt>
      <trkpt lat="45.39294" lon="4.13136">
        <ele>815</ele>
        <time>2012-03-26T07:15:20.000Z</time>
      </trkpt>
      <trkpt lat="45.39291" lon="4.13119">
        <ele>815</ele>
        <time>2012-03-26T07:15:22.000Z</time>
      </trkpt>
      <trkpt lat="45.39287" lon="4.13101">
        <ele>813</ele>
        <time>2012-03-26T07:15:24.000Z</time>
      </trkpt>
      <trkpt lat="45.39282" lon="4.13082">
        <ele>812</ele>
        <time>2012-03-26T07:15:26.000Z</time>
      </trkpt>
      <trkpt lat="45.39277" lon="4.13063">
        <ele>810</ele>
        <time>2012-03-26T07:15:28.000Z</time>
      </trkpt>
      <trkpt lat="45.3927" lon="4.13045">
        <ele>810</ele>
        <time>2012-03-26T07:15:30.000Z</time>
      </trkpt>
      <trkpt lat="45.39264" lon="4.13029">
        <ele>808</ele>
        <time>2012-03-26T07:15:32.000Z</time>
      </trkpt>
      <trkpt lat="45.3926" lon="4.13012">
        <ele>809</ele>
        <time>2012-03-26T07:15:34.000Z</time>
      </trkpt>
      <trkpt lat="45.39259" lon="4.12993">
        <ele>808</ele>
        <time>2012-03-26T07:15:36.000Z</time>
      </trkpt>
      <trkpt lat="45.39257" lon="4.12977">
        <ele>809</ele>
        <time>2012-03-26T07:15:38.000Z</time>
      </trkpt>
      <trkpt lat="45.39255" lon="4.12961">
        <ele>810</ele>
        <time>2012-03-26T07:15:40.000Z</time>
      </trkpt>
      <trkpt lat="45.39253" lon="4.12946">
        <ele>810</ele>
        <time>2012-03-26T07:15:42.000Z</time>
      </trkpt>
      <trkpt lat="45.39252" lon="4.12928">
        <ele>810</ele>
        <time>2012-03-26T07:15:44.000Z</time>
      </trkpt>
      <trkpt lat="45.3925" lon="4.12911">
        <ele>808</ele>
        <time>2012-03-26T07:15:46.000Z</time>
      </trkpt>
      <trkpt lat="45.39252" lon="4.12893">
        <ele>808</ele>
        <time>2012-03-26T07:15:48.000Z</time>
      </trkpt>
      <trkpt lat="45.39256" lon="4.1288">
        <ele>808</ele>
        <time>2012-03-26T07:15:50.000Z</time>
      </trkpt>
      <trkpt lat="45.39264" lon="4.12867">
        <ele>810</ele>
        <time>2012-03-26T07:15:52.000Z</time>
      </trkpt>
      <trkpt lat="45.39268" lon="4.12853">
        <ele>808</ele>
        <time>2012-03-26T07:15:54.000Z</time>
      </trkpt>
      <trkpt lat="45.39265" lon="4.12841">
        <ele>808</ele>
        <time>2012-03-26T07:15:56.000Z</time>
      </trkpt>
      <trkpt lat="45.39256" lon="4.12833">
        <ele>809</ele>
        <time>2012-03-26T07:15:58.000Z</time>
      </trkpt>
      <trkpt lat="45.39247" lon="4.12831">
        <ele>809</ele>
        <time>2012-03-26T07:16:00.000Z</time>
      </trkpt>
      <trkpt lat="45.39237" lon="4.12832">
        <ele>809</ele>
        <time>2012-03-26T07:16:02.000Z</time>
      </trkpt>
      <trkpt lat="45.39226" lon="4.12828">
        <ele>808</ele>
        <time>2012-03-26T07:16:04.000Z</time>
      </trkpt>
      <trkpt lat="45.3922" lon="4.12817">
        <ele>808</ele>
        <time>2012-03-26T07:16:06.000Z</time>
      </trkpt>
      <trkpt lat="45.39223" lon="4.12795">
        <ele>807</ele>
        <time>2012-03-26T07:16:10.000Z</time>
      </trkpt>
      <trkpt lat="45.39228" lon="4.12776">
        <ele>808</ele>
        <time>2012-03-26T07:16:14.000Z</time>
      </trkpt>
      <trkpt lat="45.39232" lon="4.12758">
        <ele>809</ele>
        <time>2012-03-26T07:16:18.000Z</time>
      </trkpt>
      <trkpt lat="45.39236" lon="4.12738">
        <ele>809</ele>
        <time>2012-03-26T07:16:22.000Z</time>
      </trkpt>
      <trkpt lat="45.3924" lon="4.1272">
        <ele>810</ele>
        <time>2012-03-26T07:16:26.000Z</time>
      </trkpt>
      <trkpt lat="45.39242" lon="4.12702">
        <ele>811</ele>
        <time>2012-03-26T07:16:30.000Z</time>
      </trkpt>
      <trkpt lat="45.39245" lon="4.12684">
        <ele>811</ele>
        <time>2012-03-26T07:16:34.000Z</time>
      </trkpt>
      <trkpt lat="45.39248" lon="4.12668">
        <ele>812</ele>
        <time>2012-03-26T07:16:38.000Z</time>
      </trkpt>
      <trkpt lat="45.39251" lon="4.12652">
        <ele>812</ele>
        <time>2012-03-26T07:16:42.000Z</time>
      </trkpt>
      <trkpt lat="45.39252" lon="4.12637">
        <ele>816</ele>
        <time>2012-03-26T07:16:46.000Z</time>
      </trkpt>
      <trkpt lat="45.39253" lon="4.12621">
        <ele>817</ele>
        <time>2012-03-26T07:16:50.000Z</time>
      </trkpt>
      <trkpt lat="45.39252" lon="4.12602">
        <ele>817</ele>
        <time>2012-03-26T07:16:54.000Z</time>
      </trkpt>
      <trkpt lat="45.39249" lon="4.12584">
        <ele>818</ele>
        <time>2012-03-26T07:16:58.000Z</time>
      </trkpt>
      <trkpt lat="45.39245" lon="4.12566">
        <ele>818</ele>
        <time>2012-03-26T07:17:02.000Z</time>
      </trkpt>
      <trkpt lat="45.39239" lon="4.1255">
        <ele>820</ele>
        <time>2012-03-26T07:17:06.000Z</time>
      </trkpt>
      <trkpt lat="45.39227" lon="4.12542">
        <ele>820</ele>
        <time>2012-03-26T07:17:10.000Z</time>
      </trkpt>
      <trkpt lat="45.39214" lon="4.1254">
        <ele>818</ele>
        <time>2012-03-26T07:17:14.000Z</time>
      </trkpt>
      <trkpt lat="45.39202" lon="4.12539">
        <ele>819</ele>
        <time>2012-03-26T07:17:18.000Z</time>
      </trkpt>
      <trkpt lat="45.39191" lon="4.12538">
        <ele>822</ele>
        <time>2012-03-26T07:17:22.000Z</time>
      </trkpt>
      <trkpt lat="45.39177" lon="4.12539">
        <ele>820</ele>
        <time>2012-03-26T07:17:26.000Z</time>
      </trkpt>
      <trkpt lat="45.39165" lon="4.1254">
        <ele>822</ele>
        <time>2012-03-26T07:17:30.000Z</time>
      </trkpt>
      <trkpt lat="45.39153" lon="4.12545">
        <ele>823</ele>
        <time>2012-03-26T07:17:34.000Z</time>
      </trkpt>
      <trkpt lat="45.39144" lon="4.12551">
        <ele>824</ele>
        <time>2012-03-26T07:17:38.000Z</time>
      </trkpt>
      <trkpt lat="45.39132" lon="4.12556">
        <ele>825</ele>
        <time>2012-03-26T07:17:42.000Z</time>
      </trkpt>
      <trkpt lat="45.39121" lon="4.12559">
        <ele>825</ele>
        <time>2012-03-26T07:17:46.000Z</time>
      </trkpt>
      <trkpt lat="45.3911" lon="4.12563">
        <ele>827</ele>
        <time>2012-03-26T07:17:50.000Z</time>
      </trkpt>
      <trkpt lat="45.39098" lon="4.12566">
        <ele>828</ele>
        <time>2012-03-26T07:17:54.000Z</time>
      </trkpt>
      <trkpt lat="45.39088" lon="4.12567">
        <ele>829</ele>
        <time>2012-03-26T07:17:58.000Z</time>
      </trkpt>
      <trkpt lat="45.39075" lon="4.12563">
        <ele>827</ele>
        <time>2012-03-26T07:18:02.000Z</time>
      </trkpt>
      <trkpt lat="45.39064" lon="4.12558">
        <ele>831</ele>
        <time>2012-03-26T07:18:06.000Z</time>
      </trkpt>
      <trkpt lat="45.39051" lon="4.12554">
        <ele>830</ele>
        <time>2012-03-26T07:18:10.000Z</time>
      </trkpt>
      <trkpt lat="45.39037" lon="4.12549">
        <ele>831</ele>
        <time>2012-03-26T07:18:14.000Z</time>
      </trkpt>
      <trkpt lat="45.39023" lon="4.12544">
        <ele>831</ele>
        <time>2012-03-26T07:18:18.000Z</time>
      </trkpt>
      <trkpt lat="45.39009" lon="4.12538">
        <ele>830</ele>
        <time>2012-03-26T07:18:22.000Z</time>
      </trkpt>
      <trkpt lat="45.38995" lon="4.12532">
        <ele>831</ele>
        <time>2012-03-26T07:18:26.000Z</time>
      </trkpt>
      <trkpt lat="45.38981" lon="4.12526">
        <ele>832</ele>
        <time>2012-03-26T07:18:30.000Z</time>
      </trkpt>
      <trkpt lat="45.38967" lon="4.12516">
        <ele>831</ele>
        <time>2012-03-26T07:18:34.000Z</time>
      </trkpt>
      <trkpt lat="45.38953" lon="4.12509">
        <ele>833</ele>
        <time>2012-03-26T07:18:38.000Z</time>
      </trkpt>
      <trkpt lat="45.38938" lon="4.12503">
        <ele>835</ele>
        <time>2012-03-26T07:18:42.000Z</time>
      </trkpt>
      <trkpt lat="45.38925" lon="4.12498">
        <ele>836</ele>
        <time>2012-03-26T07:18:46.000Z</time>
      </trkpt>
      <trkpt lat="45.38913" lon="4.12491">
        <ele>836</ele>
        <time>2012-03-26T07:18:50.000Z</time>
      </trkpt>
      <trkpt lat="45.38901" lon="4.12484">
        <ele>837</ele>
        <time>2012-03-26T07:18:54.000Z</time>
      </trkpt>
      <trkpt lat="45.38888" lon="4.12477">
        <ele>839</ele>
        <time>2012-03-26T07:18:58.000Z</time>
      </trkpt>
      <trkpt lat="45.38877" lon="4.12472">
        <ele>842</ele>
        <time>2012-03-26T07:19:02.000Z</time>
      </trkpt>
      <trkpt lat="45.38863" lon="4.12467">
        <ele>838</ele>
        <time>2012-03-26T07:19:06.000Z</time>
      </trkpt>
      <trkpt lat="45.3885" lon="4.12462">
        <ele>836</ele>
        <time>2012-03-26T07:19:10.000Z</time>
      </trkpt>
      <trkpt lat="45.38837" lon="4.12455">
        <ele>837</ele>
        <time>2012-03-26T07:19:14.000Z</time>
      </trkpt>
      <trkpt lat="45.38826" lon="4.12448">
        <ele>838</ele>
        <time>2012-03-26T07:19:18.000Z</time>
      </trkpt>
      <trkpt lat="45.38814" lon="4.12437">
        <ele>838</ele>
        <time>2012-03-26T07:19:22.000Z</time>
      </trkpt>
      <trkpt lat="45.38802" lon="4.12424">
        <ele>837</ele>
        <time>2012-03-26T07:19:26.000Z</time>
      </trkpt>
      <trkpt lat="45.38792" lon="4.1241">
        <ele>838</ele>
        <time>2012-03-26T07:19:30.000Z</time>
      </trkpt>
      <trkpt lat="45.38784" lon="4.12395">
        <ele>838</ele>
        <time>2012-03-26T07:19:34.000Z</time>
      </trkpt>
      <trkpt lat="45.38775" lon="4.12379">
        <ele>845</ele>
        <time>2012-03-26T07:19:38.000Z</time>
      </trkpt>
      <trkpt lat="45.38765" lon="4.12361">
        <ele>842</ele>
        <time>2012-03-26T07:19:42.000Z</time>
      </trkpt>
      <trkpt lat="45.38758" lon="4.1235">
        <ele>843</ele>
        <time>2012-03-26T07:19:44.000Z</time>
      </trkpt>
      <trkpt lat="45.38751" lon="4.12342">
        <ele>841</ele>
        <time>2012-03-26T07:19:46.000Z</time>
      </trkpt>
      <trkpt lat="45.38742" lon="4.12332">
        <ele>840</ele>
        <time>2012-03-26T07:19:48.000Z</time>
      </trkpt>
      <trkpt lat="45.38733" lon="4.12323">
        <ele>840</ele>
        <time>2012-03-26T07:19:50.000Z</time>
      </trkpt>
      <trkpt lat="45.38725" lon="4.12316">
        <ele>839</ele>
        <time>2012-03-26T07:19:52.000Z</time>
      </trkpt>
      <trkpt lat="45.38716" lon="4.12312">
        <ele>837</ele>
        <time>2012-03-26T07:19:54.000Z</time>
      </trkpt>
      <trkpt lat="45.38702" lon="4.12308">
        <ele>836</ele>
        <time>2012-03-26T07:19:57.000Z</time>
      </trkpt>
      <trkpt lat="45.38685" lon="4.12304">
        <ele>837</ele>
        <time>2012-03-26T07:20:01.000Z</time>
      </trkpt>
      <trkpt lat="45.3867" lon="4.123">
        <ele>838</ele>
        <time>2012-03-26T07:20:05.000Z</time>
      </trkpt>
      <trkpt lat="45.38654" lon="4.12296">
        <ele>840</ele>
        <time>2012-03-26T07:20:09.000Z</time>
      </trkpt>
      <trkpt lat="45.38642" lon="4.12292">
        <ele>839</ele>
        <time>2012-03-26T07:20:12.000Z</time>
      </trkpt>
      <trkpt lat="45.38627" lon="4.12289">
        <ele>839</ele>
        <time>2012-03-26T07:20:16.000Z</time>
      </trkpt>
      <trkpt lat="45.38612" lon="4.12285">
        <ele>842</ele>
        <time>2012-03-26T07:20:20.000Z</time>
      </trkpt>
      <trkpt lat="45.38598" lon="4.12283">
        <ele>843</ele>
        <time>2012-03-26T07:20:24.000Z</time>
      </trkpt>
      <trkpt lat="45.38583" lon="4.12281">
        <ele>842</ele>
        <time>2012-03-26T07:20:28.000Z</time>
      </trkpt>
      <trkpt lat="45.38569" lon="4.12278">
        <ele>843</ele>
        <time>2012-03-26T07:20:32.000Z</time>
      </trkpt>
      <trkpt lat="45.38556" lon="4.12276">
        <ele>844</ele>
        <time>2012-03-26T07:20:36.000Z</time>
      </trkpt>
      <trkpt lat="45.38543" lon="4.12274">
        <ele>846</ele>
        <time>2012-03-26T07:20:40.000Z</time>
      </trkpt>
      <trkpt lat="45.3853" lon="4.12271">
        <ele>846</ele>
        <time>2012-03-26T07:20:44.000Z</time>
      </trkpt>
      <trkpt lat="45.38517" lon="4.12269">
        <ele>845</ele>
        <time>2012-03-26T07:20:48.000Z</time>
      </trkpt>
      <trkpt lat="45.38505" lon="4.12266">
        <ele>847</ele>
        <time>2012-03-26T07:20:52.000Z</time>
      </trkpt>
      <trkpt lat="45.38502" lon="4.12253">
        <ele>850</ele>
        <time>2012-03-26T07:20:57.000Z</time>
      </trkpt>
      <trkpt lat="45.38507" lon="4.12236">
        <ele>850</ele>
        <time>2012-03-26T07:21:01.000Z</time>
      </trkpt>
      <trkpt lat="45.38511" lon="4.12217">
        <ele>850</ele>
        <time>2012-03-26T07:21:05.000Z</time>
      </trkpt>
      <trkpt lat="45.38512" lon="4.12197">
        <ele>849</ele>
        <time>2012-03-26T07:21:09.000Z</time>
      </trkpt>
      <trkpt lat="45.38513" lon="4.12181">
        <ele>849</ele>
        <time>2012-03-26T07:21:12.000Z</time>
      </trkpt>
      <trkpt lat="45.38518" lon="4.12162">
        <ele>849</ele>
        <time>2012-03-26T07:21:16.000Z</time>
      </trkpt>
      <trkpt lat="45.38527" lon="4.12146">
        <ele>849</ele>
        <time>2012-03-26T07:21:20.000Z</time>
      </trkpt>
      <trkpt lat="45.38536" lon="4.1213">
        <ele>850</ele>
        <time>2012-03-26T07:21:24.000Z</time>
      </trkpt>
      <trkpt lat="45.38545" lon="4.12113">
        <ele>850</ele>
        <time>2012-03-26T07:21:28.000Z</time>
      </trkpt>
      <trkpt lat="45.38556" lon="4.12093">
        <ele>849</ele>
        <time>2012-03-26T07:21:32.000Z</time>
      </trkpt>
      <trkpt lat="45.38561" lon="4.12082">
        <ele>847</ele>
        <time>2012-03-26T07:21:34.000Z</time>
      </trkpt>
      <trkpt lat="45.38568" lon="4.12066">
        <ele>846</ele>
        <time>2012-03-26T07:21:37.000Z</time>
      </trkpt>
      <trkpt lat="45.38574" lon="4.12053">
        <ele>846</ele>
        <time>2012-03-26T07:21:39.000Z</time>
      </trkpt>
      <trkpt lat="45.3858" lon="4.12038">
        <ele>846</ele>
        <time>2012-03-26T07:21:41.000Z</time>
      </trkpt>
      <trkpt lat="45.38587" lon="4.1202">
        <ele>847</ele>
        <time>2012-03-26T07:21:43.000Z</time>
      </trkpt>
      <trkpt lat="45.38588" lon="4.12003">
        <ele>844</ele>
        <time>2012-03-26T07:21:45.000Z</time>
      </trkpt>
      <trkpt lat="45.38588" lon="4.11983">
        <ele>846</ele>
        <time>2012-03-26T07:21:47.000Z</time>
      </trkpt>
      <trkpt lat="45.38588" lon="4.11961">
        <ele>843</ele>
        <time>2012-03-26T07:21:49.000Z</time>
      </trkpt>
      <trkpt lat="45.38587" lon="4.11942">
        <ele>840</ele>
        <time>2012-03-26T07:21:51.000Z</time>
      </trkpt>
      <trkpt lat="45.38586" lon="4.11922">
        <ele>836</ele>
        <time>2012-03-26T07:21:53.000Z</time>
      </trkpt>
      <trkpt lat="45.38584" lon="4.119">
        <ele>833</ele>
        <time>2012-03-26T07:21:55.000Z</time>
      </trkpt>
      <trkpt lat="45.38583" lon="4.11876">
        <ele>832</ele>
        <time>2012-03-26T07:21:57.000Z</time>
      </trkpt>
      <trkpt lat="45.38582" lon="4.11853">
        <ele>831</ele>
        <time>2012-03-26T07:21:59.000Z</time>
      </trkpt>
      <trkpt lat="45.38583" lon="4.11826">
        <ele>827</ele>
        <time>2012-03-26T07:22:01.000Z</time>
      </trkpt>
      <trkpt lat="45.38585" lon="4.11811">
        <ele>826</ele>
        <time>2012-03-26T07:22:02.000Z</time>
      </trkpt>
      <trkpt lat="45.38587" lon="4.11796">
        <ele>828</ele>
        <time>2012-03-26T07:22:03.000Z</time>
      </trkpt>
      <trkpt lat="45.38589" lon="4.11781">
        <ele>826</ele>
        <time>2012-03-26T07:22:04.000Z</time>
      </trkpt>
      <trkpt lat="45.38594" lon="4.1177">
        <ele>823</ele>
        <time>2012-03-26T07:22:05.000Z</time>
      </trkpt>
      <trkpt lat="45.38606" lon="4.1176">
        <ele>823</ele>
        <time>2012-03-26T07:22:07.000Z</time>
      </trkpt>
      <trkpt lat="45.38617" lon="4.11756">
        <ele>825</ele>
        <time>2012-03-26T07:22:09.000Z</time>
      </trkpt>
      <trkpt lat="45.38628" lon="4.11748">
        <ele>821</ele>
        <time>2012-03-26T07:22:12.000Z</time>
      </trkpt>
      <trkpt lat="45.38637" lon="4.11731">
        <ele>821</ele>
        <time>2012-03-26T07:22:16.000Z</time>
      </trkpt>
      <trkpt lat="45.38644" lon="4.11718">
        <ele>820</ele>
        <time>2012-03-26T07:22:20.000Z</time>
      </trkpt>
      <trkpt lat="45.38648" lon="4.11705">
        <ele>823</ele>
        <time>2012-03-26T07:22:25.000Z</time>
      </trkpt>
      <trkpt lat="45.3865" lon="4.11691">
        <ele>819</ele>
        <time>2012-03-26T07:22:29.000Z</time>
      </trkpt>
      <trkpt lat="45.38652" lon="4.11676">
        <ele>822</ele>
        <time>2012-03-26T07:22:33.000Z</time>
      </trkpt>
      <trkpt lat="45.38655" lon="4.11662">
        <ele>823</ele>
        <time>2012-03-26T07:22:37.000Z</time>
      </trkpt>
      <trkpt lat="45.38658" lon="4.11648">
        <ele>823</ele>
        <time>2012-03-26T07:22:41.000Z</time>
      </trkpt>
      <trkpt lat="45.38662" lon="4.11634">
        <ele>825</ele>
        <time>2012-03-26T07:22:45.000Z</time>
      </trkpt>
      <trkpt lat="45.38666" lon="4.11622">
        <ele>824</ele>
        <time>2012-03-26T07:22:49.000Z</time>
      </trkpt>
      <trkpt lat="45.3867" lon="4.11609">
        <ele>826</ele>
        <time>2012-03-26T07:22:53.000Z</time>
      </trkpt>
      <trkpt lat="45.38674" lon="4.11595">
        <ele>829</ele>
        <time>2012-03-26T07:22:57.000Z</time>
      </trkpt>
      <trkpt lat="45.38678" lon="4.11583">
        <ele>829</ele>
        <time>2012-03-26T07:23:01.000Z</time>
      </trkpt>
      <trkpt lat="45.38683" lon="4.1157">
        <ele>830</ele>
        <time>2012-03-26T07:23:05.000Z</time>
      </trkpt>
      <trkpt lat="45.38688" lon="4.11556">
        <ele>833</ele>
        <time>2012-03-26T07:23:09.000Z</time>
      </trkpt>
      <trkpt lat="45.38691" lon="4.11543">
        <ele>831</ele>
        <time>2012-03-26T07:23:12.000Z</time>
      </trkpt>
      <trkpt lat="45.38694" lon="4.11527">
        <ele>830</ele>
        <time>2012-03-26T07:23:16.000Z</time>
      </trkpt>
      <trkpt lat="45.38697" lon="4.11508">
        <ele>831</ele>
        <time>2012-03-26T07:23:20.000Z</time>
      </trkpt>
      <trkpt lat="45.38701" lon="4.11489">
        <ele>832</ele>
        <time>2012-03-26T07:23:24.000Z</time>
      </trkpt>
      <trkpt lat="45.38706" lon="4.11471">
        <ele>832</ele>
        <time>2012-03-26T07:23:28.000Z</time>
      </trkpt>
      <trkpt lat="45.38712" lon="4.11454">
        <ele>830</ele>
        <time>2012-03-26T07:23:32.000Z</time>
      </trkpt>
      <trkpt lat="45.38718" lon="4.11434">
        <ele>836</ele>
        <time>2012-03-26T07:23:36.000Z</time>
      </trkpt>
      <trkpt lat="45.38724" lon="4.11412">
        <ele>832</ele>
        <time>2012-03-26T07:23:40.000Z</time>
      </trkpt>
      <trkpt lat="45.38728" lon="4.11399">
        <ele>832</ele>
        <time>2012-03-26T07:23:42.000Z</time>
      </trkpt>
      <trkpt lat="45.38731" lon="4.11385">
        <ele>832</ele>
        <time>2012-03-26T07:23:44.000Z</time>
      </trkpt>
      <trkpt lat="45.38735" lon="4.11367">
        <ele>832</ele>
        <time>2012-03-26T07:23:47.000Z</time>
      </trkpt>
      <trkpt lat="45.3874" lon="4.11344">
        <ele>829</ele>
        <time>2012-03-26T07:23:51.000Z</time>
      </trkpt>
      <trkpt lat="45.38744" lon="4.11331">
        <ele>828</ele>
        <time>2012-03-26T07:23:53.000Z</time>
      </trkpt>
      <trkpt lat="45.38747" lon="4.11315">
        <ele>828</ele>
        <time>2012-03-26T07:23:55.000Z</time>
      </trkpt>
      <trkpt lat="45.3875" lon="4.11299">
        <ele>828</ele>
        <time>2012-03-26T07:23:57.000Z</time>
      </trkpt>
      <trkpt lat="45.38752" lon="4.11284">
        <ele>828</ele>
        <time>2012-03-26T07:23:59.000Z</time>
      </trkpt>
      <trkpt lat="45.38754" lon="4.11268">
        <ele>826</ele>
        <time>2012-03-26T07:24:01.000Z</time>
      </trkpt>
      <trkpt lat="45.38754" lon="4.1125">
        <ele>827</ele>
        <time>2012-03-26T07:24:03.000Z</time>
      </trkpt>
      <trkpt lat="45.38754" lon="4.11232">
        <ele>826</ele>
        <time>2012-03-26T07:24:05.000Z</time>
      </trkpt>
      <trkpt lat="45.38752" lon="4.11212">
        <ele>822</ele>
        <time>2012-03-26T07:24:07.000Z</time>
      </trkpt>
      <trkpt lat="45.38749" lon="4.11191">
        <ele>822</ele>
        <time>2012-03-26T07:24:09.000Z</time>
      </trkpt>
      <trkpt lat="45.38747" lon="4.11171">
        <ele>822</ele>
        <time>2012-03-26T07:24:11.000Z</time>
      </trkpt>
      <trkpt lat="45.38748" lon="4.11152">
        <ele>821</ele>
        <time>2012-03-26T07:24:13.000Z</time>
      </trkpt>
      <trkpt lat="45.38749" lon="4.11134">
        <ele>820</ele>
        <time>2012-03-26T07:24:15.000Z</time>
      </trkpt>
      <trkpt lat="45.3875" lon="4.11118">
        <ele>822</ele>
        <time>2012-03-26T07:24:17.000Z</time>
      </trkpt>
      <trkpt lat="45.38752" lon="4.11103">
        <ele>822</ele>
        <time>2012-03-26T07:24:19.000Z</time>
      </trkpt>
      <trkpt lat="45.38754" lon="4.11083">
        <ele>820</ele>
        <time>2012-03-26T07:24:23.000Z</time>
      </trkpt>
      <trkpt lat="45.38755" lon="4.11066">
        <ele>821</ele>
        <time>2012-03-26T07:24:27.000Z</time>
      </trkpt>
      <trkpt lat="45.38755" lon="4.11049">
        <ele>822</ele>
        <time>2012-03-26T07:24:31.000Z</time>
      </trkpt>
      <trkpt lat="45.38755" lon="4.11032">
        <ele>823</ele>
        <time>2012-03-26T07:24:35.000Z</time>
      </trkpt>
      <trkpt lat="45.3876" lon="4.11017">
        <ele>824</ele>
        <time>2012-03-26T07:24:39.000Z</time>
      </trkpt>
      <trkpt lat="45.38767" lon="4.11002">
        <ele>823</ele>
        <time>2012-03-26T07:24:43.000Z</time>
      </trkpt>
      <trkpt lat="45.38775" lon="4.10987">
        <ele>823</ele>
        <time>2012-03-26T07:24:47.000Z</time>
      </trkpt>
      <trkpt lat="45.38782" lon="4.10975">
        <ele>825</ele>
        <time>2012-03-26T07:24:51.000Z</time>
      </trkpt>
      <trkpt lat="45.38788" lon="4.10962">
        <ele>827</ele>
        <time>2012-03-26T07:24:55.000Z</time>
      </trkpt>
      <trkpt lat="45.38793" lon="4.1095">
        <ele>827</ele>
        <time>2012-03-26T07:24:59.000Z</time>
      </trkpt>
      <trkpt lat="45.38798" lon="4.10938">
        <ele>828</ele>
        <time>2012-03-26T07:25:03.000Z</time>
      </trkpt>
      <trkpt lat="45.38804" lon="4.10926">
        <ele>829</ele>
        <time>2012-03-26T07:25:07.000Z</time>
      </trkpt>
      <trkpt lat="45.38811" lon="4.10912">
        <ele>831</ele>
        <time>2012-03-26T07:25:12.000Z</time>
      </trkpt>
      <trkpt lat="45.38816" lon="4.10899">
        <ele>833</ele>
        <time>2012-03-26T07:25:16.000Z</time>
      </trkpt>
      <trkpt lat="45.38822" lon="4.10886">
        <ele>833</ele>
        <time>2012-03-26T07:25:20.000Z</time>
      </trkpt>
      <trkpt lat="45.38829" lon="4.10874">
        <ele>832</ele>
        <time>2012-03-26T07:25:24.000Z</time>
      </trkpt>
      <trkpt lat="45.38836" lon="4.10862">
        <ele>833</ele>
        <time>2012-03-26T07:25:28.000Z</time>
      </trkpt>
      <trkpt lat="45.38842" lon="4.10851">
        <ele>833</ele>
        <time>2012-03-26T07:25:32.000Z</time>
      </trkpt>
      <trkpt lat="45.38848" lon="4.1084">
        <ele>838</ele>
        <time>2012-03-26T07:25:36.000Z</time>
      </trkpt>
      <trkpt lat="45.38853" lon="4.10828">
        <ele>838</ele>
        <time>2012-03-26T07:25:40.000Z</time>
      </trkpt>
      <trkpt lat="45.38859" lon="4.10818">
        <ele>840</ele>
        <time>2012-03-26T07:25:44.000Z</time>
      </trkpt>
      <trkpt lat="45.38866" lon="4.10806">
        <ele>841</ele>
        <time>2012-03-26T07:25:48.000Z</time>
      </trkpt>
      <trkpt lat="45.38872" lon="4.10794">
        <ele>842</ele>
        <time>2012-03-26T07:25:52.000Z</time>
      </trkpt>
      <trkpt lat="45.38879" lon="4.1078">
        <ele>842</ele>
        <time>2012-03-26T07:25:56.000Z</time>
      </trkpt>
      <trkpt lat="45.38885" lon="4.10765">
        <ele>842</ele>
        <time>2012-03-26T07:26:00.000Z</time>
      </trkpt>
      <trkpt lat="45.38892" lon="4.10751">
        <ele>843</ele>
        <time>2012-03-26T07:26:04.000Z</time>
      </trkpt>
      <trkpt lat="45.38899" lon="4.10735">
        <ele>843</ele>
        <time>2012-03-26T07:26:08.000Z</time>
      </trkpt>
      <trkpt lat="45.38905" lon="4.10716">
        <ele>845</ele>
        <time>2012-03-26T07:26:12.000Z</time>
      </trkpt>
      <trkpt lat="45.38911" lon="4.10693">
        <ele>846</ele>
        <time>2012-03-26T07:26:16.000Z</time>
      </trkpt>
      <trkpt lat="45.38914" lon="4.10671">
        <ele>848</ele>
        <time>2012-03-26T07:26:20.000Z</time>
      </trkpt>
      <trkpt lat="45.38916" lon="4.1065">
        <ele>848</ele>
        <time>2012-03-26T07:26:24.000Z</time>
      </trkpt>
      <trkpt lat="45.38914" lon="4.10633">
        <ele>849</ele>
        <time>2012-03-26T07:26:28.000Z</time>
      </trkpt>
      <trkpt lat="45.3891" lon="4.10618">
        <ele>851</ele>
        <time>2012-03-26T07:26:32.000Z</time>
      </trkpt>
      <trkpt lat="45.38906" lon="4.106">
        <ele>849</ele>
        <time>2012-03-26T07:26:36.000Z</time>
      </trkpt>
      <trkpt lat="45.38903" lon="4.10584">
        <ele>851</ele>
        <time>2012-03-26T07:26:40.000Z</time>
      </trkpt>
      <trkpt lat="45.38903" lon="4.10568">
        <ele>851</ele>
        <time>2012-03-26T07:26:44.000Z</time>
      </trkpt>
      <trkpt lat="45.38905" lon="4.10551">
        <ele>852</ele>
        <time>2012-03-26T07:26:48.000Z</time>
      </trkpt>
      <trkpt lat="45.38909" lon="4.10532">
        <ele>852</ele>
        <time>2012-03-26T07:26:52.000Z</time>
      </trkpt>
      <trkpt lat="45.38912" lon="4.10513">
        <ele>852</ele>
        <time>2012-03-26T07:26:56.000Z</time>
      </trkpt>
      <trkpt lat="45.38913" lon="4.10492">
        <ele>855</ele>
        <time>2012-03-26T07:27:00.000Z</time>
      </trkpt>
      <trkpt lat="45.38911" lon="4.10471">
        <ele>856</ele>
        <time>2012-03-26T07:27:04.000Z</time>
      </trkpt>
      <trkpt lat="45.38909" lon="4.1045">
        <ele>855</ele>
        <time>2012-03-26T07:27:08.000Z</time>
      </trkpt>
      <trkpt lat="45.38905" lon="4.10427">
        <ele>855</ele>
        <time>2012-03-26T07:27:12.000Z</time>
      </trkpt>
      <trkpt lat="45.38899" lon="4.10405">
        <ele>856</ele>
        <time>2012-03-26T07:27:16.000Z</time>
      </trkpt>
      <trkpt lat="45.38896" lon="4.10382">
        <ele>855</ele>
        <time>2012-03-26T07:27:20.000Z</time>
      </trkpt>
      <trkpt lat="45.38894" lon="4.10358">
        <ele>857</ele>
        <time>2012-03-26T07:27:24.000Z</time>
      </trkpt>
      <trkpt lat="45.38894" lon="4.10335">
        <ele>857</ele>
        <time>2012-03-26T07:27:28.000Z</time>
      </trkpt>
      <trkpt lat="45.38895" lon="4.10313">
        <ele>858</ele>
        <time>2012-03-26T07:27:32.000Z</time>
      </trkpt>
      <trkpt lat="45.38897" lon="4.1029">
        <ele>858</ele>
        <time>2012-03-26T07:27:36.000Z</time>
      </trkpt>
      <trkpt lat="45.38899" lon="4.10268">
        <ele>858</ele>
        <time>2012-03-26T07:27:40.000Z</time>
      </trkpt>
      <trkpt lat="45.38902" lon="4.10247">
        <ele>858</ele>
        <time>2012-03-26T07:27:44.000Z</time>
      </trkpt>
      <trkpt lat="45.38905" lon="4.10227">
        <ele>860</ele>
        <time>2012-03-26T07:27:48.000Z</time>
      </trkpt>
      <trkpt lat="45.3891" lon="4.10207">
        <ele>860</ele>
        <time>2012-03-26T07:27:52.000Z</time>
      </trkpt>
      <trkpt lat="45.38915" lon="4.10187">
        <ele>861</ele>
        <time>2012-03-26T07:27:56.000Z</time>
      </trkpt>
      <trkpt lat="45.38922" lon="4.10166">
        <ele>860</ele>
        <time>2012-03-26T07:28:00.000Z</time>
      </trkpt>
      <trkpt lat="45.3893" lon="4.10145">
        <ele>859</ele>
        <time>2012-03-26T07:28:04.000Z</time>
      </trkpt>
      <trkpt lat="45.38935" lon="4.10133">
        <ele>858</ele>
        <time>2012-03-26T07:28:06.000Z</time>
      </trkpt>
      <trkpt lat="45.38941" lon="4.10121">
        <ele>858</ele>
        <time>2012-03-26T07:28:08.000Z</time>
      </trkpt>
      <trkpt lat="45.38949" lon="4.10107">
        <ele>857</ele>
        <time>2012-03-26T07:28:10.000Z</time>
      </trkpt>
      <trkpt lat="45.38956" lon="4.10092">
        <ele>858</ele>
        <time>2012-03-26T07:28:12.000Z</time>
      </trkpt>
      <trkpt lat="45.38965" lon="4.10075">
        <ele>856</ele>
        <time>2012-03-26T07:28:14.000Z</time>
      </trkpt>
      <trkpt lat="45.38976" lon="4.10058">
        <ele>854</ele>
        <time>2012-03-26T07:28:16.000Z</time>
      </trkpt>
      <trkpt lat="45.38988" lon="4.10043">
        <ele>852</ele>
        <time>2012-03-26T07:28:18.000Z</time>
      </trkpt>
      <trkpt lat="45.39" lon="4.10029">
        <ele>851</ele>
        <time>2012-03-26T07:28:20.000Z</time>
      </trkpt>
      <trkpt lat="45.39013" lon="4.10018">
        <ele>853</ele>
        <time>2012-03-26T07:28:22.000Z</time>
      </trkpt>
      <trkpt lat="45.39028" lon="4.10012">
        <ele>852</ele>
        <time>2012-03-26T07:28:24.000Z</time>
      </trkpt>
      <trkpt lat="45.39042" lon="4.10007">
        <ele>849</ele>
        <time>2012-03-26T07:28:26.000Z</time>
      </trkpt>
      <trkpt lat="45.39056" lon="4.10002">
        <ele>848</ele>
        <time>2012-03-26T07:28:28.000Z</time>
      </trkpt>
      <trkpt lat="45.39072" lon="4.09996">
        <ele>847</ele>
        <time>2012-03-26T07:28:30.000Z</time>
      </trkpt>
      <trkpt lat="45.39089" lon="4.0999">
        <ele>846</ele>
        <time>2012-03-26T07:28:32.000Z</time>
      </trkpt>
      <trkpt lat="45.39106" lon="4.09984">
        <ele>846</ele>
        <time>2012-03-26T07:28:34.000Z</time>
      </trkpt>
      <trkpt lat="45.3912" lon="4.09978">
        <ele>843</ele>
        <time>2012-03-26T07:28:36.000Z</time>
      </trkpt>
      <trkpt lat="45.39129" lon="4.09967">
        <ele>841</ele>
        <time>2012-03-26T07:28:38.000Z</time>
      </trkpt>
      <trkpt lat="45.39137" lon="4.09953">
        <ele>841</ele>
        <time>2012-03-26T07:28:40.000Z</time>
      </trkpt>
      <trkpt lat="45.39147" lon="4.09942">
        <ele>840</ele>
        <time>2012-03-26T07:28:42.000Z</time>
      </trkpt>
      <trkpt lat="45.3916" lon="4.09938">
        <ele>839</ele>
        <time>2012-03-26T07:28:44.000Z</time>
      </trkpt>
      <trkpt lat="45.39171" lon="4.09935">
        <ele>841</ele>
        <time>2012-03-26T07:28:46.000Z</time>
      </trkpt>
      <trkpt lat="45.39184" lon="4.0993">
        <ele>843</ele>
        <time>2012-03-26T07:28:49.000Z</time>
      </trkpt>
      <trkpt lat="45.39197" lon="4.09923">
        <ele>845</ele>
        <time>2012-03-26T07:28:53.000Z</time>
      </trkpt>
      <trkpt lat="45.3921" lon="4.09913">
        <ele>845</ele>
        <time>2012-03-26T07:28:57.000Z</time>
      </trkpt>
      <trkpt lat="45.39225" lon="4.09901">
        <ele>845</ele>
        <time>2012-03-26T07:29:01.000Z</time>
      </trkpt>
      <trkpt lat="45.3924" lon="4.09892">
        <ele>846</ele>
        <time>2012-03-26T07:29:05.000Z</time>
      </trkpt>
      <trkpt lat="45.39254" lon="4.09883">
        <ele>846</ele>
        <time>2012-03-26T07:29:09.000Z</time>
      </trkpt>
      <trkpt lat="45.39264" lon="4.09878">
        <ele>847</ele>
        <time>2012-03-26T07:29:12.000Z</time>
      </trkpt>
      <trkpt lat="45.39275" lon="4.09872">
        <ele>850</ele>
        <time>2012-03-26T07:29:16.000Z</time>
      </trkpt>
      <trkpt lat="45.39285" lon="4.09863">
        <ele>851</ele>
        <time>2012-03-26T07:29:20.000Z</time>
      </trkpt>
      <trkpt lat="45.39294" lon="4.09853">
        <ele>852</ele>
        <time>2012-03-26T07:29:24.000Z</time>
      </trkpt>
      <trkpt lat="45.39305" lon="4.09843">
        <ele>855</ele>
        <time>2012-03-26T07:29:28.000Z</time>
      </trkpt>
      <trkpt lat="45.39317" lon="4.0983">
        <ele>856</ele>
        <time>2012-03-26T07:29:32.000Z</time>
      </trkpt>
      <trkpt lat="45.39328" lon="4.09818">
        <ele>857</ele>
        <time>2012-03-26T07:29:35.000Z</time>
      </trkpt>
      <trkpt lat="45.39335" lon="4.09811">
        <ele>857</ele>
        <time>2012-03-26T07:29:37.000Z</time>
      </trkpt>
      <trkpt lat="45.39346" lon="4.09799">
        <ele>856</ele>
        <time>2012-03-26T07:29:40.000Z</time>
      </trkpt>
      <trkpt lat="45.39356" lon="4.09788">
        <ele>856</ele>
        <time>2012-03-26T07:29:43.000Z</time>
      </trkpt>
      <trkpt lat="45.39358" lon="4.09768">
        <ele>856</ele>
        <time>2012-03-26T07:29:47.000Z</time>
      </trkpt>
      <trkpt lat="45.39354" lon="4.09749">
        <ele>854</ele>
        <time>2012-03-26T07:29:51.000Z</time>
      </trkpt>
      <trkpt lat="45.39351" lon="4.09734">
        <ele>854</ele>
        <time>2012-03-26T07:29:55.000Z</time>
      </trkpt>
      <trkpt lat="45.39345" lon="4.09719">
        <ele>858</ele>
        <time>2012-03-26T07:30:00.000Z</time>
      </trkpt>
      <trkpt lat="45.39335" lon="4.09721">
        <ele>858</ele>
        <time>2012-03-26T07:30:04.000Z</time>
      </trkpt>
      <trkpt lat="45.39324" lon="4.0973">
        <ele>861</ele>
        <time>2012-03-26T07:30:08.000Z</time>
      </trkpt>
      <trkpt lat="45.39314" lon="4.09743">
        <ele>863</ele>
        <time>2012-03-26T07:30:12.000Z</time>
      </trkpt>
      <trkpt lat="45.39301" lon="4.09757">
        <ele>861</ele>
        <time>2012-03-26T07:30:16.000Z</time>
      </trkpt>
      <trkpt lat="45.39286" lon="4.09759">
        <ele>861</ele>
        <time>2012-03-26T07:30:20.000Z</time>
      </trkpt>
      <trkpt lat="45.39272" lon="4.09752">
        <ele>861</ele>
        <time>2012-03-26T07:30:24.000Z</time>
      </trkpt>
      <trkpt lat="45.39259" lon="4.09742">
        <ele>861</ele>
        <time>2012-03-26T07:30:28.000Z</time>
      </trkpt>
      <trkpt lat="45.39248" lon="4.0973">
        <ele>862</ele>
        <time>2012-03-26T07:30:32.000Z</time>
      </trkpt>
      <trkpt lat="45.39239" lon="4.09719">
        <ele>865</ele>
        <time>2012-03-26T07:30:36.000Z</time>
      </trkpt>
      <trkpt lat="45.39231" lon="4.09704">
        <ele>865</ele>
        <time>2012-03-26T07:30:40.000Z</time>
      </trkpt>
      <trkpt lat="45.39225" lon="4.09694">
        <ele>867</ele>
        <time>2012-03-26T07:30:44.000Z</time>
      </trkpt>
      <trkpt lat="45.39219" lon="4.0968">
        <ele>868</ele>
        <time>2012-03-26T07:30:49.000Z</time>
      </trkpt>
      <trkpt lat="45.39215" lon="4.09665">
        <ele>871</ele>
        <time>2012-03-26T07:30:55.000Z</time>
      </trkpt>
      <trkpt lat="45.39219" lon="4.09648">
        <ele>871</ele>
        <time>2012-03-26T07:31:01.000Z</time>
      </trkpt>
      <trkpt lat="45.39223" lon="4.09635">
        <ele>871</ele>
        <time>2012-03-26T07:31:05.000Z</time>
      </trkpt>
      <trkpt lat="45.39228" lon="4.09622">
        <ele>870</ele>
        <time>2012-03-26T07:31:10.000Z</time>
      </trkpt>
      <trkpt lat="45.39232" lon="4.09609">
        <ele>869</ele>
        <time>2012-03-26T07:31:14.000Z</time>
      </trkpt>
      <trkpt lat="45.39236" lon="4.09595">
        <ele>873</ele>
        <time>2012-03-26T07:31:18.000Z</time>
      </trkpt>
      <trkpt lat="45.39241" lon="4.09578">
        <ele>875</ele>
        <time>2012-03-26T07:31:22.000Z</time>
      </trkpt>
      <trkpt lat="45.39245" lon="4.09562">
        <ele>874</ele>
        <time>2012-03-26T07:31:26.000Z</time>
      </trkpt>
      <trkpt lat="45.3925" lon="4.09547">
        <ele>875</ele>
        <time>2012-03-26T07:31:30.000Z</time>
      </trkpt>
      <trkpt lat="45.39253" lon="4.09532">
        <ele>879</ele>
        <time>2012-03-26T07:31:34.000Z</time>
      </trkpt>
      <trkpt lat="45.39255" lon="4.09516">
        <ele>881</ele>
        <time>2012-03-26T07:31:38.000Z</time>
      </trkpt>
      <trkpt lat="45.39256" lon="4.09495">
        <ele>880</ele>
        <time>2012-03-26T07:31:42.000Z</time>
      </trkpt>
      <trkpt lat="45.39258" lon="4.09475">
        <ele>880</ele>
        <time>2012-03-26T07:31:46.000Z</time>
      </trkpt>
      <trkpt lat="45.39259" lon="4.09457">
        <ele>882</ele>
        <time>2012-03-26T07:31:50.000Z</time>
      </trkpt>
      <trkpt lat="45.39259" lon="4.09438">
        <ele>884</ele>
        <time>2012-03-26T07:31:54.000Z</time>
      </trkpt>
      <trkpt lat="45.39257" lon="4.09421">
        <ele>884</ele>
        <time>2012-03-26T07:31:58.000Z</time>
      </trkpt>
      <trkpt lat="45.39249" lon="4.09402">
        <ele>884</ele>
        <time>2012-03-26T07:32:02.000Z</time>
      </trkpt>
      <trkpt lat="45.39242" lon="4.09388">
        <ele>883</ele>
        <time>2012-03-26T07:32:06.000Z</time>
      </trkpt>
      <trkpt lat="45.39236" lon="4.09371">
        <ele>885</ele>
        <time>2012-03-26T07:32:10.000Z</time>
      </trkpt>
      <trkpt lat="45.39225" lon="4.09354">
        <ele>885</ele>
        <time>2012-03-26T07:32:14.000Z</time>
      </trkpt>
      <trkpt lat="45.39212" lon="4.09344">
        <ele>884</ele>
        <time>2012-03-26T07:32:18.000Z</time>
      </trkpt>
      <trkpt lat="45.39198" lon="4.09337">
        <ele>884</ele>
        <time>2012-03-26T07:32:22.000Z</time>
      </trkpt>
      <trkpt lat="45.39185" lon="4.09332">
        <ele>884</ele>
        <time>2012-03-26T07:32:25.000Z</time>
      </trkpt>
      <trkpt lat="45.39176" lon="4.09331">
        <ele>884</ele>
        <time>2012-03-26T07:32:27.000Z</time>
      </trkpt>
      <trkpt lat="45.39167" lon="4.09329">
        <ele>883</ele>
        <time>2012-03-26T07:32:29.000Z</time>
      </trkpt>
      <trkpt lat="45.39153" lon="4.09328">
        <ele>884</ele>
        <time>2012-03-26T07:32:32.000Z</time>
      </trkpt>
      <trkpt lat="45.39143" lon="4.09329">
        <ele>885</ele>
        <time>2012-03-26T07:32:34.000Z</time>
      </trkpt>
      <trkpt lat="45.3913" lon="4.0933">
        <ele>886</ele>
        <time>2012-03-26T07:32:37.000Z</time>
      </trkpt>
      <trkpt lat="45.39117" lon="4.0933">
        <ele>885</ele>
        <time>2012-03-26T07:32:41.000Z</time>
      </trkpt>
      <trkpt lat="45.39121" lon="4.09313">
        <ele>886</ele>
        <time>2012-03-26T07:32:48.000Z</time>
      </trkpt>
      <trkpt lat="45.39137" lon="4.09301">
        <ele>885</ele>
        <time>2012-03-26T07:32:52.000Z</time>
      </trkpt>
      <trkpt lat="45.39145" lon="4.09295">
        <ele>883</ele>
        <time>2012-03-26T07:32:54.000Z</time>
      </trkpt>
      <trkpt lat="45.39154" lon="4.09288">
        <ele>882</ele>
        <time>2012-03-26T07:32:56.000Z</time>
      </trkpt>
      <trkpt lat="45.39164" lon="4.0928">
        <ele>882</ele>
        <time>2012-03-26T07:32:58.000Z</time>
      </trkpt>
      <trkpt lat="45.39173" lon="4.09271">
        <ele>883</ele>
        <time>2012-03-26T07:33:00.000Z</time>
      </trkpt>
      <trkpt lat="45.39183" lon="4.09261">
        <ele>884</ele>
        <time>2012-03-26T07:33:02.000Z</time>
      </trkpt>
      <trkpt lat="45.39193" lon="4.0925">
        <ele>883</ele>
        <time>2012-03-26T07:33:04.000Z</time>
      </trkpt>
      <trkpt lat="45.39204" lon="4.09239">
        <ele>882</ele>
        <time>2012-03-26T07:33:06.000Z</time>
      </trkpt>
      <trkpt lat="45.39214" lon="4.09226">
        <ele>882</ele>
        <time>2012-03-26T07:33:08.000Z</time>
      </trkpt>
      <trkpt lat="45.39225" lon="4.09212">
        <ele>879</ele>
        <time>2012-03-26T07:33:10.000Z</time>
      </trkpt>
      <trkpt lat="45.39239" lon="4.09198">
        <ele>877</ele>
        <time>2012-03-26T07:33:12.000Z</time>
      </trkpt>
      <trkpt lat="45.39247" lon="4.0919">
        <ele>875</ele>
        <time>2012-03-26T07:33:13.000Z</time>
      </trkpt>
      <trkpt lat="45.39254" lon="4.09182">
        <ele>874</ele>
        <time>2012-03-26T07:33:14.000Z</time>
      </trkpt>
      <trkpt lat="45.39269" lon="4.09169">
        <ele>872</ele>
        <time>2012-03-26T07:33:16.000Z</time>
      </trkpt>
      <trkpt lat="45.39276" lon="4.09162">
        <ele>871</ele>
        <time>2012-03-26T07:33:17.000Z</time>
      </trkpt>
      <trkpt lat="45.39291" lon="4.09148">
        <ele>870</ele>
        <time>2012-03-26T07:33:19.000Z</time>
      </trkpt>
      <trkpt lat="45.39298" lon="4.0914">
        <ele>870</ele>
        <time>2012-03-26T07:33:20.000Z</time>
      </trkpt>
      <trkpt lat="45.39305" lon="4.09131">
        <ele>870</ele>
        <time>2012-03-26T07:33:21.000Z</time>
      </trkpt>
      <trkpt lat="45.39312" lon="4.09121">
        <ele>869</ele>
        <time>2012-03-26T07:33:22.000Z</time>
      </trkpt>
      <trkpt lat="45.39318" lon="4.09111">
        <ele>867</ele>
        <time>2012-03-26T07:33:23.000Z</time>
      </trkpt>
      <trkpt lat="45.39323" lon="4.09101">
        <ele>867</ele>
        <time>2012-03-26T07:33:24.000Z</time>
      </trkpt>
      <trkpt lat="45.39328" lon="4.09089">
        <ele>866</ele>
        <time>2012-03-26T07:33:25.000Z</time>
      </trkpt>
      <trkpt lat="45.39334" lon="4.09076">
        <ele>866</ele>
        <time>2012-03-26T07:33:26.000Z</time>
      </trkpt>
      <trkpt lat="45.39339" lon="4.09064">
        <ele>865</ele>
        <time>2012-03-26T07:33:27.000Z</time>
      </trkpt>
      <trkpt lat="45.39344" lon="4.09052">
        <ele>864</ele>
        <time>2012-03-26T07:33:28.000Z</time>
      </trkpt>
      <trkpt lat="45.39349" lon="4.09039">
        <ele>861</ele>
        <time>2012-03-26T07:33:29.000Z</time>
      </trkpt>
      <trkpt lat="45.39358" lon="4.09018">
        <ele>861</ele>
        <time>2012-03-26T07:33:31.000Z</time>
      </trkpt>
      <trkpt lat="45.39364" lon="4.09009">
        <ele>860</ele>
        <time>2012-03-26T07:33:32.000Z</time>
      </trkpt>
      <trkpt lat="45.39371" lon="4.08999">
        <ele>859</ele>
        <time>2012-03-26T07:33:33.000Z</time>
      </trkpt>
      <trkpt lat="45.39379" lon="4.08989">
        <ele>857</ele>
        <time>2012-03-26T07:33:34.000Z</time>
      </trkpt>
      <trkpt lat="45.39388" lon="4.0898">
        <ele>856</ele>
        <time>2012-03-26T07:33:35.000Z</time>
      </trkpt>
      <trkpt lat="45.39396" lon="4.0897">
        <ele>855</ele>
        <time>2012-03-26T07:33:36.000Z</time>
      </trkpt>
      <trkpt lat="45.39404" lon="4.0896">
        <ele>854</ele>
        <time>2012-03-26T07:33:37.000Z</time>
      </trkpt>
      <trkpt lat="45.39413" lon="4.08949">
        <ele>853</ele>
        <time>2012-03-26T07:33:38.000Z</time>
      </trkpt>
      <trkpt lat="45.39422" lon="4.08939">
        <ele>852</ele>
        <time>2012-03-26T07:33:39.000Z</time>
      </trkpt>
      <trkpt lat="45.3943" lon="4.08928">
        <ele>851</ele>
        <time>2012-03-26T07:33:40.000Z</time>
      </trkpt>
      <trkpt lat="45.39438" lon="4.08918">
        <ele>851</ele>
        <time>2012-03-26T07:33:41.000Z</time>
      </trkpt>
      <trkpt lat="45.39447" lon="4.08909">
        <ele>851</ele>
        <time>2012-03-26T07:33:42.000Z</time>
      </trkpt>
      <trkpt lat="45.39456" lon="4.089">
        <ele>850</ele>
        <time>2012-03-26T07:33:43.000Z</time>
      </trkpt>
      <trkpt lat="45.39465" lon="4.08892">
        <ele>848</ele>
        <time>2012-03-26T07:33:44.000Z</time>
      </trkpt>
      <trkpt lat="45.39474" lon="4.08885">
        <ele>845</ele>
        <time>2012-03-26T07:33:45.000Z</time>
      </trkpt>
      <trkpt lat="45.39484" lon="4.08879">
        <ele>843</ele>
        <time>2012-03-26T07:33:46.000Z</time>
      </trkpt>
      <trkpt lat="45.39495" lon="4.08873">
        <ele>840</ele>
        <time>2012-03-26T07:33:47.000Z</time>
      </trkpt>
      <trkpt lat="45.39506" lon="4.08868">
        <ele>839</ele>
        <time>2012-03-26T07:33:48.000Z</time>
      </trkpt>
      <trkpt lat="45.39517" lon="4.08863">
        <ele>837</ele>
        <time>2012-03-26T07:33:49.000Z</time>
      </trkpt>
      <trkpt lat="45.39528" lon="4.0886">
        <ele>836</ele>
        <time>2012-03-26T07:33:50.000Z</time>
      </trkpt>
      <trkpt lat="45.39538" lon="4.08857">
        <ele>835</ele>
        <time>2012-03-26T07:33:51.000Z</time>
      </trkpt>
      <trkpt lat="45.39548" lon="4.08855">
        <ele>834</ele>
        <time>2012-03-26T07:33:52.000Z</time>
      </trkpt>
      <trkpt lat="45.39561" lon="4.08854">
        <ele>833</ele>
        <time>2012-03-26T07:33:54.000Z</time>
      </trkpt>
      <trkpt lat="45.39552" lon="4.08852">
        <ele>834</ele>
        <time>2012-03-26T07:34:04.000Z</time>
      </trkpt>
      <trkpt lat="45.39536" lon="4.08849">
        <ele>834</ele>
        <time>2012-03-26T07:34:08.000Z</time>
      </trkpt>
      <trkpt lat="45.3952" lon="4.08853">
        <ele>835</ele>
        <time>2012-03-26T07:34:12.000Z</time>
      </trkpt>
      <trkpt lat="45.39508" lon="4.08857">
        <ele>836</ele>
        <time>2012-03-26T07:34:16.000Z</time>
      </trkpt>
      <trkpt lat="45.39494" lon="4.0886">
        <ele>837</ele>
        <time>2012-03-26T07:34:20.000Z</time>
      </trkpt>
      <trkpt lat="45.39481" lon="4.08862">
        <ele>837</ele>
        <time>2012-03-26T07:34:24.000Z</time>
      </trkpt>
      <trkpt lat="45.39467" lon="4.08864">
        <ele>836</ele>
        <time>2012-03-26T07:34:28.000Z</time>
      </trkpt>
      <trkpt lat="45.39453" lon="4.08866">
        <ele>838</ele>
        <time>2012-03-26T07:34:32.000Z</time>
      </trkpt>
      <trkpt lat="45.39441" lon="4.0887">
        <ele>838</ele>
        <time>2012-03-26T07:34:36.000Z</time>
      </trkpt>
      <trkpt lat="45.3943" lon="4.08875">
        <ele>840</ele>
        <time>2012-03-26T07:34:40.000Z</time>
      </trkpt>
      <trkpt lat="45.3942" lon="4.08881">
        <ele>841</ele>
        <time>2012-03-26T07:34:44.000Z</time>
      </trkpt>
      <trkpt lat="45.39409" lon="4.08888">
        <ele>841</ele>
        <time>2012-03-26T07:34:48.000Z</time>
      </trkpt>
      <trkpt lat="45.39399" lon="4.08894">
        <ele>842</ele>
        <time>2012-03-26T07:34:52.000Z</time>
      </trkpt>
      <trkpt lat="45.39389" lon="4.089">
        <ele>844</ele>
        <time>2012-03-26T07:34:56.000Z</time>
      </trkpt>
      <trkpt lat="45.39377" lon="4.08906">
        <ele>844</ele>
        <time>2012-03-26T07:35:00.000Z</time>
      </trkpt>
      <trkpt lat="45.39365" lon="4.08911">
        <ele>844</ele>
        <time>2012-03-26T07:35:04.000Z</time>
      </trkpt>
      <trkpt lat="45.39354" lon="4.08916">
        <ele>845</ele>
        <time>2012-03-26T07:35:08.000Z</time>
      </trkpt>
      <trkpt lat="45.39343" lon="4.08922">
        <ele>849</ele>
        <time>2012-03-26T07:35:12.000Z</time>
      </trkpt>
      <trkpt lat="45.39333" lon="4.08928">
        <ele>849</ele>
        <time>2012-03-26T07:35:16.000Z</time>
      </trkpt>
      <trkpt lat="45.39325" lon="4.08936">
        <ele>851</ele>
        <time>2012-03-26T07:35:20.000Z</time>
      </trkpt>
      <trkpt lat="45.39317" lon="4.08944">
        <ele>851</ele>
        <time>2012-03-26T07:35:24.000Z</time>
      </trkpt>
      <trkpt lat="45.39309" lon="4.08952">
        <ele>852</ele>
        <time>2012-03-26T07:35:28.000Z</time>
      </trkpt>
      <trkpt lat="45.39299" lon="4.08959">
        <ele>850</ele>
        <time>2012-03-26T07:35:32.000Z</time>
      </trkpt>
      <trkpt lat="45.39288" lon="4.08966">
        <ele>851</ele>
        <time>2012-03-26T07:35:36.000Z</time>
      </trkpt>
      <trkpt lat="45.39273" lon="4.08974">
        <ele>850</ele>
        <time>2012-03-26T07:35:40.000Z</time>
      </trkpt>
      <trkpt lat="45.3926" lon="4.08981">
        <ele>849</ele>
        <time>2012-03-26T07:35:43.000Z</time>
      </trkpt>
      <trkpt lat="45.39251" lon="4.08986">
        <ele>849</ele>
        <time>2012-03-26T07:35:45.000Z</time>
      </trkpt>
      <trkpt lat="45.39241" lon="4.08989">
        <ele>849</ele>
        <time>2012-03-26T07:35:47.000Z</time>
      </trkpt>
      <trkpt lat="45.39232" lon="4.08992">
        <ele>849</ele>
        <time>2012-03-26T07:35:49.000Z</time>
      </trkpt>
      <trkpt lat="45.39222" lon="4.08993">
        <ele>849</ele>
        <time>2012-03-26T07:35:51.000Z</time>
      </trkpt>
      <trkpt lat="45.39212" lon="4.08994">
        <ele>850</ele>
        <time>2012-03-26T07:35:53.000Z</time>
      </trkpt>
      <trkpt lat="45.39199" lon="4.08994">
        <ele>850</ele>
        <time>2012-03-26T07:35:56.000Z</time>
      </trkpt>
      <trkpt lat="45.39189" lon="4.08994">
        <ele>851</ele>
        <time>2012-03-26T07:35:58.000Z</time>
      </trkpt>
      <trkpt lat="45.3918" lon="4.08993">
        <ele>850</ele>
        <time>2012-03-26T07:36:00.000Z</time>
      </trkpt>
      <trkpt lat="45.39166" lon="4.08993">
        <ele>852</ele>
        <time>2012-03-26T07:36:03.000Z</time>
      </trkpt>
      <trkpt lat="45.39153" lon="4.08993">
        <ele>851</ele>
        <time>2012-03-26T07:36:06.000Z</time>
      </trkpt>
      <trkpt lat="45.39136" lon="4.08993">
        <ele>852</ele>
        <time>2012-03-26T07:36:10.000Z</time>
      </trkpt>
      <trkpt lat="45.39119" lon="4.08992">
        <ele>854</ele>
        <time>2012-03-26T07:36:14.000Z</time>
      </trkpt>
      <trkpt lat="45.39104" lon="4.08984">
        <ele>853</ele>
        <time>2012-03-26T07:36:18.000Z</time>
      </trkpt>
      <trkpt lat="45.3909" lon="4.08977">
        <ele>853</ele>
        <time>2012-03-26T07:36:22.000Z</time>
      </trkpt>
      <trkpt lat="45.39077" lon="4.08971">
        <ele>857</ele>
        <time>2012-03-26T07:36:26.000Z</time>
      </trkpt>
      <trkpt lat="45.39064" lon="4.08966">
        <ele>859</ele>
        <time>2012-03-26T07:36:30.000Z</time>
      </trkpt>
      <trkpt lat="45.39052" lon="4.08966">
        <ele>865</ele>
        <time>2012-03-26T07:36:34.000Z</time>
      </trkpt>
      <trkpt lat="45.39037" lon="4.08967">
        <ele>864</ele>
        <time>2012-03-26T07:36:38.000Z</time>
      </trkpt>
      <trkpt lat="45.39022" lon="4.08971">
        <ele>863</ele>
        <time>2012-03-26T07:36:42.000Z</time>
      </trkpt>
      <trkpt lat="45.3901" lon="4.08979">
        <ele>863</ele>
        <time>2012-03-26T07:36:46.000Z</time>
      </trkpt>
      <trkpt lat="45.38999" lon="4.08991">
        <ele>862</ele>
        <time>2012-03-26T07:36:50.000Z</time>
      </trkpt>
      <trkpt lat="45.38988" lon="4.09003">
        <ele>862</ele>
        <time>2012-03-26T07:36:54.000Z</time>
      </trkpt>
      <trkpt lat="45.38978" lon="4.09015">
        <ele>863</ele>
        <time>2012-03-26T07:36:58.000Z</time>
      </trkpt>
      <trkpt lat="45.38965" lon="4.09028">
        <ele>864</ele>
        <time>2012-03-26T07:37:02.000Z</time>
      </trkpt>
      <trkpt lat="45.38953" lon="4.09037">
        <ele>863</ele>
        <time>2012-03-26T07:37:05.000Z</time>
      </trkpt>
      <trkpt lat="45.38941" lon="4.09043">
        <ele>863</ele>
        <time>2012-03-26T07:37:07.000Z</time>
      </trkpt>
      <trkpt lat="45.38929" lon="4.09044">
        <ele>863</ele>
        <time>2012-03-26T07:37:09.000Z</time>
      </trkpt>
      <trkpt lat="45.38916" lon="4.09044">
        <ele>862</ele>
        <time>2012-03-26T07:37:11.000Z</time>
      </trkpt>
      <trkpt lat="45.38904" lon="4.09044">
        <ele>860</ele>
        <time>2012-03-26T07:37:13.000Z</time>
      </trkpt>
      <trkpt lat="45.38891" lon="4.09047">
        <ele>858</ele>
        <time>2012-03-26T07:37:15.000Z</time>
      </trkpt>
      <trkpt lat="45.38876" lon="4.09051">
        <ele>857</ele>
        <time>2012-03-26T07:37:17.000Z</time>
      </trkpt>
      <trkpt lat="45.38862" lon="4.09052">
        <ele>857</ele>
        <time>2012-03-26T07:37:19.000Z</time>
      </trkpt>
      <trkpt lat="45.38849" lon="4.0905">
        <ele>858</ele>
        <time>2012-03-26T07:37:21.000Z</time>
      </trkpt>
      <trkpt lat="45.38837" lon="4.09047">
        <ele>858</ele>
        <time>2012-03-26T07:37:23.000Z</time>
      </trkpt>
      <trkpt lat="45.38824" lon="4.09043">
        <ele>855</ele>
        <time>2012-03-26T07:37:25.000Z</time>
      </trkpt>
      <trkpt lat="45.38808" lon="4.09035">
        <ele>854</ele>
        <time>2012-03-26T07:37:27.000Z</time>
      </trkpt>
      <trkpt lat="45.38792" lon="4.09024">
        <ele>852</ele>
        <time>2012-03-26T07:37:29.000Z</time>
      </trkpt>
      <trkpt lat="45.38776" lon="4.09014">
        <ele>853</ele>
        <time>2012-03-26T07:37:31.000Z</time>
      </trkpt>
      <trkpt lat="45.38763" lon="4.09007">
        <ele>853</ele>
        <time>2012-03-26T07:37:33.000Z</time>
      </trkpt>
      <trkpt lat="45.38752" lon="4.09002">
        <ele>854</ele>
        <time>2012-03-26T07:37:35.000Z</time>
      </trkpt>
      <trkpt lat="45.38742" lon="4.08998">
        <ele>855</ele>
        <time>2012-03-26T07:37:37.000Z</time>
      </trkpt>
      <trkpt lat="45.3873" lon="4.08988">
        <ele>855</ele>
        <time>2012-03-26T07:37:41.000Z</time>
      </trkpt>
      <trkpt lat="45.38724" lon="4.08976">
        <ele>859</ele>
        <time>2012-03-26T07:37:45.000Z</time>
      </trkpt>
      <trkpt lat="45.38716" lon="4.08963">
        <ele>862</ele>
        <time>2012-03-26T07:37:49.000Z</time>
      </trkpt>
      <trkpt lat="45.38706" lon="4.08949">
        <ele>862</ele>
        <time>2012-03-26T07:37:53.000Z</time>
      </trkpt>
      <trkpt lat="45.38699" lon="4.08934">
        <ele>863</ele>
        <time>2012-03-26T07:37:57.000Z</time>
      </trkpt>
      <trkpt lat="45.38694" lon="4.08917">
        <ele>864</ele>
        <time>2012-03-26T07:38:01.000Z</time>
      </trkpt>
      <trkpt lat="45.38688" lon="4.08901">
        <ele>865</ele>
        <time>2012-03-26T07:38:05.000Z</time>
      </trkpt>
      <trkpt lat="45.3868" lon="4.08886">
        <ele>865</ele>
        <time>2012-03-26T07:38:09.000Z</time>
      </trkpt>
      <trkpt lat="45.38674" lon="4.08868">
        <ele>865</ele>
        <time>2012-03-26T07:38:12.000Z</time>
      </trkpt>
      <trkpt lat="45.38669" lon="4.08853">
        <ele>862</ele>
        <time>2012-03-26T07:38:14.000Z</time>
      </trkpt>
      <trkpt lat="45.38664" lon="4.08837">
        <ele>862</ele>
        <time>2012-03-26T07:38:16.000Z</time>
      </trkpt>
      <trkpt lat="45.3866" lon="4.08819">
        <ele>862</ele>
        <time>2012-03-26T07:38:18.000Z</time>
      </trkpt>
      <trkpt lat="45.38659" lon="4.088">
        <ele>859</ele>
        <time>2012-03-26T07:38:20.000Z</time>
      </trkpt>
      <trkpt lat="45.38661" lon="4.08778">
        <ele>857</ele>
        <time>2012-03-26T07:38:22.000Z</time>
      </trkpt>
      <trkpt lat="45.38669" lon="4.08756">
        <ele>856</ele>
        <time>2012-03-26T07:38:24.000Z</time>
      </trkpt>
      <trkpt lat="45.38677" lon="4.08736">
        <ele>857</ele>
        <time>2012-03-26T07:38:26.000Z</time>
      </trkpt>
      <trkpt lat="45.38686" lon="4.08716">
        <ele>857</ele>
        <time>2012-03-26T07:38:28.000Z</time>
      </trkpt>
      <trkpt lat="45.38687" lon="4.08694">
        <ele>855</ele>
        <time>2012-03-26T07:38:30.000Z</time>
      </trkpt>
      <trkpt lat="45.38684" lon="4.08672">
        <ele>853</ele>
        <time>2012-03-26T07:38:32.000Z</time>
      </trkpt>
      <trkpt lat="45.38674" lon="4.0865">
        <ele>854</ele>
        <time>2012-03-26T07:38:34.000Z</time>
      </trkpt>
      <trkpt lat="45.38668" lon="4.08641">
        <ele>855</ele>
        <time>2012-03-26T07:38:35.000Z</time>
      </trkpt>
      <trkpt lat="45.38662" lon="4.08631">
        <ele>856</ele>
        <time>2012-03-26T07:38:36.000Z</time>
      </trkpt>
      <trkpt lat="45.38656" lon="4.08622">
        <ele>858</ele>
        <time>2012-03-26T07:38:37.000Z</time>
      </trkpt>
      <trkpt lat="45.38649" lon="4.08613">
        <ele>858</ele>
        <time>2012-03-26T07:38:38.000Z</time>
      </trkpt>
      <trkpt lat="45.38641" lon="4.08605">
        <ele>857</ele>
        <time>2012-03-26T07:38:39.000Z</time>
      </trkpt>
      <trkpt lat="45.38634" lon="4.08597">
        <ele>857</ele>
        <time>2012-03-26T07:38:40.000Z</time>
      </trkpt>
      <trkpt lat="45.38626" lon="4.0859">
        <ele>855</ele>
        <time>2012-03-26T07:38:41.000Z</time>
      </trkpt>
      <trkpt lat="45.38618" lon="4.08584">
        <ele>854</ele>
        <time>2012-03-26T07:38:42.000Z</time>
      </trkpt>
      <trkpt lat="45.3861" lon="4.08578">
        <ele>852</ele>
        <time>2012-03-26T07:38:43.000Z</time>
      </trkpt>
      <trkpt lat="45.38594" lon="4.08568">
        <ele>850</ele>
        <time>2012-03-26T07:38:45.000Z</time>
      </trkpt>
      <trkpt lat="45.38578" lon="4.08557">
        <ele>849</ele>
        <time>2012-03-26T07:38:47.000Z</time>
      </trkpt>
      <trkpt lat="45.38572" lon="4.08547">
        <ele>849</ele>
        <time>2012-03-26T07:38:48.000Z</time>
      </trkpt>
      <trkpt lat="45.38567" lon="4.08536">
        <ele>848</ele>
        <time>2012-03-26T07:38:49.000Z</time>
      </trkpt>
      <trkpt lat="45.38563" lon="4.08523">
        <ele>848</ele>
        <time>2012-03-26T07:38:50.000Z</time>
      </trkpt>
      <trkpt lat="45.38562" lon="4.08509">
        <ele>847</ele>
        <time>2012-03-26T07:38:51.000Z</time>
      </trkpt>
      <trkpt lat="45.38563" lon="4.08496">
        <ele>846</ele>
        <time>2012-03-26T07:38:52.000Z</time>
      </trkpt>
      <trkpt lat="45.38565" lon="4.08482">
        <ele>847</ele>
        <time>2012-03-26T07:38:53.000Z</time>
      </trkpt>
      <trkpt lat="45.38571" lon="4.08471">
        <ele>846</ele>
        <time>2012-03-26T07:38:54.000Z</time>
      </trkpt>
      <trkpt lat="45.38576" lon="4.08461">
        <ele>845</ele>
        <time>2012-03-26T07:38:55.000Z</time>
      </trkpt>
      <trkpt lat="45.3859" lon="4.08448">
        <ele>843</ele>
        <time>2012-03-26T07:38:57.000Z</time>
      </trkpt>
      <trkpt lat="45.38605" lon="4.08437">
        <ele>842</ele>
        <time>2012-03-26T07:38:59.000Z</time>
      </trkpt>
      <trkpt lat="45.38619" lon="4.08427">
        <ele>839</ele>
        <time>2012-03-26T07:39:01.000Z</time>
      </trkpt>
      <trkpt lat="45.38633" lon="4.0842">
        <ele>840</ele>
        <time>2012-03-26T07:39:03.000Z</time>
      </trkpt>
      <trkpt lat="45.38646" lon="4.08414">
        <ele>840</ele>
        <time>2012-03-26T07:39:05.000Z</time>
      </trkpt>
      <trkpt lat="45.38659" lon="4.08409">
        <ele>840</ele>
        <time>2012-03-26T07:39:07.000Z</time>
      </trkpt>
      <trkpt lat="45.3867" lon="4.08404">
        <ele>840</ele>
        <time>2012-03-26T07:39:09.000Z</time>
      </trkpt>
      <trkpt lat="45.3868" lon="4.08399">
        <ele>840</ele>
        <time>2012-03-26T07:39:11.000Z</time>
      </trkpt>
      <trkpt lat="45.38693" lon="4.08394">
        <ele>843</ele>
        <time>2012-03-26T07:39:15.000Z</time>
      </trkpt>
      <trkpt lat="45.38703" lon="4.08391">
        <ele>845</ele>
        <time>2012-03-26T07:39:19.000Z</time>
      </trkpt>
      <trkpt lat="45.38714" lon="4.08386">
        <ele>846</ele>
        <time>2012-03-26T07:39:23.000Z</time>
      </trkpt>
      <trkpt lat="45.38723" lon="4.0838">
        <ele>847</ele>
        <time>2012-03-26T07:39:27.000Z</time>
      </trkpt>
      <trkpt lat="45.38733" lon="4.08374">
        <ele>848</ele>
        <time>2012-03-26T07:39:31.000Z</time>
      </trkpt>
      <trkpt lat="45.38743" lon="4.08369">
        <ele>850</ele>
        <time>2012-03-26T07:39:35.000Z</time>
      </trkpt>
      <trkpt lat="45.38753" lon="4.0836">
        <ele>850</ele>
        <time>2012-03-26T07:39:39.000Z</time>
      </trkpt>
      <trkpt lat="45.38763" lon="4.0835">
        <ele>851</ele>
        <time>2012-03-26T07:39:43.000Z</time>
      </trkpt>
      <trkpt lat="45.38772" lon="4.08336">
        <ele>851</ele>
        <time>2012-03-26T07:39:47.000Z</time>
      </trkpt>
      <trkpt lat="45.38779" lon="4.08319">
        <ele>853</ele>
        <time>2012-03-26T07:39:51.000Z</time>
      </trkpt>
      <trkpt lat="45.38785" lon="4.08299">
        <ele>854</ele>
        <time>2012-03-26T07:39:55.000Z</time>
      </trkpt>
      <trkpt lat="45.38796" lon="4.08285">
        <ele>853</ele>
        <time>2012-03-26T07:39:59.000Z</time>
      </trkpt>
      <trkpt lat="45.3881" lon="4.08274">
        <ele>854</ele>
        <time>2012-03-26T07:40:03.000Z</time>
      </trkpt>
      <trkpt lat="45.38825" lon="4.08264">
        <ele>852</ele>
        <time>2012-03-26T07:40:07.000Z</time>
      </trkpt>
      <trkpt lat="45.38835" lon="4.08256">
        <ele>854</ele>
        <time>2012-03-26T07:40:10.000Z</time>
      </trkpt>
      <trkpt lat="45.38845" lon="4.08241">
        <ele>854</ele>
        <time>2012-03-26T07:40:14.000Z</time>
      </trkpt>
      <trkpt lat="45.38854" lon="4.08224">
        <ele>855</ele>
        <time>2012-03-26T07:40:18.000Z</time>
      </trkpt>
      <trkpt lat="45.38864" lon="4.08207">
        <ele>854</ele>
        <time>2012-03-26T07:40:22.000Z</time>
      </trkpt>
      <trkpt lat="45.38874" lon="4.08193">
        <ele>854</ele>
        <time>2012-03-26T07:40:25.000Z</time>
      </trkpt>
      <trkpt lat="45.38885" lon="4.08178">
        <ele>855</ele>
        <time>2012-03-26T07:40:29.000Z</time>
      </trkpt>
      <trkpt lat="45.38895" lon="4.08166">
        <ele>856</ele>
        <time>2012-03-26T07:40:33.000Z</time>
      </trkpt>
      <trkpt lat="45.38906" lon="4.08152">
        <ele>857</ele>
        <time>2012-03-26T07:40:37.000Z</time>
      </trkpt>
      <trkpt lat="45.38917" lon="4.08138">
        <ele>857</ele>
        <time>2012-03-26T07:40:41.000Z</time>
      </trkpt>
      <trkpt lat="45.38926" lon="4.08124">
        <ele>859</ele>
        <time>2012-03-26T07:40:45.000Z</time>
      </trkpt>
      <trkpt lat="45.38935" lon="4.0811">
        <ele>860</ele>
        <time>2012-03-26T07:40:49.000Z</time>
      </trkpt>
      <trkpt lat="45.38942" lon="4.08098">
        <ele>861</ele>
        <time>2012-03-26T07:40:53.000Z</time>
      </trkpt>
      <trkpt lat="45.3895" lon="4.08085">
        <ele>862</ele>
        <time>2012-03-26T07:40:57.000Z</time>
      </trkpt>
      <trkpt lat="45.38958" lon="4.08072">
        <ele>863</ele>
        <time>2012-03-26T07:41:01.000Z</time>
      </trkpt>
      <trkpt lat="45.38968" lon="4.08061">
        <ele>863</ele>
        <time>2012-03-26T07:41:05.000Z</time>
      </trkpt>
      <trkpt lat="45.38979" lon="4.08054">
        <ele>865</ele>
        <time>2012-03-26T07:41:09.000Z</time>
      </trkpt>
      <trkpt lat="45.38994" lon="4.08049">
        <ele>866</ele>
        <time>2012-03-26T07:41:14.000Z</time>
      </trkpt>
      <trkpt lat="45.39006" lon="4.08047">
        <ele>867</ele>
        <time>2012-03-26T07:41:18.000Z</time>
      </trkpt>
      <trkpt lat="45.39016" lon="4.08045">
        <ele>869</ele>
        <time>2012-03-26T07:41:22.000Z</time>
      </trkpt>
      <trkpt lat="45.39026" lon="4.08044">
        <ele>869</ele>
        <time>2012-03-26T07:41:26.000Z</time>
      </trkpt>
      <trkpt lat="45.39036" lon="4.08041">
        <ele>871</ele>
        <time>2012-03-26T07:41:30.000Z</time>
      </trkpt>
      <trkpt lat="45.39046" lon="4.08039">
        <ele>872</ele>
        <time>2012-03-26T07:41:34.000Z</time>
      </trkpt>
      <trkpt lat="45.39056" lon="4.08037">
        <ele>873</ele>
        <time>2012-03-26T07:41:38.000Z</time>
      </trkpt>
      <trkpt lat="45.39066" lon="4.08035">
        <ele>873</ele>
        <time>2012-03-26T07:41:42.000Z</time>
      </trkpt>
      <trkpt lat="45.39077" lon="4.08031">
        <ele>873</ele>
        <time>2012-03-26T07:41:46.000Z</time>
      </trkpt>
      <trkpt lat="45.39088" lon="4.08027">
        <ele>873</ele>
        <time>2012-03-26T07:41:50.000Z</time>
      </trkpt>
      <trkpt lat="45.391" lon="4.0802">
        <ele>874</ele>
        <time>2012-03-26T07:41:54.000Z</time>
      </trkpt>
      <trkpt lat="45.39113" lon="4.08012">
        <ele>875</ele>
        <time>2012-03-26T07:41:58.000Z</time>
      </trkpt>
      <trkpt lat="45.39126" lon="4.08002">
        <ele>876</ele>
        <time>2012-03-26T07:42:02.000Z</time>
      </trkpt>
      <trkpt lat="45.3914" lon="4.07988">
        <ele>875</ele>
        <time>2012-03-26T07:42:06.000Z</time>
      </trkpt>
      <trkpt lat="45.39146" lon="4.07979">
        <ele>874</ele>
        <time>2012-03-26T07:42:08.000Z</time>
      </trkpt>
      <trkpt lat="45.39153" lon="4.07969">
        <ele>874</ele>
        <time>2012-03-26T07:42:10.000Z</time>
      </trkpt>
      <trkpt lat="45.39157" lon="4.07955">
        <ele>875</ele>
        <time>2012-03-26T07:42:12.000Z</time>
      </trkpt>
      <trkpt lat="45.39162" lon="4.07938">
        <ele>874</ele>
        <time>2012-03-26T07:42:14.000Z</time>
      </trkpt>
      <trkpt lat="45.39166" lon="4.07921">
        <ele>873</ele>
        <time>2012-03-26T07:42:16.000Z</time>
      </trkpt>
      <trkpt lat="45.39169" lon="4.07902">
        <ele>873</ele>
        <time>2012-03-26T07:42:18.000Z</time>
      </trkpt>
      <trkpt lat="45.39172" lon="4.07882">
        <ele>872</ele>
        <time>2012-03-26T07:42:20.000Z</time>
      </trkpt>
      <trkpt lat="45.39175" lon="4.07862">
        <ele>872</ele>
        <time>2012-03-26T07:42:22.000Z</time>
      </trkpt>
      <trkpt lat="45.39178" lon="4.07843">
        <ele>872</ele>
        <time>2012-03-26T07:42:24.000Z</time>
      </trkpt>
      <trkpt lat="45.39179" lon="4.07823">
        <ele>871</ele>
        <time>2012-03-26T07:42:26.000Z</time>
      </trkpt>
      <trkpt lat="45.39179" lon="4.07801">
        <ele>870</ele>
        <time>2012-03-26T07:42:28.000Z</time>
      </trkpt>
      <trkpt lat="45.39183" lon="4.07783">
        <ele>871</ele>
        <time>2012-03-26T07:42:30.000Z</time>
      </trkpt>
      <trkpt lat="45.39191" lon="4.07771">
        <ele>869</ele>
        <time>2012-03-26T07:42:32.000Z</time>
      </trkpt>
      <trkpt lat="45.39203" lon="4.07763">
        <ele>868</ele>
        <time>2012-03-26T07:42:34.000Z</time>
      </trkpt>
      <trkpt lat="45.39215" lon="4.07761">
        <ele>868</ele>
        <time>2012-03-26T07:42:36.000Z</time>
      </trkpt>
      <trkpt lat="45.39228" lon="4.07762">
        <ele>870</ele>
        <time>2012-03-26T07:42:38.000Z</time>
      </trkpt>
      <trkpt lat="45.3924" lon="4.07762">
        <ele>869</ele>
        <time>2012-03-26T07:42:40.000Z</time>
      </trkpt>
      <trkpt lat="45.39252" lon="4.07762">
        <ele>868</ele>
        <time>2012-03-26T07:42:42.000Z</time>
      </trkpt>
      <trkpt lat="45.39266" lon="4.07758">
        <ele>868</ele>
        <time>2012-03-26T07:42:44.000Z</time>
      </trkpt>
      <trkpt lat="45.3928" lon="4.0775">
        <ele>868</ele>
        <time>2012-03-26T07:42:46.000Z</time>
      </trkpt>
      <trkpt lat="45.39294" lon="4.07738">
        <ele>866</ele>
        <time>2012-03-26T07:42:48.000Z</time>
      </trkpt>
      <trkpt lat="45.39307" lon="4.07727">
        <ele>865</ele>
        <time>2012-03-26T07:42:50.000Z</time>
      </trkpt>
      <trkpt lat="45.39319" lon="4.07718">
        <ele>864</ele>
        <time>2012-03-26T07:42:52.000Z</time>
      </trkpt>
      <trkpt lat="45.39327" lon="4.07708">
        <ele>865</ele>
        <time>2012-03-26T07:42:54.000Z</time>
      </trkpt>
      <trkpt lat="45.39338" lon="4.07693">
        <ele>865</ele>
        <time>2012-03-26T07:42:58.000Z</time>
      </trkpt>
      <trkpt lat="45.39351" lon="4.07686">
        <ele>865</ele>
        <time>2012-03-26T07:43:02.000Z</time>
      </trkpt>
      <trkpt lat="45.39363" lon="4.07677">
        <ele>866</ele>
        <time>2012-03-26T07:43:06.000Z</time>
      </trkpt>
      <trkpt lat="45.39374" lon="4.07669">
        <ele>868</ele>
        <time>2012-03-26T07:43:10.000Z</time>
      </trkpt>
      <trkpt lat="45.39385" lon="4.07656">
        <ele>871</ele>
        <time>2012-03-26T07:43:14.000Z</time>
      </trkpt>
      <trkpt lat="45.39384" lon="4.07638">
        <ele>871</ele>
        <time>2012-03-26T07:43:18.000Z</time>
      </trkpt>
      <trkpt lat="45.3938" lon="4.07618">
        <ele>872</ele>
        <time>2012-03-26T07:43:22.000Z</time>
      </trkpt>
      <trkpt lat="45.39371" lon="4.07599">
        <ele>870</ele>
        <time>2012-03-26T07:43:26.000Z</time>
      </trkpt>
      <trkpt lat="45.39362" lon="4.07583">
        <ele>870</ele>
        <time>2012-03-26T07:43:30.000Z</time>
      </trkpt>
      <trkpt lat="45.39353" lon="4.07569">
        <ele>871</ele>
        <time>2012-03-26T07:43:34.000Z</time>
      </trkpt>
      <trkpt lat="45.39345" lon="4.07557">
        <ele>877</ele>
        <time>2012-03-26T07:43:39.000Z</time>
      </trkpt>
      <trkpt lat="45.39338" lon="4.07545">
        <ele>877</ele>
        <time>2012-03-26T07:43:43.000Z</time>
      </trkpt>
      <trkpt lat="45.3933" lon="4.07531">
        <ele>874</ele>
        <time>2012-03-26T07:43:47.000Z</time>
      </trkpt>
      <trkpt lat="45.39322" lon="4.07518">
        <ele>876</ele>
        <time>2012-03-26T07:43:51.000Z</time>
      </trkpt>
      <trkpt lat="45.39315" lon="4.07505">
        <ele>877</ele>
        <time>2012-03-26T07:43:55.000Z</time>
      </trkpt>
      <trkpt lat="45.39307" lon="4.07492">
        <ele>878</ele>
        <time>2012-03-26T07:43:59.000Z</time>
      </trkpt>
      <trkpt lat="45.393" lon="4.07481">
        <ele>878</ele>
        <time>2012-03-26T07:44:03.000Z</time>
      </trkpt>
      <trkpt lat="45.39294" lon="4.07468">
        <ele>882</ele>
        <time>2012-03-26T07:44:08.000Z</time>
      </trkpt>
      <trkpt lat="45.39289" lon="4.07454">
        <ele>884</ele>
        <time>2012-03-26T07:44:13.000Z</time>
      </trkpt>
      <trkpt lat="45.39285" lon="4.07442">
        <ele>884</ele>
        <time>2012-03-26T07:44:17.000Z</time>
      </trkpt>
      <trkpt lat="45.39283" lon="4.07428">
        <ele>883</ele>
        <time>2012-03-26T07:44:21.000Z</time>
      </trkpt>
      <trkpt lat="45.3928" lon="4.0741">
        <ele>885</ele>
        <time>2012-03-26T07:44:25.000Z</time>
      </trkpt>
      <trkpt lat="45.39276" lon="4.07394">
        <ele>886</ele>
        <time>2012-03-26T07:44:29.000Z</time>
      </trkpt>
      <trkpt lat="45.39271" lon="4.07379">
        <ele>886</ele>
        <time>2012-03-26T07:44:33.000Z</time>
      </trkpt>
      <trkpt lat="45.39264" lon="4.07363">
        <ele>887</ele>
        <time>2012-03-26T07:44:37.000Z</time>
      </trkpt>
      <trkpt lat="45.39256" lon="4.07349">
        <ele>887</ele>
        <time>2012-03-26T07:44:41.000Z</time>
      </trkpt>
      <trkpt lat="45.39246" lon="4.07335">
        <ele>887</ele>
        <time>2012-03-26T07:44:45.000Z</time>
      </trkpt>
      <trkpt lat="45.39237" lon="4.0732">
        <ele>888</ele>
        <time>2012-03-26T07:44:49.000Z</time>
      </trkpt>
      <trkpt lat="45.39228" lon="4.07306">
        <ele>888</ele>
        <time>2012-03-26T07:44:53.000Z</time>
      </trkpt>
      <trkpt lat="45.3922" lon="4.0729">
        <ele>889</ele>
        <time>2012-03-26T07:44:57.000Z</time>
      </trkpt>
      <trkpt lat="45.39215" lon="4.07271">
        <ele>889</ele>
        <time>2012-03-26T07:45:01.000Z</time>
      </trkpt>
      <trkpt lat="45.39218" lon="4.07251">
        <ele>888</ele>
        <time>2012-03-26T07:45:05.000Z</time>
      </trkpt>
      <trkpt lat="45.39226" lon="4.07236">
        <ele>889</ele>
        <time>2012-03-26T07:45:09.000Z</time>
      </trkpt>
      <trkpt lat="45.39236" lon="4.07225">
        <ele>891</ele>
        <time>2012-03-26T07:45:14.000Z</time>
      </trkpt>
      <trkpt lat="45.39246" lon="4.07217">
        <ele>897</ele>
        <time>2012-03-26T07:45:19.000Z</time>
      </trkpt>
      <trkpt lat="45.39255" lon="4.07208">
        <ele>904</ele>
        <time>2012-03-26T07:45:25.000Z</time>
      </trkpt>
      <trkpt lat="45.39264" lon="4.07197">
        <ele>907</ele>
        <time>2012-03-26T07:45:31.000Z</time>
      </trkpt>
      <trkpt lat="45.3927" lon="4.07183">
        <ele>906</ele>
        <time>2012-03-26T07:45:37.000Z</time>
      </trkpt>
      <trkpt lat="45.39272" lon="4.0717">
        <ele>903</ele>
        <time>2012-03-26T07:45:41.000Z</time>
      </trkpt>
      <trkpt lat="45.39272" lon="4.07157">
        <ele>901</ele>
        <time>2012-03-26T07:45:45.000Z</time>
      </trkpt>
      <trkpt lat="45.39271" lon="4.07139">
        <ele>901</ele>
        <time>2012-03-26T07:45:51.000Z</time>
      </trkpt>
      <trkpt lat="45.39271" lon="4.07123">
        <ele>903</ele>
        <time>2012-03-26T07:45:57.000Z</time>
      </trkpt>
      <trkpt lat="45.39268" lon="4.07108">
        <ele>907</ele>
        <time>2012-03-26T07:46:04.000Z</time>
      </trkpt>
      <trkpt lat="45.39266" lon="4.07092">
        <ele>908</ele>
        <time>2012-03-26T07:46:10.000Z</time>
      </trkpt>
      <trkpt lat="45.39264" lon="4.0708">
        <ele>915</ele>
        <time>2012-03-26T07:46:14.000Z</time>
      </trkpt>
      <trkpt lat="45.39261" lon="4.07066">
        <ele>911</ele>
        <time>2012-03-26T07:46:20.000Z</time>
      </trkpt>
      <trkpt lat="45.39259" lon="4.07052">
        <ele>914</ele>
        <time>2012-03-26T07:46:24.000Z</time>
      </trkpt>
      <trkpt lat="45.39257" lon="4.07039">
        <ele>910</ele>
        <time>2012-03-26T07:46:28.000Z</time>
      </trkpt>
      <trkpt lat="45.39256" lon="4.07022">
        <ele>914</ele>
        <time>2012-03-26T07:46:34.000Z</time>
      </trkpt>
      <trkpt lat="45.39254" lon="4.07009">
        <ele>912</ele>
        <time>2012-03-26T07:46:38.000Z</time>
      </trkpt>
      <trkpt lat="45.39251" lon="4.06992">
        <ele>914</ele>
        <time>2012-03-26T07:46:44.000Z</time>
      </trkpt>
      <trkpt lat="45.3925" lon="4.06975">
        <ele>916</ele>
        <time>2012-03-26T07:46:50.000Z</time>
      </trkpt>
      <trkpt lat="45.39249" lon="4.06959">
        <ele>916</ele>
        <time>2012-03-26T07:46:55.000Z</time>
      </trkpt>
      <trkpt lat="45.3925" lon="4.06945">
        <ele>917</ele>
        <time>2012-03-26T07:46:59.000Z</time>
      </trkpt>
      <trkpt lat="45.39249" lon="4.0693">
        <ele>919</ele>
        <time>2012-03-26T07:47:04.000Z</time>
      </trkpt>
      <trkpt lat="45.39247" lon="4.06912">
        <ele>920</ele>
        <time>2012-03-26T07:47:10.000Z</time>
      </trkpt>
      <trkpt lat="45.39246" lon="4.06898">
        <ele>921</ele>
        <time>2012-03-26T07:47:14.000Z</time>
      </trkpt>
      <trkpt lat="45.39243" lon="4.06884">
        <ele>920</ele>
        <time>2012-03-26T07:47:18.000Z</time>
      </trkpt>
      <trkpt lat="45.3924" lon="4.0687">
        <ele>921</ele>
        <time>2012-03-26T07:47:22.000Z</time>
      </trkpt>
      <trkpt lat="45.39238" lon="4.06851">
        <ele>922</ele>
        <time>2012-03-26T07:47:27.000Z</time>
      </trkpt>
      <trkpt lat="45.39239" lon="4.06827">
        <ele>926</ele>
        <time>2012-03-26T07:47:31.000Z</time>
      </trkpt>
      <trkpt lat="45.3924" lon="4.0681">
        <ele>927</ele>
        <time>2012-03-26T07:47:35.000Z</time>
      </trkpt>
      <trkpt lat="45.3924" lon="4.06793">
        <ele>930</ele>
        <time>2012-03-26T07:47:40.000Z</time>
      </trkpt>
      <trkpt lat="45.3924" lon="4.06776">
        <ele>924</ele>
        <time>2012-03-26T07:47:44.000Z</time>
      </trkpt>
      <trkpt lat="45.39239" lon="4.06762">
        <ele>922</ele>
        <time>2012-03-26T07:47:48.000Z</time>
      </trkpt>
      <trkpt lat="45.3924" lon="4.06745">
        <ele>922</ele>
        <time>2012-03-26T07:47:54.000Z</time>
      </trkpt>
      <trkpt lat="45.39239" lon="4.06729">
        <ele>931</ele>
        <time>2012-03-26T07:48:01.000Z</time>
      </trkpt>
      <trkpt lat="45.39237" lon="4.06714">
        <ele>930</ele>
        <time>2012-03-26T07:48:08.000Z</time>
      </trkpt>
      <trkpt lat="45.3923" lon="4.06698">
        <ele>937</ele>
        <time>2012-03-26T07:48:16.000Z</time>
      </trkpt>
      <trkpt lat="45.39224" lon="4.06686">
        <ele>936</ele>
        <time>2012-03-26T07:48:22.000Z</time>
      </trkpt>
      <trkpt lat="45.39214" lon="4.06678">
        <ele>937</ele>
        <time>2012-03-26T07:48:28.000Z</time>
      </trkpt>
      <trkpt lat="45.39203" lon="4.06676">
        <ele>937</ele>
        <time>2012-03-26T07:48:34.000Z</time>
      </trkpt>
      <trkpt lat="45.3919" lon="4.0667">
        <ele>940</ele>
        <time>2012-03-26T07:48:40.000Z</time>
      </trkpt>
      <trkpt lat="45.3918" lon="4.06668">
        <ele>940</ele>
        <time>2012-03-26T07:48:46.000Z</time>
      </trkpt>
      <trkpt lat="45.39168" lon="4.06666">
        <ele>942</ele>
        <time>2012-03-26T07:48:52.000Z</time>
      </trkpt>
      <trkpt lat="45.39158" lon="4.06666">
        <ele>941</ele>
        <time>2012-03-26T07:48:58.000Z</time>
      </trkpt>
      <trkpt lat="45.39148" lon="4.06667">
        <ele>945</ele>
        <time>2012-03-26T07:49:04.000Z</time>
      </trkpt>
      <trkpt lat="45.39137" lon="4.06666">
        <ele>946</ele>
        <time>2012-03-26T07:49:10.000Z</time>
      </trkpt>
      <trkpt lat="45.39124" lon="4.06662">
        <ele>949</ele>
        <time>2012-03-26T07:49:17.000Z</time>
      </trkpt>
      <trkpt lat="45.39113" lon="4.06657">
        <ele>947</ele>
        <time>2012-03-26T07:49:23.000Z</time>
      </trkpt>
      <trkpt lat="45.39102" lon="4.06653">
        <ele>950</ele>
        <time>2012-03-26T07:49:29.000Z</time>
      </trkpt>
      <trkpt lat="45.39091" lon="4.0665">
        <ele>952</ele>
        <time>2012-03-26T07:49:37.000Z</time>
      </trkpt>
      <trkpt lat="45.3908" lon="4.06648">
        <ele>955</ele>
        <time>2012-03-26T07:49:45.000Z</time>
      </trkpt>
      <trkpt lat="45.3907" lon="4.06645">
        <ele>954</ele>
        <time>2012-03-26T07:49:53.000Z</time>
      </trkpt>
      <trkpt lat="45.3906" lon="4.06648">
        <ele>956</ele>
        <time>2012-03-26T07:50:01.000Z</time>
      </trkpt>
      <trkpt lat="45.3905" lon="4.06651">
        <ele>961</ele>
        <time>2012-03-26T07:50:07.000Z</time>
      </trkpt>
      <trkpt lat="45.39037" lon="4.06651">
        <ele>964</ele>
        <time>2012-03-26T07:50:14.000Z</time>
      </trkpt>
      <trkpt lat="45.39027" lon="4.06651">
        <ele>967</ele>
        <time>2012-03-26T07:50:22.000Z</time>
      </trkpt>
      <trkpt lat="45.39015" lon="4.0665">
        <ele>971</ele>
        <time>2012-03-26T07:50:29.000Z</time>
      </trkpt>
      <trkpt lat="45.39005" lon="4.06647">
        <ele>972</ele>
        <time>2012-03-26T07:50:36.000Z</time>
      </trkpt>
      <trkpt lat="45.38997" lon="4.06641">
        <ele>968</ele>
        <time>2012-03-26T07:50:42.000Z</time>
      </trkpt>
      <trkpt lat="45.38989" lon="4.06632">
        <ele>969</ele>
        <time>2012-03-26T07:50:48.000Z</time>
      </trkpt>
      <trkpt lat="45.38981" lon="4.06622">
        <ele>968</ele>
        <time>2012-03-26T07:50:55.000Z</time>
      </trkpt>
      <trkpt lat="45.38971" lon="4.06616">
        <ele>974</ele>
        <time>2012-03-26T07:51:03.000Z</time>
      </trkpt>
      <trkpt lat="45.38962" lon="4.06607">
        <ele>976</ele>
        <time>2012-03-26T07:51:11.000Z</time>
      </trkpt>
      <trkpt lat="45.38954" lon="4.06599">
        <ele>982</ele>
        <time>2012-03-26T07:51:18.000Z</time>
      </trkpt>
      <trkpt lat="45.38945" lon="4.0659">
        <ele>983</ele>
        <time>2012-03-26T07:51:25.000Z</time>
      </trkpt>
      <trkpt lat="45.38937" lon="4.06582">
        <ele>980</ele>
        <time>2012-03-26T07:51:32.000Z</time>
      </trkpt>
      <trkpt lat="45.38928" lon="4.06574">
        <ele>983</ele>
        <time>2012-03-26T07:51:39.000Z</time>
      </trkpt>
      <trkpt lat="45.38917" lon="4.06568">
        <ele>990</ele>
        <time>2012-03-26T07:51:45.000Z</time>
      </trkpt>
      <trkpt lat="45.38907" lon="4.06559">
        <ele>991</ele>
        <time>2012-03-26T07:51:50.000Z</time>
      </trkpt>
      <trkpt lat="45.38898" lon="4.06546">
        <ele>986</ele>
        <time>2012-03-26T07:51:56.000Z</time>
      </trkpt>
      <trkpt lat="45.38888" lon="4.06533">
        <ele>985</ele>
        <time>2012-03-26T07:52:00.000Z</time>
      </trkpt>
      <trkpt lat="45.38879" lon="4.06523">
        <ele>991</ele>
        <time>2012-03-26T07:52:04.000Z</time>
      </trkpt>
      <trkpt lat="45.38872" lon="4.06512">
        <ele>990</ele>
        <time>2012-03-26T07:52:09.000Z</time>
      </trkpt>
      <trkpt lat="45.38876" lon="4.06497">
        <ele>990</ele>
        <time>2012-03-26T07:55:15.000Z</time>
      </trkpt>
      <trkpt lat="45.38878" lon="4.0648">
        <ele>989</ele>
        <time>2012-03-26T07:55:19.000Z</time>
      </trkpt>
      <trkpt lat="45.3888" lon="4.06463">
        <ele>986</ele>
        <time>2012-03-26T07:55:23.000Z</time>
      </trkpt>
      <trkpt lat="45.38881" lon="4.06446">
        <ele>987</ele>
        <time>2012-03-26T07:55:27.000Z</time>
      </trkpt>
      <trkpt lat="45.38881" lon="4.0643">
        <ele>988</ele>
        <time>2012-03-26T07:55:31.000Z</time>
      </trkpt>
      <trkpt lat="45.38882" lon="4.06414">
        <ele>990</ele>
        <time>2012-03-26T07:55:35.000Z</time>
      </trkpt>
      <trkpt lat="45.38885" lon="4.06392">
        <ele>989</ele>
        <time>2012-03-26T07:55:39.000Z</time>
      </trkpt>
      <trkpt lat="45.38889" lon="4.06374">
        <ele>989</ele>
        <time>2012-03-26T07:55:42.000Z</time>
      </trkpt>
      <trkpt lat="45.38896" lon="4.06354">
        <ele>991</ele>
        <time>2012-03-26T07:55:46.000Z</time>
      </trkpt>
      <trkpt lat="45.38906" lon="4.0634">
        <ele>990</ele>
        <time>2012-03-26T07:55:50.000Z</time>
      </trkpt>
      <trkpt lat="45.38918" lon="4.06328">
        <ele>991</ele>
        <time>2012-03-26T07:55:54.000Z</time>
      </trkpt>
      <trkpt lat="45.38929" lon="4.06313">
        <ele>993</ele>
        <time>2012-03-26T07:55:58.000Z</time>
      </trkpt>
      <trkpt lat="45.38939" lon="4.06296">
        <ele>993</ele>
        <time>2012-03-26T07:56:02.000Z</time>
      </trkpt>
      <trkpt lat="45.38946" lon="4.06274">
        <ele>989</ele>
        <time>2012-03-26T07:56:06.000Z</time>
      </trkpt>
      <trkpt lat="45.38952" lon="4.06252">
        <ele>990</ele>
        <time>2012-03-26T07:56:10.000Z</time>
      </trkpt>
      <trkpt lat="45.38955" lon="4.06237">
        <ele>990</ele>
        <time>2012-03-26T07:56:13.000Z</time>
      </trkpt>
      <trkpt lat="45.38958" lon="4.06216">
        <ele>990</ele>
        <time>2012-03-26T07:56:17.000Z</time>
      </trkpt>
      <trkpt lat="45.38962" lon="4.06198">
        <ele>991</ele>
        <time>2012-03-26T07:56:21.000Z</time>
      </trkpt>
      <trkpt lat="45.3897" lon="4.06175">
        <ele>990</ele>
        <time>2012-03-26T07:56:25.000Z</time>
      </trkpt>
      <trkpt lat="45.38974" lon="4.06163">
        <ele>990</ele>
        <time>2012-03-26T07:56:27.000Z</time>
      </trkpt>
      <trkpt lat="45.38979" lon="4.0615">
        <ele>990</ele>
        <time>2012-03-26T07:56:29.000Z</time>
      </trkpt>
      <trkpt lat="45.38985" lon="4.06136">
        <ele>990</ele>
        <time>2012-03-26T07:56:31.000Z</time>
      </trkpt>
      <trkpt lat="45.38991" lon="4.06122">
        <ele>989</ele>
        <time>2012-03-26T07:56:33.000Z</time>
      </trkpt>
      <trkpt lat="45.38999" lon="4.06109">
        <ele>989</ele>
        <time>2012-03-26T07:56:35.000Z</time>
      </trkpt>
      <trkpt lat="45.39008" lon="4.06094">
        <ele>987</ele>
        <time>2012-03-26T07:56:37.000Z</time>
      </trkpt>
      <trkpt lat="45.39017" lon="4.0608">
        <ele>986</ele>
        <time>2012-03-26T07:56:39.000Z</time>
      </trkpt>
      <trkpt lat="45.39026" lon="4.06066">
        <ele>984</ele>
        <time>2012-03-26T07:56:41.000Z</time>
      </trkpt>
      <trkpt lat="45.39035" lon="4.06052">
        <ele>984</ele>
        <time>2012-03-26T07:56:43.000Z</time>
      </trkpt>
      <trkpt lat="45.39042" lon="4.06038">
        <ele>985</ele>
        <time>2012-03-26T07:56:45.000Z</time>
      </trkpt>
      <trkpt lat="45.39049" lon="4.06022">
        <ele>984</ele>
        <time>2012-03-26T07:56:47.000Z</time>
      </trkpt>
      <trkpt lat="45.39056" lon="4.06004">
        <ele>982</ele>
        <time>2012-03-26T07:56:49.000Z</time>
      </trkpt>
      <trkpt lat="45.39062" lon="4.05986">
        <ele>979</ele>
        <time>2012-03-26T07:56:51.000Z</time>
      </trkpt>
      <trkpt lat="45.39068" lon="4.05968">
        <ele>980</ele>
        <time>2012-03-26T07:56:53.000Z</time>
      </trkpt>
      <trkpt lat="45.39078" lon="4.05955">
        <ele>976</ele>
        <time>2012-03-26T07:56:55.000Z</time>
      </trkpt>
      <trkpt lat="45.39089" lon="4.05943">
        <ele>975</ele>
        <time>2012-03-26T07:56:57.000Z</time>
      </trkpt>
      <trkpt lat="45.39101" lon="4.05932">
        <ele>976</ele>
        <time>2012-03-26T07:56:59.000Z</time>
      </trkpt>
      <trkpt lat="45.39116" lon="4.05924">
        <ele>976</ele>
        <time>2012-03-26T07:57:01.000Z</time>
      </trkpt>
      <trkpt lat="45.39129" lon="4.05923">
        <ele>976</ele>
        <time>2012-03-26T07:57:03.000Z</time>
      </trkpt>
      <trkpt lat="45.39142" lon="4.05923">
        <ele>978</ele>
        <time>2012-03-26T07:57:05.000Z</time>
      </trkpt>
      <trkpt lat="45.39156" lon="4.05922">
        <ele>978</ele>
        <time>2012-03-26T07:57:07.000Z</time>
      </trkpt>
      <trkpt lat="45.3917" lon="4.05919">
        <ele>976</ele>
        <time>2012-03-26T07:57:09.000Z</time>
      </trkpt>
      <trkpt lat="45.39183" lon="4.0591">
        <ele>972</ele>
        <time>2012-03-26T07:57:11.000Z</time>
      </trkpt>
      <trkpt lat="45.39194" lon="4.059">
        <ele>972</ele>
        <time>2012-03-26T07:57:13.000Z</time>
      </trkpt>
      <trkpt lat="45.39202" lon="4.05887">
        <ele>974</ele>
        <time>2012-03-26T07:57:15.000Z</time>
      </trkpt>
      <trkpt lat="45.3921" lon="4.05876">
        <ele>974</ele>
        <time>2012-03-26T07:57:17.000Z</time>
      </trkpt>
      <trkpt lat="45.39216" lon="4.05861">
        <ele>975</ele>
        <time>2012-03-26T07:57:20.000Z</time>
      </trkpt>
      <trkpt lat="45.39208" lon="4.05845">
        <ele>975</ele>
        <time>2012-03-26T07:57:24.000Z</time>
      </trkpt>
      <trkpt lat="45.39196" lon="4.05832">
        <ele>974</ele>
        <time>2012-03-26T07:57:28.000Z</time>
      </trkpt>
      <trkpt lat="45.39182" lon="4.05823">
        <ele>975</ele>
        <time>2012-03-26T07:57:32.000Z</time>
      </trkpt>
      <trkpt lat="45.39167" lon="4.05819">
        <ele>976</ele>
        <time>2012-03-26T07:57:36.000Z</time>
      </trkpt>
      <trkpt lat="45.39154" lon="4.05815">
        <ele>976</ele>
        <time>2012-03-26T07:57:39.000Z</time>
      </trkpt>
      <trkpt lat="45.39142" lon="4.05811">
        <ele>981</ele>
        <time>2012-03-26T07:57:42.000Z</time>
      </trkpt>
      <trkpt lat="45.39127" lon="4.05803">
        <ele>981</ele>
        <time>2012-03-26T07:57:46.000Z</time>
      </trkpt>
      <trkpt lat="45.39118" lon="4.05798">
        <ele>979</ele>
        <time>2012-03-26T07:57:48.000Z</time>
      </trkpt>
      <trkpt lat="45.39106" lon="4.05794">
        <ele>979</ele>
        <time>2012-03-26T07:57:50.000Z</time>
      </trkpt>
      <trkpt lat="45.39096" lon="4.05788">
        <ele>977</ele>
        <time>2012-03-26T07:57:52.000Z</time>
      </trkpt>
      <trkpt lat="45.39086" lon="4.05778">
        <ele>976</ele>
        <time>2012-03-26T07:57:54.000Z</time>
      </trkpt>
      <trkpt lat="45.39078" lon="4.05766">
        <ele>974</ele>
        <time>2012-03-26T07:57:56.000Z</time>
      </trkpt>
      <trkpt lat="45.39071" lon="4.05754">
        <ele>973</ele>
        <time>2012-03-26T07:57:58.000Z</time>
      </trkpt>
      <trkpt lat="45.39064" lon="4.05738">
        <ele>975</ele>
        <time>2012-03-26T07:58:01.000Z</time>
      </trkpt>
      <trkpt lat="45.39059" lon="4.05721">
        <ele>976</ele>
        <time>2012-03-26T07:58:04.000Z</time>
      </trkpt>
      <trkpt lat="45.39056" lon="4.05708">
        <ele>976</ele>
        <time>2012-03-26T07:58:06.000Z</time>
      </trkpt>
      <trkpt lat="45.39054" lon="4.05695">
        <ele>975</ele>
        <time>2012-03-26T07:58:08.000Z</time>
      </trkpt>
      <trkpt lat="45.39051" lon="4.05682">
        <ele>975</ele>
        <time>2012-03-26T07:58:10.000Z</time>
      </trkpt>
      <trkpt lat="45.39046" lon="4.0567">
        <ele>974</ele>
        <time>2012-03-26T07:58:12.000Z</time>
      </trkpt>
      <trkpt lat="45.39038" lon="4.05664">
        <ele>973</ele>
        <time>2012-03-26T07:58:14.000Z</time>
      </trkpt>
      <trkpt lat="45.39029" lon="4.05657">
        <ele>973</ele>
        <time>2012-03-26T07:58:16.000Z</time>
      </trkpt>
      <trkpt lat="45.39016" lon="4.0565">
        <ele>972</ele>
        <time>2012-03-26T07:58:19.000Z</time>
      </trkpt>
      <trkpt lat="45.39" lon="4.05645">
        <ele>975</ele>
        <time>2012-03-26T07:58:23.000Z</time>
      </trkpt>
      <trkpt lat="45.38989" lon="4.05636">
        <ele>975</ele>
        <time>2012-03-26T07:58:27.000Z</time>
      </trkpt>
      <trkpt lat="45.38984" lon="4.05619">
        <ele>976</ele>
        <time>2012-03-26T07:58:31.000Z</time>
      </trkpt>
      <trkpt lat="45.3898" lon="4.05603">
        <ele>977</ele>
        <time>2012-03-26T07:58:35.000Z</time>
      </trkpt>
      <trkpt lat="45.38975" lon="4.05586">
        <ele>975</ele>
        <time>2012-03-26T07:58:39.000Z</time>
      </trkpt>
      <trkpt lat="45.38968" lon="4.05572">
        <ele>975</ele>
        <time>2012-03-26T07:58:43.000Z</time>
      </trkpt>
      <trkpt lat="45.3896" lon="4.0556">
        <ele>975</ele>
        <time>2012-03-26T07:58:47.000Z</time>
      </trkpt>
      <trkpt lat="45.38949" lon="4.05554">
        <ele>977</ele>
        <time>2012-03-26T07:58:51.000Z</time>
      </trkpt>
      <trkpt lat="45.38937" lon="4.0555">
        <ele>982</ele>
        <time>2012-03-26T07:58:56.000Z</time>
      </trkpt>
      <trkpt lat="45.38926" lon="4.05542">
        <ele>979</ele>
        <time>2012-03-26T07:59:01.000Z</time>
      </trkpt>
      <trkpt lat="45.38919" lon="4.05533">
        <ele>981</ele>
        <time>2012-03-26T07:59:05.000Z</time>
      </trkpt>
      <trkpt lat="45.38909" lon="4.05526">
        <ele>985</ele>
        <time>2012-03-26T07:59:09.000Z</time>
      </trkpt>
      <trkpt lat="45.389" lon="4.0552">
        <ele>982</ele>
        <time>2012-03-26T07:59:13.000Z</time>
      </trkpt>
      <trkpt lat="45.38884" lon="4.05515">
        <ele>986</ele>
        <time>2012-03-26T07:59:19.000Z</time>
      </trkpt>
      <trkpt lat="45.38865" lon="4.05512">
        <ele>989</ele>
        <time>2012-03-26T07:59:25.000Z</time>
      </trkpt>
      <trkpt lat="45.38851" lon="4.05513">
        <ele>988</ele>
        <time>2012-03-26T07:59:30.000Z</time>
      </trkpt>
      <trkpt lat="45.38837" lon="4.05514">
        <ele>989</ele>
        <time>2012-03-26T07:59:34.000Z</time>
      </trkpt>
      <trkpt lat="45.38823" lon="4.05513">
        <ele>989</ele>
        <time>2012-03-26T07:59:37.000Z</time>
      </trkpt>
      <trkpt lat="45.3881" lon="4.05508">
        <ele>987</ele>
        <time>2012-03-26T07:59:39.000Z</time>
      </trkpt>
      <trkpt lat="45.38794" lon="4.05503">
        <ele>979</ele>
        <time>2012-03-26T07:59:42.000Z</time>
      </trkpt>
      <trkpt lat="45.38782" lon="4.055">
        <ele>984</ele>
        <time>2012-03-26T07:59:44.000Z</time>
      </trkpt>
      <trkpt lat="45.38774" lon="4.05492">
        <ele>982</ele>
        <time>2012-03-26T07:59:46.000Z</time>
      </trkpt>
      <trkpt lat="45.38763" lon="4.05476">
        <ele>982</ele>
        <time>2012-03-26T07:59:49.000Z</time>
      </trkpt>
      <trkpt lat="45.38754" lon="4.05458">
        <ele>988</ele>
        <time>2012-03-26T07:59:53.000Z</time>
      </trkpt>
      <trkpt lat="45.38744" lon="4.05443">
        <ele>987</ele>
        <time>2012-03-26T07:59:57.000Z</time>
      </trkpt>
      <trkpt lat="45.38734" lon="4.05429">
        <ele>991</ele>
        <time>2012-03-26T08:00:01.000Z</time>
      </trkpt>
      <trkpt lat="45.38726" lon="4.05417">
        <ele>991</ele>
        <time>2012-03-26T08:00:05.000Z</time>
      </trkpt>
      <trkpt lat="45.3872" lon="4.05399">
        <ele>987</ele>
        <time>2012-03-26T08:00:09.000Z</time>
      </trkpt>
      <trkpt lat="45.38727" lon="4.05382">
        <ele>986</ele>
        <time>2012-03-26T08:00:13.000Z</time>
      </trkpt>
      <trkpt lat="45.38737" lon="4.05364">
        <ele>984</ele>
        <time>2012-03-26T08:00:17.000Z</time>
      </trkpt>
      <trkpt lat="45.38747" lon="4.05347">
        <ele>983</ele>
        <time>2012-03-26T08:00:21.000Z</time>
      </trkpt>
      <trkpt lat="45.38756" lon="4.05334">
        <ele>986</ele>
        <time>2012-03-26T08:00:25.000Z</time>
      </trkpt>
      <trkpt lat="45.38768" lon="4.05322">
        <ele>986</ele>
        <time>2012-03-26T08:00:29.000Z</time>
      </trkpt>
      <trkpt lat="45.38774" lon="4.05306">
        <ele>987</ele>
        <time>2012-03-26T08:00:33.000Z</time>
      </trkpt>
      <trkpt lat="45.38769" lon="4.05285">
        <ele>985</ele>
        <time>2012-03-26T08:00:37.000Z</time>
      </trkpt>
      <trkpt lat="45.38762" lon="4.05268">
        <ele>987</ele>
        <time>2012-03-26T08:00:40.000Z</time>
      </trkpt>
      <trkpt lat="45.38758" lon="4.05256">
        <ele>987</ele>
        <time>2012-03-26T08:00:42.000Z</time>
      </trkpt>
      <trkpt lat="45.38754" lon="4.05243">
        <ele>986</ele>
        <time>2012-03-26T08:00:44.000Z</time>
      </trkpt>
      <trkpt lat="45.3875" lon="4.0523">
        <ele>987</ele>
        <time>2012-03-26T08:00:46.000Z</time>
      </trkpt>
      <trkpt lat="45.38747" lon="4.05216">
        <ele>987</ele>
        <time>2012-03-26T08:00:48.000Z</time>
      </trkpt>
      <trkpt lat="45.38744" lon="4.05201">
        <ele>986</ele>
        <time>2012-03-26T08:00:50.000Z</time>
      </trkpt>
      <trkpt lat="45.38741" lon="4.05187">
        <ele>986</ele>
        <time>2012-03-26T08:00:52.000Z</time>
      </trkpt>
      <trkpt lat="45.38738" lon="4.05171">
        <ele>986</ele>
        <time>2012-03-26T08:00:54.000Z</time>
      </trkpt>
      <trkpt lat="45.38736" lon="4.05154">
        <ele>987</ele>
        <time>2012-03-26T08:00:56.000Z</time>
      </trkpt>
      <trkpt lat="45.38736" lon="4.05133">
        <ele>988</ele>
        <time>2012-03-26T08:00:58.000Z</time>
      </trkpt>
      <trkpt lat="45.38736" lon="4.05114">
        <ele>989</ele>
        <time>2012-03-26T08:01:00.000Z</time>
      </trkpt>
      <trkpt lat="45.38738" lon="4.05095">
        <ele>991</ele>
        <time>2012-03-26T08:01:02.000Z</time>
      </trkpt>
      <trkpt lat="45.38741" lon="4.05078">
        <ele>991</ele>
        <time>2012-03-26T08:01:04.000Z</time>
      </trkpt>
      <trkpt lat="45.38746" lon="4.05062">
        <ele>988</ele>
        <time>2012-03-26T08:01:06.000Z</time>
      </trkpt>
      <trkpt lat="45.38751" lon="4.05046">
        <ele>987</ele>
        <time>2012-03-26T08:01:08.000Z</time>
      </trkpt>
      <trkpt lat="45.38757" lon="4.05032">
        <ele>984</ele>
        <time>2012-03-26T08:01:10.000Z</time>
      </trkpt>
      <trkpt lat="45.38765" lon="4.0502">
        <ele>983</ele>
        <time>2012-03-26T08:01:12.000Z</time>
      </trkpt>
      <trkpt lat="45.38773" lon="4.05008">
        <ele>985</ele>
        <time>2012-03-26T08:01:14.000Z</time>
      </trkpt>
      <trkpt lat="45.38781" lon="4.04996">
        <ele>985</ele>
        <time>2012-03-26T08:01:16.000Z</time>
      </trkpt>
      <trkpt lat="45.38789" lon="4.04984">
        <ele>986</ele>
        <time>2012-03-26T08:01:18.000Z</time>
      </trkpt>
      <trkpt lat="45.38796" lon="4.04971">
        <ele>987</ele>
        <time>2012-03-26T08:01:20.000Z</time>
      </trkpt>
      <trkpt lat="45.38803" lon="4.04959">
        <ele>988</ele>
        <time>2012-03-26T08:01:22.000Z</time>
      </trkpt>
      <trkpt lat="45.38807" lon="4.04945">
        <ele>988</ele>
        <time>2012-03-26T08:01:24.000Z</time>
      </trkpt>
      <trkpt lat="45.3881" lon="4.04932">
        <ele>988</ele>
        <time>2012-03-26T08:01:26.000Z</time>
      </trkpt>
      <trkpt lat="45.38813" lon="4.04914">
        <ele>990</ele>
        <time>2012-03-26T08:01:28.000Z</time>
      </trkpt>
      <trkpt lat="45.38815" lon="4.04898">
        <ele>989</ele>
        <time>2012-03-26T08:01:30.000Z</time>
      </trkpt>
      <trkpt lat="45.38816" lon="4.04882">
        <ele>989</ele>
        <time>2012-03-26T08:01:32.000Z</time>
      </trkpt>
      <trkpt lat="45.3881" lon="4.04864">
        <ele>988</ele>
        <time>2012-03-26T08:01:35.000Z</time>
      </trkpt>
      <trkpt lat="45.388" lon="4.04852">
        <ele>988</ele>
        <time>2012-03-26T08:01:37.000Z</time>
      </trkpt>
      <trkpt lat="45.38786" lon="4.0484">
        <ele>987</ele>
        <time>2012-03-26T08:01:39.000Z</time>
      </trkpt>
      <trkpt lat="45.38772" lon="4.04832">
        <ele>986</ele>
        <time>2012-03-26T08:01:41.000Z</time>
      </trkpt>
      <trkpt lat="45.38759" lon="4.04829">
        <ele>986</ele>
        <time>2012-03-26T08:01:43.000Z</time>
      </trkpt>
      <trkpt lat="45.38747" lon="4.0483">
        <ele>985</ele>
        <time>2012-03-26T08:01:45.000Z</time>
      </trkpt>
      <trkpt lat="45.38737" lon="4.04823">
        <ele>985</ele>
        <time>2012-03-26T08:01:47.000Z</time>
      </trkpt>
      <trkpt lat="45.38732" lon="4.04811">
        <ele>986</ele>
        <time>2012-03-26T08:01:49.000Z</time>
      </trkpt>
      <trkpt lat="45.38729" lon="4.04798">
        <ele>985</ele>
        <time>2012-03-26T08:01:51.000Z</time>
      </trkpt>
      <trkpt lat="45.38727" lon="4.04784">
        <ele>984</ele>
        <time>2012-03-26T08:01:53.000Z</time>
      </trkpt>
      <trkpt lat="45.38724" lon="4.04771">
        <ele>984</ele>
        <time>2012-03-26T08:01:55.000Z</time>
      </trkpt>
      <trkpt lat="45.38721" lon="4.04758">
        <ele>985</ele>
        <time>2012-03-26T08:01:57.000Z</time>
      </trkpt>
      <trkpt lat="45.38717" lon="4.04741">
        <ele>988</ele>
        <time>2012-03-26T08:02:00.000Z</time>
      </trkpt>
      <trkpt lat="45.38713" lon="4.04722">
        <ele>989</ele>
        <time>2012-03-26T08:02:03.000Z</time>
      </trkpt>
      <trkpt lat="45.3871" lon="4.04708">
        <ele>991</ele>
        <time>2012-03-26T08:02:05.000Z</time>
      </trkpt>
      <trkpt lat="45.38707" lon="4.04694">
        <ele>990</ele>
        <time>2012-03-26T08:02:07.000Z</time>
      </trkpt>
      <trkpt lat="45.38704" lon="4.04678">
        <ele>993</ele>
        <time>2012-03-26T08:02:09.000Z</time>
      </trkpt>
      <trkpt lat="45.387" lon="4.04663">
        <ele>992</ele>
        <time>2012-03-26T08:02:11.000Z</time>
      </trkpt>
      <trkpt lat="45.38698" lon="4.04649">
        <ele>996</ele>
        <time>2012-03-26T08:02:13.000Z</time>
      </trkpt>
      <trkpt lat="45.38696" lon="4.04634">
        <ele>990</ele>
        <time>2012-03-26T08:02:15.000Z</time>
      </trkpt>
      <trkpt lat="45.38694" lon="4.04617">
        <ele>989</ele>
        <time>2012-03-26T08:02:17.000Z</time>
      </trkpt>
      <trkpt lat="45.38693" lon="4.04603">
        <ele>989</ele>
        <time>2012-03-26T08:02:19.000Z</time>
      </trkpt>
      <trkpt lat="45.38693" lon="4.04578">
        <ele>991</ele>
        <time>2012-03-26T08:02:23.000Z</time>
      </trkpt>
      <trkpt lat="45.38692" lon="4.04565">
        <ele>993</ele>
        <time>2012-03-26T08:02:25.000Z</time>
      </trkpt>
      <trkpt lat="45.38691" lon="4.04548">
        <ele>996</ele>
        <time>2012-03-26T08:02:27.000Z</time>
      </trkpt>
      <trkpt lat="45.38692" lon="4.04534">
        <ele>991</ele>
        <time>2012-03-26T08:02:29.000Z</time>
      </trkpt>
      <trkpt lat="45.38692" lon="4.04518">
        <ele>994</ele>
        <time>2012-03-26T08:02:31.000Z</time>
      </trkpt>
      <trkpt lat="45.38694" lon="4.04499">
        <ele>992</ele>
        <time>2012-03-26T08:02:33.000Z</time>
      </trkpt>
      <trkpt lat="45.38695" lon="4.04481">
        <ele>992</ele>
        <time>2012-03-26T08:02:35.000Z</time>
      </trkpt>
      <trkpt lat="45.38698" lon="4.04466">
        <ele>988</ele>
        <time>2012-03-26T08:02:37.000Z</time>
      </trkpt>
      <trkpt lat="45.387" lon="4.04453">
        <ele>988</ele>
        <time>2012-03-26T08:02:39.000Z</time>
      </trkpt>
      <trkpt lat="45.38702" lon="4.0444">
        <ele>987</ele>
        <time>2012-03-26T08:02:41.000Z</time>
      </trkpt>
      <trkpt lat="45.38705" lon="4.0442">
        <ele>988</ele>
        <time>2012-03-26T08:02:44.000Z</time>
      </trkpt>
      <trkpt lat="45.38707" lon="4.04406">
        <ele>988</ele>
        <time>2012-03-26T08:02:46.000Z</time>
      </trkpt>
      <trkpt lat="45.38708" lon="4.04388">
        <ele>988</ele>
        <time>2012-03-26T08:02:49.000Z</time>
      </trkpt>
      <trkpt lat="45.38708" lon="4.04369">
        <ele>989</ele>
        <time>2012-03-26T08:02:52.000Z</time>
      </trkpt>
      <trkpt lat="45.38707" lon="4.0435">
        <ele>988</ele>
        <time>2012-03-26T08:02:55.000Z</time>
      </trkpt>
      <trkpt lat="45.38706" lon="4.04336">
        <ele>989</ele>
        <time>2012-03-26T08:02:57.000Z</time>
      </trkpt>
      <trkpt lat="45.38704" lon="4.04318">
        <ele>990</ele>
        <time>2012-03-26T08:03:00.000Z</time>
      </trkpt>
      <trkpt lat="45.38703" lon="4.04303">
        <ele>990</ele>
        <time>2012-03-26T08:03:02.000Z</time>
      </trkpt>
      <trkpt lat="45.38702" lon="4.0429">
        <ele>990</ele>
        <time>2012-03-26T08:03:04.000Z</time>
      </trkpt>
      <trkpt lat="45.38701" lon="4.04276">
        <ele>992</ele>
        <time>2012-03-26T08:03:06.000Z</time>
      </trkpt>
      <trkpt lat="45.38701" lon="4.04263">
        <ele>994</ele>
        <time>2012-03-26T08:03:08.000Z</time>
      </trkpt>
      <trkpt lat="45.387" lon="4.0425">
        <ele>992</ele>
        <time>2012-03-26T08:03:10.000Z</time>
      </trkpt>
      <trkpt lat="45.38699" lon="4.04237">
        <ele>993</ele>
        <time>2012-03-26T08:03:12.000Z</time>
      </trkpt>
      <trkpt lat="45.38698" lon="4.04224">
        <ele>994</ele>
        <time>2012-03-26T08:03:14.000Z</time>
      </trkpt>
      <trkpt lat="45.38698" lon="4.04211">
        <ele>995</ele>
        <time>2012-03-26T08:03:16.000Z</time>
      </trkpt>
      <trkpt lat="45.38698" lon="4.04191">
        <ele>994</ele>
        <time>2012-03-26T08:03:19.000Z</time>
      </trkpt>
      <trkpt lat="45.38699" lon="4.04173">
        <ele>994</ele>
        <time>2012-03-26T08:03:22.000Z</time>
      </trkpt>
      <trkpt lat="45.38699" lon="4.04151">
        <ele>999</ele>
        <time>2012-03-26T08:03:26.000Z</time>
      </trkpt>
      <trkpt lat="45.38699" lon="4.0413">
        <ele>1001</ele>
        <time>2012-03-26T08:03:30.000Z</time>
      </trkpt>
      <trkpt lat="45.38698" lon="4.0411">
        <ele>1002</ele>
        <time>2012-03-26T08:03:34.000Z</time>
      </trkpt>
      <trkpt lat="45.38698" lon="4.0409">
        <ele>1003</ele>
        <time>2012-03-26T08:03:38.000Z</time>
      </trkpt>
      <trkpt lat="45.38698" lon="4.04074">
        <ele>1006</ele>
        <time>2012-03-26T08:03:42.000Z</time>
      </trkpt>
      <trkpt lat="45.38701" lon="4.04056">
        <ele>1007</ele>
        <time>2012-03-26T08:03:46.000Z</time>
      </trkpt>
      <trkpt lat="45.38705" lon="4.04037">
        <ele>1014</ele>
        <time>2012-03-26T08:03:50.000Z</time>
      </trkpt>
      <trkpt lat="45.38708" lon="4.04017">
        <ele>1015</ele>
        <time>2012-03-26T08:03:54.000Z</time>
      </trkpt>
      <trkpt lat="45.38708" lon="4.04004">
        <ele>1012</ele>
        <time>2012-03-26T08:03:56.000Z</time>
      </trkpt>
      <trkpt lat="45.38707" lon="4.03986">
        <ele>1001</ele>
        <time>2012-03-26T08:03:59.000Z</time>
      </trkpt>
      <trkpt lat="45.38705" lon="4.03966">
        <ele>1001</ele>
        <time>2012-03-26T08:04:03.000Z</time>
      </trkpt>
      <trkpt lat="45.38702" lon="4.03948">
        <ele>1006</ele>
        <time>2012-03-26T08:04:07.000Z</time>
      </trkpt>
      <trkpt lat="45.38695" lon="4.0393">
        <ele>1002</ele>
        <time>2012-03-26T08:04:11.000Z</time>
      </trkpt>
      <trkpt lat="45.38687" lon="4.03915">
        <ele>1005</ele>
        <time>2012-03-26T08:04:15.000Z</time>
      </trkpt>
      <trkpt lat="45.38677" lon="4.03902">
        <ele>1005</ele>
        <time>2012-03-26T08:04:19.000Z</time>
      </trkpt>
      <trkpt lat="45.3867" lon="4.03884">
        <ele>1004</ele>
        <time>2012-03-26T08:04:23.000Z</time>
      </trkpt>
      <trkpt lat="45.38666" lon="4.03862">
        <ele>1004</ele>
        <time>2012-03-26T08:04:27.000Z</time>
      </trkpt>
      <trkpt lat="45.38665" lon="4.03844">
        <ele>1004</ele>
        <time>2012-03-26T08:04:30.000Z</time>
      </trkpt>
      <trkpt lat="45.38668" lon="4.03831">
        <ele>1005</ele>
        <time>2012-03-26T08:04:32.000Z</time>
      </trkpt>
      <trkpt lat="45.38672" lon="4.03818">
        <ele>1005</ele>
        <time>2012-03-26T08:04:34.000Z</time>
      </trkpt>
      <trkpt lat="45.38676" lon="4.03805">
        <ele>1005</ele>
        <time>2012-03-26T08:04:36.000Z</time>
      </trkpt>
      <trkpt lat="45.38681" lon="4.03792">
        <ele>1004</ele>
        <time>2012-03-26T08:04:38.000Z</time>
      </trkpt>
      <trkpt lat="45.38685" lon="4.03779">
        <ele>1006</ele>
        <time>2012-03-26T08:04:40.000Z</time>
      </trkpt>
      <trkpt lat="45.3869" lon="4.03766">
        <ele>1007</ele>
        <time>2012-03-26T08:04:42.000Z</time>
      </trkpt>
      <trkpt lat="45.38693" lon="4.03752">
        <ele>1008</ele>
        <time>2012-03-26T08:04:44.000Z</time>
      </trkpt>
      <trkpt lat="45.38697" lon="4.03737">
        <ele>1008</ele>
        <time>2012-03-26T08:04:46.000Z</time>
      </trkpt>
      <trkpt lat="45.38699" lon="4.03721">
        <ele>1008</ele>
        <time>2012-03-26T08:04:48.000Z</time>
      </trkpt>
      <trkpt lat="45.38699" lon="4.03706">
        <ele>1007</ele>
        <time>2012-03-26T08:04:50.000Z</time>
      </trkpt>
      <trkpt lat="45.38692" lon="4.03696">
        <ele>1007</ele>
        <time>2012-03-26T08:04:52.000Z</time>
      </trkpt>
      <trkpt lat="45.38682" lon="4.03691">
        <ele>1008</ele>
        <time>2012-03-26T08:04:54.000Z</time>
      </trkpt>
      <trkpt lat="45.38673" lon="4.03687">
        <ele>1008</ele>
        <time>2012-03-26T08:04:56.000Z</time>
      </trkpt>
      <trkpt lat="45.38663" lon="4.03684">
        <ele>1007</ele>
        <time>2012-03-26T08:04:58.000Z</time>
      </trkpt>
      <trkpt lat="45.38654" lon="4.03682">
        <ele>1011</ele>
        <time>2012-03-26T08:05:00.000Z</time>
      </trkpt>
      <trkpt lat="45.38644" lon="4.03681">
        <ele>1014</ele>
        <time>2012-03-26T08:05:02.000Z</time>
      </trkpt>
      <trkpt lat="45.38634" lon="4.03679">
        <ele>1015</ele>
        <time>2012-03-26T08:05:04.000Z</time>
      </trkpt>
      <trkpt lat="45.38623" lon="4.03677">
        <ele>1014</ele>
        <time>2012-03-26T08:05:06.000Z</time>
      </trkpt>
      <trkpt lat="45.38612" lon="4.03675">
        <ele>1013</ele>
        <time>2012-03-26T08:05:08.000Z</time>
      </trkpt>
      <trkpt lat="45.386" lon="4.03673">
        <ele>1012</ele>
        <time>2012-03-26T08:05:10.000Z</time>
      </trkpt>
      <trkpt lat="45.38589" lon="4.03672">
        <ele>1011</ele>
        <time>2012-03-26T08:05:12.000Z</time>
      </trkpt>
      <trkpt lat="45.38579" lon="4.0367">
        <ele>1010</ele>
        <time>2012-03-26T08:05:14.000Z</time>
      </trkpt>
      <trkpt lat="45.38569" lon="4.03669">
        <ele>1011</ele>
        <time>2012-03-26T08:05:16.000Z</time>
      </trkpt>
      <trkpt lat="45.3856" lon="4.03667">
        <ele>1010</ele>
        <time>2012-03-26T08:05:18.000Z</time>
      </trkpt>
      <trkpt lat="45.38547" lon="4.03665">
        <ele>1011</ele>
        <time>2012-03-26T08:05:21.000Z</time>
      </trkpt>
      <trkpt lat="45.38537" lon="4.03653">
        <ele>1010</ele>
        <time>2012-03-26T08:05:25.000Z</time>
      </trkpt>
      <trkpt lat="45.38544" lon="4.03638">
        <ele>1012</ele>
        <time>2012-03-26T08:05:29.000Z</time>
      </trkpt>
      <trkpt lat="45.3855" lon="4.03626">
        <ele>1011</ele>
        <time>2012-03-26T08:05:31.000Z</time>
      </trkpt>
      <trkpt lat="45.38557" lon="4.03613">
        <ele>1008</ele>
        <time>2012-03-26T08:05:33.000Z</time>
      </trkpt>
      <trkpt lat="45.38564" lon="4.03599">
        <ele>1007</ele>
        <time>2012-03-26T08:05:35.000Z</time>
      </trkpt>
      <trkpt lat="45.38571" lon="4.03586">
        <ele>1007</ele>
        <time>2012-03-26T08:05:37.000Z</time>
      </trkpt>
      <trkpt lat="45.38578" lon="4.03572">
        <ele>1008</ele>
        <time>2012-03-26T08:05:39.000Z</time>
      </trkpt>
      <trkpt lat="45.38586" lon="4.03559">
        <ele>1008</ele>
        <time>2012-03-26T08:05:41.000Z</time>
      </trkpt>
      <trkpt lat="45.38596" lon="4.03545">
        <ele>1011</ele>
        <time>2012-03-26T08:05:43.000Z</time>
      </trkpt>
      <trkpt lat="45.38607" lon="4.0353">
        <ele>1010</ele>
        <time>2012-03-26T08:05:45.000Z</time>
      </trkpt>
      <trkpt lat="45.38619" lon="4.03515">
        <ele>1011</ele>
        <time>2012-03-26T08:05:47.000Z</time>
      </trkpt>
      <trkpt lat="45.38631" lon="4.03501">
        <ele>1009</ele>
        <time>2012-03-26T08:05:49.000Z</time>
      </trkpt>
      <trkpt lat="45.38642" lon="4.03488">
        <ele>1009</ele>
        <time>2012-03-26T08:05:51.000Z</time>
      </trkpt>
      <trkpt lat="45.38653" lon="4.03475">
        <ele>1009</ele>
        <time>2012-03-26T08:05:53.000Z</time>
      </trkpt>
      <trkpt lat="45.38661" lon="4.0346">
        <ele>1008</ele>
        <time>2012-03-26T08:05:55.000Z</time>
      </trkpt>
      <trkpt lat="45.38668" lon="4.03447">
        <ele>1011</ele>
        <time>2012-03-26T08:05:57.000Z</time>
      </trkpt>
      <trkpt lat="45.38674" lon="4.03438">
        <ele>1009</ele>
        <time>2012-03-26T08:05:59.000Z</time>
      </trkpt>
      <trkpt lat="45.3868" lon="4.03426">
        <ele>1010</ele>
        <time>2012-03-26T08:06:01.000Z</time>
      </trkpt>
      <trkpt lat="45.38688" lon="4.03412">
        <ele>1011</ele>
        <time>2012-03-26T08:06:04.000Z</time>
      </trkpt>
      <trkpt lat="45.38694" lon="4.03396">
        <ele>1012</ele>
        <time>2012-03-26T08:06:07.000Z</time>
      </trkpt>
      <trkpt lat="45.387" lon="4.03383">
        <ele>1008</ele>
        <time>2012-03-26T08:06:09.000Z</time>
      </trkpt>
      <trkpt lat="45.38705" lon="4.0337">
        <ele>1006</ele>
        <time>2012-03-26T08:06:11.000Z</time>
      </trkpt>
      <trkpt lat="45.3871" lon="4.03358">
        <ele>1007</ele>
        <time>2012-03-26T08:06:13.000Z</time>
      </trkpt>
      <trkpt lat="45.38716" lon="4.03346">
        <ele>1007</ele>
        <time>2012-03-26T08:06:15.000Z</time>
      </trkpt>
      <trkpt lat="45.38722" lon="4.03335">
        <ele>1007</ele>
        <time>2012-03-26T08:06:17.000Z</time>
      </trkpt>
      <trkpt lat="45.38733" lon="4.03319">
        <ele>1011</ele>
        <time>2012-03-26T08:06:21.000Z</time>
      </trkpt>
      <trkpt lat="45.38743" lon="4.03306">
        <ele>1013</ele>
        <time>2012-03-26T08:06:24.000Z</time>
      </trkpt>
      <trkpt lat="45.38753" lon="4.03298">
        <ele>1014</ele>
        <time>2012-03-26T08:06:27.000Z</time>
      </trkpt>
      <trkpt lat="45.38766" lon="4.03291">
        <ele>1011</ele>
        <time>2012-03-26T08:06:39.000Z</time>
      </trkpt>
      <trkpt lat="45.38777" lon="4.03287">
        <ele>1008</ele>
        <time>2012-03-26T08:06:41.000Z</time>
      </trkpt>
      <trkpt lat="45.38789" lon="4.03281">
        <ele>1007</ele>
        <time>2012-03-26T08:06:43.000Z</time>
      </trkpt>
      <trkpt lat="45.38801" lon="4.03272">
        <ele>1004</ele>
        <time>2012-03-26T08:06:45.000Z</time>
      </trkpt>
      <trkpt lat="45.38815" lon="4.03262">
        <ele>1005</ele>
        <time>2012-03-26T08:06:47.000Z</time>
      </trkpt>
      <trkpt lat="45.38829" lon="4.03249">
        <ele>1003</ele>
        <time>2012-03-26T08:06:49.000Z</time>
      </trkpt>
      <trkpt lat="45.38841" lon="4.03235">
        <ele>1006</ele>
        <time>2012-03-26T08:06:51.000Z</time>
      </trkpt>
      <trkpt lat="45.38852" lon="4.03222">
        <ele>1004</ele>
        <time>2012-03-26T08:06:53.000Z</time>
      </trkpt>
      <trkpt lat="45.38862" lon="4.03208">
        <ele>1004</ele>
        <time>2012-03-26T08:06:55.000Z</time>
      </trkpt>
      <trkpt lat="45.38873" lon="4.03195">
        <ele>1003</ele>
        <time>2012-03-26T08:06:57.000Z</time>
      </trkpt>
      <trkpt lat="45.38884" lon="4.03184">
        <ele>1002</ele>
        <time>2012-03-26T08:06:59.000Z</time>
      </trkpt>
      <trkpt lat="45.38897" lon="4.03178">
        <ele>1002</ele>
        <time>2012-03-26T08:07:01.000Z</time>
      </trkpt>
      <trkpt lat="45.3891" lon="4.03174">
        <ele>1001</ele>
        <time>2012-03-26T08:07:03.000Z</time>
      </trkpt>
      <trkpt lat="45.38924" lon="4.03172">
        <ele>1000</ele>
        <time>2012-03-26T08:07:05.000Z</time>
      </trkpt>
      <trkpt lat="45.38937" lon="4.03171">
        <ele>1000</ele>
        <time>2012-03-26T08:07:07.000Z</time>
      </trkpt>
      <trkpt lat="45.38949" lon="4.03169">
        <ele>999</ele>
        <time>2012-03-26T08:07:09.000Z</time>
      </trkpt>
      <trkpt lat="45.38961" lon="4.03167">
        <ele>1000</ele>
        <time>2012-03-26T08:07:11.000Z</time>
      </trkpt>
      <trkpt lat="45.38971" lon="4.03163">
        <ele>1002</ele>
        <time>2012-03-26T08:07:13.000Z</time>
      </trkpt>
      <trkpt lat="45.38982" lon="4.03158">
        <ele>1002</ele>
        <time>2012-03-26T08:07:15.000Z</time>
      </trkpt>
      <trkpt lat="45.38992" lon="4.03152">
        <ele>1003</ele>
        <time>2012-03-26T08:07:17.000Z</time>
      </trkpt>
      <trkpt lat="45.39002" lon="4.03146">
        <ele>1002</ele>
        <time>2012-03-26T08:07:19.000Z</time>
      </trkpt>
      <trkpt lat="45.39013" lon="4.0314">
        <ele>1002</ele>
        <time>2012-03-26T08:07:21.000Z</time>
      </trkpt>
      <trkpt lat="45.39025" lon="4.03133">
        <ele>1001</ele>
        <time>2012-03-26T08:07:23.000Z</time>
      </trkpt>
      <trkpt lat="45.39037" lon="4.03126">
        <ele>1001</ele>
        <time>2012-03-26T08:07:25.000Z</time>
      </trkpt>
      <trkpt lat="45.3905" lon="4.03118">
        <ele>1000</ele>
        <time>2012-03-26T08:07:27.000Z</time>
      </trkpt>
      <trkpt lat="45.39063" lon="4.03112">
        <ele>1000</ele>
        <time>2012-03-26T08:07:29.000Z</time>
      </trkpt>
      <trkpt lat="45.39076" lon="4.03105">
        <ele>999</ele>
        <time>2012-03-26T08:07:31.000Z</time>
      </trkpt>
      <trkpt lat="45.39089" lon="4.03096">
        <ele>997</ele>
        <time>2012-03-26T08:07:33.000Z</time>
      </trkpt>
      <trkpt lat="45.39103" lon="4.03088">
        <ele>996</ele>
        <time>2012-03-26T08:07:35.000Z</time>
      </trkpt>
      <trkpt lat="45.39118" lon="4.03082">
        <ele>996</ele>
        <time>2012-03-26T08:07:37.000Z</time>
      </trkpt>
      <trkpt lat="45.39135" lon="4.03076">
        <ele>995</ele>
        <time>2012-03-26T08:07:39.000Z</time>
      </trkpt>
      <trkpt lat="45.39152" lon="4.0307">
        <ele>994</ele>
        <time>2012-03-26T08:07:41.000Z</time>
      </trkpt>
      <trkpt lat="45.39161" lon="4.03067">
        <ele>993</ele>
        <time>2012-03-26T08:07:42.000Z</time>
      </trkpt>
      <trkpt lat="45.3917" lon="4.03063">
        <ele>992</ele>
        <time>2012-03-26T08:07:43.000Z</time>
      </trkpt>
      <trkpt lat="45.39178" lon="4.03056">
        <ele>991</ele>
        <time>2012-03-26T08:07:44.000Z</time>
      </trkpt>
      <trkpt lat="45.39185" lon="4.03047">
        <ele>990</ele>
        <time>2012-03-26T08:07:45.000Z</time>
      </trkpt>
      <trkpt lat="45.39191" lon="4.03037">
        <ele>988</ele>
        <time>2012-03-26T08:07:46.000Z</time>
      </trkpt>
      <trkpt lat="45.39198" lon="4.03014">
        <ele>984</ele>
        <time>2012-03-26T08:07:48.000Z</time>
      </trkpt>
      <trkpt lat="45.39204" lon="4.02994">
        <ele>982</ele>
        <time>2012-03-26T08:07:50.000Z</time>
      </trkpt>
      <trkpt lat="45.39213" lon="4.0298">
        <ele>981</ele>
        <time>2012-03-26T08:07:52.000Z</time>
      </trkpt>
      <trkpt lat="45.39225" lon="4.02968">
        <ele>980</ele>
        <time>2012-03-26T08:07:54.000Z</time>
      </trkpt>
      <trkpt lat="45.39238" lon="4.02957">
        <ele>980</ele>
        <time>2012-03-26T08:07:56.000Z</time>
      </trkpt>
      <trkpt lat="45.39252" lon="4.02947">
        <ele>977</ele>
        <time>2012-03-26T08:07:58.000Z</time>
      </trkpt>
      <trkpt lat="45.3926" lon="4.02941">
        <ele>973</ele>
        <time>2012-03-26T08:07:59.000Z</time>
      </trkpt>
      <trkpt lat="45.39269" lon="4.02934">
        <ele>971</ele>
        <time>2012-03-26T08:08:00.000Z</time>
      </trkpt>
      <trkpt lat="45.39278" lon="4.02928">
        <ele>970</ele>
        <time>2012-03-26T08:08:01.000Z</time>
      </trkpt>
      <trkpt lat="45.39286" lon="4.02923">
        <ele>970</ele>
        <time>2012-03-26T08:08:02.000Z</time>
      </trkpt>
      <trkpt lat="45.39295" lon="4.02917">
        <ele>969</ele>
        <time>2012-03-26T08:08:03.000Z</time>
      </trkpt>
      <trkpt lat="45.39304" lon="4.02912">
        <ele>968</ele>
        <time>2012-03-26T08:08:04.000Z</time>
      </trkpt>
      <trkpt lat="45.39313" lon="4.02906">
        <ele>967</ele>
        <time>2012-03-26T08:08:05.000Z</time>
      </trkpt>
      <trkpt lat="45.39321" lon="4.029">
        <ele>966</ele>
        <time>2012-03-26T08:08:06.000Z</time>
      </trkpt>
      <trkpt lat="45.39329" lon="4.02892">
        <ele>966</ele>
        <time>2012-03-26T08:08:07.000Z</time>
      </trkpt>
      <trkpt lat="45.39337" lon="4.02883">
        <ele>965</ele>
        <time>2012-03-26T08:08:08.000Z</time>
      </trkpt>
      <trkpt lat="45.39345" lon="4.02874">
        <ele>964</ele>
        <time>2012-03-26T08:08:09.000Z</time>
      </trkpt>
      <trkpt lat="45.39352" lon="4.02866">
        <ele>963</ele>
        <time>2012-03-26T08:08:10.000Z</time>
      </trkpt>
      <trkpt lat="45.39369" lon="4.02855">
        <ele>963</ele>
        <time>2012-03-26T08:08:12.000Z</time>
      </trkpt>
      <trkpt lat="45.39378" lon="4.02852">
        <ele>962</ele>
        <time>2012-03-26T08:08:13.000Z</time>
      </trkpt>
      <trkpt lat="45.39387" lon="4.02848">
        <ele>962</ele>
        <time>2012-03-26T08:08:14.000Z</time>
      </trkpt>
      <trkpt lat="45.39396" lon="4.02844">
        <ele>961</ele>
        <time>2012-03-26T08:08:15.000Z</time>
      </trkpt>
      <trkpt lat="45.39404" lon="4.0284">
        <ele>960</ele>
        <time>2012-03-26T08:08:16.000Z</time>
      </trkpt>
      <trkpt lat="45.39413" lon="4.02836">
        <ele>958</ele>
        <time>2012-03-26T08:08:17.000Z</time>
      </trkpt>
      <trkpt lat="45.39422" lon="4.02831">
        <ele>957</ele>
        <time>2012-03-26T08:08:18.000Z</time>
      </trkpt>
      <trkpt lat="45.3943" lon="4.02826">
        <ele>955</ele>
        <time>2012-03-26T08:08:19.000Z</time>
      </trkpt>
      <trkpt lat="45.39444" lon="4.02814">
        <ele>956</ele>
        <time>2012-03-26T08:08:21.000Z</time>
      </trkpt>
      <trkpt lat="45.39456" lon="4.02801">
        <ele>954</ele>
        <time>2012-03-26T08:08:23.000Z</time>
      </trkpt>
      <trkpt lat="45.39466" lon="4.02787">
        <ele>954</ele>
        <time>2012-03-26T08:08:25.000Z</time>
      </trkpt>
      <trkpt lat="45.39471" lon="4.02773">
        <ele>956</ele>
        <time>2012-03-26T08:08:27.000Z</time>
      </trkpt>
      <trkpt lat="45.39472" lon="4.02758">
        <ele>955</ele>
        <time>2012-03-26T08:08:29.000Z</time>
      </trkpt>
      <trkpt lat="45.39473" lon="4.02742">
        <ele>955</ele>
        <time>2012-03-26T08:08:31.000Z</time>
      </trkpt>
      <trkpt lat="45.39479" lon="4.02727">
        <ele>956</ele>
        <time>2012-03-26T08:08:33.000Z</time>
      </trkpt>
      <trkpt lat="45.39488" lon="4.02714">
        <ele>955</ele>
        <time>2012-03-26T08:08:35.000Z</time>
      </trkpt>
      <trkpt lat="45.39498" lon="4.02703">
        <ele>954</ele>
        <time>2012-03-26T08:08:37.000Z</time>
      </trkpt>
      <trkpt lat="45.39506" lon="4.02694">
        <ele>955</ele>
        <time>2012-03-26T08:08:39.000Z</time>
      </trkpt>
      <trkpt lat="45.39513" lon="4.02687">
        <ele>956</ele>
        <time>2012-03-26T08:08:41.000Z</time>
      </trkpt>
      <trkpt lat="45.39527" lon="4.02677">
        <ele>957</ele>
        <time>2012-03-26T08:08:45.000Z</time>
      </trkpt>
      <trkpt lat="45.39541" lon="4.02667">
        <ele>958</ele>
        <time>2012-03-26T08:08:49.000Z</time>
      </trkpt>
      <trkpt lat="45.39553" lon="4.02651">
        <ele>960</ele>
        <time>2012-03-26T08:08:53.000Z</time>
      </trkpt>
      <trkpt lat="45.3956" lon="4.02643">
        <ele>960</ele>
        <time>2012-03-26T08:08:55.000Z</time>
      </trkpt>
      <trkpt lat="45.39568" lon="4.02634">
        <ele>960</ele>
        <time>2012-03-26T08:08:57.000Z</time>
      </trkpt>
      <trkpt lat="45.39577" lon="4.02624">
        <ele>959</ele>
        <time>2012-03-26T08:08:59.000Z</time>
      </trkpt>
      <trkpt lat="45.39587" lon="4.02611">
        <ele>959</ele>
        <time>2012-03-26T08:09:02.000Z</time>
      </trkpt>
      <trkpt lat="45.39599" lon="4.02612">
        <ele>961</ele>
        <time>2012-03-26T08:09:06.000Z</time>
      </trkpt>
      <trkpt lat="45.39606" lon="4.02626">
        <ele>959</ele>
        <time>2012-03-26T08:09:10.000Z</time>
      </trkpt>
      <trkpt lat="45.39613" lon="4.02641">
        <ele>961</ele>
        <time>2012-03-26T08:09:15.000Z</time>
      </trkpt>
      <trkpt lat="45.3962" lon="4.02653">
        <ele>962</ele>
        <time>2012-03-26T08:09:19.000Z</time>
      </trkpt>
      <trkpt lat="45.39627" lon="4.02666">
        <ele>964</ele>
        <time>2012-03-26T08:09:25.000Z</time>
      </trkpt>
      <trkpt lat="45.39632" lon="4.02677">
        <ele>965</ele>
        <time>2012-03-26T08:09:29.000Z</time>
      </trkpt>
      <trkpt lat="45.39637" lon="4.0269">
        <ele>965</ele>
        <time>2012-03-26T08:09:33.000Z</time>
      </trkpt>
      <trkpt lat="45.39642" lon="4.02702">
        <ele>967</ele>
        <time>2012-03-26T08:09:37.000Z</time>
      </trkpt>
      <trkpt lat="45.39647" lon="4.02715">
        <ele>966</ele>
        <time>2012-03-26T08:09:41.000Z</time>
      </trkpt>
      <trkpt lat="45.39652" lon="4.02728">
        <ele>967</ele>
        <time>2012-03-26T08:09:45.000Z</time>
      </trkpt>
      <trkpt lat="45.39658" lon="4.02746">
        <ele>968</ele>
        <time>2012-03-26T08:09:49.000Z</time>
      </trkpt>
      <trkpt lat="45.3967" lon="4.02757">
        <ele>969</ele>
        <time>2012-03-26T08:09:53.000Z</time>
      </trkpt>
      <trkpt lat="45.39686" lon="4.02761">
        <ele>970</ele>
        <time>2012-03-26T08:09:57.000Z</time>
      </trkpt>
      <trkpt lat="45.39702" lon="4.02765">
        <ele>968</ele>
        <time>2012-03-26T08:10:01.000Z</time>
      </trkpt>
      <trkpt lat="45.39717" lon="4.02767">
        <ele>969</ele>
        <time>2012-03-26T08:10:05.000Z</time>
      </trkpt>
      <trkpt lat="45.39731" lon="4.02769">
        <ele>970</ele>
        <time>2012-03-26T08:10:09.000Z</time>
      </trkpt>
      <trkpt lat="45.39744" lon="4.0277">
        <ele>971</ele>
        <time>2012-03-26T08:10:13.000Z</time>
      </trkpt>
      <trkpt lat="45.39754" lon="4.02771">
        <ele>972</ele>
        <time>2012-03-26T08:10:17.000Z</time>
      </trkpt>
      <trkpt lat="45.39765" lon="4.02773">
        <ele>975</ele>
        <time>2012-03-26T08:10:22.000Z</time>
      </trkpt>
      <trkpt lat="45.39777" lon="4.02777">
        <ele>978</ele>
        <time>2012-03-26T08:10:27.000Z</time>
      </trkpt>
      <trkpt lat="45.39788" lon="4.02782">
        <ele>978</ele>
        <time>2012-03-26T08:10:31.000Z</time>
      </trkpt>
      <trkpt lat="45.39799" lon="4.02787">
        <ele>977</ele>
        <time>2012-03-26T08:10:35.000Z</time>
      </trkpt>
      <trkpt lat="45.3981" lon="4.02794">
        <ele>978</ele>
        <time>2012-03-26T08:10:39.000Z</time>
      </trkpt>
      <trkpt lat="45.39822" lon="4.02805">
        <ele>978</ele>
        <time>2012-03-26T08:10:43.000Z</time>
      </trkpt>
      <trkpt lat="45.39829" lon="4.02812">
        <ele>978</ele>
        <time>2012-03-26T08:10:45.000Z</time>
      </trkpt>
      <trkpt lat="45.39837" lon="4.02821">
        <ele>978</ele>
        <time>2012-03-26T08:10:47.000Z</time>
      </trkpt>
      <trkpt lat="45.39845" lon="4.0283">
        <ele>977</ele>
        <time>2012-03-26T08:10:49.000Z</time>
      </trkpt>
      <trkpt lat="45.39853" lon="4.02838">
        <ele>976</ele>
        <time>2012-03-26T08:10:51.000Z</time>
      </trkpt>
      <trkpt lat="45.39862" lon="4.02845">
        <ele>976</ele>
        <time>2012-03-26T08:10:53.000Z</time>
      </trkpt>
      <trkpt lat="45.3987" lon="4.02852">
        <ele>977</ele>
        <time>2012-03-26T08:10:55.000Z</time>
      </trkpt>
      <trkpt lat="45.39879" lon="4.02858">
        <ele>977</ele>
        <time>2012-03-26T08:10:57.000Z</time>
      </trkpt>
      <trkpt lat="45.39893" lon="4.02871">
        <ele>978</ele>
        <time>2012-03-26T08:11:01.000Z</time>
      </trkpt>
      <trkpt lat="45.39905" lon="4.02876">
        <ele>980</ele>
        <time>2012-03-26T08:11:05.000Z</time>
      </trkpt>
      <trkpt lat="45.39917" lon="4.0287">
        <ele>980</ele>
        <time>2012-03-26T08:11:09.000Z</time>
      </trkpt>
      <trkpt lat="45.39932" lon="4.02859">
        <ele>978</ele>
        <time>2012-03-26T08:11:13.000Z</time>
      </trkpt>
      <trkpt lat="45.39942" lon="4.02854">
        <ele>978</ele>
        <time>2012-03-26T08:11:15.000Z</time>
      </trkpt>
      <trkpt lat="45.39953" lon="4.0285">
        <ele>978</ele>
        <time>2012-03-26T08:11:17.000Z</time>
      </trkpt>
      <trkpt lat="45.39963" lon="4.02847">
        <ele>976</ele>
        <time>2012-03-26T08:11:19.000Z</time>
      </trkpt>
      <trkpt lat="45.3997" lon="4.02838">
        <ele>973</ele>
        <time>2012-03-26T08:11:21.000Z</time>
      </trkpt>
      <trkpt lat="45.39977" lon="4.02823">
        <ele>970</ele>
        <time>2012-03-26T08:11:23.000Z</time>
      </trkpt>
      <trkpt lat="45.39986" lon="4.02804">
        <ele>969</ele>
        <time>2012-03-26T08:11:25.000Z</time>
      </trkpt>
      <trkpt lat="45.39995" lon="4.02783">
        <ele>968</ele>
        <time>2012-03-26T08:11:27.000Z</time>
      </trkpt>
      <trkpt lat="45.4001" lon="4.02768">
        <ele>967</ele>
        <time>2012-03-26T08:11:29.000Z</time>
      </trkpt>
      <trkpt lat="45.40026" lon="4.0276">
        <ele>968</ele>
        <time>2012-03-26T08:11:31.000Z</time>
      </trkpt>
      <trkpt lat="45.40043" lon="4.02753">
        <ele>968</ele>
        <time>2012-03-26T08:11:33.000Z</time>
      </trkpt>
      <trkpt lat="45.40059" lon="4.02747">
        <ele>967</ele>
        <time>2012-03-26T08:11:35.000Z</time>
      </trkpt>
      <trkpt lat="45.40074" lon="4.02739">
        <ele>966</ele>
        <time>2012-03-26T08:11:37.000Z</time>
      </trkpt>
      <trkpt lat="45.40087" lon="4.0273">
        <ele>965</ele>
        <time>2012-03-26T08:11:39.000Z</time>
      </trkpt>
      <trkpt lat="45.40099" lon="4.0272">
        <ele>965</ele>
        <time>2012-03-26T08:11:41.000Z</time>
      </trkpt>
      <trkpt lat="45.40112" lon="4.0271">
        <ele>962</ele>
        <time>2012-03-26T08:11:43.000Z</time>
      </trkpt>
      <trkpt lat="45.40125" lon="4.02699">
        <ele>963</ele>
        <time>2012-03-26T08:11:45.000Z</time>
      </trkpt>
      <trkpt lat="45.40137" lon="4.02688">
        <ele>963</ele>
        <time>2012-03-26T08:11:47.000Z</time>
      </trkpt>
      <trkpt lat="45.40149" lon="4.02678">
        <ele>962</ele>
        <time>2012-03-26T08:11:49.000Z</time>
      </trkpt>
      <trkpt lat="45.4016" lon="4.02667">
        <ele>961</ele>
        <time>2012-03-26T08:11:51.000Z</time>
      </trkpt>
      <trkpt lat="45.40173" lon="4.02656">
        <ele>959</ele>
        <time>2012-03-26T08:11:53.000Z</time>
      </trkpt>
      <trkpt lat="45.40187" lon="4.02645">
        <ele>957</ele>
        <time>2012-03-26T08:11:55.000Z</time>
      </trkpt>
      <trkpt lat="45.40203" lon="4.02638">
        <ele>957</ele>
        <time>2012-03-26T08:11:57.000Z</time>
      </trkpt>
      <trkpt lat="45.4022" lon="4.02634">
        <ele>955</ele>
        <time>2012-03-26T08:11:59.000Z</time>
      </trkpt>
      <trkpt lat="45.4023" lon="4.02634">
        <ele>954</ele>
        <time>2012-03-26T08:12:00.000Z</time>
      </trkpt>
      <trkpt lat="45.40239" lon="4.02638">
        <ele>953</ele>
        <time>2012-03-26T08:12:01.000Z</time>
      </trkpt>
      <trkpt lat="45.40248" lon="4.02643">
        <ele>952</ele>
        <time>2012-03-26T08:12:02.000Z</time>
      </trkpt>
      <trkpt lat="45.40257" lon="4.02651">
        <ele>951</ele>
        <time>2012-03-26T08:12:03.000Z</time>
      </trkpt>
      <trkpt lat="45.40266" lon="4.0266">
        <ele>951</ele>
        <time>2012-03-26T08:12:04.000Z</time>
      </trkpt>
      <trkpt lat="45.40274" lon="4.02668">
        <ele>950</ele>
        <time>2012-03-26T08:12:05.000Z</time>
      </trkpt>
      <trkpt lat="45.40282" lon="4.02677">
        <ele>951</ele>
        <time>2012-03-26T08:12:06.000Z</time>
      </trkpt>
      <trkpt lat="45.4029" lon="4.02685">
        <ele>952</ele>
        <time>2012-03-26T08:12:07.000Z</time>
      </trkpt>
      <trkpt lat="45.40297" lon="4.02694">
        <ele>953</ele>
        <time>2012-03-26T08:12:08.000Z</time>
      </trkpt>
      <trkpt lat="45.4031" lon="4.0271">
        <ele>951</ele>
        <time>2012-03-26T08:12:10.000Z</time>
      </trkpt>
      <trkpt lat="45.40321" lon="4.02726">
        <ele>954</ele>
        <time>2012-03-26T08:12:12.000Z</time>
      </trkpt>
      <trkpt lat="45.40333" lon="4.02739">
        <ele>957</ele>
        <time>2012-03-26T08:12:14.000Z</time>
      </trkpt>
      <trkpt lat="45.40346" lon="4.02752">
        <ele>957</ele>
        <time>2012-03-26T08:12:16.000Z</time>
      </trkpt>
      <trkpt lat="45.40359" lon="4.02761">
        <ele>957</ele>
        <time>2012-03-26T08:12:18.000Z</time>
      </trkpt>
      <trkpt lat="45.40371" lon="4.02769">
        <ele>956</ele>
        <time>2012-03-26T08:12:20.000Z</time>
      </trkpt>
      <trkpt lat="45.40383" lon="4.02775">
        <ele>954</ele>
        <time>2012-03-26T08:12:22.000Z</time>
      </trkpt>
      <trkpt lat="45.40394" lon="4.0278">
        <ele>953</ele>
        <time>2012-03-26T08:12:24.000Z</time>
      </trkpt>
      <trkpt lat="45.40405" lon="4.02782">
        <ele>956</ele>
        <time>2012-03-26T08:12:26.000Z</time>
      </trkpt>
      <trkpt lat="45.40418" lon="4.02783">
        <ele>960</ele>
        <time>2012-03-26T08:12:28.000Z</time>
      </trkpt>
      <trkpt lat="45.40428" lon="4.02783">
        <ele>960</ele>
        <time>2012-03-26T08:12:30.000Z</time>
      </trkpt>
      <trkpt lat="45.40441" lon="4.02783">
        <ele>963</ele>
        <time>2012-03-26T08:12:33.000Z</time>
      </trkpt>
      <trkpt lat="45.40456" lon="4.02782">
        <ele>959</ele>
        <time>2012-03-26T08:12:37.000Z</time>
      </trkpt>
      <trkpt lat="45.40469" lon="4.02778">
        <ele>959</ele>
        <time>2012-03-26T08:12:41.000Z</time>
      </trkpt>
      <trkpt lat="45.40481" lon="4.02775">
        <ele>958</ele>
        <time>2012-03-26T08:12:45.000Z</time>
      </trkpt>
      <trkpt lat="45.40493" lon="4.02771">
        <ele>956</ele>
        <time>2012-03-26T08:12:49.000Z</time>
      </trkpt>
      <trkpt lat="45.40505" lon="4.02767">
        <ele>957</ele>
        <time>2012-03-26T08:12:53.000Z</time>
      </trkpt>
      <trkpt lat="45.40515" lon="4.02763">
        <ele>959</ele>
        <time>2012-03-26T08:12:57.000Z</time>
      </trkpt>
      <trkpt lat="45.40526" lon="4.02758">
        <ele>959</ele>
        <time>2012-03-26T08:13:01.000Z</time>
      </trkpt>
      <trkpt lat="45.40537" lon="4.02753">
        <ele>960</ele>
        <time>2012-03-26T08:13:05.000Z</time>
      </trkpt>
      <trkpt lat="45.40548" lon="4.02747">
        <ele>962</ele>
        <time>2012-03-26T08:13:09.000Z</time>
      </trkpt>
      <trkpt lat="45.40559" lon="4.02741">
        <ele>963</ele>
        <time>2012-03-26T08:13:13.000Z</time>
      </trkpt>
      <trkpt lat="45.4057" lon="4.02734">
        <ele>966</ele>
        <time>2012-03-26T08:13:17.000Z</time>
      </trkpt>
      <trkpt lat="45.40581" lon="4.0273">
        <ele>973</ele>
        <time>2012-03-26T08:13:21.000Z</time>
      </trkpt>
      <trkpt lat="45.40596" lon="4.02729">
        <ele>973</ele>
        <time>2012-03-26T08:13:25.000Z</time>
      </trkpt>
      <trkpt lat="45.40612" lon="4.02729">
        <ele>973</ele>
        <time>2012-03-26T08:13:29.000Z</time>
      </trkpt>
      <trkpt lat="45.40625" lon="4.02731">
        <ele>973</ele>
        <time>2012-03-26T08:13:32.000Z</time>
      </trkpt>
      <trkpt lat="45.40642" lon="4.02736">
        <ele>971</ele>
        <time>2012-03-26T08:13:36.000Z</time>
      </trkpt>
      <trkpt lat="45.40651" lon="4.0274">
        <ele>968</ele>
        <time>2012-03-26T08:13:38.000Z</time>
      </trkpt>
      <trkpt lat="45.40659" lon="4.02743">
        <ele>967</ele>
        <time>2012-03-26T08:13:40.000Z</time>
      </trkpt>
      <trkpt lat="45.4067" lon="4.02747">
        <ele>964</ele>
        <time>2012-03-26T08:13:42.000Z</time>
      </trkpt>
      <trkpt lat="45.4068" lon="4.02749">
        <ele>964</ele>
        <time>2012-03-26T08:13:44.000Z</time>
      </trkpt>
      <trkpt lat="45.4069" lon="4.02751">
        <ele>965</ele>
        <time>2012-03-26T08:13:46.000Z</time>
      </trkpt>
      <trkpt lat="45.407" lon="4.02753">
        <ele>965</ele>
        <time>2012-03-26T08:13:48.000Z</time>
      </trkpt>
      <trkpt lat="45.4071" lon="4.02756">
        <ele>965</ele>
        <time>2012-03-26T08:13:50.000Z</time>
      </trkpt>
      <trkpt lat="45.4072" lon="4.02758">
        <ele>965</ele>
        <time>2012-03-26T08:13:52.000Z</time>
      </trkpt>
      <trkpt lat="45.40733" lon="4.02759">
        <ele>966</ele>
        <time>2012-03-26T08:13:55.000Z</time>
      </trkpt>
      <trkpt lat="45.40743" lon="4.0276">
        <ele>966</ele>
        <time>2012-03-26T08:13:57.000Z</time>
      </trkpt>
      <trkpt lat="45.40752" lon="4.02761">
        <ele>965</ele>
        <time>2012-03-26T08:13:59.000Z</time>
      </trkpt>
      <trkpt lat="45.40768" lon="4.02763">
        <ele>965</ele>
        <time>2012-03-26T08:14:03.000Z</time>
      </trkpt>
      <trkpt lat="45.40783" lon="4.02769">
        <ele>965</ele>
        <time>2012-03-26T08:14:07.000Z</time>
      </trkpt>
      <trkpt lat="45.40797" lon="4.02773">
        <ele>967</ele>
        <time>2012-03-26T08:14:11.000Z</time>
      </trkpt>
      <trkpt lat="45.40813" lon="4.02775">
        <ele>969</ele>
        <time>2012-03-26T08:14:15.000Z</time>
      </trkpt>
      <trkpt lat="45.40828" lon="4.02775">
        <ele>965</ele>
        <time>2012-03-26T08:14:19.000Z</time>
      </trkpt>
      <trkpt lat="45.40845" lon="4.02772">
        <ele>970</ele>
        <time>2012-03-26T08:14:23.000Z</time>
      </trkpt>
      <trkpt lat="45.40855" lon="4.02766">
        <ele>970</ele>
        <time>2012-03-26T08:14:25.000Z</time>
      </trkpt>
      <trkpt lat="45.40867" lon="4.02757">
        <ele>973</ele>
        <time>2012-03-26T08:14:28.000Z</time>
      </trkpt>
      <trkpt lat="45.40876" lon="4.02752">
        <ele>969</ele>
        <time>2012-03-26T08:14:30.000Z</time>
      </trkpt>
      <trkpt lat="45.40889" lon="4.02747">
        <ele>969</ele>
        <time>2012-03-26T08:14:33.000Z</time>
      </trkpt>
      <trkpt lat="45.40903" lon="4.02738">
        <ele>969</ele>
        <time>2012-03-26T08:14:37.000Z</time>
      </trkpt>
      <trkpt lat="45.40917" lon="4.02731">
        <ele>970</ele>
        <time>2012-03-26T08:14:41.000Z</time>
      </trkpt>
      <trkpt lat="45.40932" lon="4.02724">
        <ele>971</ele>
        <time>2012-03-26T08:14:45.000Z</time>
      </trkpt>
      <trkpt lat="45.40947" lon="4.02718">
        <ele>971</ele>
        <time>2012-03-26T08:14:49.000Z</time>
      </trkpt>
      <trkpt lat="45.40962" lon="4.0271">
        <ele>972</ele>
        <time>2012-03-26T08:14:53.000Z</time>
      </trkpt>
      <trkpt lat="45.40978" lon="4.02703">
        <ele>970</ele>
        <time>2012-03-26T08:14:57.000Z</time>
      </trkpt>
      <trkpt lat="45.40992" lon="4.02694">
        <ele>973</ele>
        <time>2012-03-26T08:15:01.000Z</time>
      </trkpt>
      <trkpt lat="45.41005" lon="4.02687">
        <ele>973</ele>
        <time>2012-03-26T08:15:04.000Z</time>
      </trkpt>
      <trkpt lat="45.41015" lon="4.02682">
        <ele>972</ele>
        <time>2012-03-26T08:15:06.000Z</time>
      </trkpt>
      <trkpt lat="45.41024" lon="4.02678">
        <ele>971</ele>
        <time>2012-03-26T08:15:08.000Z</time>
      </trkpt>
      <trkpt lat="45.41033" lon="4.02671">
        <ele>970</ele>
        <time>2012-03-26T08:15:10.000Z</time>
      </trkpt>
      <trkpt lat="45.41042" lon="4.02664">
        <ele>969</ele>
        <time>2012-03-26T08:15:12.000Z</time>
      </trkpt>
      <trkpt lat="45.4105" lon="4.02655">
        <ele>968</ele>
        <time>2012-03-26T08:15:14.000Z</time>
      </trkpt>
      <trkpt lat="45.41057" lon="4.02645">
        <ele>968</ele>
        <time>2012-03-26T08:15:16.000Z</time>
      </trkpt>
      <trkpt lat="45.41064" lon="4.02635">
        <ele>968</ele>
        <time>2012-03-26T08:15:18.000Z</time>
      </trkpt>
      <trkpt lat="45.41074" lon="4.02622">
        <ele>967</ele>
        <time>2012-03-26T08:15:21.000Z</time>
      </trkpt>
      <trkpt lat="45.41081" lon="4.02613">
        <ele>968</ele>
        <time>2012-03-26T08:15:23.000Z</time>
      </trkpt>
      <trkpt lat="45.41091" lon="4.02601">
        <ele>967</ele>
        <time>2012-03-26T08:15:26.000Z</time>
      </trkpt>
      <trkpt lat="45.41099" lon="4.02594">
        <ele>967</ele>
        <time>2012-03-26T08:15:28.000Z</time>
      </trkpt>
      <trkpt lat="45.41107" lon="4.02589">
        <ele>967</ele>
        <time>2012-03-26T08:15:30.000Z</time>
      </trkpt>
      <trkpt lat="45.41117" lon="4.02587">
        <ele>967</ele>
        <time>2012-03-26T08:15:32.000Z</time>
      </trkpt>
      <trkpt lat="45.4113" lon="4.02586">
        <ele>969</ele>
        <time>2012-03-26T08:15:35.000Z</time>
      </trkpt>
      <trkpt lat="45.41146" lon="4.02584">
        <ele>967</ele>
        <time>2012-03-26T08:15:39.000Z</time>
      </trkpt>
      <trkpt lat="45.41159" lon="4.0258">
        <ele>967</ele>
        <time>2012-03-26T08:15:42.000Z</time>
      </trkpt>
      <trkpt lat="45.41174" lon="4.02578">
        <ele>967</ele>
        <time>2012-03-26T08:15:46.000Z</time>
      </trkpt>
      <trkpt lat="45.41189" lon="4.02579">
        <ele>968</ele>
        <time>2012-03-26T08:15:50.000Z</time>
      </trkpt>
      <trkpt lat="45.41198" lon="4.0258">
        <ele>968</ele>
        <time>2012-03-26T08:15:52.000Z</time>
      </trkpt>
      <trkpt lat="45.41209" lon="4.02581">
        <ele>968</ele>
        <time>2012-03-26T08:15:54.000Z</time>
      </trkpt>
      <trkpt lat="45.41221" lon="4.02583">
        <ele>966</ele>
        <time>2012-03-26T08:15:56.000Z</time>
      </trkpt>
      <trkpt lat="45.41235" lon="4.02585">
        <ele>965</ele>
        <time>2012-03-26T08:15:58.000Z</time>
      </trkpt>
      <trkpt lat="45.41251" lon="4.02583">
        <ele>962</ele>
        <time>2012-03-26T08:16:00.000Z</time>
      </trkpt>
      <trkpt lat="45.41265" lon="4.0258">
        <ele>961</ele>
        <time>2012-03-26T08:16:02.000Z</time>
      </trkpt>
      <trkpt lat="45.41278" lon="4.02576">
        <ele>960</ele>
        <time>2012-03-26T08:16:04.000Z</time>
      </trkpt>
      <trkpt lat="45.41292" lon="4.02574">
        <ele>958</ele>
        <time>2012-03-26T08:16:06.000Z</time>
      </trkpt>
      <trkpt lat="45.41304" lon="4.02573">
        <ele>959</ele>
        <time>2012-03-26T08:16:08.000Z</time>
      </trkpt>
      <trkpt lat="45.41317" lon="4.02572">
        <ele>959</ele>
        <time>2012-03-26T08:16:10.000Z</time>
      </trkpt>
      <trkpt lat="45.41331" lon="4.02573">
        <ele>959</ele>
        <time>2012-03-26T08:16:12.000Z</time>
      </trkpt>
      <trkpt lat="45.41344" lon="4.02573">
        <ele>958</ele>
        <time>2012-03-26T08:16:14.000Z</time>
      </trkpt>
      <trkpt lat="45.41356" lon="4.02569">
        <ele>956</ele>
        <time>2012-03-26T08:16:16.000Z</time>
      </trkpt>
      <trkpt lat="45.41369" lon="4.02563">
        <ele>955</ele>
        <time>2012-03-26T08:16:18.000Z</time>
      </trkpt>
      <trkpt lat="45.41381" lon="4.02556">
        <ele>955</ele>
        <time>2012-03-26T08:16:20.000Z</time>
      </trkpt>
      <trkpt lat="45.41393" lon="4.02548">
        <ele>955</ele>
        <time>2012-03-26T08:16:22.000Z</time>
      </trkpt>
      <trkpt lat="45.41404" lon="4.02541">
        <ele>955</ele>
        <time>2012-03-26T08:16:24.000Z</time>
      </trkpt>
      <trkpt lat="45.41415" lon="4.02536">
        <ele>956</ele>
        <time>2012-03-26T08:16:26.000Z</time>
      </trkpt>
      <trkpt lat="45.41426" lon="4.02536">
        <ele>956</ele>
        <time>2012-03-26T08:16:28.000Z</time>
      </trkpt>
      <trkpt lat="45.41437" lon="4.0254">
        <ele>957</ele>
        <time>2012-03-26T08:16:30.000Z</time>
      </trkpt>
      <trkpt lat="45.41448" lon="4.02544">
        <ele>957</ele>
        <time>2012-03-26T08:16:32.000Z</time>
      </trkpt>
      <trkpt lat="45.41458" lon="4.02546">
        <ele>957</ele>
        <time>2012-03-26T08:16:34.000Z</time>
      </trkpt>
      <trkpt lat="45.41469" lon="4.02549">
        <ele>958</ele>
        <time>2012-03-26T08:16:36.000Z</time>
      </trkpt>
      <trkpt lat="45.41479" lon="4.02551">
        <ele>958</ele>
        <time>2012-03-26T08:16:38.000Z</time>
      </trkpt>
      <trkpt lat="45.41491" lon="4.02554">
        <ele>958</ele>
        <time>2012-03-26T08:16:40.000Z</time>
      </trkpt>
      <trkpt lat="45.41503" lon="4.02557">
        <ele>958</ele>
        <time>2012-03-26T08:16:42.000Z</time>
      </trkpt>
      <trkpt lat="45.41516" lon="4.02559">
        <ele>959</ele>
        <time>2012-03-26T08:16:44.000Z</time>
      </trkpt>
      <trkpt lat="45.41529" lon="4.02561">
        <ele>962</ele>
        <time>2012-03-26T08:16:46.000Z</time>
      </trkpt>
      <trkpt lat="45.41542" lon="4.02564">
        <ele>962</ele>
        <time>2012-03-26T08:16:48.000Z</time>
      </trkpt>
      <trkpt lat="45.41554" lon="4.02568">
        <ele>958</ele>
        <time>2012-03-26T08:16:50.000Z</time>
      </trkpt>
      <trkpt lat="45.41566" lon="4.02574">
        <ele>957</ele>
        <time>2012-03-26T08:16:52.000Z</time>
      </trkpt>
      <trkpt lat="45.41577" lon="4.02581">
        <ele>957</ele>
        <time>2012-03-26T08:16:54.000Z</time>
      </trkpt>
      <trkpt lat="45.41587" lon="4.0259">
        <ele>957</ele>
        <time>2012-03-26T08:16:56.000Z</time>
      </trkpt>
      <trkpt lat="45.41597" lon="4.02601">
        <ele>956</ele>
        <time>2012-03-26T08:16:58.000Z</time>
      </trkpt>
      <trkpt lat="45.41606" lon="4.02612">
        <ele>956</ele>
        <time>2012-03-26T08:17:00.000Z</time>
      </trkpt>
      <trkpt lat="45.41615" lon="4.02624">
        <ele>955</ele>
        <time>2012-03-26T08:17:02.000Z</time>
      </trkpt>
      <trkpt lat="45.41623" lon="4.02637">
        <ele>955</ele>
        <time>2012-03-26T08:17:04.000Z</time>
      </trkpt>
      <trkpt lat="45.41631" lon="4.02649">
        <ele>953</ele>
        <time>2012-03-26T08:17:06.000Z</time>
      </trkpt>
      <trkpt lat="45.41639" lon="4.0266">
        <ele>953</ele>
        <time>2012-03-26T08:17:08.000Z</time>
      </trkpt>
      <trkpt lat="45.41647" lon="4.02672">
        <ele>954</ele>
        <time>2012-03-26T08:17:10.000Z</time>
      </trkpt>
      <trkpt lat="45.41654" lon="4.02683">
        <ele>955</ele>
        <time>2012-03-26T08:17:12.000Z</time>
      </trkpt>
      <trkpt lat="45.41662" lon="4.02694">
        <ele>955</ele>
        <time>2012-03-26T08:17:14.000Z</time>
      </trkpt>
      <trkpt lat="45.4167" lon="4.02705">
        <ele>956</ele>
        <time>2012-03-26T08:17:16.000Z</time>
      </trkpt>
      <trkpt lat="45.41678" lon="4.02715">
        <ele>956</ele>
        <time>2012-03-26T08:17:18.000Z</time>
      </trkpt>
      <trkpt lat="45.41685" lon="4.02726">
        <ele>956</ele>
        <time>2012-03-26T08:17:20.000Z</time>
      </trkpt>
      <trkpt lat="45.41692" lon="4.02737">
        <ele>956</ele>
        <time>2012-03-26T08:17:22.000Z</time>
      </trkpt>
      <trkpt lat="45.41697" lon="4.0275">
        <ele>956</ele>
        <time>2012-03-26T08:17:24.000Z</time>
      </trkpt>
      <trkpt lat="45.41698" lon="4.02765">
        <ele>956</ele>
        <time>2012-03-26T08:17:26.000Z</time>
      </trkpt>
      <trkpt lat="45.41698" lon="4.02779">
        <ele>956</ele>
        <time>2012-03-26T08:17:28.000Z</time>
      </trkpt>
      <trkpt lat="45.41695" lon="4.02802">
        <ele>960</ele>
        <time>2012-03-26T08:17:32.000Z</time>
      </trkpt>
      <trkpt lat="45.41692" lon="4.02815">
        <ele>958</ele>
        <time>2012-03-26T08:17:34.000Z</time>
      </trkpt>
      <trkpt lat="45.4169" lon="4.02829">
        <ele>957</ele>
        <time>2012-03-26T08:17:36.000Z</time>
      </trkpt>
      <trkpt lat="45.41688" lon="4.02844">
        <ele>957</ele>
        <time>2012-03-26T08:17:38.000Z</time>
      </trkpt>
      <trkpt lat="45.41689" lon="4.02857">
        <ele>958</ele>
        <time>2012-03-26T08:17:40.000Z</time>
      </trkpt>
      <trkpt lat="45.41691" lon="4.02871">
        <ele>958</ele>
        <time>2012-03-26T08:17:42.000Z</time>
      </trkpt>
      <trkpt lat="45.41694" lon="4.02884">
        <ele>959</ele>
        <time>2012-03-26T08:17:44.000Z</time>
      </trkpt>
      <trkpt lat="45.41699" lon="4.02896">
        <ele>959</ele>
        <time>2012-03-26T08:17:46.000Z</time>
      </trkpt>
      <trkpt lat="45.41704" lon="4.02908">
        <ele>960</ele>
        <time>2012-03-26T08:17:48.000Z</time>
      </trkpt>
      <trkpt lat="45.41708" lon="4.0292">
        <ele>960</ele>
        <time>2012-03-26T08:17:50.000Z</time>
      </trkpt>
      <trkpt lat="45.41714" lon="4.02937">
        <ele>961</ele>
        <time>2012-03-26T08:17:53.000Z</time>
      </trkpt>
      <trkpt lat="45.41721" lon="4.02959">
        <ele>961</ele>
        <time>2012-03-26T08:17:57.000Z</time>
      </trkpt>
      <trkpt lat="45.41737" lon="4.02966">
        <ele>962</ele>
        <time>2012-03-26T08:18:01.000Z</time>
      </trkpt>
      <trkpt lat="45.41753" lon="4.02962">
        <ele>962</ele>
        <time>2012-03-26T08:18:05.000Z</time>
      </trkpt>
      <trkpt lat="45.41766" lon="4.02961">
        <ele>961</ele>
        <time>2012-03-26T08:18:09.000Z</time>
      </trkpt>
      <trkpt lat="45.41778" lon="4.0296">
        <ele>963</ele>
        <time>2012-03-26T08:18:13.000Z</time>
      </trkpt>
      <trkpt lat="45.41788" lon="4.02948">
        <ele>962</ele>
        <time>2012-03-26T08:18:17.000Z</time>
      </trkpt>
      <trkpt lat="45.41801" lon="4.02935">
        <ele>961</ele>
        <time>2012-03-26T08:18:21.000Z</time>
      </trkpt>
      <trkpt lat="45.41811" lon="4.02921">
        <ele>961</ele>
        <time>2012-03-26T08:18:24.000Z</time>
      </trkpt>
      <trkpt lat="45.41818" lon="4.02912">
        <ele>961</ele>
        <time>2012-03-26T08:18:26.000Z</time>
      </trkpt>
      <trkpt lat="45.41826" lon="4.02903">
        <ele>961</ele>
        <time>2012-03-26T08:18:28.000Z</time>
      </trkpt>
      <trkpt lat="45.41836" lon="4.02895">
        <ele>961</ele>
        <time>2012-03-26T08:18:30.000Z</time>
      </trkpt>
      <trkpt lat="45.41846" lon="4.02889">
        <ele>961</ele>
        <time>2012-03-26T08:18:32.000Z</time>
      </trkpt>
      <trkpt lat="45.41856" lon="4.02885">
        <ele>962</ele>
        <time>2012-03-26T08:18:34.000Z</time>
      </trkpt>
      <trkpt lat="45.41868" lon="4.02883">
        <ele>963</ele>
        <time>2012-03-26T08:18:36.000Z</time>
      </trkpt>
      <trkpt lat="45.41879" lon="4.02882">
        <ele>962</ele>
        <time>2012-03-26T08:18:38.000Z</time>
      </trkpt>
      <trkpt lat="45.41891" lon="4.02882">
        <ele>962</ele>
        <time>2012-03-26T08:18:40.000Z</time>
      </trkpt>
      <trkpt lat="45.41902" lon="4.02882">
        <ele>962</ele>
        <time>2012-03-26T08:18:42.000Z</time>
      </trkpt>
      <trkpt lat="45.41914" lon="4.02882">
        <ele>962</ele>
        <time>2012-03-26T08:18:44.000Z</time>
      </trkpt>
      <trkpt lat="45.41925" lon="4.02883">
        <ele>958</ele>
        <time>2012-03-26T08:18:46.000Z</time>
      </trkpt>
      <trkpt lat="45.41935" lon="4.02883">
        <ele>960</ele>
        <time>2012-03-26T08:18:48.000Z</time>
      </trkpt>
      <trkpt lat="45.41944" lon="4.02882">
        <ele>960</ele>
        <time>2012-03-26T08:18:50.000Z</time>
      </trkpt>
      <trkpt lat="45.4196" lon="4.02872">
        <ele>964</ele>
        <time>2012-03-26T08:18:54.000Z</time>
      </trkpt>
      <trkpt lat="45.4197" lon="4.0286">
        <ele>965</ele>
        <time>2012-03-26T08:18:57.000Z</time>
      </trkpt>
      <trkpt lat="45.41977" lon="4.02851">
        <ele>964</ele>
        <time>2012-03-26T08:18:59.000Z</time>
      </trkpt>
      <trkpt lat="45.41986" lon="4.02837">
        <ele>965</ele>
        <time>2012-03-26T08:19:02.000Z</time>
      </trkpt>
      <trkpt lat="45.41998" lon="4.02819">
        <ele>966</ele>
        <time>2012-03-26T08:19:06.000Z</time>
      </trkpt>
      <trkpt lat="45.42009" lon="4.02801">
        <ele>968</ele>
        <time>2012-03-26T08:19:10.000Z</time>
      </trkpt>
      <trkpt lat="45.42018" lon="4.02788">
        <ele>968</ele>
        <time>2012-03-26T08:19:13.000Z</time>
      </trkpt>
      <trkpt lat="45.4203" lon="4.02772">
        <ele>969</ele>
        <time>2012-03-26T08:19:17.000Z</time>
      </trkpt>
      <trkpt lat="45.42042" lon="4.02756">
        <ele>970</ele>
        <time>2012-03-26T08:19:21.000Z</time>
      </trkpt>
      <trkpt lat="45.42053" lon="4.02739">
        <ele>972</ele>
        <time>2012-03-26T08:19:25.000Z</time>
      </trkpt>
      <trkpt lat="45.42063" lon="4.02723">
        <ele>972</ele>
        <time>2012-03-26T08:19:29.000Z</time>
      </trkpt>
      <trkpt lat="45.42072" lon="4.02706">
        <ele>973</ele>
        <time>2012-03-26T08:19:33.000Z</time>
      </trkpt>
      <trkpt lat="45.42079" lon="4.02685">
        <ele>974</ele>
        <time>2012-03-26T08:19:37.000Z</time>
      </trkpt>
      <trkpt lat="45.42084" lon="4.02663">
        <ele>974</ele>
        <time>2012-03-26T08:19:41.000Z</time>
      </trkpt>
      <trkpt lat="45.42087" lon="4.02642">
        <ele>975</ele>
        <time>2012-03-26T08:19:45.000Z</time>
      </trkpt>
      <trkpt lat="45.42089" lon="4.02619">
        <ele>975</ele>
        <time>2012-03-26T08:19:49.000Z</time>
      </trkpt>
      <trkpt lat="45.42092" lon="4.026">
        <ele>975</ele>
        <time>2012-03-26T08:19:52.000Z</time>
      </trkpt>
      <trkpt lat="45.42094" lon="4.02587">
        <ele>975</ele>
        <time>2012-03-26T08:19:54.000Z</time>
      </trkpt>
      <trkpt lat="45.42096" lon="4.02574">
        <ele>975</ele>
        <time>2012-03-26T08:19:56.000Z</time>
      </trkpt>
      <trkpt lat="45.42098" lon="4.02561">
        <ele>975</ele>
        <time>2012-03-26T08:19:58.000Z</time>
      </trkpt>
      <trkpt lat="45.421" lon="4.02547">
        <ele>975</ele>
        <time>2012-03-26T08:20:00.000Z</time>
      </trkpt>
      <trkpt lat="45.42102" lon="4.02532">
        <ele>974</ele>
        <time>2012-03-26T08:20:02.000Z</time>
      </trkpt>
      <trkpt lat="45.42104" lon="4.02516">
        <ele>973</ele>
        <time>2012-03-26T08:20:04.000Z</time>
      </trkpt>
      <trkpt lat="45.42106" lon="4.02503">
        <ele>973</ele>
        <time>2012-03-26T08:20:06.000Z</time>
      </trkpt>
      <trkpt lat="45.42108" lon="4.02489">
        <ele>974</ele>
        <time>2012-03-26T08:20:08.000Z</time>
      </trkpt>
      <trkpt lat="45.42111" lon="4.02473">
        <ele>973</ele>
        <time>2012-03-26T08:20:10.000Z</time>
      </trkpt>
      <trkpt lat="45.42119" lon="4.02464">
        <ele>973</ele>
        <time>2012-03-26T08:20:12.000Z</time>
      </trkpt>
      <trkpt lat="45.42128" lon="4.02459">
        <ele>974</ele>
        <time>2012-03-26T08:20:14.000Z</time>
      </trkpt>
      <trkpt lat="45.42136" lon="4.02455">
        <ele>975</ele>
        <time>2012-03-26T08:20:16.000Z</time>
      </trkpt>
      <trkpt lat="45.42145" lon="4.02451">
        <ele>974</ele>
        <time>2012-03-26T08:20:18.000Z</time>
      </trkpt>
      <trkpt lat="45.42161" lon="4.02444">
        <ele>975</ele>
        <time>2012-03-26T08:20:22.000Z</time>
      </trkpt>
      <trkpt lat="45.42174" lon="4.02436">
        <ele>976</ele>
        <time>2012-03-26T08:20:26.000Z</time>
      </trkpt>
      <trkpt lat="45.42187" lon="4.02426">
        <ele>975</ele>
        <time>2012-03-26T08:20:30.000Z</time>
      </trkpt>
      <trkpt lat="45.42198" lon="4.02413">
        <ele>976</ele>
        <time>2012-03-26T08:20:34.000Z</time>
      </trkpt>
      <trkpt lat="45.42207" lon="4.02399">
        <ele>978</ele>
        <time>2012-03-26T08:20:38.000Z</time>
      </trkpt>
      <trkpt lat="45.42216" lon="4.02385">
        <ele>979</ele>
        <time>2012-03-26T08:20:42.000Z</time>
      </trkpt>
      <trkpt lat="45.42225" lon="4.02374">
        <ele>980</ele>
        <time>2012-03-26T08:20:46.000Z</time>
      </trkpt>
      <trkpt lat="45.42236" lon="4.02363">
        <ele>979</ele>
        <time>2012-03-26T08:20:50.000Z</time>
      </trkpt>
      <trkpt lat="45.42248" lon="4.02353">
        <ele>979</ele>
        <time>2012-03-26T08:20:54.000Z</time>
      </trkpt>
      <trkpt lat="45.42259" lon="4.02344">
        <ele>981</ele>
        <time>2012-03-26T08:20:58.000Z</time>
      </trkpt>
      <trkpt lat="45.4227" lon="4.02337">
        <ele>982</ele>
        <time>2012-03-26T08:21:02.000Z</time>
      </trkpt>
      <trkpt lat="45.42279" lon="4.0233">
        <ele>982</ele>
        <time>2012-03-26T08:21:06.000Z</time>
      </trkpt>
      <trkpt lat="45.42288" lon="4.02321">
        <ele>984</ele>
        <time>2012-03-26T08:21:10.000Z</time>
      </trkpt>
      <trkpt lat="45.42296" lon="4.02309">
        <ele>985</ele>
        <time>2012-03-26T08:21:15.000Z</time>
      </trkpt>
      <trkpt lat="45.42304" lon="4.02302">
        <ele>986</ele>
        <time>2012-03-26T08:21:19.000Z</time>
      </trkpt>
      <trkpt lat="45.42314" lon="4.02303">
        <ele>987</ele>
        <time>2012-03-26T08:21:23.000Z</time>
      </trkpt>
      <trkpt lat="45.42325" lon="4.02307">
        <ele>987</ele>
        <time>2012-03-26T08:21:27.000Z</time>
      </trkpt>
      <trkpt lat="45.42336" lon="4.02312">
        <ele>988</ele>
        <time>2012-03-26T08:21:31.000Z</time>
      </trkpt>
      <trkpt lat="45.42348" lon="4.02313">
        <ele>990</ele>
        <time>2012-03-26T08:21:35.000Z</time>
      </trkpt>
      <trkpt lat="45.42359" lon="4.02312">
        <ele>992</ele>
        <time>2012-03-26T08:21:39.000Z</time>
      </trkpt>
      <trkpt lat="45.42372" lon="4.0231">
        <ele>992</ele>
        <time>2012-03-26T08:21:43.000Z</time>
      </trkpt>
      <trkpt lat="45.42382" lon="4.02308">
        <ele>992</ele>
        <time>2012-03-26T08:21:47.000Z</time>
      </trkpt>
      <trkpt lat="45.42393" lon="4.02305">
        <ele>993</ele>
        <time>2012-03-26T08:21:51.000Z</time>
      </trkpt>
      <trkpt lat="45.42403" lon="4.02303">
        <ele>996</ele>
        <time>2012-03-26T08:21:55.000Z</time>
      </trkpt>
      <trkpt lat="45.42413" lon="4.02301">
        <ele>997</ele>
        <time>2012-03-26T08:21:59.000Z</time>
      </trkpt>
      <trkpt lat="45.42426" lon="4.023">
        <ele>996</ele>
        <time>2012-03-26T08:22:03.000Z</time>
      </trkpt>
      <trkpt lat="45.42438" lon="4.02302">
        <ele>995</ele>
        <time>2012-03-26T08:22:07.000Z</time>
      </trkpt>
      <trkpt lat="45.42451" lon="4.02303">
        <ele>997</ele>
        <time>2012-03-26T08:22:11.000Z</time>
      </trkpt>
      <trkpt lat="45.42463" lon="4.02304">
        <ele>999</ele>
        <time>2012-03-26T08:22:15.000Z</time>
      </trkpt>
      <trkpt lat="45.42475" lon="4.02305">
        <ele>1000</ele>
        <time>2012-03-26T08:22:19.000Z</time>
      </trkpt>
      <trkpt lat="45.42487" lon="4.02306">
        <ele>1000</ele>
        <time>2012-03-26T08:22:23.000Z</time>
      </trkpt>
      <trkpt lat="45.425" lon="4.02306">
        <ele>1001</ele>
        <time>2012-03-26T08:22:27.000Z</time>
      </trkpt>
      <trkpt lat="45.42513" lon="4.02308">
        <ele>1001</ele>
        <time>2012-03-26T08:22:31.000Z</time>
      </trkpt>
      <trkpt lat="45.42525" lon="4.02308">
        <ele>1001</ele>
        <time>2012-03-26T08:22:35.000Z</time>
      </trkpt>
      <trkpt lat="45.42537" lon="4.02308">
        <ele>1003</ele>
        <time>2012-03-26T08:22:39.000Z</time>
      </trkpt>
      <trkpt lat="45.42549" lon="4.02309">
        <ele>1003</ele>
        <time>2012-03-26T08:22:43.000Z</time>
      </trkpt>
      <trkpt lat="45.42562" lon="4.0231">
        <ele>1002</ele>
        <time>2012-03-26T08:22:47.000Z</time>
      </trkpt>
      <trkpt lat="45.42574" lon="4.0231">
        <ele>1003</ele>
        <time>2012-03-26T08:22:51.000Z</time>
      </trkpt>
      <trkpt lat="45.42586" lon="4.02311">
        <ele>1004</ele>
        <time>2012-03-26T08:22:55.000Z</time>
      </trkpt>
      <trkpt lat="45.42598" lon="4.02312">
        <ele>1007</ele>
        <time>2012-03-26T08:22:59.000Z</time>
      </trkpt>
      <trkpt lat="45.42612" lon="4.02313">
        <ele>1006</ele>
        <time>2012-03-26T08:23:03.000Z</time>
      </trkpt>
      <trkpt lat="45.42622" lon="4.02308">
        <ele>1006</ele>
        <time>2012-03-26T08:23:07.000Z</time>
      </trkpt>
      <trkpt lat="45.42631" lon="4.02297">
        <ele>1006</ele>
        <time>2012-03-26T08:23:11.000Z</time>
      </trkpt>
      <trkpt lat="45.42642" lon="4.02285">
        <ele>1009</ele>
        <time>2012-03-26T08:23:15.000Z</time>
      </trkpt>
      <trkpt lat="45.42653" lon="4.02274">
        <ele>1005</ele>
        <time>2012-03-26T08:23:34.000Z</time>
      </trkpt>
      <trkpt lat="45.42666" lon="4.02261">
        <ele>1007</ele>
        <time>2012-03-26T08:23:38.000Z</time>
      </trkpt>
      <trkpt lat="45.42675" lon="4.02253">
        <ele>1006</ele>
        <time>2012-03-26T08:23:40.000Z</time>
      </trkpt>
      <trkpt lat="45.42683" lon="4.02243">
        <ele>1004</ele>
        <time>2012-03-26T08:23:42.000Z</time>
      </trkpt>
      <trkpt lat="45.42692" lon="4.02232">
        <ele>1003</ele>
        <time>2012-03-26T08:23:44.000Z</time>
      </trkpt>
      <trkpt lat="45.42703" lon="4.02216">
        <ele>1001</ele>
        <time>2012-03-26T08:23:46.000Z</time>
      </trkpt>
      <trkpt lat="45.42714" lon="4.022">
        <ele>999</ele>
        <time>2012-03-26T08:23:48.000Z</time>
      </trkpt>
      <trkpt lat="45.42724" lon="4.02184">
        <ele>998</ele>
        <time>2012-03-26T08:23:50.000Z</time>
      </trkpt>
      <trkpt lat="45.42731" lon="4.02169">
        <ele>996</ele>
        <time>2012-03-26T08:23:52.000Z</time>
      </trkpt>
      <trkpt lat="45.42733" lon="4.02153">
        <ele>995</ele>
        <time>2012-03-26T08:23:54.000Z</time>
      </trkpt>
      <trkpt lat="45.42733" lon="4.0214">
        <ele>996</ele>
        <time>2012-03-26T08:23:56.000Z</time>
      </trkpt>
      <trkpt lat="45.42732" lon="4.0212">
        <ele>1002</ele>
        <time>2012-03-26T08:24:00.000Z</time>
      </trkpt>
      <trkpt lat="45.42731" lon="4.02104">
        <ele>1006</ele>
        <time>2012-03-26T08:24:05.000Z</time>
      </trkpt>
      <trkpt lat="45.42728" lon="4.0209">
        <ele>1007</ele>
        <time>2012-03-26T08:24:09.000Z</time>
      </trkpt>
      <trkpt lat="45.42728" lon="4.02072">
        <ele>1011</ele>
        <time>2012-03-26T08:24:14.000Z</time>
      </trkpt>
      <trkpt lat="45.4273" lon="4.02057">
        <ele>1005</ele>
        <time>2012-03-26T08:24:19.000Z</time>
      </trkpt>
      <trkpt lat="45.4273" lon="4.02042">
        <ele>1009</ele>
        <time>2012-03-26T08:24:25.000Z</time>
      </trkpt>
      <trkpt lat="45.42732" lon="4.02028">
        <ele>1012</ele>
        <time>2012-03-26T08:24:30.000Z</time>
      </trkpt>
      <trkpt lat="45.42735" lon="4.02013">
        <ele>1017</ele>
        <time>2012-03-26T08:24:35.000Z</time>
      </trkpt>
      <trkpt lat="45.42739" lon="4.01998">
        <ele>1016</ele>
        <time>2012-03-26T08:24:41.000Z</time>
      </trkpt>
      <trkpt lat="45.42744" lon="4.01986">
        <ele>1014</ele>
        <time>2012-03-26T08:24:45.000Z</time>
      </trkpt>
      <trkpt lat="45.4275" lon="4.01972">
        <ele>1015</ele>
        <time>2012-03-26T08:24:51.000Z</time>
      </trkpt>
      <trkpt lat="45.42755" lon="4.0196">
        <ele>1018</ele>
        <time>2012-03-26T08:24:57.000Z</time>
      </trkpt>
      <trkpt lat="45.42761" lon="4.01946">
        <ele>1018</ele>
        <time>2012-03-26T08:25:03.000Z</time>
      </trkpt>
      <trkpt lat="45.42766" lon="4.01934">
        <ele>1019</ele>
        <time>2012-03-26T08:25:09.000Z</time>
      </trkpt>
      <trkpt lat="45.42776" lon="4.01919">
        <ele>1019</ele>
        <time>2012-03-26T08:25:17.000Z</time>
      </trkpt>
      <trkpt lat="45.42782" lon="4.01908">
        <ele>1021</ele>
        <time>2012-03-26T08:25:23.000Z</time>
      </trkpt>
      <trkpt lat="45.4279" lon="4.01898">
        <ele>1022</ele>
        <time>2012-03-26T08:25:30.000Z</time>
      </trkpt>
      <trkpt lat="45.428" lon="4.01888">
        <ele>1024</ele>
        <time>2012-03-26T08:25:36.000Z</time>
      </trkpt>
      <trkpt lat="45.42808" lon="4.01879">
        <ele>1025</ele>
        <time>2012-03-26T08:25:40.000Z</time>
      </trkpt>
      <trkpt lat="45.42818" lon="4.01868">
        <ele>1025</ele>
        <time>2012-03-26T08:25:46.000Z</time>
      </trkpt>
      <trkpt lat="45.42827" lon="4.01858">
        <ele>1027</ele>
        <time>2012-03-26T08:25:51.000Z</time>
      </trkpt>
      <trkpt lat="45.42835" lon="4.01847">
        <ele>1031</ele>
        <time>2012-03-26T08:25:56.000Z</time>
      </trkpt>
      <trkpt lat="45.42842" lon="4.01837">
        <ele>1028</ele>
        <time>2012-03-26T08:26:00.000Z</time>
      </trkpt>
      <trkpt lat="45.4285" lon="4.01826">
        <ele>1029</ele>
        <time>2012-03-26T08:26:04.000Z</time>
      </trkpt>
      <trkpt lat="45.42858" lon="4.01816">
        <ele>1030</ele>
        <time>2012-03-26T08:26:08.000Z</time>
      </trkpt>
      <trkpt lat="45.42869" lon="4.01806">
        <ele>1029</ele>
        <time>2012-03-26T08:26:13.000Z</time>
      </trkpt>
      <trkpt lat="45.42878" lon="4.01799">
        <ele>1030</ele>
        <time>2012-03-26T08:26:17.000Z</time>
      </trkpt>
      <trkpt lat="45.42887" lon="4.01793">
        <ele>1027</ele>
        <time>2012-03-26T08:26:21.000Z</time>
      </trkpt>
      <trkpt lat="45.42897" lon="4.01784">
        <ele>1031</ele>
        <time>2012-03-26T08:26:25.000Z</time>
      </trkpt>
      <trkpt lat="45.42906" lon="4.01777">
        <ele>1030</ele>
        <time>2012-03-26T08:26:29.000Z</time>
      </trkpt>
      <trkpt lat="45.42914" lon="4.01769">
        <ele>1031</ele>
        <time>2012-03-26T08:26:33.000Z</time>
      </trkpt>
      <trkpt lat="45.42923" lon="4.01759">
        <ele>1031</ele>
        <time>2012-03-26T08:26:37.000Z</time>
      </trkpt>
      <trkpt lat="45.42933" lon="4.01748">
        <ele>1030</ele>
        <time>2012-03-26T08:26:41.000Z</time>
      </trkpt>
      <trkpt lat="45.42945" lon="4.01732">
        <ele>1030</ele>
        <time>2012-03-26T08:26:45.000Z</time>
      </trkpt>
      <trkpt lat="45.42951" lon="4.01722">
        <ele>1028</ele>
        <time>2012-03-26T08:26:47.000Z</time>
      </trkpt>
      <trkpt lat="45.42958" lon="4.0171">
        <ele>1028</ele>
        <time>2012-03-26T08:26:49.000Z</time>
      </trkpt>
      <trkpt lat="45.42966" lon="4.01696">
        <ele>1029</ele>
        <time>2012-03-26T08:26:51.000Z</time>
      </trkpt>
      <trkpt lat="45.42975" lon="4.01681">
        <ele>1027</ele>
        <time>2012-03-26T08:26:53.000Z</time>
      </trkpt>
      <trkpt lat="45.42982" lon="4.01669">
        <ele>1024</ele>
        <time>2012-03-26T08:26:55.000Z</time>
      </trkpt>
      <trkpt lat="45.42989" lon="4.01658">
        <ele>1023</ele>
        <time>2012-03-26T08:26:57.000Z</time>
      </trkpt>
      <trkpt lat="45.42996" lon="4.01643">
        <ele>1022</ele>
        <time>2012-03-26T08:26:59.000Z</time>
      </trkpt>
      <trkpt lat="45.43002" lon="4.01626">
        <ele>1020</ele>
        <time>2012-03-26T08:27:01.000Z</time>
      </trkpt>
      <trkpt lat="45.43011" lon="4.01614">
        <ele>1019</ele>
        <time>2012-03-26T08:27:03.000Z</time>
      </trkpt>
      <trkpt lat="45.43022" lon="4.01604">
        <ele>1018</ele>
        <time>2012-03-26T08:27:05.000Z</time>
      </trkpt>
      <trkpt lat="45.43034" lon="4.01596">
        <ele>1017</ele>
        <time>2012-03-26T08:27:07.000Z</time>
      </trkpt>
      <trkpt lat="45.43047" lon="4.01589">
        <ele>1017</ele>
        <time>2012-03-26T08:27:09.000Z</time>
      </trkpt>
      <trkpt lat="45.43061" lon="4.01583">
        <ele>1015</ele>
        <time>2012-03-26T08:27:11.000Z</time>
      </trkpt>
      <trkpt lat="45.43076" lon="4.01581">
        <ele>1013</ele>
        <time>2012-03-26T08:27:13.000Z</time>
      </trkpt>
      <trkpt lat="45.4309" lon="4.0158">
        <ele>1013</ele>
        <time>2012-03-26T08:27:15.000Z</time>
      </trkpt>
      <trkpt lat="45.43104" lon="4.0158">
        <ele>1011</ele>
        <time>2012-03-26T08:27:17.000Z</time>
      </trkpt>
      <trkpt lat="45.43117" lon="4.01577">
        <ele>1012</ele>
        <time>2012-03-26T08:27:19.000Z</time>
      </trkpt>
      <trkpt lat="45.43129" lon="4.01575">
        <ele>1011</ele>
        <time>2012-03-26T08:27:21.000Z</time>
      </trkpt>
      <trkpt lat="45.43143" lon="4.01577">
        <ele>1011</ele>
        <time>2012-03-26T08:27:23.000Z</time>
      </trkpt>
      <trkpt lat="45.43157" lon="4.01579">
        <ele>1010</ele>
        <time>2012-03-26T08:27:26.000Z</time>
      </trkpt>
      <trkpt lat="45.4317" lon="4.01576">
        <ele>1008</ele>
        <time>2012-03-26T08:27:54.000Z</time>
      </trkpt>
      <trkpt lat="45.43182" lon="4.01576">
        <ele>1019</ele>
        <time>2012-03-26T08:35:28.000Z</time>
      </trkpt>
      <trkpt lat="45.43192" lon="4.01574">
        <ele>1018</ele>
        <time>2012-03-26T08:35:32.000Z</time>
      </trkpt>
      <trkpt lat="45.43204" lon="4.01572">
        <ele>1019</ele>
        <time>2012-03-26T08:35:37.000Z</time>
      </trkpt>
      <trkpt lat="45.43216" lon="4.01569">
        <ele>1015</ele>
        <time>2012-03-26T08:35:42.000Z</time>
      </trkpt>
      <trkpt lat="45.43226" lon="4.01567">
        <ele>1015</ele>
        <time>2012-03-26T08:35:47.000Z</time>
      </trkpt>
      <trkpt lat="45.43236" lon="4.01567">
        <ele>1014</ele>
        <time>2012-03-26T08:35:52.000Z</time>
      </trkpt>
      <trkpt lat="45.43247" lon="4.0157">
        <ele>1019</ele>
        <time>2012-03-26T08:35:58.000Z</time>
      </trkpt>
      <trkpt lat="45.43257" lon="4.01574">
        <ele>1018</ele>
        <time>2012-03-26T08:36:05.000Z</time>
      </trkpt>
      <trkpt lat="45.43266" lon="4.01575">
        <ele>1018</ele>
        <time>2012-03-26T08:36:11.000Z</time>
      </trkpt>
      <trkpt lat="45.43279" lon="4.01569">
        <ele>1020</ele>
        <time>2012-03-26T08:36:15.000Z</time>
      </trkpt>
      <trkpt lat="45.43293" lon="4.01565">
        <ele>1015</ele>
        <time>2012-03-26T08:36:19.000Z</time>
      </trkpt>
      <trkpt lat="45.43307" lon="4.01565">
        <ele>1016</ele>
        <time>2012-03-26T08:36:23.000Z</time>
      </trkpt>
      <trkpt lat="45.43322" lon="4.01566">
        <ele>1015</ele>
        <time>2012-03-26T08:36:27.000Z</time>
      </trkpt>
      <trkpt lat="45.43333" lon="4.01567">
        <ele>1017</ele>
        <time>2012-03-26T08:36:31.000Z</time>
      </trkpt>
      <trkpt lat="45.43346" lon="4.01566">
        <ele>1017</ele>
        <time>2012-03-26T08:36:35.000Z</time>
      </trkpt>
      <trkpt lat="45.43359" lon="4.0157">
        <ele>1016</ele>
        <time>2012-03-26T08:36:39.000Z</time>
      </trkpt>
      <trkpt lat="45.43373" lon="4.01573">
        <ele>1018</ele>
        <time>2012-03-26T08:36:43.000Z</time>
      </trkpt>
      <trkpt lat="45.43386" lon="4.01578">
        <ele>1019</ele>
        <time>2012-03-26T08:36:47.000Z</time>
      </trkpt>
      <trkpt lat="45.434" lon="4.01583">
        <ele>1020</ele>
        <time>2012-03-26T08:36:51.000Z</time>
      </trkpt>
      <trkpt lat="45.43412" lon="4.0159">
        <ele>1020</ele>
        <time>2012-03-26T08:36:54.000Z</time>
      </trkpt>
      <trkpt lat="45.43419" lon="4.01598">
        <ele>1019</ele>
        <time>2012-03-26T08:36:56.000Z</time>
      </trkpt>
      <trkpt lat="45.43427" lon="4.01604">
        <ele>1017</ele>
        <time>2012-03-26T08:36:58.000Z</time>
      </trkpt>
      <trkpt lat="45.43444" lon="4.01609">
        <ele>1018</ele>
        <time>2012-03-26T08:37:02.000Z</time>
      </trkpt>
      <trkpt lat="45.43458" lon="4.01607">
        <ele>1019</ele>
        <time>2012-03-26T08:37:06.000Z</time>
      </trkpt>
      <trkpt lat="45.43471" lon="4.01605">
        <ele>1019</ele>
        <time>2012-03-26T08:37:09.000Z</time>
      </trkpt>
      <trkpt lat="45.43481" lon="4.01609">
        <ele>1018</ele>
        <time>2012-03-26T08:37:11.000Z</time>
      </trkpt>
      <trkpt lat="45.43492" lon="4.01614">
        <ele>1016</ele>
        <time>2012-03-26T08:37:13.000Z</time>
      </trkpt>
      <trkpt lat="45.43503" lon="4.01616">
        <ele>1015</ele>
        <time>2012-03-26T08:37:15.000Z</time>
      </trkpt>
      <trkpt lat="45.43515" lon="4.01617">
        <ele>1015</ele>
        <time>2012-03-26T08:37:17.000Z</time>
      </trkpt>
      <trkpt lat="45.43526" lon="4.01614">
        <ele>1015</ele>
        <time>2012-03-26T08:37:19.000Z</time>
      </trkpt>
      <trkpt lat="45.43535" lon="4.0161">
        <ele>1015</ele>
        <time>2012-03-26T08:37:21.000Z</time>
      </trkpt>
      <trkpt lat="45.43545" lon="4.01604">
        <ele>1016</ele>
        <time>2012-03-26T08:37:26.000Z</time>
      </trkpt>
      <trkpt lat="45.43555" lon="4.01598">
        <ele>1017</ele>
        <time>2012-03-26T08:37:31.000Z</time>
      </trkpt>
      <trkpt lat="45.43565" lon="4.0159">
        <ele>1017</ele>
        <time>2012-03-26T08:37:35.000Z</time>
      </trkpt>
      <trkpt lat="45.43574" lon="4.01576">
        <ele>1016</ele>
        <time>2012-03-26T08:37:39.000Z</time>
      </trkpt>
      <trkpt lat="45.43579" lon="4.01564">
        <ele>1017</ele>
        <time>2012-03-26T08:37:41.000Z</time>
      </trkpt>
      <trkpt lat="45.43585" lon="4.01553">
        <ele>1018</ele>
        <time>2012-03-26T08:37:43.000Z</time>
      </trkpt>
      <trkpt lat="45.43592" lon="4.0154">
        <ele>1018</ele>
        <time>2012-03-26T08:37:45.000Z</time>
      </trkpt>
      <trkpt lat="45.43605" lon="4.01532">
        <ele>1017</ele>
        <time>2012-03-26T08:37:47.000Z</time>
      </trkpt>
      <trkpt lat="45.43618" lon="4.01524">
        <ele>1015</ele>
        <time>2012-03-26T08:37:49.000Z</time>
      </trkpt>
      <trkpt lat="45.4363" lon="4.01515">
        <ele>1017</ele>
        <time>2012-03-26T08:37:51.000Z</time>
      </trkpt>
      <trkpt lat="45.43642" lon="4.01509">
        <ele>1019</ele>
        <time>2012-03-26T08:37:53.000Z</time>
      </trkpt>
      <trkpt lat="45.43652" lon="4.01505">
        <ele>1018</ele>
        <time>2012-03-26T08:37:55.000Z</time>
      </trkpt>
      <trkpt lat="45.43662" lon="4.01501">
        <ele>1018</ele>
        <time>2012-03-26T08:37:57.000Z</time>
      </trkpt>
      <trkpt lat="45.43678" lon="4.01494">
        <ele>1016</ele>
        <time>2012-03-26T08:38:01.000Z</time>
      </trkpt>
      <trkpt lat="45.43687" lon="4.01488">
        <ele>1015</ele>
        <time>2012-03-26T08:38:03.000Z</time>
      </trkpt>
      <trkpt lat="45.43696" lon="4.01481">
        <ele>1013</ele>
        <time>2012-03-26T08:38:05.000Z</time>
      </trkpt>
      <trkpt lat="45.43706" lon="4.01474">
        <ele>1012</ele>
        <time>2012-03-26T08:38:07.000Z</time>
      </trkpt>
      <trkpt lat="45.43718" lon="4.01466">
        <ele>1011</ele>
        <time>2012-03-26T08:38:09.000Z</time>
      </trkpt>
      <trkpt lat="45.43728" lon="4.01462">
        <ele>1009</ele>
        <time>2012-03-26T08:38:11.000Z</time>
      </trkpt>
      <trkpt lat="45.43738" lon="4.0146">
        <ele>1010</ele>
        <time>2012-03-26T08:38:13.000Z</time>
      </trkpt>
      <trkpt lat="45.43752" lon="4.01461">
        <ele>1012</ele>
        <time>2012-03-26T08:38:16.000Z</time>
      </trkpt>
      <trkpt lat="45.43761" lon="4.01461">
        <ele>1013</ele>
        <time>2012-03-26T08:38:18.000Z</time>
      </trkpt>
      <trkpt lat="45.43771" lon="4.0146">
        <ele>1012</ele>
        <time>2012-03-26T08:38:20.000Z</time>
      </trkpt>
      <trkpt lat="45.43782" lon="4.01461">
        <ele>1012</ele>
        <time>2012-03-26T08:38:22.000Z</time>
      </trkpt>
      <trkpt lat="45.43792" lon="4.01462">
        <ele>1014</ele>
        <time>2012-03-26T08:38:24.000Z</time>
      </trkpt>
      <trkpt lat="45.43804" lon="4.01465">
        <ele>1013</ele>
        <time>2012-03-26T08:38:26.000Z</time>
      </trkpt>
      <trkpt lat="45.43813" lon="4.01469">
        <ele>1012</ele>
        <time>2012-03-26T08:38:28.000Z</time>
      </trkpt>
      <trkpt lat="45.43828" lon="4.01479">
        <ele>1016</ele>
        <time>2012-03-26T08:38:32.000Z</time>
      </trkpt>
      <trkpt lat="45.43842" lon="4.01486">
        <ele>1013</ele>
        <time>2012-03-26T08:38:36.000Z</time>
      </trkpt>
      <trkpt lat="45.43854" lon="4.01492">
        <ele>1016</ele>
        <time>2012-03-26T08:38:40.000Z</time>
      </trkpt>
      <trkpt lat="45.43865" lon="4.01498">
        <ele>1018</ele>
        <time>2012-03-26T08:38:44.000Z</time>
      </trkpt>
      <trkpt lat="45.43875" lon="4.01502">
        <ele>1020</ele>
        <time>2012-03-26T08:38:48.000Z</time>
      </trkpt>
      <trkpt lat="45.43884" lon="4.01485">
        <ele>1014</ele>
        <time>2012-03-26T08:38:52.000Z</time>
      </trkpt>
      <trkpt lat="45.43888" lon="4.0147">
        <ele>1012</ele>
        <time>2012-03-26T08:38:54.000Z</time>
      </trkpt>
      <trkpt lat="45.43891" lon="4.01454">
        <ele>1011</ele>
        <time>2012-03-26T08:38:56.000Z</time>
      </trkpt>
      <trkpt lat="45.43896" lon="4.01437">
        <ele>1010</ele>
        <time>2012-03-26T08:38:58.000Z</time>
      </trkpt>
      <trkpt lat="45.43903" lon="4.01419">
        <ele>1010</ele>
        <time>2012-03-26T08:39:00.000Z</time>
      </trkpt>
      <trkpt lat="45.43912" lon="4.01403">
        <ele>1009</ele>
        <time>2012-03-26T08:39:02.000Z</time>
      </trkpt>
      <trkpt lat="45.4392" lon="4.01389">
        <ele>1009</ele>
        <time>2012-03-26T08:39:04.000Z</time>
      </trkpt>
      <trkpt lat="45.43929" lon="4.01376">
        <ele>1009</ele>
        <time>2012-03-26T08:39:06.000Z</time>
      </trkpt>
      <trkpt lat="45.43937" lon="4.01364">
        <ele>1009</ele>
        <time>2012-03-26T08:39:08.000Z</time>
      </trkpt>
      <trkpt lat="45.43945" lon="4.01352">
        <ele>1007</ele>
        <time>2012-03-26T08:39:10.000Z</time>
      </trkpt>
      <trkpt lat="45.43953" lon="4.01338">
        <ele>1006</ele>
        <time>2012-03-26T08:39:12.000Z</time>
      </trkpt>
      <trkpt lat="45.43961" lon="4.01322">
        <ele>1007</ele>
        <time>2012-03-26T08:39:14.000Z</time>
      </trkpt>
      <trkpt lat="45.43968" lon="4.01305">
        <ele>1007</ele>
        <time>2012-03-26T08:39:16.000Z</time>
      </trkpt>
      <trkpt lat="45.43975" lon="4.01289">
        <ele>1006</ele>
        <time>2012-03-26T08:39:18.000Z</time>
      </trkpt>
      <trkpt lat="45.43982" lon="4.01277">
        <ele>1005</ele>
        <time>2012-03-26T08:39:20.000Z</time>
      </trkpt>
      <trkpt lat="45.43988" lon="4.01259">
        <ele>1007</ele>
        <time>2012-03-26T08:39:24.000Z</time>
      </trkpt>
      <trkpt lat="45.43987" lon="4.01239">
        <ele>1008</ele>
        <time>2012-03-26T08:39:27.000Z</time>
      </trkpt>
      <trkpt lat="45.4399" lon="4.01224">
        <ele>1005</ele>
        <time>2012-03-26T08:39:29.000Z</time>
      </trkpt>
      <trkpt lat="45.43996" lon="4.01207">
        <ele>1002</ele>
        <time>2012-03-26T08:39:31.000Z</time>
      </trkpt>
      <trkpt lat="45.44001" lon="4.0119">
        <ele>1000</ele>
        <time>2012-03-26T08:39:33.000Z</time>
      </trkpt>
      <trkpt lat="45.44006" lon="4.01176">
        <ele>1002</ele>
        <time>2012-03-26T08:39:35.000Z</time>
      </trkpt>
      <trkpt lat="45.44011" lon="4.01164">
        <ele>1003</ele>
        <time>2012-03-26T08:39:37.000Z</time>
      </trkpt>
      <trkpt lat="45.44021" lon="4.0115">
        <ele>1003</ele>
        <time>2012-03-26T08:39:41.000Z</time>
      </trkpt>
      <trkpt lat="45.44028" lon="4.0114">
        <ele>1004</ele>
        <time>2012-03-26T08:39:45.000Z</time>
      </trkpt>
      <trkpt lat="45.44033" lon="4.01127">
        <ele>1006</ele>
        <time>2012-03-26T08:39:50.000Z</time>
      </trkpt>
      <trkpt lat="45.44035" lon="4.01111">
        <ele>1006</ele>
        <time>2012-03-26T08:39:55.000Z</time>
      </trkpt>
      <trkpt lat="45.44033" lon="4.01096">
        <ele>1008</ele>
        <time>2012-03-26T08:39:59.000Z</time>
      </trkpt>
      <trkpt lat="45.4403" lon="4.01082">
        <ele>1010</ele>
        <time>2012-03-26T08:40:03.000Z</time>
      </trkpt>
      <trkpt lat="45.44026" lon="4.01066">
        <ele>1011</ele>
        <time>2012-03-26T08:40:07.000Z</time>
      </trkpt>
      <trkpt lat="45.44022" lon="4.01052">
        <ele>1011</ele>
        <time>2012-03-26T08:40:11.000Z</time>
      </trkpt>
      <trkpt lat="45.44019" lon="4.01037">
        <ele>1012</ele>
        <time>2012-03-26T08:40:16.000Z</time>
      </trkpt>
      <trkpt lat="45.44018" lon="4.0102">
        <ele>1015</ele>
        <time>2012-03-26T08:40:22.000Z</time>
      </trkpt>
      <trkpt lat="45.44016" lon="4.01005">
        <ele>1015</ele>
        <time>2012-03-26T08:40:27.000Z</time>
      </trkpt>
      <trkpt lat="45.44014" lon="4.0099">
        <ele>1016</ele>
        <time>2012-03-26T08:40:33.000Z</time>
      </trkpt>
      <trkpt lat="45.44008" lon="4.00974">
        <ele>1016</ele>
        <time>2012-03-26T08:40:39.000Z</time>
      </trkpt>
      <trkpt lat="45.44001" lon="4.00961">
        <ele>1018</ele>
        <time>2012-03-26T08:40:45.000Z</time>
      </trkpt>
      <trkpt lat="45.44001" lon="4.00943">
        <ele>1019</ele>
        <time>2012-03-26T08:40:51.000Z</time>
      </trkpt>
      <trkpt lat="45.44006" lon="4.00925">
        <ele>1018</ele>
        <time>2012-03-26T08:40:56.000Z</time>
      </trkpt>
      <trkpt lat="45.44013" lon="4.00906">
        <ele>1017</ele>
        <time>2012-03-26T08:41:00.000Z</time>
      </trkpt>
      <trkpt lat="45.44019" lon="4.00889">
        <ele>1017</ele>
        <time>2012-03-26T08:41:04.000Z</time>
      </trkpt>
      <trkpt lat="45.44025" lon="4.00871">
        <ele>1017</ele>
        <time>2012-03-26T08:41:08.000Z</time>
      </trkpt>
      <trkpt lat="45.44028" lon="4.00859">
        <ele>1018</ele>
        <time>2012-03-26T08:41:11.000Z</time>
      </trkpt>
      <trkpt lat="45.44033" lon="4.00844">
        <ele>1019</ele>
        <time>2012-03-26T08:41:15.000Z</time>
      </trkpt>
      <trkpt lat="45.44039" lon="4.00828">
        <ele>1019</ele>
        <time>2012-03-26T08:41:20.000Z</time>
      </trkpt>
      <trkpt lat="45.44039" lon="4.00814">
        <ele>1020</ele>
        <time>2012-03-26T08:41:24.000Z</time>
      </trkpt>
      <trkpt lat="45.44038" lon="4.00797">
        <ele>1022</ele>
        <time>2012-03-26T08:41:30.000Z</time>
      </trkpt>
      <trkpt lat="45.44039" lon="4.00779">
        <ele>1024</ele>
        <time>2012-03-26T08:41:36.000Z</time>
      </trkpt>
      <trkpt lat="45.44042" lon="4.00761">
        <ele>1024</ele>
        <time>2012-03-26T08:41:40.000Z</time>
      </trkpt>
      <trkpt lat="45.4405" lon="4.00743">
        <ele>1023</ele>
        <time>2012-03-26T08:41:44.000Z</time>
      </trkpt>
      <trkpt lat="45.44059" lon="4.00727">
        <ele>1024</ele>
        <time>2012-03-26T08:41:48.000Z</time>
      </trkpt>
      <trkpt lat="45.4406" lon="4.00709">
        <ele>1024</ele>
        <time>2012-03-26T08:41:52.000Z</time>
      </trkpt>
      <trkpt lat="45.4406" lon="4.00695">
        <ele>1024</ele>
        <time>2012-03-26T08:41:54.000Z</time>
      </trkpt>
      <trkpt lat="45.4406" lon="4.00672">
        <ele>1025</ele>
        <time>2012-03-26T08:41:57.000Z</time>
      </trkpt>
      <trkpt lat="45.44062" lon="4.00652">
        <ele>1025</ele>
        <time>2012-03-26T08:41:59.000Z</time>
      </trkpt>
      <trkpt lat="45.44064" lon="4.00631">
        <ele>1024</ele>
        <time>2012-03-26T08:42:01.000Z</time>
      </trkpt>
      <trkpt lat="45.44067" lon="4.00608">
        <ele>1022</ele>
        <time>2012-03-26T08:42:03.000Z</time>
      </trkpt>
      <trkpt lat="45.4407" lon="4.00585">
        <ele>1020</ele>
        <time>2012-03-26T08:42:05.000Z</time>
      </trkpt>
      <trkpt lat="45.44071" lon="4.00563">
        <ele>1019</ele>
        <time>2012-03-26T08:42:07.000Z</time>
      </trkpt>
      <trkpt lat="45.44072" lon="4.00541">
        <ele>1018</ele>
        <time>2012-03-26T08:42:09.000Z</time>
      </trkpt>
      <trkpt lat="45.44072" lon="4.00521">
        <ele>1018</ele>
        <time>2012-03-26T08:42:11.000Z</time>
      </trkpt>
      <trkpt lat="45.44071" lon="4.00503">
        <ele>1018</ele>
        <time>2012-03-26T08:42:13.000Z</time>
      </trkpt>
      <trkpt lat="45.4407" lon="4.00488">
        <ele>1018</ele>
        <time>2012-03-26T08:42:15.000Z</time>
      </trkpt>
      <trkpt lat="45.44073" lon="4.00473">
        <ele>1019</ele>
        <time>2012-03-26T08:42:18.000Z</time>
      </trkpt>
      <trkpt lat="45.44086" lon="4.00476">
        <ele>1019</ele>
        <time>2012-03-26T08:42:24.000Z</time>
      </trkpt>
      <trkpt lat="45.44096" lon="4.00481">
        <ele>1020</ele>
        <time>2012-03-26T08:42:29.000Z</time>
      </trkpt>
      <trkpt lat="45.44107" lon="4.00486">
        <ele>1022</ele>
        <time>2012-03-26T08:42:34.000Z</time>
      </trkpt>
      <trkpt lat="45.4412" lon="4.00486">
        <ele>1024</ele>
        <time>2012-03-26T08:42:40.000Z</time>
      </trkpt>
      <trkpt lat="45.4413" lon="4.00482">
        <ele>1025</ele>
        <time>2012-03-26T08:42:45.000Z</time>
      </trkpt>
      <trkpt lat="45.44139" lon="4.00478">
        <ele>1025</ele>
        <time>2012-03-26T08:42:49.000Z</time>
      </trkpt>
      <trkpt lat="45.44151" lon="4.00474">
        <ele>1027</ele>
        <time>2012-03-26T08:42:55.000Z</time>
      </trkpt>
      <trkpt lat="45.44162" lon="4.00468">
        <ele>1030</ele>
        <time>2012-03-26T08:43:01.000Z</time>
      </trkpt>
      <trkpt lat="45.44171" lon="4.00464">
        <ele>1034</ele>
        <time>2012-03-26T08:43:08.000Z</time>
      </trkpt>
      <trkpt lat="45.44186" lon="4.00462">
        <ele>1038</ele>
        <time>2012-03-26T08:43:17.000Z</time>
      </trkpt>
      <trkpt lat="45.44198" lon="4.00464">
        <ele>1039</ele>
        <time>2012-03-26T08:43:23.000Z</time>
      </trkpt>
      <trkpt lat="45.4421" lon="4.00466">
        <ele>1040</ele>
        <time>2012-03-26T08:43:28.000Z</time>
      </trkpt>
      <trkpt lat="45.4422" lon="4.00468">
        <ele>1042</ele>
        <time>2012-03-26T08:43:34.000Z</time>
      </trkpt>
      <trkpt lat="45.4423" lon="4.00467">
        <ele>1046</ele>
        <time>2012-03-26T08:43:40.000Z</time>
      </trkpt>
      <trkpt lat="45.44241" lon="4.00468">
        <ele>1045</ele>
        <time>2012-03-26T08:43:46.000Z</time>
      </trkpt>
      <trkpt lat="45.44251" lon="4.00468">
        <ele>1042</ele>
        <time>2012-03-26T08:43:52.000Z</time>
      </trkpt>
      <trkpt lat="45.44261" lon="4.00468">
        <ele>1050</ele>
        <time>2012-03-26T08:43:58.000Z</time>
      </trkpt>
      <trkpt lat="45.44272" lon="4.00468">
        <ele>1054</ele>
        <time>2012-03-26T08:44:04.000Z</time>
      </trkpt>
      <trkpt lat="45.44283" lon="4.0047">
        <ele>1050</ele>
        <time>2012-03-26T08:44:10.000Z</time>
      </trkpt>
      <trkpt lat="45.44297" lon="4.00475">
        <ele>1053</ele>
        <time>2012-03-26T08:44:17.000Z</time>
      </trkpt>
      <trkpt lat="45.44309" lon="4.00479">
        <ele>1054</ele>
        <time>2012-03-26T08:44:23.000Z</time>
      </trkpt>
      <trkpt lat="45.44317" lon="4.00484">
        <ele>1052</ele>
        <time>2012-03-26T08:44:27.000Z</time>
      </trkpt>
      <trkpt lat="45.44326" lon="4.00492">
        <ele>1052</ele>
        <time>2012-03-26T08:44:31.000Z</time>
      </trkpt>
      <trkpt lat="45.44335" lon="4.00499">
        <ele>1052</ele>
        <time>2012-03-26T08:44:35.000Z</time>
      </trkpt>
      <trkpt lat="45.44344" lon="4.00507">
        <ele>1053</ele>
        <time>2012-03-26T08:44:39.000Z</time>
      </trkpt>
      <trkpt lat="45.44353" lon="4.00515">
        <ele>1052</ele>
        <time>2012-03-26T08:44:43.000Z</time>
      </trkpt>
      <trkpt lat="45.44362" lon="4.00523">
        <ele>1052</ele>
        <time>2012-03-26T08:44:47.000Z</time>
      </trkpt>
      <trkpt lat="45.4437" lon="4.00531">
        <ele>1053</ele>
        <time>2012-03-26T08:44:51.000Z</time>
      </trkpt>
      <trkpt lat="45.44378" lon="4.00539">
        <ele>1053</ele>
        <time>2012-03-26T08:44:55.000Z</time>
      </trkpt>
      <trkpt lat="45.44386" lon="4.00549">
        <ele>1054</ele>
        <time>2012-03-26T08:44:59.000Z</time>
      </trkpt>
      <trkpt lat="45.44395" lon="4.00559">
        <ele>1055</ele>
        <time>2012-03-26T08:45:03.000Z</time>
      </trkpt>
      <trkpt lat="45.44404" lon="4.0057">
        <ele>1056</ele>
        <time>2012-03-26T08:45:07.000Z</time>
      </trkpt>
      <trkpt lat="45.44414" lon="4.00581">
        <ele>1056</ele>
        <time>2012-03-26T08:45:11.000Z</time>
      </trkpt>
      <trkpt lat="45.44424" lon="4.00594">
        <ele>1056</ele>
        <time>2012-03-26T08:45:15.000Z</time>
      </trkpt>
      <trkpt lat="45.44435" lon="4.00606">
        <ele>1058</ele>
        <time>2012-03-26T08:45:19.000Z</time>
      </trkpt>
      <trkpt lat="45.44445" lon="4.00618">
        <ele>1060</ele>
        <time>2012-03-26T08:45:23.000Z</time>
      </trkpt>
      <trkpt lat="45.44457" lon="4.0063">
        <ele>1057</ele>
        <time>2012-03-26T08:45:27.000Z</time>
      </trkpt>
      <trkpt lat="45.44468" lon="4.00642">
        <ele>1058</ele>
        <time>2012-03-26T08:45:31.000Z</time>
      </trkpt>
      <trkpt lat="45.44479" lon="4.00654">
        <ele>1058</ele>
        <time>2012-03-26T08:45:35.000Z</time>
      </trkpt>
      <trkpt lat="45.44487" lon="4.0067">
        <ele>1059</ele>
        <time>2012-03-26T08:45:39.000Z</time>
      </trkpt>
      <trkpt lat="45.44497" lon="4.00685">
        <ele>1060</ele>
        <time>2012-03-26T08:45:43.000Z</time>
      </trkpt>
      <trkpt lat="45.44505" lon="4.00696">
        <ele>1062</ele>
        <time>2012-03-26T08:45:47.000Z</time>
      </trkpt>
      <trkpt lat="45.44514" lon="4.00708">
        <ele>1059</ele>
        <time>2012-03-26T08:45:51.000Z</time>
      </trkpt>
      <trkpt lat="45.44521" lon="4.00718">
        <ele>1064</ele>
        <time>2012-03-26T08:45:55.000Z</time>
      </trkpt>
      <trkpt lat="45.44528" lon="4.0073">
        <ele>1065</ele>
        <time>2012-03-26T08:45:59.000Z</time>
      </trkpt>
      <trkpt lat="45.44535" lon="4.0074">
        <ele>1066</ele>
        <time>2012-03-26T08:46:03.000Z</time>
      </trkpt>
      <trkpt lat="45.44542" lon="4.00749">
        <ele>1067</ele>
        <time>2012-03-26T08:46:07.000Z</time>
      </trkpt>
      <trkpt lat="45.44549" lon="4.00759">
        <ele>1070</ele>
        <time>2012-03-26T08:46:11.000Z</time>
      </trkpt>
      <trkpt lat="45.44556" lon="4.0077">
        <ele>1072</ele>
        <time>2012-03-26T08:46:17.000Z</time>
      </trkpt>
      <trkpt lat="45.44564" lon="4.00784">
        <ele>1077</ele>
        <time>2012-03-26T08:46:23.000Z</time>
      </trkpt>
      <trkpt lat="45.44569" lon="4.00797">
        <ele>1078</ele>
        <time>2012-03-26T08:46:27.000Z</time>
      </trkpt>
      <trkpt lat="45.44574" lon="4.00808">
        <ele>1073</ele>
        <time>2012-03-26T08:46:31.000Z</time>
      </trkpt>
      <trkpt lat="45.44582" lon="4.00822">
        <ele>1077</ele>
        <time>2012-03-26T08:46:37.000Z</time>
      </trkpt>
      <trkpt lat="45.44589" lon="4.00833">
        <ele>1075</ele>
        <time>2012-03-26T08:46:41.000Z</time>
      </trkpt>
      <trkpt lat="45.44595" lon="4.00846">
        <ele>1079</ele>
        <time>2012-03-26T08:46:45.000Z</time>
      </trkpt>
      <trkpt lat="45.44602" lon="4.0086">
        <ele>1074</ele>
        <time>2012-03-26T08:46:50.000Z</time>
      </trkpt>
      <trkpt lat="45.4461" lon="4.00871">
        <ele>1074</ele>
        <time>2012-03-26T08:46:55.000Z</time>
      </trkpt>
      <trkpt lat="45.44623" lon="4.00874">
        <ele>1076</ele>
        <time>2012-03-26T08:47:01.000Z</time>
      </trkpt>
      <trkpt lat="45.44635" lon="4.00874">
        <ele>1080</ele>
        <time>2012-03-26T08:47:07.000Z</time>
      </trkpt>
      <trkpt lat="45.44644" lon="4.00877">
        <ele>1082</ele>
        <time>2012-03-26T08:47:11.000Z</time>
      </trkpt>
      <trkpt lat="45.44657" lon="4.00879">
        <ele>1084</ele>
        <time>2012-03-26T08:47:17.000Z</time>
      </trkpt>
      <trkpt lat="45.44669" lon="4.0088">
        <ele>1083</ele>
        <time>2012-03-26T08:47:22.000Z</time>
      </trkpt>
      <trkpt lat="45.44679" lon="4.0088">
        <ele>1084</ele>
        <time>2012-03-26T08:47:26.000Z</time>
      </trkpt>
      <trkpt lat="45.4469" lon="4.00881">
        <ele>1086</ele>
        <time>2012-03-26T08:47:31.000Z</time>
      </trkpt>
      <trkpt lat="45.44699" lon="4.00882">
        <ele>1089</ele>
        <time>2012-03-26T08:47:35.000Z</time>
      </trkpt>
      <trkpt lat="45.44708" lon="4.00882">
        <ele>1089</ele>
        <time>2012-03-26T08:47:39.000Z</time>
      </trkpt>
      <trkpt lat="45.44718" lon="4.00882">
        <ele>1089</ele>
        <time>2012-03-26T08:47:43.000Z</time>
      </trkpt>
      <trkpt lat="45.44727" lon="4.00882">
        <ele>1089</ele>
        <time>2012-03-26T08:47:47.000Z</time>
      </trkpt>
      <trkpt lat="45.44737" lon="4.00882">
        <ele>1090</ele>
        <time>2012-03-26T08:47:51.000Z</time>
      </trkpt>
      <trkpt lat="45.44746" lon="4.00882">
        <ele>1092</ele>
        <time>2012-03-26T08:47:55.000Z</time>
      </trkpt>
      <trkpt lat="45.44756" lon="4.00882">
        <ele>1092</ele>
        <time>2012-03-26T08:47:59.000Z</time>
      </trkpt>
      <trkpt lat="45.44765" lon="4.00882">
        <ele>1094</ele>
        <time>2012-03-26T08:48:03.000Z</time>
      </trkpt>
      <trkpt lat="45.44774" lon="4.00882">
        <ele>1094</ele>
        <time>2012-03-26T08:48:07.000Z</time>
      </trkpt>
      <trkpt lat="45.44788" lon="4.00883">
        <ele>1096</ele>
        <time>2012-03-26T08:48:14.000Z</time>
      </trkpt>
      <trkpt lat="45.44799" lon="4.00885">
        <ele>1096</ele>
        <time>2012-03-26T08:48:19.000Z</time>
      </trkpt>
      <trkpt lat="45.4481" lon="4.00886">
        <ele>1096</ele>
        <time>2012-03-26T08:48:24.000Z</time>
      </trkpt>
      <trkpt lat="45.4482" lon="4.00888">
        <ele>1097</ele>
        <time>2012-03-26T08:48:28.000Z</time>
      </trkpt>
      <trkpt lat="45.44832" lon="4.00893">
        <ele>1098</ele>
        <time>2012-03-26T08:48:34.000Z</time>
      </trkpt>
      <trkpt lat="45.44845" lon="4.00895">
        <ele>1099</ele>
        <time>2012-03-26T08:48:40.000Z</time>
      </trkpt>
      <trkpt lat="45.44857" lon="4.00897">
        <ele>1104</ele>
        <time>2012-03-26T08:48:46.000Z</time>
      </trkpt>
      <trkpt lat="45.44868" lon="4.00899">
        <ele>1107</ele>
        <time>2012-03-26T08:48:52.000Z</time>
      </trkpt>
      <trkpt lat="45.44879" lon="4.00901">
        <ele>1111</ele>
        <time>2012-03-26T08:48:57.000Z</time>
      </trkpt>
      <trkpt lat="45.44889" lon="4.00904">
        <ele>1113</ele>
        <time>2012-03-26T08:49:02.000Z</time>
      </trkpt>
      <trkpt lat="45.44901" lon="4.00907">
        <ele>1112</ele>
        <time>2012-03-26T08:49:08.000Z</time>
      </trkpt>
      <trkpt lat="45.44914" lon="4.00912">
        <ele>1114</ele>
        <time>2012-03-26T08:49:14.000Z</time>
      </trkpt>
      <trkpt lat="45.44924" lon="4.00916">
        <ele>1111</ele>
        <time>2012-03-26T08:49:18.000Z</time>
      </trkpt>
      <trkpt lat="45.44934" lon="4.00919">
        <ele>1112</ele>
        <time>2012-03-26T08:49:22.000Z</time>
      </trkpt>
      <trkpt lat="45.44946" lon="4.00923">
        <ele>1108</ele>
        <time>2012-03-26T08:49:26.000Z</time>
      </trkpt>
      <trkpt lat="45.44959" lon="4.00926">
        <ele>1109</ele>
        <time>2012-03-26T08:49:30.000Z</time>
      </trkpt>
      <trkpt lat="45.44973" lon="4.00928">
        <ele>1112</ele>
        <time>2012-03-26T08:49:34.000Z</time>
      </trkpt>
      <trkpt lat="45.44989" lon="4.0093">
        <ele>1111</ele>
        <time>2012-03-26T08:49:38.000Z</time>
      </trkpt>
      <trkpt lat="45.45004" lon="4.00932">
        <ele>1111</ele>
        <time>2012-03-26T08:49:42.000Z</time>
      </trkpt>
      <trkpt lat="45.45017" lon="4.00936">
        <ele>1111</ele>
        <time>2012-03-26T08:49:46.000Z</time>
      </trkpt>
      <trkpt lat="45.4503" lon="4.00941">
        <ele>1106</ele>
        <time>2012-03-26T08:49:50.000Z</time>
      </trkpt>
      <trkpt lat="45.45043" lon="4.00948">
        <ele>1109</ele>
        <time>2012-03-26T08:49:54.000Z</time>
      </trkpt>
      <trkpt lat="45.45057" lon="4.00955">
        <ele>1111</ele>
        <time>2012-03-26T08:49:58.000Z</time>
      </trkpt>
      <trkpt lat="45.45071" lon="4.00963">
        <ele>1113</ele>
        <time>2012-03-26T08:50:02.000Z</time>
      </trkpt>
      <trkpt lat="45.45085" lon="4.00969">
        <ele>1113</ele>
        <time>2012-03-26T08:50:06.000Z</time>
      </trkpt>
      <trkpt lat="45.45098" lon="4.00978">
        <ele>1113</ele>
        <time>2012-03-26T08:50:10.000Z</time>
      </trkpt>
      <trkpt lat="45.45108" lon="4.00984">
        <ele>1114</ele>
        <time>2012-03-26T08:50:13.000Z</time>
      </trkpt>
      <trkpt lat="45.45121" lon="4.00992">
        <ele>1116</ele>
        <time>2012-03-26T08:50:17.000Z</time>
      </trkpt>
      <trkpt lat="45.45133" lon="4.01">
        <ele>1115</ele>
        <time>2012-03-26T08:50:21.000Z</time>
      </trkpt>
      <trkpt lat="45.45145" lon="4.01006">
        <ele>1114</ele>
        <time>2012-03-26T08:50:25.000Z</time>
      </trkpt>
      <trkpt lat="45.45154" lon="4.01011">
        <ele>1115</ele>
        <time>2012-03-26T08:50:29.000Z</time>
      </trkpt>
      <trkpt lat="45.45163" lon="4.01017">
        <ele>1117</ele>
        <time>2012-03-26T08:50:33.000Z</time>
      </trkpt>
      <trkpt lat="45.45173" lon="4.01024">
        <ele>1120</ele>
        <time>2012-03-26T08:50:38.000Z</time>
      </trkpt>
      <trkpt lat="45.45182" lon="4.01029">
        <ele>1119</ele>
        <time>2012-03-26T08:50:42.000Z</time>
      </trkpt>
      <trkpt lat="45.45193" lon="4.01034">
        <ele>1121</ele>
        <time>2012-03-26T08:50:47.000Z</time>
      </trkpt>
      <trkpt lat="45.45203" lon="4.01037">
        <ele>1124</ele>
        <time>2012-03-26T08:50:51.000Z</time>
      </trkpt>
      <trkpt lat="45.45213" lon="4.0104">
        <ele>1123</ele>
        <time>2012-03-26T08:50:55.000Z</time>
      </trkpt>
      <trkpt lat="45.45222" lon="4.01044">
        <ele>1123</ele>
        <time>2012-03-26T08:50:59.000Z</time>
      </trkpt>
      <trkpt lat="45.45232" lon="4.01048">
        <ele>1124</ele>
        <time>2012-03-26T08:51:03.000Z</time>
      </trkpt>
      <trkpt lat="45.45242" lon="4.01052">
        <ele>1124</ele>
        <time>2012-03-26T08:51:07.000Z</time>
      </trkpt>
      <trkpt lat="45.45252" lon="4.01056">
        <ele>1124</ele>
        <time>2012-03-26T08:51:11.000Z</time>
      </trkpt>
      <trkpt lat="45.45263" lon="4.01059">
        <ele>1125</ele>
        <time>2012-03-26T08:51:15.000Z</time>
      </trkpt>
      <trkpt lat="45.45274" lon="4.01063">
        <ele>1126</ele>
        <time>2012-03-26T08:51:19.000Z</time>
      </trkpt>
      <trkpt lat="45.45285" lon="4.01067">
        <ele>1126</ele>
        <time>2012-03-26T08:51:23.000Z</time>
      </trkpt>
      <trkpt lat="45.45296" lon="4.0107">
        <ele>1128</ele>
        <time>2012-03-26T08:51:27.000Z</time>
      </trkpt>
      <trkpt lat="45.45307" lon="4.01074">
        <ele>1128</ele>
        <time>2012-03-26T08:51:31.000Z</time>
      </trkpt>
      <trkpt lat="45.45319" lon="4.01077">
        <ele>1128</ele>
        <time>2012-03-26T08:51:35.000Z</time>
      </trkpt>
      <trkpt lat="45.45331" lon="4.01081">
        <ele>1128</ele>
        <time>2012-03-26T08:51:39.000Z</time>
      </trkpt>
      <trkpt lat="45.45344" lon="4.01085">
        <ele>1129</ele>
        <time>2012-03-26T08:51:43.000Z</time>
      </trkpt>
      <trkpt lat="45.45358" lon="4.01092">
        <ele>1129</ele>
        <time>2012-03-26T08:51:47.000Z</time>
      </trkpt>
      <trkpt lat="45.45372" lon="4.011">
        <ele>1128</ele>
        <time>2012-03-26T08:51:51.000Z</time>
      </trkpt>
      <trkpt lat="45.45385" lon="4.01108">
        <ele>1128</ele>
        <time>2012-03-26T08:51:55.000Z</time>
      </trkpt>
      <trkpt lat="45.45397" lon="4.01117">
        <ele>1128</ele>
        <time>2012-03-26T08:51:59.000Z</time>
      </trkpt>
      <trkpt lat="45.45409" lon="4.01122">
        <ele>1128</ele>
        <time>2012-03-26T08:52:03.000Z</time>
      </trkpt>
      <trkpt lat="45.4542" lon="4.01112">
        <ele>1128</ele>
        <time>2012-03-26T08:52:07.000Z</time>
      </trkpt>
      <trkpt lat="45.4543" lon="4.01104">
        <ele>1130</ele>
        <time>2012-03-26T08:52:11.000Z</time>
      </trkpt>
      <trkpt lat="45.45439" lon="4.01095">
        <ele>1132</ele>
        <time>2012-03-26T08:52:15.000Z</time>
      </trkpt>
      <trkpt lat="45.45451" lon="4.01088">
        <ele>1132</ele>
        <time>2012-03-26T08:52:19.000Z</time>
      </trkpt>
      <trkpt lat="45.45466" lon="4.01079">
        <ele>1133</ele>
        <time>2012-03-26T08:52:23.000Z</time>
      </trkpt>
      <trkpt lat="45.45475" lon="4.01073">
        <ele>1132</ele>
        <time>2012-03-26T08:52:25.000Z</time>
      </trkpt>
      <trkpt lat="45.45484" lon="4.01068">
        <ele>1131</ele>
        <time>2012-03-26T08:52:27.000Z</time>
      </trkpt>
      <trkpt lat="45.45494" lon="4.01063">
        <ele>1130</ele>
        <time>2012-03-26T08:52:29.000Z</time>
      </trkpt>
      <trkpt lat="45.45502" lon="4.01058">
        <ele>1129</ele>
        <time>2012-03-26T08:52:31.000Z</time>
      </trkpt>
      <trkpt lat="45.45512" lon="4.01053">
        <ele>1128</ele>
        <time>2012-03-26T08:52:33.000Z</time>
      </trkpt>
      <trkpt lat="45.45521" lon="4.01049">
        <ele>1128</ele>
        <time>2012-03-26T08:52:35.000Z</time>
      </trkpt>
      <trkpt lat="45.45531" lon="4.01043">
        <ele>1127</ele>
        <time>2012-03-26T08:52:37.000Z</time>
      </trkpt>
      <trkpt lat="45.45541" lon="4.01037">
        <ele>1127</ele>
        <time>2012-03-26T08:52:39.000Z</time>
      </trkpt>
      <trkpt lat="45.45551" lon="4.01031">
        <ele>1128</ele>
        <time>2012-03-26T08:52:41.000Z</time>
      </trkpt>
      <trkpt lat="45.4556" lon="4.01025">
        <ele>1127</ele>
        <time>2012-03-26T08:52:43.000Z</time>
      </trkpt>
      <trkpt lat="45.45569" lon="4.01018">
        <ele>1127</ele>
        <time>2012-03-26T08:52:45.000Z</time>
      </trkpt>
      <trkpt lat="45.45578" lon="4.01011">
        <ele>1125</ele>
        <time>2012-03-26T08:52:47.000Z</time>
      </trkpt>
      <trkpt lat="45.45586" lon="4.01004">
        <ele>1125</ele>
        <time>2012-03-26T08:52:49.000Z</time>
      </trkpt>
      <trkpt lat="45.45594" lon="4.00998">
        <ele>1124</ele>
        <time>2012-03-26T08:52:51.000Z</time>
      </trkpt>
      <trkpt lat="45.45603" lon="4.00992">
        <ele>1123</ele>
        <time>2012-03-26T08:52:53.000Z</time>
      </trkpt>
      <trkpt lat="45.45612" lon="4.00986">
        <ele>1123</ele>
        <time>2012-03-26T08:52:55.000Z</time>
      </trkpt>
      <trkpt lat="45.45622" lon="4.0098">
        <ele>1122</ele>
        <time>2012-03-26T08:52:57.000Z</time>
      </trkpt>
      <trkpt lat="45.45632" lon="4.00975">
        <ele>1122</ele>
        <time>2012-03-26T08:52:59.000Z</time>
      </trkpt>
      <trkpt lat="45.45641" lon="4.0097">
        <ele>1121</ele>
        <time>2012-03-26T08:53:01.000Z</time>
      </trkpt>
      <trkpt lat="45.45649" lon="4.00964">
        <ele>1121</ele>
        <time>2012-03-26T08:53:03.000Z</time>
      </trkpt>
      <trkpt lat="45.45658" lon="4.00958">
        <ele>1121</ele>
        <time>2012-03-26T08:53:05.000Z</time>
      </trkpt>
      <trkpt lat="45.4567" lon="4.00949">
        <ele>1122</ele>
        <time>2012-03-26T08:53:08.000Z</time>
      </trkpt>
      <trkpt lat="45.4568" lon="4.00942">
        <ele>1121</ele>
        <time>2012-03-26T08:53:10.000Z</time>
      </trkpt>
      <trkpt lat="45.45691" lon="4.00932">
        <ele>1121</ele>
        <time>2012-03-26T08:53:13.000Z</time>
      </trkpt>
      <trkpt lat="45.45702" lon="4.00918">
        <ele>1122</ele>
        <time>2012-03-26T08:53:16.000Z</time>
      </trkpt>
      <trkpt lat="45.45709" lon="4.0091">
        <ele>1120</ele>
        <time>2012-03-26T08:53:18.000Z</time>
      </trkpt>
      <trkpt lat="45.45717" lon="4.00895">
        <ele>1120</ele>
        <time>2012-03-26T08:53:21.000Z</time>
      </trkpt>
      <trkpt lat="45.45723" lon="4.00884">
        <ele>1120</ele>
        <time>2012-03-26T08:53:23.000Z</time>
      </trkpt>
      <trkpt lat="45.4573" lon="4.00876">
        <ele>1120</ele>
        <time>2012-03-26T08:53:25.000Z</time>
      </trkpt>
      <trkpt lat="45.45736" lon="4.00866">
        <ele>1119</ele>
        <time>2012-03-26T08:53:27.000Z</time>
      </trkpt>
      <trkpt lat="45.45742" lon="4.00856">
        <ele>1119</ele>
        <time>2012-03-26T08:53:29.000Z</time>
      </trkpt>
      <trkpt lat="45.45751" lon="4.00844">
        <ele>1120</ele>
        <time>2012-03-26T08:53:32.000Z</time>
      </trkpt>
      <trkpt lat="45.45758" lon="4.00834">
        <ele>1120</ele>
        <time>2012-03-26T08:53:34.000Z</time>
      </trkpt>
      <trkpt lat="45.45765" lon="4.00822">
        <ele>1119</ele>
        <time>2012-03-26T08:53:36.000Z</time>
      </trkpt>
      <trkpt lat="45.45772" lon="4.00811">
        <ele>1119</ele>
        <time>2012-03-26T08:53:38.000Z</time>
      </trkpt>
      <trkpt lat="45.4578" lon="4.008">
        <ele>1118</ele>
        <time>2012-03-26T08:53:40.000Z</time>
      </trkpt>
      <trkpt lat="45.45787" lon="4.0079">
        <ele>1119</ele>
        <time>2012-03-26T08:53:42.000Z</time>
      </trkpt>
      <trkpt lat="45.45794" lon="4.00781">
        <ele>1119</ele>
        <time>2012-03-26T08:53:44.000Z</time>
      </trkpt>
      <trkpt lat="45.45801" lon="4.00772">
        <ele>1119</ele>
        <time>2012-03-26T08:53:46.000Z</time>
      </trkpt>
      <trkpt lat="45.45808" lon="4.00764">
        <ele>1119</ele>
        <time>2012-03-26T08:53:48.000Z</time>
      </trkpt>
      <trkpt lat="45.4582" lon="4.00754">
        <ele>1119</ele>
        <time>2012-03-26T08:53:51.000Z</time>
      </trkpt>
      <trkpt lat="45.45828" lon="4.00747">
        <ele>1119</ele>
        <time>2012-03-26T08:53:53.000Z</time>
      </trkpt>
      <trkpt lat="45.45837" lon="4.0074">
        <ele>1118</ele>
        <time>2012-03-26T08:53:55.000Z</time>
      </trkpt>
      <trkpt lat="45.45845" lon="4.00732">
        <ele>1118</ele>
        <time>2012-03-26T08:53:57.000Z</time>
      </trkpt>
      <trkpt lat="45.45854" lon="4.00724">
        <ele>1118</ele>
        <time>2012-03-26T08:53:59.000Z</time>
      </trkpt>
      <trkpt lat="45.45861" lon="4.00716">
        <ele>1119</ele>
        <time>2012-03-26T08:54:01.000Z</time>
      </trkpt>
      <trkpt lat="45.45868" lon="4.00708">
        <ele>1119</ele>
        <time>2012-03-26T08:54:03.000Z</time>
      </trkpt>
      <trkpt lat="45.45876" lon="4.00699">
        <ele>1119</ele>
        <time>2012-03-26T08:54:05.000Z</time>
      </trkpt>
      <trkpt lat="45.45883" lon="4.0069">
        <ele>1119</ele>
        <time>2012-03-26T08:54:07.000Z</time>
      </trkpt>
      <trkpt lat="45.4589" lon="4.0068">
        <ele>1119</ele>
        <time>2012-03-26T08:54:09.000Z</time>
      </trkpt>
      <trkpt lat="45.45896" lon="4.0067">
        <ele>1118</ele>
        <time>2012-03-26T08:54:11.000Z</time>
      </trkpt>
      <trkpt lat="45.45906" lon="4.00658">
        <ele>1120</ele>
        <time>2012-03-26T08:54:14.000Z</time>
      </trkpt>
      <trkpt lat="45.45918" lon="4.0064">
        <ele>1123</ele>
        <time>2012-03-26T08:54:18.000Z</time>
      </trkpt>
      <trkpt lat="45.45926" lon="4.00632">
        <ele>1123</ele>
        <time>2012-03-26T08:54:20.000Z</time>
      </trkpt>
      <trkpt lat="45.45934" lon="4.00624">
        <ele>1121</ele>
        <time>2012-03-26T08:54:22.000Z</time>
      </trkpt>
      <trkpt lat="45.45946" lon="4.00614">
        <ele>1120</ele>
        <time>2012-03-26T08:54:25.000Z</time>
      </trkpt>
      <trkpt lat="45.45958" lon="4.00604">
        <ele>1120</ele>
        <time>2012-03-26T08:54:28.000Z</time>
      </trkpt>
      <trkpt lat="45.45974" lon="4.00593">
        <ele>1121</ele>
        <time>2012-03-26T08:54:32.000Z</time>
      </trkpt>
      <trkpt lat="45.45982" lon="4.00589">
        <ele>1121</ele>
        <time>2012-03-26T08:54:34.000Z</time>
      </trkpt>
      <trkpt lat="45.45992" lon="4.00587">
        <ele>1120</ele>
        <time>2012-03-26T08:54:36.000Z</time>
      </trkpt>
      <trkpt lat="45.46006" lon="4.00585">
        <ele>1121</ele>
        <time>2012-03-26T08:54:39.000Z</time>
      </trkpt>
      <trkpt lat="45.46018" lon="4.00582">
        <ele>1120</ele>
        <time>2012-03-26T08:54:42.000Z</time>
      </trkpt>
      <trkpt lat="45.46034" lon="4.00578">
        <ele>1119</ele>
        <time>2012-03-26T08:54:46.000Z</time>
      </trkpt>
      <trkpt lat="45.46049" lon="4.0057">
        <ele>1120</ele>
        <time>2012-03-26T08:54:50.000Z</time>
      </trkpt>
      <trkpt lat="45.46058" lon="4.0056">
        <ele>1121</ele>
        <time>2012-03-26T08:54:52.000Z</time>
      </trkpt>
      <trkpt lat="45.46066" lon="4.00549">
        <ele>1121</ele>
        <time>2012-03-26T08:54:54.000Z</time>
      </trkpt>
      <trkpt lat="45.46072" lon="4.00536">
        <ele>1120</ele>
        <time>2012-03-26T08:54:56.000Z</time>
      </trkpt>
      <trkpt lat="45.46076" lon="4.00522">
        <ele>1120</ele>
        <time>2012-03-26T08:54:58.000Z</time>
      </trkpt>
      <trkpt lat="45.46075" lon="4.00499">
        <ele>1121</ele>
        <time>2012-03-26T08:55:02.000Z</time>
      </trkpt>
      <trkpt lat="45.46074" lon="4.00481">
        <ele>1123</ele>
        <time>2012-03-26T08:55:06.000Z</time>
      </trkpt>
      <trkpt lat="45.46075" lon="4.00464">
        <ele>1125</ele>
        <time>2012-03-26T08:55:11.000Z</time>
      </trkpt>
      <trkpt lat="45.46079" lon="4.00447">
        <ele>1125</ele>
        <time>2012-03-26T08:55:15.000Z</time>
      </trkpt>
      <trkpt lat="45.46082" lon="4.00432">
        <ele>1126</ele>
        <time>2012-03-26T08:55:19.000Z</time>
      </trkpt>
      <trkpt lat="45.46085" lon="4.00418">
        <ele>1127</ele>
        <time>2012-03-26T08:55:23.000Z</time>
      </trkpt>
      <trkpt lat="45.46086" lon="4.004">
        <ele>1127</ele>
        <time>2012-03-26T08:55:27.000Z</time>
      </trkpt>
      <trkpt lat="45.46085" lon="4.00384">
        <ele>1130</ele>
        <time>2012-03-26T08:55:31.000Z</time>
      </trkpt>
      <trkpt lat="45.46084" lon="4.0037">
        <ele>1131</ele>
        <time>2012-03-26T08:55:35.000Z</time>
      </trkpt>
      <trkpt lat="45.46082" lon="4.00354">
        <ele>1130</ele>
        <time>2012-03-26T08:55:39.000Z</time>
      </trkpt>
      <trkpt lat="45.46076" lon="4.00336">
        <ele>1131</ele>
        <time>2012-03-26T08:55:43.000Z</time>
      </trkpt>
      <trkpt lat="45.4607" lon="4.00319">
        <ele>1132</ele>
        <time>2012-03-26T08:55:47.000Z</time>
      </trkpt>
      <trkpt lat="45.46066" lon="4.003">
        <ele>1131</ele>
        <time>2012-03-26T08:55:51.000Z</time>
      </trkpt>
      <trkpt lat="45.46068" lon="4.00281">
        <ele>1132</ele>
        <time>2012-03-26T08:55:55.000Z</time>
      </trkpt>
      <trkpt lat="45.46074" lon="4.00263">
        <ele>1132</ele>
        <time>2012-03-26T08:55:59.000Z</time>
      </trkpt>
      <trkpt lat="45.46078" lon="4.00246">
        <ele>1131</ele>
        <time>2012-03-26T08:56:03.000Z</time>
      </trkpt>
      <trkpt lat="45.46077" lon="4.00231">
        <ele>1135</ele>
        <time>2012-03-26T08:56:07.000Z</time>
      </trkpt>
      <trkpt lat="45.46075" lon="4.00216">
        <ele>1135</ele>
        <time>2012-03-26T08:56:11.000Z</time>
      </trkpt>
      <trkpt lat="45.46072" lon="4.00198">
        <ele>1134</ele>
        <time>2012-03-26T08:56:15.000Z</time>
      </trkpt>
      <trkpt lat="45.46074" lon="4.00182">
        <ele>1135</ele>
        <time>2012-03-26T08:56:19.000Z</time>
      </trkpt>
      <trkpt lat="45.46077" lon="4.00168">
        <ele>1138</ele>
        <time>2012-03-26T08:56:25.000Z</time>
      </trkpt>
      <trkpt lat="45.46082" lon="4.00154">
        <ele>1138</ele>
        <time>2012-03-26T08:56:30.000Z</time>
      </trkpt>
      <trkpt lat="45.46082" lon="4.00137">
        <ele>1140</ele>
        <time>2012-03-26T08:56:36.000Z</time>
      </trkpt>
      <trkpt lat="45.4608" lon="4.0012">
        <ele>1140</ele>
        <time>2012-03-26T08:56:42.000Z</time>
      </trkpt>
      <trkpt lat="45.46078" lon="4.00106">
        <ele>1143</ele>
        <time>2012-03-26T08:56:49.000Z</time>
      </trkpt>
      <trkpt lat="45.46075" lon="4.00092">
        <ele>1145</ele>
        <time>2012-03-26T08:56:54.000Z</time>
      </trkpt>
      <trkpt lat="45.46073" lon="4.00075">
        <ele>1146</ele>
        <time>2012-03-26T08:57:00.000Z</time>
      </trkpt>
      <trkpt lat="45.46072" lon="4.0006">
        <ele>1147</ele>
        <time>2012-03-26T08:57:06.000Z</time>
      </trkpt>
      <trkpt lat="45.4607" lon="4.00046">
        <ele>1147</ele>
        <time>2012-03-26T08:57:11.000Z</time>
      </trkpt>
      <trkpt lat="45.46066" lon="4.00032">
        <ele>1149</ele>
        <time>2012-03-26T08:57:17.000Z</time>
      </trkpt>
      <trkpt lat="45.4606" lon="4.00019">
        <ele>1151</ele>
        <time>2012-03-26T08:57:23.000Z</time>
      </trkpt>
      <trkpt lat="45.46052" lon="4.00006">
        <ele>1150</ele>
        <time>2012-03-26T08:57:29.000Z</time>
      </trkpt>
      <trkpt lat="45.46045" lon="3.99993">
        <ele>1153</ele>
        <time>2012-03-26T08:57:34.000Z</time>
      </trkpt>
      <trkpt lat="45.46039" lon="3.99984">
        <ele>1153</ele>
        <time>2012-03-26T08:57:38.000Z</time>
      </trkpt>
      <trkpt lat="45.4603" lon="3.99972">
        <ele>1159</ele>
        <time>2012-03-26T08:57:43.000Z</time>
      </trkpt>
      <trkpt lat="45.46024" lon="3.9996">
        <ele>1159</ele>
        <time>2012-03-26T08:57:47.000Z</time>
      </trkpt>
      <trkpt lat="45.46017" lon="3.99946">
        <ele>1157</ele>
        <time>2012-03-26T08:57:51.000Z</time>
      </trkpt>
      <trkpt lat="45.46011" lon="3.99933">
        <ele>1156</ele>
        <time>2012-03-26T08:57:55.000Z</time>
      </trkpt>
      <trkpt lat="45.46006" lon="3.99919">
        <ele>1156</ele>
        <time>2012-03-26T08:58:00.000Z</time>
      </trkpt>
      <trkpt lat="45.46003" lon="3.99904">
        <ele>1154</ele>
        <time>2012-03-26T08:58:06.000Z</time>
      </trkpt>
      <trkpt lat="45.45997" lon="3.99885">
        <ele>1158</ele>
        <time>2012-03-26T08:58:14.000Z</time>
      </trkpt>
      <trkpt lat="45.45994" lon="3.99871">
        <ele>1159</ele>
        <time>2012-03-26T08:58:20.000Z</time>
      </trkpt>
      <trkpt lat="45.45988" lon="3.99858">
        <ele>1159</ele>
        <time>2012-03-26T08:58:27.000Z</time>
      </trkpt>
      <trkpt lat="45.45982" lon="3.99848">
        <ele>1167</ele>
        <time>2012-03-26T08:58:33.000Z</time>
      </trkpt>
      <trkpt lat="45.45974" lon="3.9984">
        <ele>1168</ele>
        <time>2012-03-26T08:58:39.000Z</time>
      </trkpt>
      <trkpt lat="45.45968" lon="3.99828">
        <ele>1169</ele>
        <time>2012-03-26T08:58:45.000Z</time>
      </trkpt>
      <trkpt lat="45.45961" lon="3.99816">
        <ele>1169</ele>
        <time>2012-03-26T08:58:51.000Z</time>
      </trkpt>
      <trkpt lat="45.45957" lon="3.99803">
        <ele>1170</ele>
        <time>2012-03-26T08:58:58.000Z</time>
      </trkpt>
      <trkpt lat="45.45956" lon="3.99788">
        <ele>1168</ele>
        <time>2012-03-26T08:59:07.000Z</time>
      </trkpt>
      <trkpt lat="45.45953" lon="3.99773">
        <ele>1176</ele>
        <time>2012-03-26T08:59:16.000Z</time>
      </trkpt>
      <trkpt lat="45.45951" lon="3.99758">
        <ele>1175</ele>
        <time>2012-03-26T08:59:25.000Z</time>
      </trkpt>
      <trkpt lat="45.45948" lon="3.99742">
        <ele>1180</ele>
        <time>2012-03-26T08:59:34.000Z</time>
      </trkpt>
      <trkpt lat="45.45941" lon="3.9973">
        <ele>1181</ele>
        <time>2012-03-26T08:59:40.000Z</time>
      </trkpt>
      <trkpt lat="45.45935" lon="3.99715">
        <ele>1179</ele>
        <time>2012-03-26T08:59:47.000Z</time>
      </trkpt>
      <trkpt lat="45.45928" lon="3.99702">
        <ele>1180</ele>
        <time>2012-03-26T08:59:54.000Z</time>
      </trkpt>
      <trkpt lat="45.45924" lon="3.99689">
        <ele>1183</ele>
        <time>2012-03-26T09:00:02.000Z</time>
      </trkpt>
      <trkpt lat="45.4593" lon="3.99675">
        <ele>1184</ele>
        <time>2012-03-26T09:00:10.000Z</time>
      </trkpt>
      <trkpt lat="45.45934" lon="3.9966">
        <ele>1189</ele>
        <time>2012-03-26T09:00:21.000Z</time>
      </trkpt>
      <trkpt lat="45.45936" lon="3.99645">
        <ele>1191</ele>
        <time>2012-03-26T09:00:30.000Z</time>
      </trkpt>
      <trkpt lat="45.45942" lon="3.99634">
        <ele>1193</ele>
        <time>2012-03-26T09:00:38.000Z</time>
      </trkpt>
      <trkpt lat="45.45947" lon="3.9962">
        <ele>1193</ele>
        <time>2012-03-26T09:00:44.000Z</time>
      </trkpt>
      <trkpt lat="45.4595" lon="3.99605">
        <ele>1194</ele>
        <time>2012-03-26T09:00:51.000Z</time>
      </trkpt>
      <trkpt lat="45.45947" lon="3.9959">
        <ele>1194</ele>
        <time>2012-03-26T09:00:56.000Z</time>
      </trkpt>
      <trkpt lat="45.45937" lon="3.99583">
        <ele>1196</ele>
        <time>2012-03-26T09:01:02.000Z</time>
      </trkpt>
      <trkpt lat="45.45927" lon="3.99583">
        <ele>1199</ele>
        <time>2012-03-26T09:01:08.000Z</time>
      </trkpt>
      <trkpt lat="45.45915" lon="3.99582">
        <ele>1200</ele>
        <time>2012-03-26T09:01:14.000Z</time>
      </trkpt>
      <trkpt lat="45.45904" lon="3.99577">
        <ele>1201</ele>
        <time>2012-03-26T09:01:20.000Z</time>
      </trkpt>
      <trkpt lat="45.45896" lon="3.99568">
        <ele>1201</ele>
        <time>2012-03-26T09:01:25.000Z</time>
      </trkpt>
      <trkpt lat="45.45886" lon="3.99562">
        <ele>1202</ele>
        <time>2012-03-26T09:01:31.000Z</time>
      </trkpt>
      <trkpt lat="45.45876" lon="3.99558">
        <ele>1204</ele>
        <time>2012-03-26T09:01:37.000Z</time>
      </trkpt>
      <trkpt lat="45.45862" lon="3.99562">
        <ele>1208</ele>
        <time>2012-03-26T09:01:43.000Z</time>
      </trkpt>
      <trkpt lat="45.45851" lon="3.99562">
        <ele>1207</ele>
        <time>2012-03-26T09:01:48.000Z</time>
      </trkpt>
      <trkpt lat="45.45844" lon="3.9955">
        <ele>1205</ele>
        <time>2012-03-26T09:01:52.000Z</time>
      </trkpt>
      <trkpt lat="45.45838" lon="3.9954">
        <ele>1200</ele>
        <time>2012-03-26T09:02:11.000Z</time>
      </trkpt>
      <trkpt lat="45.45845" lon="3.99555">
        <ele>1206</ele>
        <time>2012-03-26T09:14:18.000Z</time>
      </trkpt>
      <trkpt lat="45.45854" lon="3.99566">
        <ele>1204</ele>
        <time>2012-03-26T09:14:24.000Z</time>
      </trkpt>
      <trkpt lat="45.45864" lon="3.99564">
        <ele>1205</ele>
        <time>2012-03-26T09:14:28.000Z</time>
      </trkpt>
      <trkpt lat="45.45876" lon="3.99565">
        <ele>1207</ele>
        <time>2012-03-26T09:14:32.000Z</time>
      </trkpt>
      <trkpt lat="45.45889" lon="3.9957">
        <ele>1206</ele>
        <time>2012-03-26T09:14:35.000Z</time>
      </trkpt>
      <trkpt lat="45.45899" lon="3.9958">
        <ele>1202</ele>
        <time>2012-03-26T09:14:37.000Z</time>
      </trkpt>
      <trkpt lat="45.45911" lon="3.99585">
        <ele>1200</ele>
        <time>2012-03-26T09:14:39.000Z</time>
      </trkpt>
      <trkpt lat="45.45923" lon="3.99586">
        <ele>1199</ele>
        <time>2012-03-26T09:14:41.000Z</time>
      </trkpt>
      <trkpt lat="45.45934" lon="3.99585">
        <ele>1196</ele>
        <time>2012-03-26T09:14:43.000Z</time>
      </trkpt>
      <trkpt lat="45.45945" lon="3.9959">
        <ele>1196</ele>
        <time>2012-03-26T09:14:45.000Z</time>
      </trkpt>
      <trkpt lat="45.45956" lon="3.996">
        <ele>1194</ele>
        <time>2012-03-26T09:14:47.000Z</time>
      </trkpt>
      <trkpt lat="45.45966" lon="3.99612">
        <ele>1192</ele>
        <time>2012-03-26T09:14:49.000Z</time>
      </trkpt>
      <trkpt lat="45.45977" lon="3.99626">
        <ele>1191</ele>
        <time>2012-03-26T09:14:51.000Z</time>
      </trkpt>
      <trkpt lat="45.45987" lon="3.99641">
        <ele>1191</ele>
        <time>2012-03-26T09:14:53.000Z</time>
      </trkpt>
      <trkpt lat="45.45997" lon="3.99653">
        <ele>1190</ele>
        <time>2012-03-26T09:14:55.000Z</time>
      </trkpt>
      <trkpt lat="45.46007" lon="3.99664">
        <ele>1189</ele>
        <time>2012-03-26T09:14:57.000Z</time>
      </trkpt>
      <trkpt lat="45.46018" lon="3.99672">
        <ele>1189</ele>
        <time>2012-03-26T09:14:59.000Z</time>
      </trkpt>
      <trkpt lat="45.46028" lon="3.99679">
        <ele>1190</ele>
        <time>2012-03-26T09:15:01.000Z</time>
      </trkpt>
      <trkpt lat="45.46039" lon="3.99686">
        <ele>1191</ele>
        <time>2012-03-26T09:15:03.000Z</time>
      </trkpt>
      <trkpt lat="45.46049" lon="3.99693">
        <ele>1192</ele>
        <time>2012-03-26T09:15:05.000Z</time>
      </trkpt>
      <trkpt lat="45.4606" lon="3.997">
        <ele>1193</ele>
        <time>2012-03-26T09:15:07.000Z</time>
      </trkpt>
      <trkpt lat="45.4607" lon="3.99708">
        <ele>1196</ele>
        <time>2012-03-26T09:15:09.000Z</time>
      </trkpt>
      <trkpt lat="45.4608" lon="3.99718">
        <ele>1196</ele>
        <time>2012-03-26T09:15:11.000Z</time>
      </trkpt>
      <trkpt lat="45.46087" lon="3.99731">
        <ele>1192</ele>
        <time>2012-03-26T09:15:13.000Z</time>
      </trkpt>
      <trkpt lat="45.46093" lon="3.99746">
        <ele>1189</ele>
        <time>2012-03-26T09:15:15.000Z</time>
      </trkpt>
      <trkpt lat="45.46101" lon="3.99754">
        <ele>1187</ele>
        <time>2012-03-26T09:15:17.000Z</time>
      </trkpt>
      <trkpt lat="45.4611" lon="3.99756">
        <ele>1186</ele>
        <time>2012-03-26T09:15:19.000Z</time>
      </trkpt>
      <trkpt lat="45.4612" lon="3.99751">
        <ele>1185</ele>
        <time>2012-03-26T09:15:21.000Z</time>
      </trkpt>
      <trkpt lat="45.46131" lon="3.99743">
        <ele>1185</ele>
        <time>2012-03-26T09:15:23.000Z</time>
      </trkpt>
      <trkpt lat="45.46141" lon="3.99737">
        <ele>1185</ele>
        <time>2012-03-26T09:15:25.000Z</time>
      </trkpt>
      <trkpt lat="45.46153" lon="3.99733">
        <ele>1187</ele>
        <time>2012-03-26T09:15:27.000Z</time>
      </trkpt>
      <trkpt lat="45.46167" lon="3.99729">
        <ele>1187</ele>
        <time>2012-03-26T09:15:29.000Z</time>
      </trkpt>
      <trkpt lat="45.4618" lon="3.99722">
        <ele>1189</ele>
        <time>2012-03-26T09:15:31.000Z</time>
      </trkpt>
      <trkpt lat="45.46194" lon="3.99715">
        <ele>1188</ele>
        <time>2012-03-26T09:15:33.000Z</time>
      </trkpt>
      <trkpt lat="45.46207" lon="3.99709">
        <ele>1187</ele>
        <time>2012-03-26T09:15:35.000Z</time>
      </trkpt>
      <trkpt lat="45.46219" lon="3.99704">
        <ele>1186</ele>
        <time>2012-03-26T09:15:37.000Z</time>
      </trkpt>
      <trkpt lat="45.46233" lon="3.99704">
        <ele>1187</ele>
        <time>2012-03-26T09:15:39.000Z</time>
      </trkpt>
      <trkpt lat="45.46248" lon="3.99702">
        <ele>1185</ele>
        <time>2012-03-26T09:15:41.000Z</time>
      </trkpt>
      <trkpt lat="45.46264" lon="3.997">
        <ele>1184</ele>
        <time>2012-03-26T09:15:43.000Z</time>
      </trkpt>
      <trkpt lat="45.46278" lon="3.99698">
        <ele>1185</ele>
        <time>2012-03-26T09:15:45.000Z</time>
      </trkpt>
      <trkpt lat="45.46293" lon="3.99697">
        <ele>1183</ele>
        <time>2012-03-26T09:15:47.000Z</time>
      </trkpt>
      <trkpt lat="45.46308" lon="3.99697">
        <ele>1181</ele>
        <time>2012-03-26T09:15:49.000Z</time>
      </trkpt>
      <trkpt lat="45.46322" lon="3.99699">
        <ele>1181</ele>
        <time>2012-03-26T09:15:51.000Z</time>
      </trkpt>
      <trkpt lat="45.46335" lon="3.99702">
        <ele>1182</ele>
        <time>2012-03-26T09:15:53.000Z</time>
      </trkpt>
      <trkpt lat="45.46346" lon="3.99705">
        <ele>1182</ele>
        <time>2012-03-26T09:15:55.000Z</time>
      </trkpt>
      <trkpt lat="45.46359" lon="3.99709">
        <ele>1184</ele>
        <time>2012-03-26T09:15:57.000Z</time>
      </trkpt>
      <trkpt lat="45.46373" lon="3.99713">
        <ele>1181</ele>
        <time>2012-03-26T09:15:59.000Z</time>
      </trkpt>
      <trkpt lat="45.46388" lon="3.99717">
        <ele>1179</ele>
        <time>2012-03-26T09:16:01.000Z</time>
      </trkpt>
      <trkpt lat="45.46404" lon="3.99719">
        <ele>1178</ele>
        <time>2012-03-26T09:16:03.000Z</time>
      </trkpt>
      <trkpt lat="45.46418" lon="3.99722">
        <ele>1179</ele>
        <time>2012-03-26T09:16:05.000Z</time>
      </trkpt>
      <trkpt lat="45.46429" lon="3.99724">
        <ele>1178</ele>
        <time>2012-03-26T09:16:07.000Z</time>
      </trkpt>
      <trkpt lat="45.46441" lon="3.99727">
        <ele>1176</ele>
        <time>2012-03-26T09:16:09.000Z</time>
      </trkpt>
      <trkpt lat="45.46454" lon="3.99732">
        <ele>1175</ele>
        <time>2012-03-26T09:16:11.000Z</time>
      </trkpt>
      <trkpt lat="45.46464" lon="3.99736">
        <ele>1175</ele>
        <time>2012-03-26T09:16:13.000Z</time>
      </trkpt>
      <trkpt lat="45.46474" lon="3.9974">
        <ele>1175</ele>
        <time>2012-03-26T09:16:15.000Z</time>
      </trkpt>
      <trkpt lat="45.46484" lon="3.99743">
        <ele>1177</ele>
        <time>2012-03-26T09:16:17.000Z</time>
      </trkpt>
      <trkpt lat="45.46495" lon="3.99745">
        <ele>1176</ele>
        <time>2012-03-26T09:16:19.000Z</time>
      </trkpt>
      <trkpt lat="45.46505" lon="3.99748">
        <ele>1177</ele>
        <time>2012-03-26T09:16:21.000Z</time>
      </trkpt>
      <trkpt lat="45.46515" lon="3.99751">
        <ele>1176</ele>
        <time>2012-03-26T09:16:23.000Z</time>
      </trkpt>
      <trkpt lat="45.46524" lon="3.99753">
        <ele>1177</ele>
        <time>2012-03-26T09:16:25.000Z</time>
      </trkpt>
      <trkpt lat="45.46538" lon="3.99757">
        <ele>1179</ele>
        <time>2012-03-26T09:16:28.000Z</time>
      </trkpt>
      <trkpt lat="45.46548" lon="3.99758">
        <ele>1179</ele>
        <time>2012-03-26T09:16:30.000Z</time>
      </trkpt>
      <trkpt lat="45.46564" lon="3.99761">
        <ele>1178</ele>
        <time>2012-03-26T09:16:34.000Z</time>
      </trkpt>
      <trkpt lat="45.4658" lon="3.99763">
        <ele>1178</ele>
        <time>2012-03-26T09:16:38.000Z</time>
      </trkpt>
      <trkpt lat="45.4659" lon="3.99765">
        <ele>1179</ele>
        <time>2012-03-26T09:16:40.000Z</time>
      </trkpt>
      <trkpt lat="45.46603" lon="3.99767">
        <ele>1180</ele>
        <time>2012-03-26T09:16:43.000Z</time>
      </trkpt>
      <trkpt lat="45.46619" lon="3.99769">
        <ele>1180</ele>
        <time>2012-03-26T09:16:47.000Z</time>
      </trkpt>
      <trkpt lat="45.46632" lon="3.99771">
        <ele>1181</ele>
        <time>2012-03-26T09:16:50.000Z</time>
      </trkpt>
      <trkpt lat="45.46641" lon="3.99774">
        <ele>1178</ele>
        <time>2012-03-26T09:16:52.000Z</time>
      </trkpt>
      <trkpt lat="45.46651" lon="3.99777">
        <ele>1180</ele>
        <time>2012-03-26T09:16:54.000Z</time>
      </trkpt>
      <trkpt lat="45.46665" lon="3.99784">
        <ele>1181</ele>
        <time>2012-03-26T09:16:58.000Z</time>
      </trkpt>
      <trkpt lat="45.46677" lon="3.99795">
        <ele>1178</ele>
        <time>2012-03-26T09:17:02.000Z</time>
      </trkpt>
      <trkpt lat="45.46689" lon="3.99804">
        <ele>1181</ele>
        <time>2012-03-26T09:17:06.000Z</time>
      </trkpt>
      <trkpt lat="45.467" lon="3.99814">
        <ele>1178</ele>
        <time>2012-03-26T09:17:09.000Z</time>
      </trkpt>
      <trkpt lat="45.46714" lon="3.99827">
        <ele>1182</ele>
        <time>2012-03-26T09:17:13.000Z</time>
      </trkpt>
      <trkpt lat="45.46724" lon="3.99839">
        <ele>1182</ele>
        <time>2012-03-26T09:17:17.000Z</time>
      </trkpt>
      <trkpt lat="45.46735" lon="3.99852">
        <ele>1184</ele>
        <time>2012-03-26T09:17:21.000Z</time>
      </trkpt>
      <trkpt lat="45.46744" lon="3.99862">
        <ele>1184</ele>
        <time>2012-03-26T09:17:25.000Z</time>
      </trkpt>
      <trkpt lat="45.46754" lon="3.9987">
        <ele>1189</ele>
        <time>2012-03-26T09:17:29.000Z</time>
      </trkpt>
      <trkpt lat="45.46766" lon="3.99883">
        <ele>1188</ele>
        <time>2012-03-26T09:17:33.000Z</time>
      </trkpt>
      <trkpt lat="45.46778" lon="3.99895">
        <ele>1188</ele>
        <time>2012-03-26T09:17:37.000Z</time>
      </trkpt>
      <trkpt lat="45.46791" lon="3.99906">
        <ele>1190</ele>
        <time>2012-03-26T09:17:41.000Z</time>
      </trkpt>
      <trkpt lat="45.46804" lon="3.99918">
        <ele>1190</ele>
        <time>2012-03-26T09:17:45.000Z</time>
      </trkpt>
      <trkpt lat="45.46815" lon="3.99929">
        <ele>1191</ele>
        <time>2012-03-26T09:17:49.000Z</time>
      </trkpt>
      <trkpt lat="45.46826" lon="3.9994">
        <ele>1192</ele>
        <time>2012-03-26T09:17:53.000Z</time>
      </trkpt>
      <trkpt lat="45.46834" lon="3.99948">
        <ele>1188</ele>
        <time>2012-03-26T09:17:57.000Z</time>
      </trkpt>
      <trkpt lat="45.46845" lon="3.99961">
        <ele>1189</ele>
        <time>2012-03-26T09:18:01.000Z</time>
      </trkpt>
      <trkpt lat="45.46854" lon="3.99972">
        <ele>1199</ele>
        <time>2012-03-26T09:18:05.000Z</time>
      </trkpt>
      <trkpt lat="45.46864" lon="3.99982">
        <ele>1195</ele>
        <time>2012-03-26T09:18:09.000Z</time>
      </trkpt>
      <trkpt lat="45.46879" lon="3.99993">
        <ele>1192</ele>
        <time>2012-03-26T09:18:13.000Z</time>
      </trkpt>
      <trkpt lat="45.46889" lon="4">
        <ele>1190</ele>
        <time>2012-03-26T09:18:16.000Z</time>
      </trkpt>
      <trkpt lat="45.46901" lon="4.00007">
        <ele>1190</ele>
        <time>2012-03-26T09:18:20.000Z</time>
      </trkpt>
      <trkpt lat="45.46912" lon="4.00018">
        <ele>1191</ele>
        <time>2012-03-26T09:18:24.000Z</time>
      </trkpt>
      <trkpt lat="45.46922" lon="4.00028">
        <ele>1187</ele>
        <time>2012-03-26T09:18:30.000Z</time>
      </trkpt>
      <trkpt lat="45.46931" lon="4.00036">
        <ele>1190</ele>
        <time>2012-03-26T09:18:34.000Z</time>
      </trkpt>
      <trkpt lat="45.46939" lon="4.00044">
        <ele>1193</ele>
        <time>2012-03-26T09:18:38.000Z</time>
      </trkpt>
      <trkpt lat="45.46949" lon="4.00052">
        <ele>1191</ele>
        <time>2012-03-26T09:18:42.000Z</time>
      </trkpt>
      <trkpt lat="45.46956" lon="4.0006">
        <ele>1192</ele>
        <time>2012-03-26T09:18:47.000Z</time>
      </trkpt>
      <trkpt lat="45.46965" lon="4.0007">
        <ele>1189</ele>
        <time>2012-03-26T09:18:53.000Z</time>
      </trkpt>
      <trkpt lat="45.46976" lon="4.00078">
        <ele>1193</ele>
        <time>2012-03-26T09:18:58.000Z</time>
      </trkpt>
      <trkpt lat="45.46987" lon="4.00085">
        <ele>1195</ele>
        <time>2012-03-26T09:19:02.000Z</time>
      </trkpt>
      <trkpt lat="45.46998" lon="4.0009">
        <ele>1199</ele>
        <time>2012-03-26T09:19:06.000Z</time>
      </trkpt>
      <trkpt lat="45.4701" lon="4.0009">
        <ele>1200</ele>
        <time>2012-03-26T09:19:10.000Z</time>
      </trkpt>
      <trkpt lat="45.47024" lon="4.00084">
        <ele>1198</ele>
        <time>2012-03-26T09:19:15.000Z</time>
      </trkpt>
      <trkpt lat="45.47037" lon="4.00084">
        <ele>1203</ele>
        <time>2012-03-26T09:19:19.000Z</time>
      </trkpt>
      <trkpt lat="45.47049" lon="4.00082">
        <ele>1202</ele>
        <time>2012-03-26T09:19:25.000Z</time>
      </trkpt>
      <trkpt lat="45.47062" lon="4.00078">
        <ele>1197</ele>
        <time>2012-03-26T09:19:35.000Z</time>
      </trkpt>
      <trkpt lat="45.47071" lon="4.0008">
        <ele>1196</ele>
        <time>2012-03-26T09:19:40.000Z</time>
      </trkpt>
      <trkpt lat="45.47082" lon="4.00084">
        <ele>1200</ele>
        <time>2012-03-26T09:19:45.000Z</time>
      </trkpt>
      <trkpt lat="45.47093" lon="4.00089">
        <ele>1198</ele>
        <time>2012-03-26T09:19:50.000Z</time>
      </trkpt>
      <trkpt lat="45.47103" lon="4.00093">
        <ele>1199</ele>
        <time>2012-03-26T09:19:55.000Z</time>
      </trkpt>
      <trkpt lat="45.47116" lon="4.00097">
        <ele>1204</ele>
        <time>2012-03-26T09:19:59.000Z</time>
      </trkpt>
      <trkpt lat="45.47129" lon="4.00102">
        <ele>1204</ele>
        <time>2012-03-26T09:20:03.000Z</time>
      </trkpt>
      <trkpt lat="45.47141" lon="4.00108">
        <ele>1201</ele>
        <time>2012-03-26T09:20:06.000Z</time>
      </trkpt>
      <trkpt lat="45.47153" lon="4.00113">
        <ele>1204</ele>
        <time>2012-03-26T09:20:10.000Z</time>
      </trkpt>
      <trkpt lat="45.47162" lon="4.00119">
        <ele>1200</ele>
        <time>2012-03-26T09:20:13.000Z</time>
      </trkpt>
      <trkpt lat="45.47174" lon="4.00129">
        <ele>1199</ele>
        <time>2012-03-26T09:20:17.000Z</time>
      </trkpt>
      <trkpt lat="45.47182" lon="4.00141">
        <ele>1203</ele>
        <time>2012-03-26T09:20:21.000Z</time>
      </trkpt>
      <trkpt lat="45.47189" lon="4.00151">
        <ele>1206</ele>
        <time>2012-03-26T09:20:25.000Z</time>
      </trkpt>
      <trkpt lat="45.47198" lon="4.00163">
        <ele>1205</ele>
        <time>2012-03-26T09:20:31.000Z</time>
      </trkpt>
      <trkpt lat="45.47208" lon="4.00174">
        <ele>1204</ele>
        <time>2012-03-26T09:20:37.000Z</time>
      </trkpt>
      <trkpt lat="45.47216" lon="4.00184">
        <ele>1206</ele>
        <time>2012-03-26T09:20:42.000Z</time>
      </trkpt>
      <trkpt lat="45.47225" lon="4.00194">
        <ele>1206</ele>
        <time>2012-03-26T09:20:48.000Z</time>
      </trkpt>
      <trkpt lat="45.47233" lon="4.00204">
        <ele>1205</ele>
        <time>2012-03-26T09:20:53.000Z</time>
      </trkpt>
      <trkpt lat="45.47241" lon="4.00214">
        <ele>1204</ele>
        <time>2012-03-26T09:20:59.000Z</time>
      </trkpt>
      <trkpt lat="45.4725" lon="4.00226">
        <ele>1209</ele>
        <time>2012-03-26T09:21:05.000Z</time>
      </trkpt>
      <trkpt lat="45.47257" lon="4.00234">
        <ele>1211</ele>
        <time>2012-03-26T09:21:10.000Z</time>
      </trkpt>
      <trkpt lat="45.47267" lon="4.00243">
        <ele>1207</ele>
        <time>2012-03-26T09:21:17.000Z</time>
      </trkpt>
      <trkpt lat="45.47277" lon="4.00254">
        <ele>1223</ele>
        <time>2012-03-26T09:21:23.000Z</time>
      </trkpt>
      <trkpt lat="45.47286" lon="4.0026">
        <ele>1220</ele>
        <time>2012-03-26T09:21:28.000Z</time>
      </trkpt>
      <trkpt lat="45.47297" lon="4.00267">
        <ele>1223</ele>
        <time>2012-03-26T09:21:33.000Z</time>
      </trkpt>
      <trkpt lat="45.47307" lon="4.00275">
        <ele>1222</ele>
        <time>2012-03-26T09:21:38.000Z</time>
      </trkpt>
      <trkpt lat="45.47322" lon="4.00286">
        <ele>1218</ele>
        <time>2012-03-26T09:21:42.000Z</time>
      </trkpt>
      <trkpt lat="45.47332" lon="4.00295">
        <ele>1220</ele>
        <time>2012-03-26T09:21:47.000Z</time>
      </trkpt>
      <trkpt lat="45.47342" lon="4.00304">
        <ele>1217</ele>
        <time>2012-03-26T09:21:52.000Z</time>
      </trkpt>
      <trkpt lat="45.47352" lon="4.00309">
        <ele>1218</ele>
        <time>2012-03-26T09:21:56.000Z</time>
      </trkpt>
      <trkpt lat="45.47362" lon="4.00315">
        <ele>1220</ele>
        <time>2012-03-26T09:22:00.000Z</time>
      </trkpt>
      <trkpt lat="45.47372" lon="4.00319">
        <ele>1220</ele>
        <time>2012-03-26T09:22:04.000Z</time>
      </trkpt>
      <trkpt lat="45.47382" lon="4.00322">
        <ele>1223</ele>
        <time>2012-03-26T09:22:08.000Z</time>
      </trkpt>
      <trkpt lat="45.47393" lon="4.00324">
        <ele>1225</ele>
        <time>2012-03-26T09:22:13.000Z</time>
      </trkpt>
      <trkpt lat="45.47404" lon="4.00324">
        <ele>1219</ele>
        <time>2012-03-26T09:22:17.000Z</time>
      </trkpt>
      <trkpt lat="45.47417" lon="4.00323">
        <ele>1219</ele>
        <time>2012-03-26T09:22:21.000Z</time>
      </trkpt>
      <trkpt lat="45.47425" lon="4.00334">
        <ele>1216</ele>
        <time>2012-03-26T09:22:25.000Z</time>
      </trkpt>
      <trkpt lat="45.47424" lon="4.00347">
        <ele>1212</ele>
        <time>2012-03-26T09:22:32.000Z</time>
      </trkpt>
      <trkpt lat="45.47415" lon="4.00361">
        <ele>1216</ele>
        <time>2012-03-26T09:22:39.000Z</time>
      </trkpt>
      <trkpt lat="45.47409" lon="4.00376">
        <ele>1206</ele>
        <time>2012-03-26T09:22:43.000Z</time>
      </trkpt>
      <trkpt lat="45.47396" lon="4.00387">
        <ele>1216</ele>
        <time>2012-03-26T09:22:47.000Z</time>
      </trkpt>
      <trkpt lat="45.47385" lon="4.00393">
        <ele>1222</ele>
        <time>2012-03-26T09:22:51.000Z</time>
      </trkpt>
      <trkpt lat="45.47374" lon="4.00399">
        <ele>1222</ele>
        <time>2012-03-26T09:22:55.000Z</time>
      </trkpt>
      <trkpt lat="45.47365" lon="4.00406">
        <ele>1221</ele>
        <time>2012-03-26T09:22:59.000Z</time>
      </trkpt>
      <trkpt lat="45.47356" lon="4.00412">
        <ele>1216</ele>
        <time>2012-03-26T09:23:03.000Z</time>
      </trkpt>
      <trkpt lat="45.47346" lon="4.00418">
        <ele>1215</ele>
        <time>2012-03-26T09:23:07.000Z</time>
      </trkpt>
      <trkpt lat="45.47336" lon="4.00426">
        <ele>1214</ele>
        <time>2012-03-26T09:23:11.000Z</time>
      </trkpt>
      <trkpt lat="45.47327" lon="4.00437">
        <ele>1215</ele>
        <time>2012-03-26T09:23:15.000Z</time>
      </trkpt>
      <trkpt lat="45.47315" lon="4.00449">
        <ele>1217</ele>
        <time>2012-03-26T09:23:19.000Z</time>
      </trkpt>
      <trkpt lat="45.47303" lon="4.00461">
        <ele>1220</ele>
        <time>2012-03-26T09:23:23.000Z</time>
      </trkpt>
      <trkpt lat="45.4729" lon="4.00471">
        <ele>1221</ele>
        <time>2012-03-26T09:23:27.000Z</time>
      </trkpt>
      <trkpt lat="45.47277" lon="4.00483">
        <ele>1224</ele>
        <time>2012-03-26T09:23:31.000Z</time>
      </trkpt>
      <trkpt lat="45.47267" lon="4.00494">
        <ele>1225</ele>
        <time>2012-03-26T09:23:34.000Z</time>
      </trkpt>
      <trkpt lat="45.47259" lon="4.00508">
        <ele>1223</ele>
        <time>2012-03-26T09:23:37.000Z</time>
      </trkpt>
      <trkpt lat="45.47248" lon="4.0052">
        <ele>1220</ele>
        <time>2012-03-26T09:23:41.000Z</time>
      </trkpt>
      <trkpt lat="45.47235" lon="4.00532">
        <ele>1224</ele>
        <time>2012-03-26T09:23:45.000Z</time>
      </trkpt>
      <trkpt lat="45.47221" lon="4.00546">
        <ele>1223</ele>
        <time>2012-03-26T09:23:49.000Z</time>
      </trkpt>
      <trkpt lat="45.4721" lon="4.00556">
        <ele>1224</ele>
        <time>2012-03-26T09:23:52.000Z</time>
      </trkpt>
      <trkpt lat="45.47198" lon="4.00564">
        <ele>1222</ele>
        <time>2012-03-26T09:23:55.000Z</time>
      </trkpt>
      <trkpt lat="45.47187" lon="4.00574">
        <ele>1222</ele>
        <time>2012-03-26T09:23:58.000Z</time>
      </trkpt>
      <trkpt lat="45.47177" lon="4.00587">
        <ele>1222</ele>
        <time>2012-03-26T09:24:01.000Z</time>
      </trkpt>
      <trkpt lat="45.47164" lon="4.00602">
        <ele>1225</ele>
        <time>2012-03-26T09:24:05.000Z</time>
      </trkpt>
      <trkpt lat="45.47152" lon="4.00612">
        <ele>1222</ele>
        <time>2012-03-26T09:24:09.000Z</time>
      </trkpt>
      <trkpt lat="45.47141" lon="4.00621">
        <ele>1215</ele>
        <time>2012-03-26T09:24:13.000Z</time>
      </trkpt>
      <trkpt lat="45.47131" lon="4.00631">
        <ele>1208</ele>
        <time>2012-03-26T09:24:17.000Z</time>
      </trkpt>
      <trkpt lat="45.47117" lon="4.00646">
        <ele>1226</ele>
        <time>2012-03-26T09:24:21.000Z</time>
      </trkpt>
      <trkpt lat="45.47105" lon="4.00657">
        <ele>1224</ele>
        <time>2012-03-26T09:24:23.000Z</time>
      </trkpt>
      <trkpt lat="45.47094" lon="4.0067">
        <ele>1224</ele>
        <time>2012-03-26T09:24:25.000Z</time>
      </trkpt>
      <trkpt lat="45.47085" lon="4.00682">
        <ele>1225</ele>
        <time>2012-03-26T09:24:27.000Z</time>
      </trkpt>
      <trkpt lat="45.47076" lon="4.00696">
        <ele>1223</ele>
        <time>2012-03-26T09:24:29.000Z</time>
      </trkpt>
      <trkpt lat="45.47066" lon="4.00712">
        <ele>1221</ele>
        <time>2012-03-26T09:24:31.000Z</time>
      </trkpt>
      <trkpt lat="45.47059" lon="4.00728">
        <ele>1218</ele>
        <time>2012-03-26T09:24:33.000Z</time>
      </trkpt>
      <trkpt lat="45.47052" lon="4.00745">
        <ele>1216</ele>
        <time>2012-03-26T09:24:35.000Z</time>
      </trkpt>
      <trkpt lat="45.47043" lon="4.00763">
        <ele>1216</ele>
        <time>2012-03-26T09:24:37.000Z</time>
      </trkpt>
      <trkpt lat="45.47036" lon="4.00776">
        <ele>1212</ele>
        <time>2012-03-26T09:24:39.000Z</time>
      </trkpt>
      <trkpt lat="45.47029" lon="4.00786">
        <ele>1216</ele>
        <time>2012-03-26T09:24:41.000Z</time>
      </trkpt>
      <trkpt lat="45.47022" lon="4.00795">
        <ele>1216</ele>
        <time>2012-03-26T09:24:43.000Z</time>
      </trkpt>
      <trkpt lat="45.47012" lon="4.00804">
        <ele>1222</ele>
        <time>2012-03-26T09:24:45.000Z</time>
      </trkpt>
      <trkpt lat="45.47003" lon="4.00813">
        <ele>1223</ele>
        <time>2012-03-26T09:24:47.000Z</time>
      </trkpt>
      <trkpt lat="45.46996" lon="4.00826">
        <ele>1228</ele>
        <time>2012-03-26T09:24:49.000Z</time>
      </trkpt>
      <trkpt lat="45.46986" lon="4.00835">
        <ele>1222</ele>
        <time>2012-03-26T09:24:51.000Z</time>
      </trkpt>
      <trkpt lat="45.46975" lon="4.00847">
        <ele>1219</ele>
        <time>2012-03-26T09:24:53.000Z</time>
      </trkpt>
      <trkpt lat="45.46964" lon="4.00862">
        <ele>1231</ele>
        <time>2012-03-26T09:24:55.000Z</time>
      </trkpt>
      <trkpt lat="45.46953" lon="4.00876">
        <ele>1234</ele>
        <time>2012-03-26T09:24:57.000Z</time>
      </trkpt>
      <trkpt lat="45.46944" lon="4.00895">
        <ele>1236</ele>
        <time>2012-03-26T09:25:01.000Z</time>
      </trkpt>
      <trkpt lat="45.46939" lon="4.00906">
        <ele>1242</ele>
        <time>2012-03-26T09:25:02.000Z</time>
      </trkpt>
      <trkpt lat="45.46933" lon="4.00916">
        <ele>1241</ele>
        <time>2012-03-26T09:25:03.000Z</time>
      </trkpt>
      <trkpt lat="45.4692" lon="4.00934">
        <ele>1235</ele>
        <time>2012-03-26T09:25:05.000Z</time>
      </trkpt>
      <trkpt lat="45.4691" lon="4.00949">
        <ele>1232</ele>
        <time>2012-03-26T09:25:07.000Z</time>
      </trkpt>
      <trkpt lat="45.46901" lon="4.00963">
        <ele>1233</ele>
        <time>2012-03-26T09:25:09.000Z</time>
      </trkpt>
      <trkpt lat="45.46893" lon="4.00978">
        <ele>1238</ele>
        <time>2012-03-26T09:25:11.000Z</time>
      </trkpt>
      <trkpt lat="45.46885" lon="4.00996">
        <ele>1239</ele>
        <time>2012-03-26T09:25:13.000Z</time>
      </trkpt>
      <trkpt lat="45.46873" lon="4.01018">
        <ele>1218</ele>
        <time>2012-03-26T09:25:15.000Z</time>
      </trkpt>
      <trkpt lat="45.46863" lon="4.01036">
        <ele>1215</ele>
        <time>2012-03-26T09:25:17.000Z</time>
      </trkpt>
      <trkpt lat="45.46853" lon="4.01053">
        <ele>1220</ele>
        <time>2012-03-26T09:25:19.000Z</time>
      </trkpt>
      <trkpt lat="45.46843" lon="4.01069">
        <ele>1222</ele>
        <time>2012-03-26T09:25:21.000Z</time>
      </trkpt>
      <trkpt lat="45.46835" lon="4.01083">
        <ele>1221</ele>
        <time>2012-03-26T09:25:23.000Z</time>
      </trkpt>
      <trkpt lat="45.46825" lon="4.01094">
        <ele>1224</ele>
        <time>2012-03-26T09:25:25.000Z</time>
      </trkpt>
      <trkpt lat="45.4681" lon="4.01108">
        <ele>1225</ele>
        <time>2012-03-26T09:25:27.000Z</time>
      </trkpt>
      <trkpt lat="45.46797" lon="4.01123">
        <ele>1222</ele>
        <time>2012-03-26T09:25:29.000Z</time>
      </trkpt>
      <trkpt lat="45.46788" lon="4.01135">
        <ele>1214</ele>
        <time>2012-03-26T09:25:31.000Z</time>
      </trkpt>
      <trkpt lat="45.46778" lon="4.01148">
        <ele>1205</ele>
        <time>2012-03-26T09:25:33.000Z</time>
      </trkpt>
      <trkpt lat="45.46769" lon="4.01162">
        <ele>1212</ele>
        <time>2012-03-26T09:25:35.000Z</time>
      </trkpt>
      <trkpt lat="45.46758" lon="4.01178">
        <ele>1212</ele>
        <time>2012-03-26T09:25:37.000Z</time>
      </trkpt>
      <trkpt lat="45.46749" lon="4.01192">
        <ele>1211</ele>
        <time>2012-03-26T09:25:39.000Z</time>
      </trkpt>
      <trkpt lat="45.46741" lon="4.01206">
        <ele>1213</ele>
        <time>2012-03-26T09:25:41.000Z</time>
      </trkpt>
      <trkpt lat="45.46732" lon="4.01218">
        <ele>1210</ele>
        <time>2012-03-26T09:25:43.000Z</time>
      </trkpt>
      <trkpt lat="45.46724" lon="4.0123">
        <ele>1215</ele>
        <time>2012-03-26T09:25:45.000Z</time>
      </trkpt>
      <trkpt lat="45.46716" lon="4.01244">
        <ele>1211</ele>
        <time>2012-03-26T09:25:47.000Z</time>
      </trkpt>
      <trkpt lat="45.46708" lon="4.01259">
        <ele>1208</ele>
        <time>2012-03-26T09:25:49.000Z</time>
      </trkpt>
      <trkpt lat="45.46702" lon="4.01276">
        <ele>1210</ele>
        <time>2012-03-26T09:25:52.000Z</time>
      </trkpt>
      <trkpt lat="45.46698" lon="4.0129">
        <ele>1209</ele>
        <time>2012-03-26T09:25:54.000Z</time>
      </trkpt>
      <trkpt lat="45.46693" lon="4.01303">
        <ele>1207</ele>
        <time>2012-03-26T09:25:56.000Z</time>
      </trkpt>
      <trkpt lat="45.46688" lon="4.01316">
        <ele>1203</ele>
        <time>2012-03-26T09:25:58.000Z</time>
      </trkpt>
      <trkpt lat="45.4668" lon="4.01332">
        <ele>1208</ele>
        <time>2012-03-26T09:26:00.000Z</time>
      </trkpt>
      <trkpt lat="45.46672" lon="4.01347">
        <ele>1205</ele>
        <time>2012-03-26T09:26:02.000Z</time>
      </trkpt>
      <trkpt lat="45.46663" lon="4.01365">
        <ele>1198</ele>
        <time>2012-03-26T09:26:04.000Z</time>
      </trkpt>
      <trkpt lat="45.46652" lon="4.01383">
        <ele>1191</ele>
        <time>2012-03-26T09:26:06.000Z</time>
      </trkpt>
      <trkpt lat="45.46643" lon="4.01395">
        <ele>1193</ele>
        <time>2012-03-26T09:26:09.000Z</time>
      </trkpt>
      <trkpt lat="45.46627" lon="4.01398">
        <ele>1185</ele>
        <time>2012-03-26T09:26:14.000Z</time>
      </trkpt>
      <trkpt lat="45.46612" lon="4.01398">
        <ele>1185</ele>
        <time>2012-03-26T09:26:17.000Z</time>
      </trkpt>
      <trkpt lat="45.46603" lon="4.01401">
        <ele>1183</ele>
        <time>2012-03-26T09:26:19.000Z</time>
      </trkpt>
      <trkpt lat="45.46593" lon="4.01406">
        <ele>1187</ele>
        <time>2012-03-26T09:26:21.000Z</time>
      </trkpt>
      <trkpt lat="45.46582" lon="4.01411">
        <ele>1192</ele>
        <time>2012-03-26T09:26:24.000Z</time>
      </trkpt>
      <trkpt lat="45.4657" lon="4.01416">
        <ele>1192</ele>
        <time>2012-03-26T09:26:27.000Z</time>
      </trkpt>
      <trkpt lat="45.46556" lon="4.01422">
        <ele>1196</ele>
        <time>2012-03-26T09:26:30.000Z</time>
      </trkpt>
      <trkpt lat="45.46544" lon="4.01422">
        <ele>1195</ele>
        <time>2012-03-26T09:26:32.000Z</time>
      </trkpt>
      <trkpt lat="45.46532" lon="4.01416">
        <ele>1196</ele>
        <time>2012-03-26T09:26:34.000Z</time>
      </trkpt>
      <trkpt lat="45.46517" lon="4.0141">
        <ele>1190</ele>
        <time>2012-03-26T09:26:42.000Z</time>
      </trkpt>
      <trkpt lat="45.46501" lon="4.01413">
        <ele>1181</ele>
        <time>2012-03-26T09:26:45.000Z</time>
      </trkpt>
      <trkpt lat="45.46485" lon="4.01416">
        <ele>1182</ele>
        <time>2012-03-26T09:26:47.000Z</time>
      </trkpt>
      <trkpt lat="45.46473" lon="4.01417">
        <ele>1178</ele>
        <time>2012-03-26T09:26:49.000Z</time>
      </trkpt>
      <trkpt lat="45.4646" lon="4.01417">
        <ele>1188</ele>
        <time>2012-03-26T09:26:54.000Z</time>
      </trkpt>
      <trkpt lat="45.46449" lon="4.01419">
        <ele>1194</ele>
        <time>2012-03-26T09:26:57.000Z</time>
      </trkpt>
      <trkpt lat="45.46436" lon="4.01428">
        <ele>1201</ele>
        <time>2012-03-26T09:27:04.000Z</time>
      </trkpt>
      <trkpt lat="45.4643" lon="4.01439">
        <ele>1206</ele>
        <time>2012-03-26T09:27:08.000Z</time>
      </trkpt>
      <trkpt lat="45.4643" lon="4.01439">
        <ele>1206</ele>
        <time>2012-03-26T09:27:08.000Z</time>
      </trkpt>
      <trkpt lat="45.4643" lon="4.01439">
        <ele>1206</ele>
        <time>2012-03-26T09:27:11.000Z</time>
      </trkpt>
      <trkpt lat="45.46421" lon="4.01449">
        <ele>1211</ele>
        <time>2012-03-26T09:27:12.000Z</time>
      </trkpt>
      <trkpt lat="45.46411" lon="4.01455">
        <ele>1225</ele>
        <time>2012-03-26T09:27:16.000Z</time>
      </trkpt>
      <trkpt lat="45.46401" lon="4.01463">
        <ele>1222</ele>
        <time>2012-03-26T09:27:24.000Z</time>
      </trkpt>
      <trkpt lat="45.46393" lon="4.01471">
        <ele>1199</ele>
        <time>2012-03-26T09:27:29.000Z</time>
      </trkpt>
      <trkpt lat="45.46384" lon="4.01476">
        <ele>1190</ele>
        <time>2012-03-26T09:27:31.000Z</time>
      </trkpt>
      <trkpt lat="45.4637" lon="4.01478">
        <ele>1185</ele>
        <time>2012-03-26T09:27:33.000Z</time>
      </trkpt>
      <trkpt lat="45.46357" lon="4.01485">
        <ele>1185</ele>
        <time>2012-03-26T09:27:35.000Z</time>
      </trkpt>
      <trkpt lat="45.46342" lon="4.01495">
        <ele>1182</ele>
        <time>2012-03-26T09:27:37.000Z</time>
      </trkpt>
      <trkpt lat="45.46333" lon="4.01506">
        <ele>1187</ele>
        <time>2012-03-26T09:27:43.000Z</time>
      </trkpt>
      <trkpt lat="45.46319" lon="4.01515">
        <ele>1191</ele>
        <time>2012-03-26T09:27:47.000Z</time>
      </trkpt>
      <trkpt lat="45.46308" lon="4.01526">
        <ele>1208</ele>
        <time>2012-03-26T09:27:52.000Z</time>
      </trkpt>
      <trkpt lat="45.46294" lon="4.01538">
        <ele>1209</ele>
        <time>2012-03-26T09:27:56.000Z</time>
      </trkpt>
      <trkpt lat="45.46285" lon="4.01543">
        <ele>1210</ele>
        <time>2012-03-26T09:27:58.000Z</time>
      </trkpt>
      <trkpt lat="45.46269" lon="4.0155">
        <ele>1213</ele>
        <time>2012-03-26T09:28:01.000Z</time>
      </trkpt>
      <trkpt lat="45.46254" lon="4.01554">
        <ele>1213</ele>
        <time>2012-03-26T09:28:02.000Z</time>
      </trkpt>
      <trkpt lat="45.46244" lon="4.01557">
        <ele>1212</ele>
        <time>2012-03-26T09:28:03.000Z</time>
      </trkpt>
      <trkpt lat="45.46234" lon="4.01559">
        <ele>1214</ele>
        <time>2012-03-26T09:28:04.000Z</time>
      </trkpt>
      <trkpt lat="45.4621" lon="4.0157">
        <ele>1202</ele>
        <time>2012-03-26T09:28:06.000Z</time>
      </trkpt>
      <trkpt lat="45.46197" lon="4.01575">
        <ele>1210</ele>
        <time>2012-03-26T09:28:07.000Z</time>
      </trkpt>
      <trkpt lat="45.46181" lon="4.01582">
        <ele>1205</ele>
        <time>2012-03-26T09:28:08.000Z</time>
      </trkpt>
      <trkpt lat="45.46162" lon="4.01589">
        <ele>1198</ele>
        <time>2012-03-26T09:28:09.000Z</time>
      </trkpt>
      <trkpt lat="45.46142" lon="4.01595">
        <ele>1187</ele>
        <time>2012-03-26T09:28:10.000Z</time>
      </trkpt>
      <trkpt lat="45.46124" lon="4.01599">
        <ele>1186</ele>
        <time>2012-03-26T09:28:11.000Z</time>
      </trkpt>
      <trkpt lat="45.46106" lon="4.01605">
        <ele>1183</ele>
        <time>2012-03-26T09:28:12.000Z</time>
      </trkpt>
      <trkpt lat="45.46088" lon="4.01611">
        <ele>1182</ele>
        <time>2012-03-26T09:28:13.000Z</time>
      </trkpt>
      <trkpt lat="45.46076" lon="4.01622">
        <ele>1185</ele>
        <time>2012-03-26T09:28:15.000Z</time>
      </trkpt>
      <trkpt lat="45.46071" lon="4.01634">
        <ele>1187</ele>
        <time>2012-03-26T09:28:17.000Z</time>
      </trkpt>
      <trkpt lat="45.46067" lon="4.0165">
        <ele>1187</ele>
        <time>2012-03-26T09:28:19.000Z</time>
      </trkpt>
      <trkpt lat="45.46064" lon="4.01666">
        <ele>1186</ele>
        <time>2012-03-26T09:28:21.000Z</time>
      </trkpt>
      <trkpt lat="45.46061" lon="4.0168">
        <ele>1186</ele>
        <time>2012-03-26T09:28:23.000Z</time>
      </trkpt>
      <trkpt lat="45.46053" lon="4.01697">
        <ele>1184</ele>
        <time>2012-03-26T09:28:27.000Z</time>
      </trkpt>
      <trkpt lat="45.46046" lon="4.01711">
        <ele>1178</ele>
        <time>2012-03-26T09:28:31.000Z</time>
      </trkpt>
      <trkpt lat="45.46041" lon="4.01727">
        <ele>1180</ele>
        <time>2012-03-26T09:28:35.000Z</time>
      </trkpt>
      <trkpt lat="45.4603" lon="4.01748">
        <ele>1182</ele>
        <time>2012-03-26T09:28:39.000Z</time>
      </trkpt>
      <trkpt lat="45.46024" lon="4.01759">
        <ele>1184</ele>
        <time>2012-03-26T09:28:41.000Z</time>
      </trkpt>
      <trkpt lat="45.46016" lon="4.01774">
        <ele>1180</ele>
        <time>2012-03-26T09:28:44.000Z</time>
      </trkpt>
      <trkpt lat="45.46009" lon="4.01789">
        <ele>1178</ele>
        <time>2012-03-26T09:28:47.000Z</time>
      </trkpt>
      <trkpt lat="45.46001" lon="4.01805">
        <ele>1177</ele>
        <time>2012-03-26T09:28:51.000Z</time>
      </trkpt>
      <trkpt lat="45.45993" lon="4.01819">
        <ele>1180</ele>
        <time>2012-03-26T09:28:55.000Z</time>
      </trkpt>
      <trkpt lat="45.45988" lon="4.01832">
        <ele>1175</ele>
        <time>2012-03-26T09:28:57.000Z</time>
      </trkpt>
      <trkpt lat="45.45983" lon="4.01845">
        <ele>1178</ele>
        <time>2012-03-26T09:28:59.000Z</time>
      </trkpt>
      <trkpt lat="45.45978" lon="4.01857">
        <ele>1173</ele>
        <time>2012-03-26T09:29:01.000Z</time>
      </trkpt>
      <trkpt lat="45.45971" lon="4.01867">
        <ele>1178</ele>
        <time>2012-03-26T09:29:03.000Z</time>
      </trkpt>
      <trkpt lat="45.4596" lon="4.01882">
        <ele>1175</ele>
        <time>2012-03-26T09:29:07.000Z</time>
      </trkpt>
      <trkpt lat="45.45948" lon="4.019">
        <ele>1183</ele>
        <time>2012-03-26T09:29:11.000Z</time>
      </trkpt>
      <trkpt lat="45.4594" lon="4.0191">
        <ele>1183</ele>
        <time>2012-03-26T09:29:13.000Z</time>
      </trkpt>
      <trkpt lat="45.45932" lon="4.01927">
        <ele>1190</ele>
        <time>2012-03-26T09:29:15.000Z</time>
      </trkpt>
      <trkpt lat="45.45924" lon="4.01948">
        <ele>1188</ele>
        <time>2012-03-26T09:29:17.000Z</time>
      </trkpt>
      <trkpt lat="45.45919" lon="4.01962">
        <ele>1188</ele>
        <time>2012-03-26T09:29:18.000Z</time>
      </trkpt>
      <trkpt lat="45.45915" lon="4.01976">
        <ele>1186</ele>
        <time>2012-03-26T09:29:19.000Z</time>
      </trkpt>
      <trkpt lat="45.45908" lon="4.01998">
        <ele>1186</ele>
        <time>2012-03-26T09:29:21.000Z</time>
      </trkpt>
      <trkpt lat="45.45901" lon="4.02019">
        <ele>1187</ele>
        <time>2012-03-26T09:29:23.000Z</time>
      </trkpt>
      <trkpt lat="45.45897" lon="4.02031">
        <ele>1189</ele>
        <time>2012-03-26T09:29:24.000Z</time>
      </trkpt>
      <trkpt lat="45.4589" lon="4.02056">
        <ele>1190</ele>
        <time>2012-03-26T09:29:26.000Z</time>
      </trkpt>
      <trkpt lat="45.45886" lon="4.02068">
        <ele>1189</ele>
        <time>2012-03-26T09:29:27.000Z</time>
      </trkpt>
      <trkpt lat="45.45883" lon="4.02081">
        <ele>1184</ele>
        <time>2012-03-26T09:29:28.000Z</time>
      </trkpt>
      <trkpt lat="45.45878" lon="4.02099">
        <ele>1186</ele>
        <time>2012-03-26T09:29:30.000Z</time>
      </trkpt>
      <trkpt lat="45.45873" lon="4.02117">
        <ele>1186</ele>
        <time>2012-03-26T09:29:32.000Z</time>
      </trkpt>
      <trkpt lat="45.45867" lon="4.02133">
        <ele>1188</ele>
        <time>2012-03-26T09:29:34.000Z</time>
      </trkpt>
      <trkpt lat="45.45861" lon="4.02148">
        <ele>1191</ele>
        <time>2012-03-26T09:29:36.000Z</time>
      </trkpt>
      <trkpt lat="45.45857" lon="4.02166">
        <ele>1198</ele>
        <time>2012-03-26T09:29:38.000Z</time>
      </trkpt>
      <trkpt lat="45.45852" lon="4.02188">
        <ele>1205</ele>
        <time>2012-03-26T09:29:40.000Z</time>
      </trkpt>
      <trkpt lat="45.45847" lon="4.02211">
        <ele>1208</ele>
        <time>2012-03-26T09:29:42.000Z</time>
      </trkpt>
      <trkpt lat="45.45844" lon="4.02223">
        <ele>1209</ele>
        <time>2012-03-26T09:29:43.000Z</time>
      </trkpt>
      <trkpt lat="45.45839" lon="4.02248">
        <ele>1209</ele>
        <time>2012-03-26T09:29:45.000Z</time>
      </trkpt>
      <trkpt lat="45.45838" lon="4.02261">
        <ele>1209</ele>
        <time>2012-03-26T09:29:46.000Z</time>
      </trkpt>
      <trkpt lat="45.45836" lon="4.02274">
        <ele>1210</ele>
        <time>2012-03-26T09:29:47.000Z</time>
      </trkpt>
      <trkpt lat="45.45833" lon="4.02296">
        <ele>1207</ele>
        <time>2012-03-26T09:29:49.000Z</time>
      </trkpt>
      <trkpt lat="45.4583" lon="4.02318">
        <ele>1200</ele>
        <time>2012-03-26T09:29:51.000Z</time>
      </trkpt>
      <trkpt lat="45.45827" lon="4.0234">
        <ele>1198</ele>
        <time>2012-03-26T09:29:53.000Z</time>
      </trkpt>
      <trkpt lat="45.45825" lon="4.02362">
        <ele>1197</ele>
        <time>2012-03-26T09:29:55.000Z</time>
      </trkpt>
      <trkpt lat="45.45822" lon="4.02382">
        <ele>1202</ele>
        <time>2012-03-26T09:29:57.000Z</time>
      </trkpt>
      <trkpt lat="45.45818" lon="4.02405">
        <ele>1204</ele>
        <time>2012-03-26T09:29:59.000Z</time>
      </trkpt>
      <trkpt lat="45.45815" lon="4.02418">
        <ele>1203</ele>
        <time>2012-03-26T09:30:00.000Z</time>
      </trkpt>
      <trkpt lat="45.45811" lon="4.0243">
        <ele>1203</ele>
        <time>2012-03-26T09:30:01.000Z</time>
      </trkpt>
      <trkpt lat="45.45807" lon="4.02443">
        <ele>1202</ele>
        <time>2012-03-26T09:30:02.000Z</time>
      </trkpt>
      <trkpt lat="45.45803" lon="4.02455">
        <ele>1203</ele>
        <time>2012-03-26T09:30:03.000Z</time>
      </trkpt>
      <trkpt lat="45.45799" lon="4.02468">
        <ele>1202</ele>
        <time>2012-03-26T09:30:04.000Z</time>
      </trkpt>
      <trkpt lat="45.45794" lon="4.0248">
        <ele>1203</ele>
        <time>2012-03-26T09:30:05.000Z</time>
      </trkpt>
      <trkpt lat="45.4579" lon="4.02491">
        <ele>1203</ele>
        <time>2012-03-26T09:30:06.000Z</time>
      </trkpt>
      <trkpt lat="45.4579" lon="4.02512">
        <ele>1197</ele>
        <time>2012-03-26T09:30:08.000Z</time>
      </trkpt>
      <trkpt lat="45.45795" lon="4.02534">
        <ele>1191</ele>
        <time>2012-03-26T09:30:10.000Z</time>
      </trkpt>
      <trkpt lat="45.45799" lon="4.02546">
        <ele>1187</ele>
        <time>2012-03-26T09:30:11.000Z</time>
      </trkpt>
      <trkpt lat="45.45803" lon="4.02561">
        <ele>1174</ele>
        <time>2012-03-26T09:30:12.000Z</time>
      </trkpt>
      <trkpt lat="45.45807" lon="4.02575">
        <ele>1172</ele>
        <time>2012-03-26T09:30:13.000Z</time>
      </trkpt>
      <trkpt lat="45.45812" lon="4.02589">
        <ele>1169</ele>
        <time>2012-03-26T09:30:14.000Z</time>
      </trkpt>
      <trkpt lat="45.45817" lon="4.02602">
        <ele>1168</ele>
        <time>2012-03-26T09:30:15.000Z</time>
      </trkpt>
      <trkpt lat="45.45821" lon="4.02615">
        <ele>1167</ele>
        <time>2012-03-26T09:30:16.000Z</time>
      </trkpt>
      <trkpt lat="45.45825" lon="4.02627">
        <ele>1168</ele>
        <time>2012-03-26T09:30:17.000Z</time>
      </trkpt>
      <trkpt lat="45.45832" lon="4.02649">
        <ele>1170</ele>
        <time>2012-03-26T09:30:19.000Z</time>
      </trkpt>
      <trkpt lat="45.45837" lon="4.02671">
        <ele>1170</ele>
        <time>2012-03-26T09:30:21.000Z</time>
      </trkpt>
      <trkpt lat="45.4584" lon="4.02693">
        <ele>1169</ele>
        <time>2012-03-26T09:30:23.000Z</time>
      </trkpt>
      <trkpt lat="45.45844" lon="4.02715">
        <ele>1168</ele>
        <time>2012-03-26T09:30:25.000Z</time>
      </trkpt>
      <trkpt lat="45.45848" lon="4.02736">
        <ele>1168</ele>
        <time>2012-03-26T09:30:27.000Z</time>
      </trkpt>
      <trkpt lat="45.45853" lon="4.02756">
        <ele>1167</ele>
        <time>2012-03-26T09:30:29.000Z</time>
      </trkpt>
      <trkpt lat="45.45858" lon="4.02776">
        <ele>1165</ele>
        <time>2012-03-26T09:30:31.000Z</time>
      </trkpt>
      <trkpt lat="45.45865" lon="4.02795">
        <ele>1162</ele>
        <time>2012-03-26T09:30:33.000Z</time>
      </trkpt>
      <trkpt lat="45.45871" lon="4.02814">
        <ele>1161</ele>
        <time>2012-03-26T09:30:35.000Z</time>
      </trkpt>
      <trkpt lat="45.45877" lon="4.02833">
        <ele>1157</ele>
        <time>2012-03-26T09:30:37.000Z</time>
      </trkpt>
      <trkpt lat="45.45881" lon="4.0285">
        <ele>1155</ele>
        <time>2012-03-26T09:30:39.000Z</time>
      </trkpt>
      <trkpt lat="45.45885" lon="4.02867">
        <ele>1151</ele>
        <time>2012-03-26T09:30:41.000Z</time>
      </trkpt>
      <trkpt lat="45.45888" lon="4.02883">
        <ele>1151</ele>
        <time>2012-03-26T09:30:43.000Z</time>
      </trkpt>
      <trkpt lat="45.45891" lon="4.02898">
        <ele>1152</ele>
        <time>2012-03-26T09:30:45.000Z</time>
      </trkpt>
      <trkpt lat="45.45893" lon="4.02914">
        <ele>1152</ele>
        <time>2012-03-26T09:30:47.000Z</time>
      </trkpt>
      <trkpt lat="45.45894" lon="4.0293">
        <ele>1154</ele>
        <time>2012-03-26T09:30:49.000Z</time>
      </trkpt>
      <trkpt lat="45.45894" lon="4.02945">
        <ele>1154</ele>
        <time>2012-03-26T09:30:51.000Z</time>
      </trkpt>
      <trkpt lat="45.45894" lon="4.02963">
        <ele>1150</ele>
        <time>2012-03-26T09:30:53.000Z</time>
      </trkpt>
      <trkpt lat="45.45893" lon="4.02982">
        <ele>1149</ele>
        <time>2012-03-26T09:30:55.000Z</time>
      </trkpt>
      <trkpt lat="45.4589" lon="4.02997">
        <ele>1151</ele>
        <time>2012-03-26T09:30:57.000Z</time>
      </trkpt>
      <trkpt lat="45.45888" lon="4.03012">
        <ele>1152</ele>
        <time>2012-03-26T09:30:59.000Z</time>
      </trkpt>
      <trkpt lat="45.45885" lon="4.03032">
        <ele>1152</ele>
        <time>2012-03-26T09:31:02.000Z</time>
      </trkpt>
      <trkpt lat="45.45883" lon="4.03048">
        <ele>1151</ele>
        <time>2012-03-26T09:31:04.000Z</time>
      </trkpt>
      <trkpt lat="45.45881" lon="4.03067">
        <ele>1148</ele>
        <time>2012-03-26T09:31:06.000Z</time>
      </trkpt>
      <trkpt lat="45.4588" lon="4.03088">
        <ele>1143</ele>
        <time>2012-03-26T09:31:08.000Z</time>
      </trkpt>
      <trkpt lat="45.45879" lon="4.0311">
        <ele>1142</ele>
        <time>2012-03-26T09:31:10.000Z</time>
      </trkpt>
      <trkpt lat="45.45878" lon="4.0313">
        <ele>1139</ele>
        <time>2012-03-26T09:31:12.000Z</time>
      </trkpt>
      <trkpt lat="45.45877" lon="4.03148">
        <ele>1141</ele>
        <time>2012-03-26T09:31:14.000Z</time>
      </trkpt>
      <trkpt lat="45.45874" lon="4.03166">
        <ele>1142</ele>
        <time>2012-03-26T09:31:16.000Z</time>
      </trkpt>
      <trkpt lat="45.4587" lon="4.03185">
        <ele>1139</ele>
        <time>2012-03-26T09:31:18.000Z</time>
      </trkpt>
      <trkpt lat="45.45867" lon="4.03203">
        <ele>1141</ele>
        <time>2012-03-26T09:31:20.000Z</time>
      </trkpt>
      <trkpt lat="45.45863" lon="4.03221">
        <ele>1143</ele>
        <time>2012-03-26T09:31:22.000Z</time>
      </trkpt>
      <trkpt lat="45.45859" lon="4.03239">
        <ele>1145</ele>
        <time>2012-03-26T09:31:24.000Z</time>
      </trkpt>
      <trkpt lat="45.45855" lon="4.03259">
        <ele>1147</ele>
        <time>2012-03-26T09:31:26.000Z</time>
      </trkpt>
      <trkpt lat="45.45849" lon="4.0328">
        <ele>1142</ele>
        <time>2012-03-26T09:31:28.000Z</time>
      </trkpt>
      <trkpt lat="45.45841" lon="4.03303">
        <ele>1138</ele>
        <time>2012-03-26T09:31:30.000Z</time>
      </trkpt>
      <trkpt lat="45.45837" lon="4.03315">
        <ele>1136</ele>
        <time>2012-03-26T09:31:31.000Z</time>
      </trkpt>
      <trkpt lat="45.45829" lon="4.03335">
        <ele>1134</ele>
        <time>2012-03-26T09:31:33.000Z</time>
      </trkpt>
      <trkpt lat="45.45821" lon="4.03354">
        <ele>1132</ele>
        <time>2012-03-26T09:31:35.000Z</time>
      </trkpt>
      <trkpt lat="45.45813" lon="4.03374">
        <ele>1133</ele>
        <time>2012-03-26T09:31:37.000Z</time>
      </trkpt>
      <trkpt lat="45.45806" lon="4.03394">
        <ele>1133</ele>
        <time>2012-03-26T09:31:39.000Z</time>
      </trkpt>
      <trkpt lat="45.45802" lon="4.03413">
        <ele>1135</ele>
        <time>2012-03-26T09:31:41.000Z</time>
      </trkpt>
      <trkpt lat="45.45801" lon="4.03435">
        <ele>1135</ele>
        <time>2012-03-26T09:31:43.000Z</time>
      </trkpt>
      <trkpt lat="45.45799" lon="4.03457">
        <ele>1135</ele>
        <time>2012-03-26T09:31:45.000Z</time>
      </trkpt>
      <trkpt lat="45.45798" lon="4.0347">
        <ele>1129</ele>
        <time>2012-03-26T09:31:46.000Z</time>
      </trkpt>
      <trkpt lat="45.45795" lon="4.03493">
        <ele>1129</ele>
        <time>2012-03-26T09:31:48.000Z</time>
      </trkpt>
      <trkpt lat="45.45792" lon="4.03514">
        <ele>1127</ele>
        <time>2012-03-26T09:31:50.000Z</time>
      </trkpt>
      <trkpt lat="45.45791" lon="4.03533">
        <ele>1127</ele>
        <time>2012-03-26T09:31:52.000Z</time>
      </trkpt>
      <trkpt lat="45.45795" lon="4.03552">
        <ele>1127</ele>
        <time>2012-03-26T09:31:54.000Z</time>
      </trkpt>
      <trkpt lat="45.45799" lon="4.03573">
        <ele>1127</ele>
        <time>2012-03-26T09:31:56.000Z</time>
      </trkpt>
      <trkpt lat="45.45801" lon="4.03595">
        <ele>1127</ele>
        <time>2012-03-26T09:31:58.000Z</time>
      </trkpt>
      <trkpt lat="45.458" lon="4.03608">
        <ele>1127</ele>
        <time>2012-03-26T09:31:59.000Z</time>
      </trkpt>
      <trkpt lat="45.45799" lon="4.03621">
        <ele>1127</ele>
        <time>2012-03-26T09:32:00.000Z</time>
      </trkpt>
      <trkpt lat="45.45798" lon="4.03635">
        <ele>1127</ele>
        <time>2012-03-26T09:32:01.000Z</time>
      </trkpt>
      <trkpt lat="45.45796" lon="4.03648">
        <ele>1127</ele>
        <time>2012-03-26T09:32:02.000Z</time>
      </trkpt>
      <trkpt lat="45.45796" lon="4.03661">
        <ele>1126</ele>
        <time>2012-03-26T09:32:03.000Z</time>
      </trkpt>
      <trkpt lat="45.45794" lon="4.03687">
        <ele>1121</ele>
        <time>2012-03-26T09:32:05.000Z</time>
      </trkpt>
      <trkpt lat="45.45794" lon="4.03701">
        <ele>1119</ele>
        <time>2012-03-26T09:32:06.000Z</time>
      </trkpt>
      <trkpt lat="45.45793" lon="4.03714">
        <ele>1116</ele>
        <time>2012-03-26T09:32:07.000Z</time>
      </trkpt>
      <trkpt lat="45.45791" lon="4.03738">
        <ele>1112</ele>
        <time>2012-03-26T09:32:09.000Z</time>
      </trkpt>
      <trkpt lat="45.45788" lon="4.03762">
        <ele>1109</ele>
        <time>2012-03-26T09:32:11.000Z</time>
      </trkpt>
      <trkpt lat="45.45782" lon="4.03786">
        <ele>1107</ele>
        <time>2012-03-26T09:32:13.000Z</time>
      </trkpt>
      <trkpt lat="45.45777" lon="4.03807">
        <ele>1107</ele>
        <time>2012-03-26T09:32:15.000Z</time>
      </trkpt>
      <trkpt lat="45.45772" lon="4.03828">
        <ele>1106</ele>
        <time>2012-03-26T09:32:17.000Z</time>
      </trkpt>
      <trkpt lat="45.45767" lon="4.03848">
        <ele>1103</ele>
        <time>2012-03-26T09:32:19.000Z</time>
      </trkpt>
      <trkpt lat="45.4576" lon="4.03866">
        <ele>1098</ele>
        <time>2012-03-26T09:32:21.000Z</time>
      </trkpt>
      <trkpt lat="45.45749" lon="4.03878">
        <ele>1096</ele>
        <time>2012-03-26T09:32:23.000Z</time>
      </trkpt>
      <trkpt lat="45.45735" lon="4.03884">
        <ele>1097</ele>
        <time>2012-03-26T09:32:25.000Z</time>
      </trkpt>
      <trkpt lat="45.45722" lon="4.03886">
        <ele>1099</ele>
        <time>2012-03-26T09:32:27.000Z</time>
      </trkpt>
      <trkpt lat="45.45709" lon="4.03887">
        <ele>1097</ele>
        <time>2012-03-26T09:32:29.000Z</time>
      </trkpt>
      <trkpt lat="45.45694" lon="4.03888">
        <ele>1094</ele>
        <time>2012-03-26T09:32:31.000Z</time>
      </trkpt>
      <trkpt lat="45.45678" lon="4.03894">
        <ele>1091</ele>
        <time>2012-03-26T09:32:33.000Z</time>
      </trkpt>
      <trkpt lat="45.4567" lon="4.03899">
        <ele>1090</ele>
        <time>2012-03-26T09:32:34.000Z</time>
      </trkpt>
      <trkpt lat="45.45657" lon="4.03913">
        <ele>1090</ele>
        <time>2012-03-26T09:32:36.000Z</time>
      </trkpt>
      <trkpt lat="45.4565" lon="4.03927">
        <ele>1094</ele>
        <time>2012-03-26T09:32:38.000Z</time>
      </trkpt>
      <trkpt lat="45.45644" lon="4.03941">
        <ele>1095</ele>
        <time>2012-03-26T09:32:40.000Z</time>
      </trkpt>
      <trkpt lat="45.45636" lon="4.03953">
        <ele>1092</ele>
        <time>2012-03-26T09:32:42.000Z</time>
      </trkpt>
      <trkpt lat="45.45629" lon="4.03964">
        <ele>1093</ele>
        <time>2012-03-26T09:32:44.000Z</time>
      </trkpt>
      <trkpt lat="45.45624" lon="4.03978">
        <ele>1090</ele>
        <time>2012-03-26T09:32:46.000Z</time>
      </trkpt>
      <trkpt lat="45.45622" lon="4.03993">
        <ele>1085</ele>
        <time>2012-03-26T09:32:48.000Z</time>
      </trkpt>
      <trkpt lat="45.45618" lon="4.04014">
        <ele>1080</ele>
        <time>2012-03-26T09:32:50.000Z</time>
      </trkpt>
      <trkpt lat="45.45614" lon="4.04033">
        <ele>1079</ele>
        <time>2012-03-26T09:32:52.000Z</time>
      </trkpt>
      <trkpt lat="45.45611" lon="4.04053">
        <ele>1077</ele>
        <time>2012-03-26T09:32:54.000Z</time>
      </trkpt>
      <trkpt lat="45.45606" lon="4.04076">
        <ele>1076</ele>
        <time>2012-03-26T09:32:56.000Z</time>
      </trkpt>
      <trkpt lat="45.45601" lon="4.04099">
        <ele>1073</ele>
        <time>2012-03-26T09:32:58.000Z</time>
      </trkpt>
      <trkpt lat="45.45595" lon="4.04123">
        <ele>1071</ele>
        <time>2012-03-26T09:33:00.000Z</time>
      </trkpt>
      <trkpt lat="45.45592" lon="4.04136">
        <ele>1069</ele>
        <time>2012-03-26T09:33:01.000Z</time>
      </trkpt>
      <trkpt lat="45.45589" lon="4.04148">
        <ele>1067</ele>
        <time>2012-03-26T09:33:02.000Z</time>
      </trkpt>
      <trkpt lat="45.45586" lon="4.04161">
        <ele>1065</ele>
        <time>2012-03-26T09:33:03.000Z</time>
      </trkpt>
      <trkpt lat="45.45582" lon="4.04185">
        <ele>1065</ele>
        <time>2012-03-26T09:33:05.000Z</time>
      </trkpt>
      <trkpt lat="45.4558" lon="4.04207">
        <ele>1065</ele>
        <time>2012-03-26T09:33:07.000Z</time>
      </trkpt>
      <trkpt lat="45.45577" lon="4.04226">
        <ele>1064</ele>
        <time>2012-03-26T09:33:09.000Z</time>
      </trkpt>
      <trkpt lat="45.45569" lon="4.04238">
        <ele>1064</ele>
        <time>2012-03-26T09:33:11.000Z</time>
      </trkpt>
      <trkpt lat="45.45558" lon="4.0425">
        <ele>1065</ele>
        <time>2012-03-26T09:33:13.000Z</time>
      </trkpt>
      <trkpt lat="45.45548" lon="4.04262">
        <ele>1061</ele>
        <time>2012-03-26T09:33:15.000Z</time>
      </trkpt>
      <trkpt lat="45.45538" lon="4.04273">
        <ele>1058</ele>
        <time>2012-03-26T09:33:17.000Z</time>
      </trkpt>
      <trkpt lat="45.45529" lon="4.04283">
        <ele>1057</ele>
        <time>2012-03-26T09:33:19.000Z</time>
      </trkpt>
      <trkpt lat="45.45518" lon="4.04296">
        <ele>1060</ele>
        <time>2012-03-26T09:33:22.000Z</time>
      </trkpt>
      <trkpt lat="45.4551" lon="4.04308">
        <ele>1058</ele>
        <time>2012-03-26T09:33:24.000Z</time>
      </trkpt>
      <trkpt lat="45.45499" lon="4.04322">
        <ele>1059</ele>
        <time>2012-03-26T09:33:27.000Z</time>
      </trkpt>
      <trkpt lat="45.45491" lon="4.0433">
        <ele>1056</ele>
        <time>2012-03-26T09:33:29.000Z</time>
      </trkpt>
      <trkpt lat="45.45479" lon="4.04342">
        <ele>1053</ele>
        <time>2012-03-26T09:33:33.000Z</time>
      </trkpt>
      <trkpt lat="45.45463" lon="4.04342">
        <ele>1053</ele>
        <time>2012-03-26T09:33:37.000Z</time>
      </trkpt>
      <trkpt lat="45.45449" lon="4.04341">
        <ele>1055</ele>
        <time>2012-03-26T09:33:40.000Z</time>
      </trkpt>
      <trkpt lat="45.45439" lon="4.04345">
        <ele>1052</ele>
        <time>2012-03-26T09:33:42.000Z</time>
      </trkpt>
      <trkpt lat="45.4543" lon="4.04352">
        <ele>1052</ele>
        <time>2012-03-26T09:33:44.000Z</time>
      </trkpt>
      <trkpt lat="45.45418" lon="4.04363">
        <ele>1050</ele>
        <time>2012-03-26T09:33:46.000Z</time>
      </trkpt>
      <trkpt lat="45.45404" lon="4.04373">
        <ele>1043</ele>
        <time>2012-03-26T09:33:48.000Z</time>
      </trkpt>
      <trkpt lat="45.45392" lon="4.04381">
        <ele>1045</ele>
        <time>2012-03-26T09:33:50.000Z</time>
      </trkpt>
      <trkpt lat="45.4538" lon="4.04386">
        <ele>1047</ele>
        <time>2012-03-26T09:33:52.000Z</time>
      </trkpt>
      <trkpt lat="45.4537" lon="4.04388">
        <ele>1045</ele>
        <time>2012-03-26T09:33:54.000Z</time>
      </trkpt>
      <trkpt lat="45.45354" lon="4.0439">
        <ele>1045</ele>
        <time>2012-03-26T09:33:57.000Z</time>
      </trkpt>
      <trkpt lat="45.45341" lon="4.04393">
        <ele>1046</ele>
        <time>2012-03-26T09:33:59.000Z</time>
      </trkpt>
      <trkpt lat="45.45325" lon="4.04399">
        <ele>1045</ele>
        <time>2012-03-26T09:34:01.000Z</time>
      </trkpt>
      <trkpt lat="45.45308" lon="4.04404">
        <ele>1038</ele>
        <time>2012-03-26T09:34:03.000Z</time>
      </trkpt>
      <trkpt lat="45.45293" lon="4.04407">
        <ele>1032</ele>
        <time>2012-03-26T09:34:05.000Z</time>
      </trkpt>
      <trkpt lat="45.4528" lon="4.04406">
        <ele>1034</ele>
        <time>2012-03-26T09:34:07.000Z</time>
      </trkpt>
      <trkpt lat="45.45268" lon="4.04404">
        <ele>1033</ele>
        <time>2012-03-26T09:34:09.000Z</time>
      </trkpt>
      <trkpt lat="45.45257" lon="4.04407">
        <ele>1031</ele>
        <time>2012-03-26T09:34:11.000Z</time>
      </trkpt>
      <trkpt lat="45.45246" lon="4.04412">
        <ele>1028</ele>
        <time>2012-03-26T09:34:13.000Z</time>
      </trkpt>
      <trkpt lat="45.45236" lon="4.04418">
        <ele>1027</ele>
        <time>2012-03-26T09:34:15.000Z</time>
      </trkpt>
      <trkpt lat="45.45224" lon="4.04426">
        <ele>1031</ele>
        <time>2012-03-26T09:34:17.000Z</time>
      </trkpt>
      <trkpt lat="45.45211" lon="4.04435">
        <ele>1033</ele>
        <time>2012-03-26T09:34:19.000Z</time>
      </trkpt>
      <trkpt lat="45.45199" lon="4.04442">
        <ele>1031</ele>
        <time>2012-03-26T09:34:21.000Z</time>
      </trkpt>
      <trkpt lat="45.45188" lon="4.04449">
        <ele>1032</ele>
        <time>2012-03-26T09:34:23.000Z</time>
      </trkpt>
      <trkpt lat="45.45179" lon="4.04461">
        <ele>1036</ele>
        <time>2012-03-26T09:34:25.000Z</time>
      </trkpt>
      <trkpt lat="45.4517" lon="4.04472">
        <ele>1036</ele>
        <time>2012-03-26T09:34:27.000Z</time>
      </trkpt>
      <trkpt lat="45.45162" lon="4.04484">
        <ele>1034</ele>
        <time>2012-03-26T09:34:29.000Z</time>
      </trkpt>
      <trkpt lat="45.45155" lon="4.04495">
        <ele>1032</ele>
        <time>2012-03-26T09:34:31.000Z</time>
      </trkpt>
      <trkpt lat="45.45147" lon="4.04502">
        <ele>1033</ele>
        <time>2012-03-26T09:34:33.000Z</time>
      </trkpt>
      <trkpt lat="45.45139" lon="4.04509">
        <ele>1033</ele>
        <time>2012-03-26T09:34:35.000Z</time>
      </trkpt>
      <trkpt lat="45.4513" lon="4.04519">
        <ele>1036</ele>
        <time>2012-03-26T09:34:37.000Z</time>
      </trkpt>
      <trkpt lat="45.45121" lon="4.04532">
        <ele>1033</ele>
        <time>2012-03-26T09:34:39.000Z</time>
      </trkpt>
      <trkpt lat="45.45113" lon="4.04549">
        <ele>1031</ele>
        <time>2012-03-26T09:34:41.000Z</time>
      </trkpt>
      <trkpt lat="45.45104" lon="4.04565">
        <ele>1026</ele>
        <time>2012-03-26T09:34:43.000Z</time>
      </trkpt>
      <trkpt lat="45.45099" lon="4.04579">
        <ele>1031</ele>
        <time>2012-03-26T09:34:44.000Z</time>
      </trkpt>
      <trkpt lat="45.45095" lon="4.04592">
        <ele>1030</ele>
        <time>2012-03-26T09:34:45.000Z</time>
      </trkpt>
      <trkpt lat="45.4509" lon="4.04605">
        <ele>1030</ele>
        <time>2012-03-26T09:34:46.000Z</time>
      </trkpt>
      <trkpt lat="45.45086" lon="4.04617">
        <ele>1027</ele>
        <time>2012-03-26T09:34:47.000Z</time>
      </trkpt>
      <trkpt lat="45.4508" lon="4.04638">
        <ele>1018</ele>
        <time>2012-03-26T09:34:49.000Z</time>
      </trkpt>
      <trkpt lat="45.45076" lon="4.04657">
        <ele>1014</ele>
        <time>2012-03-26T09:34:51.000Z</time>
      </trkpt>
      <trkpt lat="45.45071" lon="4.04676">
        <ele>1012</ele>
        <time>2012-03-26T09:34:54.000Z</time>
      </trkpt>
      <trkpt lat="45.45064" lon="4.04685">
        <ele>1010</ele>
        <time>2012-03-26T09:34:56.000Z</time>
      </trkpt>
      <trkpt lat="45.45056" lon="4.04697">
        <ele>1010</ele>
        <time>2012-03-26T09:34:58.000Z</time>
      </trkpt>
      <trkpt lat="45.45048" lon="4.04714">
        <ele>1012</ele>
        <time>2012-03-26T09:35:00.000Z</time>
      </trkpt>
      <trkpt lat="45.45039" lon="4.04732">
        <ele>1008</ele>
        <time>2012-03-26T09:35:02.000Z</time>
      </trkpt>
      <trkpt lat="45.45031" lon="4.04745">
        <ele>1013</ele>
        <time>2012-03-26T09:35:04.000Z</time>
      </trkpt>
      <trkpt lat="45.45021" lon="4.04765">
        <ele>1010</ele>
        <time>2012-03-26T09:35:06.000Z</time>
      </trkpt>
      <trkpt lat="45.45015" lon="4.04775">
        <ele>1012</ele>
        <time>2012-03-26T09:35:07.000Z</time>
      </trkpt>
      <trkpt lat="45.45009" lon="4.04784">
        <ele>1011</ele>
        <time>2012-03-26T09:35:08.000Z</time>
      </trkpt>
      <trkpt lat="45.45001" lon="4.04796">
        <ele>1011</ele>
        <time>2012-03-26T09:35:09.000Z</time>
      </trkpt>
      <trkpt lat="45.44987" lon="4.04811">
        <ele>998</ele>
        <time>2012-03-26T09:35:11.000Z</time>
      </trkpt>
      <trkpt lat="45.44978" lon="4.04818">
        <ele>997</ele>
        <time>2012-03-26T09:35:12.000Z</time>
      </trkpt>
      <trkpt lat="45.44968" lon="4.04825">
        <ele>999</ele>
        <time>2012-03-26T09:35:13.000Z</time>
      </trkpt>
      <trkpt lat="45.44959" lon="4.0483">
        <ele>995</ele>
        <time>2012-03-26T09:35:14.000Z</time>
      </trkpt>
      <trkpt lat="45.44951" lon="4.04837">
        <ele>994</ele>
        <time>2012-03-26T09:35:15.000Z</time>
      </trkpt>
      <trkpt lat="45.44936" lon="4.04847">
        <ele>998</ele>
        <time>2012-03-26T09:35:17.000Z</time>
      </trkpt>
      <trkpt lat="45.44922" lon="4.04856">
        <ele>997</ele>
        <time>2012-03-26T09:35:19.000Z</time>
      </trkpt>
      <trkpt lat="45.44906" lon="4.04865">
        <ele>997</ele>
        <time>2012-03-26T09:35:21.000Z</time>
      </trkpt>
      <trkpt lat="45.44892" lon="4.04873">
        <ele>1003</ele>
        <time>2012-03-26T09:35:23.000Z</time>
      </trkpt>
      <trkpt lat="45.44876" lon="4.04884">
        <ele>1005</ele>
        <time>2012-03-26T09:35:25.000Z</time>
      </trkpt>
      <trkpt lat="45.44862" lon="4.04895">
        <ele>1004</ele>
        <time>2012-03-26T09:35:27.000Z</time>
      </trkpt>
      <trkpt lat="45.44851" lon="4.04905">
        <ele>999</ele>
        <time>2012-03-26T09:35:29.000Z</time>
      </trkpt>
      <trkpt lat="45.44836" lon="4.04917">
        <ele>992</ele>
        <time>2012-03-26T09:35:31.000Z</time>
      </trkpt>
      <trkpt lat="45.44825" lon="4.04922">
        <ele>993</ele>
        <time>2012-03-26T09:35:32.000Z</time>
      </trkpt>
      <trkpt lat="45.44816" lon="4.04925">
        <ele>995</ele>
        <time>2012-03-26T09:35:33.000Z</time>
      </trkpt>
      <trkpt lat="45.44799" lon="4.04929">
        <ele>993</ele>
        <time>2012-03-26T09:35:35.000Z</time>
      </trkpt>
      <trkpt lat="45.4479" lon="4.04931">
        <ele>996</ele>
        <time>2012-03-26T09:35:36.000Z</time>
      </trkpt>
      <trkpt lat="45.44774" lon="4.04938">
        <ele>995</ele>
        <time>2012-03-26T09:35:38.000Z</time>
      </trkpt>
      <trkpt lat="45.44764" lon="4.0495">
        <ele>987</ele>
        <time>2012-03-26T09:35:40.000Z</time>
      </trkpt>
      <trkpt lat="45.44754" lon="4.04962">
        <ele>985</ele>
        <time>2012-03-26T09:35:42.000Z</time>
      </trkpt>
      <trkpt lat="45.44739" lon="4.04973">
        <ele>987</ele>
        <time>2012-03-26T09:35:44.000Z</time>
      </trkpt>
      <trkpt lat="45.44728" lon="4.0498">
        <ele>985</ele>
        <time>2012-03-26T09:35:45.000Z</time>
      </trkpt>
      <trkpt lat="45.44712" lon="4.04989">
        <ele>978</ele>
        <time>2012-03-26T09:35:46.000Z</time>
      </trkpt>
      <trkpt lat="45.44694" lon="4.04995">
        <ele>968</ele>
        <time>2012-03-26T09:35:47.000Z</time>
      </trkpt>
      <trkpt lat="45.44681" lon="4.04998">
        <ele>966</ele>
        <time>2012-03-26T09:35:48.000Z</time>
      </trkpt>
      <trkpt lat="45.44664" lon="4.04999">
        <ele>962</ele>
        <time>2012-03-26T09:35:50.000Z</time>
      </trkpt>
      <trkpt lat="45.4465" lon="4.04998">
        <ele>955</ele>
        <time>2012-03-26T09:35:52.000Z</time>
      </trkpt>
      <trkpt lat="45.44634" lon="4.04997">
        <ele>950</ele>
        <time>2012-03-26T09:35:54.000Z</time>
      </trkpt>
      <trkpt lat="45.44622" lon="4.04996">
        <ele>948</ele>
        <time>2012-03-26T09:35:56.000Z</time>
      </trkpt>
      <trkpt lat="45.44612" lon="4.05004">
        <ele>943</ele>
        <time>2012-03-26T09:35:58.000Z</time>
      </trkpt>
      <trkpt lat="45.44606" lon="4.05016">
        <ele>943</ele>
        <time>2012-03-26T09:36:00.000Z</time>
      </trkpt>
      <trkpt lat="45.446" lon="4.05034">
        <ele>943</ele>
        <time>2012-03-26T09:36:02.000Z</time>
      </trkpt>
      <trkpt lat="45.44595" lon="4.05051">
        <ele>942</ele>
        <time>2012-03-26T09:36:04.000Z</time>
      </trkpt>
      <trkpt lat="45.44593" lon="4.05064">
        <ele>941</ele>
        <time>2012-03-26T09:36:07.000Z</time>
      </trkpt>
      <trkpt lat="45.44594" lon="4.05083">
        <ele>945</ele>
        <time>2012-03-26T09:36:47.000Z</time>
      </trkpt>
      <trkpt lat="45.44594" lon="4.05102">
        <ele>945</ele>
        <time>2012-03-26T09:36:49.000Z</time>
      </trkpt>
      <trkpt lat="45.44594" lon="4.05123">
        <ele>941</ele>
        <time>2012-03-26T09:36:51.000Z</time>
      </trkpt>
      <trkpt lat="45.44592" lon="4.05145">
        <ele>939</ele>
        <time>2012-03-26T09:36:53.000Z</time>
      </trkpt>
      <trkpt lat="45.44591" lon="4.05168">
        <ele>938</ele>
        <time>2012-03-26T09:36:55.000Z</time>
      </trkpt>
      <trkpt lat="45.44589" lon="4.05192">
        <ele>935</ele>
        <time>2012-03-26T09:36:57.000Z</time>
      </trkpt>
      <trkpt lat="45.44588" lon="4.05205">
        <ele>933</ele>
        <time>2012-03-26T09:36:58.000Z</time>
      </trkpt>
      <trkpt lat="45.44587" lon="4.0523">
        <ele>931</ele>
        <time>2012-03-26T09:37:00.000Z</time>
      </trkpt>
      <trkpt lat="45.44586" lon="4.05242">
        <ele>930</ele>
        <time>2012-03-26T09:37:01.000Z</time>
      </trkpt>
      <trkpt lat="45.44586" lon="4.05256">
        <ele>929</ele>
        <time>2012-03-26T09:37:02.000Z</time>
      </trkpt>
      <trkpt lat="45.44584" lon="4.0528">
        <ele>928</ele>
        <time>2012-03-26T09:37:04.000Z</time>
      </trkpt>
      <trkpt lat="45.44583" lon="4.05303">
        <ele>929</ele>
        <time>2012-03-26T09:37:06.000Z</time>
      </trkpt>
      <trkpt lat="45.44583" lon="4.05324">
        <ele>929</ele>
        <time>2012-03-26T09:37:08.000Z</time>
      </trkpt>
      <trkpt lat="45.44584" lon="4.05347">
        <ele>931</ele>
        <time>2012-03-26T09:37:10.000Z</time>
      </trkpt>
      <trkpt lat="45.44586" lon="4.05371">
        <ele>931</ele>
        <time>2012-03-26T09:37:12.000Z</time>
      </trkpt>
      <trkpt lat="45.44587" lon="4.05384">
        <ele>929</ele>
        <time>2012-03-26T09:37:13.000Z</time>
      </trkpt>
      <trkpt lat="45.44587" lon="4.05398">
        <ele>927</ele>
        <time>2012-03-26T09:37:14.000Z</time>
      </trkpt>
      <trkpt lat="45.44587" lon="4.05411">
        <ele>925</ele>
        <time>2012-03-26T09:37:15.000Z</time>
      </trkpt>
      <trkpt lat="45.44586" lon="4.05426">
        <ele>922</ele>
        <time>2012-03-26T09:37:16.000Z</time>
      </trkpt>
      <trkpt lat="45.44584" lon="4.0544">
        <ele>921</ele>
        <time>2012-03-26T09:37:17.000Z</time>
      </trkpt>
      <trkpt lat="45.44583" lon="4.05454">
        <ele>918</ele>
        <time>2012-03-26T09:37:18.000Z</time>
      </trkpt>
      <trkpt lat="45.44582" lon="4.05468">
        <ele>918</ele>
        <time>2012-03-26T09:37:19.000Z</time>
      </trkpt>
      <trkpt lat="45.44581" lon="4.05482">
        <ele>918</ele>
        <time>2012-03-26T09:37:20.000Z</time>
      </trkpt>
      <trkpt lat="45.44582" lon="4.05506">
        <ele>917</ele>
        <time>2012-03-26T09:37:22.000Z</time>
      </trkpt>
      <trkpt lat="45.44583" lon="4.05523">
        <ele>917</ele>
        <time>2012-03-26T09:37:24.000Z</time>
      </trkpt>
      <trkpt lat="45.4458" lon="4.05537">
        <ele>917</ele>
        <time>2012-03-26T09:37:26.000Z</time>
      </trkpt>
      <trkpt lat="45.44566" lon="4.05548">
        <ele>913</ele>
        <time>2012-03-26T09:37:30.000Z</time>
      </trkpt>
      <trkpt lat="45.44556" lon="4.05555">
        <ele>912</ele>
        <time>2012-03-26T09:37:32.000Z</time>
      </trkpt>
      <trkpt lat="45.44544" lon="4.05563">
        <ele>912</ele>
        <time>2012-03-26T09:37:34.000Z</time>
      </trkpt>
      <trkpt lat="45.44531" lon="4.05571">
        <ele>914</ele>
        <time>2012-03-26T09:37:36.000Z</time>
      </trkpt>
      <trkpt lat="45.44518" lon="4.05578">
        <ele>916</ele>
        <time>2012-03-26T09:37:38.000Z</time>
      </trkpt>
      <trkpt lat="45.44505" lon="4.05586">
        <ele>917</ele>
        <time>2012-03-26T09:37:40.000Z</time>
      </trkpt>
      <trkpt lat="45.44493" lon="4.05593">
        <ele>914</ele>
        <time>2012-03-26T09:37:42.000Z</time>
      </trkpt>
      <trkpt lat="45.4448" lon="4.05601">
        <ele>913</ele>
        <time>2012-03-26T09:37:44.000Z</time>
      </trkpt>
      <trkpt lat="45.44466" lon="4.0561">
        <ele>913</ele>
        <time>2012-03-26T09:37:46.000Z</time>
      </trkpt>
      <trkpt lat="45.44449" lon="4.05619">
        <ele>913</ele>
        <time>2012-03-26T09:37:48.000Z</time>
      </trkpt>
      <trkpt lat="45.44432" lon="4.05629">
        <ele>912</ele>
        <time>2012-03-26T09:37:50.000Z</time>
      </trkpt>
      <trkpt lat="45.44422" lon="4.05635">
        <ele>911</ele>
        <time>2012-03-26T09:37:51.000Z</time>
      </trkpt>
      <trkpt lat="45.44413" lon="4.05642">
        <ele>911</ele>
        <time>2012-03-26T09:37:52.000Z</time>
      </trkpt>
      <trkpt lat="45.44402" lon="4.0565">
        <ele>909</ele>
        <time>2012-03-26T09:37:53.000Z</time>
      </trkpt>
      <trkpt lat="45.44392" lon="4.05658">
        <ele>909</ele>
        <time>2012-03-26T09:37:54.000Z</time>
      </trkpt>
      <trkpt lat="45.44383" lon="4.05667">
        <ele>907</ele>
        <time>2012-03-26T09:37:55.000Z</time>
      </trkpt>
      <trkpt lat="45.44375" lon="4.05674">
        <ele>905</ele>
        <time>2012-03-26T09:37:56.000Z</time>
      </trkpt>
      <trkpt lat="45.4436" lon="4.05687">
        <ele>902</ele>
        <time>2012-03-26T09:37:58.000Z</time>
      </trkpt>
      <trkpt lat="45.44344" lon="4.05698">
        <ele>901</ele>
        <time>2012-03-26T09:38:00.000Z</time>
      </trkpt>
      <trkpt lat="45.4433" lon="4.05707">
        <ele>898</ele>
        <time>2012-03-26T09:38:02.000Z</time>
      </trkpt>
      <trkpt lat="45.44315" lon="4.05715">
        <ele>896</ele>
        <time>2012-03-26T09:38:04.000Z</time>
      </trkpt>
      <trkpt lat="45.443" lon="4.05723">
        <ele>893</ele>
        <time>2012-03-26T09:38:06.000Z</time>
      </trkpt>
      <trkpt lat="45.44283" lon="4.05733">
        <ele>891</ele>
        <time>2012-03-26T09:38:08.000Z</time>
      </trkpt>
      <trkpt lat="45.44274" lon="4.05738">
        <ele>891</ele>
        <time>2012-03-26T09:38:09.000Z</time>
      </trkpt>
      <trkpt lat="45.44265" lon="4.05742">
        <ele>891</ele>
        <time>2012-03-26T09:38:10.000Z</time>
      </trkpt>
      <trkpt lat="45.4425" lon="4.0575">
        <ele>890</ele>
        <time>2012-03-26T09:38:12.000Z</time>
      </trkpt>
      <trkpt lat="45.44235" lon="4.05755">
        <ele>888</ele>
        <time>2012-03-26T09:38:14.000Z</time>
      </trkpt>
      <trkpt lat="45.4422" lon="4.05758">
        <ele>886</ele>
        <time>2012-03-26T09:38:16.000Z</time>
      </trkpt>
      <trkpt lat="45.44205" lon="4.0576">
        <ele>884</ele>
        <time>2012-03-26T09:38:18.000Z</time>
      </trkpt>
      <trkpt lat="45.44192" lon="4.05758">
        <ele>882</ele>
        <time>2012-03-26T09:38:20.000Z</time>
      </trkpt>
      <trkpt lat="45.4418" lon="4.05749">
        <ele>880</ele>
        <time>2012-03-26T09:38:22.000Z</time>
      </trkpt>
      <trkpt lat="45.44168" lon="4.05739">
        <ele>880</ele>
        <time>2012-03-26T09:38:24.000Z</time>
      </trkpt>
      <trkpt lat="45.44157" lon="4.05729">
        <ele>877</ele>
        <time>2012-03-26T09:38:26.000Z</time>
      </trkpt>
      <trkpt lat="45.44147" lon="4.0572">
        <ele>872</ele>
        <time>2012-03-26T09:38:28.000Z</time>
      </trkpt>
      <trkpt lat="45.44138" lon="4.05706">
        <ele>871</ele>
        <time>2012-03-26T09:38:30.000Z</time>
      </trkpt>
      <trkpt lat="45.44132" lon="4.05695">
        <ele>870</ele>
        <time>2012-03-26T09:38:32.000Z</time>
      </trkpt>
      <trkpt lat="45.44119" lon="4.05686">
        <ele>867</ele>
        <time>2012-03-26T09:38:51.000Z</time>
      </trkpt>
      <trkpt lat="45.44109" lon="4.05683">
        <ele>862</ele>
        <time>2012-03-26T09:39:11.000Z</time>
      </trkpt>
      <trkpt lat="45.44096" lon="4.05679">
        <ele>856</ele>
        <time>2012-03-26T09:39:16.000Z</time>
      </trkpt>
      <trkpt lat="45.44088" lon="4.05693">
        <ele>852</ele>
        <time>2012-03-26T09:39:20.000Z</time>
      </trkpt>
      <trkpt lat="45.4408" lon="4.05708">
        <ele>855</ele>
        <time>2012-03-26T09:39:23.000Z</time>
      </trkpt>
      <trkpt lat="45.44077" lon="4.05726">
        <ele>855</ele>
        <time>2012-03-26T09:39:27.000Z</time>
      </trkpt>
      <trkpt lat="45.44066" lon="4.05732">
        <ele>855</ele>
        <time>2012-03-26T09:39:35.000Z</time>
      </trkpt>
      <trkpt lat="45.44055" lon="4.05723">
        <ele>857</ele>
        <time>2012-03-26T09:39:37.000Z</time>
      </trkpt>
      <trkpt lat="45.44044" lon="4.05714">
        <ele>860</ele>
        <time>2012-03-26T09:39:39.000Z</time>
      </trkpt>
      <trkpt lat="45.44034" lon="4.05705">
        <ele>860</ele>
        <time>2012-03-26T09:39:41.000Z</time>
      </trkpt>
      <trkpt lat="45.44019" lon="4.05698">
        <ele>862</ele>
        <time>2012-03-26T09:39:43.000Z</time>
      </trkpt>
      <trkpt lat="45.44007" lon="4.0569">
        <ele>860</ele>
        <time>2012-03-26T09:39:45.000Z</time>
      </trkpt>
      <trkpt lat="45.43998" lon="4.05682">
        <ele>854</ele>
        <time>2012-03-26T09:39:48.000Z</time>
      </trkpt>
      <trkpt lat="45.43989" lon="4.05687">
        <ele>853</ele>
        <time>2012-03-26T09:39:55.000Z</time>
      </trkpt>
      <trkpt lat="45.43982" lon="4.05699">
        <ele>856</ele>
        <time>2012-03-26T09:40:00.000Z</time>
      </trkpt>
      <trkpt lat="45.43979" lon="4.05713">
        <ele>855</ele>
        <time>2012-03-26T09:40:04.000Z</time>
      </trkpt>
      <trkpt lat="45.43974" lon="4.05726">
        <ele>855</ele>
        <time>2012-03-26T09:40:09.000Z</time>
      </trkpt>
      <trkpt lat="45.43964" lon="4.05737">
        <ele>855</ele>
        <time>2012-03-26T09:40:19.000Z</time>
      </trkpt>
      <trkpt lat="45.43954" lon="4.05745">
        <ele>862</ele>
        <time>2012-03-26T09:40:25.000Z</time>
      </trkpt>
      <trkpt lat="45.43944" lon="4.05752">
        <ele>863</ele>
        <time>2012-03-26T09:40:32.000Z</time>
      </trkpt>
      <trkpt lat="45.43933" lon="4.05761">
        <ele>863</ele>
        <time>2012-03-26T09:40:38.000Z</time>
      </trkpt>
      <trkpt lat="45.43923" lon="4.05766">
        <ele>867</ele>
        <time>2012-03-26T09:40:42.000Z</time>
      </trkpt>
      <trkpt lat="45.43913" lon="4.05771">
        <ele>866</ele>
        <time>2012-03-26T09:40:46.000Z</time>
      </trkpt>
      <trkpt lat="45.43902" lon="4.05778">
        <ele>866</ele>
        <time>2012-03-26T09:40:50.000Z</time>
      </trkpt>
      <trkpt lat="45.43892" lon="4.05785">
        <ele>862</ele>
        <time>2012-03-26T09:40:55.000Z</time>
      </trkpt>
      <trkpt lat="45.4388" lon="4.05795">
        <ele>863</ele>
        <time>2012-03-26T09:41:00.000Z</time>
      </trkpt>
      <trkpt lat="45.43871" lon="4.05803">
        <ele>862</ele>
        <time>2012-03-26T09:41:04.000Z</time>
      </trkpt>
      <trkpt lat="45.43861" lon="4.05813">
        <ele>865</ele>
        <time>2012-03-26T09:41:07.000Z</time>
      </trkpt>
      <trkpt lat="45.43847" lon="4.05828">
        <ele>869</ele>
        <time>2012-03-26T09:41:12.000Z</time>
      </trkpt>
      <trkpt lat="45.43836" lon="4.05838">
        <ele>873</ele>
        <time>2012-03-26T09:41:16.000Z</time>
      </trkpt>
      <trkpt lat="45.43825" lon="4.05847">
        <ele>878</ele>
        <time>2012-03-26T09:41:20.000Z</time>
      </trkpt>
      <trkpt lat="45.43817" lon="4.05867">
        <ele>884</ele>
        <time>2012-03-26T09:41:24.000Z</time>
      </trkpt>
      <trkpt lat="45.43811" lon="4.05878">
        <ele>883</ele>
        <time>2012-03-26T09:41:26.000Z</time>
      </trkpt>
      <trkpt lat="45.43802" lon="4.05894">
        <ele>884</ele>
        <time>2012-03-26T09:41:29.000Z</time>
      </trkpt>
      <trkpt lat="45.43794" lon="4.05909">
        <ele>884</ele>
        <time>2012-03-26T09:41:32.000Z</time>
      </trkpt>
      <trkpt lat="45.43789" lon="4.0592">
        <ele>882</ele>
        <time>2012-03-26T09:41:34.000Z</time>
      </trkpt>
      <trkpt lat="45.43783" lon="4.05938">
        <ele>879</ele>
        <time>2012-03-26T09:41:37.000Z</time>
      </trkpt>
      <trkpt lat="45.43776" lon="4.05954">
        <ele>878</ele>
        <time>2012-03-26T09:41:40.000Z</time>
      </trkpt>
      <trkpt lat="45.43769" lon="4.05974">
        <ele>875</ele>
        <time>2012-03-26T09:41:44.000Z</time>
      </trkpt>
      <trkpt lat="45.43764" lon="4.05994">
        <ele>875</ele>
        <time>2012-03-26T09:41:48.000Z</time>
      </trkpt>
      <trkpt lat="45.4376" lon="4.06011">
        <ele>873</ele>
        <time>2012-03-26T09:41:52.000Z</time>
      </trkpt>
      <trkpt lat="45.43757" lon="4.06028">
        <ele>874</ele>
        <time>2012-03-26T09:41:56.000Z</time>
      </trkpt>
      <trkpt lat="45.43754" lon="4.06048">
        <ele>874</ele>
        <time>2012-03-26T09:42:00.000Z</time>
      </trkpt>
      <trkpt lat="45.43753" lon="4.06067">
        <ele>871</ele>
        <time>2012-03-26T09:42:05.000Z</time>
      </trkpt>
      <trkpt lat="45.43752" lon="4.06086">
        <ele>875</ele>
        <time>2012-03-26T09:42:11.000Z</time>
      </trkpt>
      <trkpt lat="45.4375" lon="4.06099">
        <ele>877</ele>
        <time>2012-03-26T09:42:17.000Z</time>
      </trkpt>
      <trkpt lat="45.43748" lon="4.06114">
        <ele>879</ele>
        <time>2012-03-26T09:42:24.000Z</time>
      </trkpt>
      <trkpt lat="45.43738" lon="4.06124">
        <ele>883</ele>
        <time>2012-03-26T09:42:30.000Z</time>
      </trkpt>
      <trkpt lat="45.43728" lon="4.06126">
        <ele>885</ele>
        <time>2012-03-26T09:42:34.000Z</time>
      </trkpt>
      <trkpt lat="45.43717" lon="4.06129">
        <ele>885</ele>
        <time>2012-03-26T09:42:38.000Z</time>
      </trkpt>
      <trkpt lat="45.43707" lon="4.06131">
        <ele>885</ele>
        <time>2012-03-26T09:42:42.000Z</time>
      </trkpt>
      <trkpt lat="45.43696" lon="4.06134">
        <ele>886</ele>
        <time>2012-03-26T09:42:46.000Z</time>
      </trkpt>
      <trkpt lat="45.43684" lon="4.06135">
        <ele>882</ele>
        <time>2012-03-26T09:42:50.000Z</time>
      </trkpt>
      <trkpt lat="45.43672" lon="4.06137">
        <ele>885</ele>
        <time>2012-03-26T09:42:54.000Z</time>
      </trkpt>
      <trkpt lat="45.43661" lon="4.06142">
        <ele>887</ele>
        <time>2012-03-26T09:42:58.000Z</time>
      </trkpt>
      <trkpt lat="45.43652" lon="4.06148">
        <ele>890</ele>
        <time>2012-03-26T09:43:02.000Z</time>
      </trkpt>
      <trkpt lat="45.4364" lon="4.06159">
        <ele>892</ele>
        <time>2012-03-26T09:43:09.000Z</time>
      </trkpt>
      <trkpt lat="45.43632" lon="4.06167">
        <ele>891</ele>
        <time>2012-03-26T09:43:14.000Z</time>
      </trkpt>
      <trkpt lat="45.43625" lon="4.0618">
        <ele>895</ele>
        <time>2012-03-26T09:43:21.000Z</time>
      </trkpt>
      <trkpt lat="45.43619" lon="4.06194">
        <ele>894</ele>
        <time>2012-03-26T09:43:26.000Z</time>
      </trkpt>
      <trkpt lat="45.43613" lon="4.06207">
        <ele>894</ele>
        <time>2012-03-26T09:43:30.000Z</time>
      </trkpt>
      <trkpt lat="45.43605" lon="4.06222">
        <ele>890</ele>
        <time>2012-03-26T09:43:34.000Z</time>
      </trkpt>
      <trkpt lat="45.43596" lon="4.06233">
        <ele>887</ele>
        <time>2012-03-26T09:43:38.000Z</time>
      </trkpt>
      <trkpt lat="45.43587" lon="4.0624">
        <ele>891</ele>
        <time>2012-03-26T09:43:43.000Z</time>
      </trkpt>
      <trkpt lat="45.43574" lon="4.0625">
        <ele>899</ele>
        <time>2012-03-26T09:43:50.000Z</time>
      </trkpt>
      <trkpt lat="45.4356" lon="4.06258">
        <ele>896</ele>
        <time>2012-03-26T09:43:54.000Z</time>
      </trkpt>
      <trkpt lat="45.4355" lon="4.06262">
        <ele>899</ele>
        <time>2012-03-26T09:43:56.000Z</time>
      </trkpt>
      <trkpt lat="45.43539" lon="4.06268">
        <ele>894</ele>
        <time>2012-03-26T09:43:59.000Z</time>
      </trkpt>
      <trkpt lat="45.4352" lon="4.06283">
        <ele>905</ele>
        <time>2012-03-26T09:44:06.000Z</time>
      </trkpt>
      <trkpt lat="45.43508" lon="4.0629">
        <ele>895</ele>
        <time>2012-03-26T09:44:11.000Z</time>
      </trkpt>
      <trkpt lat="45.43498" lon="4.0629">
        <ele>906</ele>
        <time>2012-03-26T09:44:13.000Z</time>
      </trkpt>
      <trkpt lat="45.43485" lon="4.06289">
        <ele>910</ele>
        <time>2012-03-26T09:44:17.000Z</time>
      </trkpt>
      <trkpt lat="45.43473" lon="4.06288">
        <ele>913</ele>
        <time>2012-03-26T09:44:21.000Z</time>
      </trkpt>
      <trkpt lat="45.43462" lon="4.06287">
        <ele>912</ele>
        <time>2012-03-26T09:44:25.000Z</time>
      </trkpt>
      <trkpt lat="45.43451" lon="4.06285">
        <ele>910</ele>
        <time>2012-03-26T09:44:29.000Z</time>
      </trkpt>
      <trkpt lat="45.43441" lon="4.06283">
        <ele>908</ele>
        <time>2012-03-26T09:44:33.000Z</time>
      </trkpt>
      <trkpt lat="45.43431" lon="4.06281">
        <ele>911</ele>
        <time>2012-03-26T09:44:37.000Z</time>
      </trkpt>
      <trkpt lat="45.43419" lon="4.0628">
        <ele>906</ele>
        <time>2012-03-26T09:44:42.000Z</time>
      </trkpt>
      <trkpt lat="45.43408" lon="4.06276">
        <ele>909</ele>
        <time>2012-03-26T09:44:47.000Z</time>
      </trkpt>
      <trkpt lat="45.43396" lon="4.06272">
        <ele>915</ele>
        <time>2012-03-26T09:44:53.000Z</time>
      </trkpt>
      <trkpt lat="45.43384" lon="4.06268">
        <ele>916</ele>
        <time>2012-03-26T09:44:59.000Z</time>
      </trkpt>
      <trkpt lat="45.43373" lon="4.06263">
        <ele>919</ele>
        <time>2012-03-26T09:45:05.000Z</time>
      </trkpt>
      <trkpt lat="45.43361" lon="4.06258">
        <ele>922</ele>
        <time>2012-03-26T09:45:11.000Z</time>
      </trkpt>
      <trkpt lat="45.43351" lon="4.06251">
        <ele>925</ele>
        <time>2012-03-26T09:45:16.000Z</time>
      </trkpt>
      <trkpt lat="45.4334" lon="4.06245">
        <ele>925</ele>
        <time>2012-03-26T09:45:21.000Z</time>
      </trkpt>
      <trkpt lat="45.43329" lon="4.06239">
        <ele>925</ele>
        <time>2012-03-26T09:45:27.000Z</time>
      </trkpt>
      <trkpt lat="45.43318" lon="4.06233">
        <ele>924</ele>
        <time>2012-03-26T09:45:33.000Z</time>
      </trkpt>
      <trkpt lat="45.43307" lon="4.06235">
        <ele>921</ele>
        <time>2012-03-26T09:45:37.000Z</time>
      </trkpt>
      <trkpt lat="45.43296" lon="4.06242">
        <ele>925</ele>
        <time>2012-03-26T09:45:43.000Z</time>
      </trkpt>
      <trkpt lat="45.43288" lon="4.06249">
        <ele>925</ele>
        <time>2012-03-26T09:45:47.000Z</time>
      </trkpt>
      <trkpt lat="45.4328" lon="4.06257">
        <ele>925</ele>
        <time>2012-03-26T09:45:51.000Z</time>
      </trkpt>
      <trkpt lat="45.4327" lon="4.06268">
        <ele>927</ele>
        <time>2012-03-26T09:45:57.000Z</time>
      </trkpt>
      <trkpt lat="45.4326" lon="4.06273">
        <ele>926</ele>
        <time>2012-03-26T09:46:01.000Z</time>
      </trkpt>
      <trkpt lat="45.4325" lon="4.06277">
        <ele>928</ele>
        <time>2012-03-26T09:46:05.000Z</time>
      </trkpt>
      <trkpt lat="45.4324" lon="4.06282">
        <ele>927</ele>
        <time>2012-03-26T09:46:09.000Z</time>
      </trkpt>
      <trkpt lat="45.43227" lon="4.06288">
        <ele>930</ele>
        <time>2012-03-26T09:46:13.000Z</time>
      </trkpt>
      <trkpt lat="45.43215" lon="4.06294">
        <ele>931</ele>
        <time>2012-03-26T09:46:17.000Z</time>
      </trkpt>
      <trkpt lat="45.43201" lon="4.06301">
        <ele>932</ele>
        <time>2012-03-26T09:46:21.000Z</time>
      </trkpt>
      <trkpt lat="45.43188" lon="4.06307">
        <ele>933</ele>
        <time>2012-03-26T09:46:25.000Z</time>
      </trkpt>
      <trkpt lat="45.43175" lon="4.06314">
        <ele>933</ele>
        <time>2012-03-26T09:46:29.000Z</time>
      </trkpt>
      <trkpt lat="45.43164" lon="4.06322">
        <ele>933</ele>
        <time>2012-03-26T09:46:33.000Z</time>
      </trkpt>
      <trkpt lat="45.43153" lon="4.06327">
        <ele>933</ele>
        <time>2012-03-26T09:46:37.000Z</time>
      </trkpt>
      <trkpt lat="45.43142" lon="4.06333">
        <ele>934</ele>
        <time>2012-03-26T09:46:41.000Z</time>
      </trkpt>
      <trkpt lat="45.43129" lon="4.06338">
        <ele>937</ele>
        <time>2012-03-26T09:46:45.000Z</time>
      </trkpt>
      <trkpt lat="45.43113" lon="4.06338">
        <ele>938</ele>
        <time>2012-03-26T09:46:49.000Z</time>
      </trkpt>
      <trkpt lat="45.431" lon="4.06332">
        <ele>936</ele>
        <time>2012-03-26T09:46:53.000Z</time>
      </trkpt>
      <trkpt lat="45.43086" lon="4.06323">
        <ele>936</ele>
        <time>2012-03-26T09:46:57.000Z</time>
      </trkpt>
      <trkpt lat="45.43075" lon="4.06313">
        <ele>936</ele>
        <time>2012-03-26T09:47:01.000Z</time>
      </trkpt>
      <trkpt lat="45.43064" lon="4.06302">
        <ele>937</ele>
        <time>2012-03-26T09:47:05.000Z</time>
      </trkpt>
      <trkpt lat="45.43053" lon="4.06292">
        <ele>938</ele>
        <time>2012-03-26T09:47:09.000Z</time>
      </trkpt>
      <trkpt lat="45.43041" lon="4.06284">
        <ele>938</ele>
        <time>2012-03-26T09:47:13.000Z</time>
      </trkpt>
      <trkpt lat="45.43028" lon="4.0628">
        <ele>939</ele>
        <time>2012-03-26T09:47:17.000Z</time>
      </trkpt>
      <trkpt lat="45.43011" lon="4.0628">
        <ele>938</ele>
        <time>2012-03-26T09:47:21.000Z</time>
      </trkpt>
      <trkpt lat="45.43002" lon="4.0628">
        <ele>937</ele>
        <time>2012-03-26T09:47:23.000Z</time>
      </trkpt>
      <trkpt lat="45.42992" lon="4.06279">
        <ele>935</ele>
        <time>2012-03-26T09:47:25.000Z</time>
      </trkpt>
      <trkpt lat="45.4298" lon="4.06279">
        <ele>933</ele>
        <time>2012-03-26T09:47:27.000Z</time>
      </trkpt>
      <trkpt lat="45.42969" lon="4.06276">
        <ele>932</ele>
        <time>2012-03-26T09:47:29.000Z</time>
      </trkpt>
      <trkpt lat="45.4296" lon="4.06272">
        <ele>932</ele>
        <time>2012-03-26T09:47:31.000Z</time>
      </trkpt>
      <trkpt lat="45.4295" lon="4.0627">
        <ele>931</ele>
        <time>2012-03-26T09:47:33.000Z</time>
      </trkpt>
      <trkpt lat="45.4294" lon="4.0627">
        <ele>929</ele>
        <time>2012-03-26T09:47:35.000Z</time>
      </trkpt>
      <trkpt lat="45.42929" lon="4.06275">
        <ele>930</ele>
        <time>2012-03-26T09:47:37.000Z</time>
      </trkpt>
      <trkpt lat="45.42918" lon="4.06282">
        <ele>929</ele>
        <time>2012-03-26T09:47:39.000Z</time>
      </trkpt>
      <trkpt lat="45.42909" lon="4.0629">
        <ele>926</ele>
        <time>2012-03-26T09:47:41.000Z</time>
      </trkpt>
      <trkpt lat="45.429" lon="4.06301">
        <ele>926</ele>
        <time>2012-03-26T09:47:43.000Z</time>
      </trkpt>
      <trkpt lat="45.42891" lon="4.06316">
        <ele>926</ele>
        <time>2012-03-26T09:47:45.000Z</time>
      </trkpt>
      <trkpt lat="45.42882" lon="4.0633">
        <ele>925</ele>
        <time>2012-03-26T09:47:47.000Z</time>
      </trkpt>
      <trkpt lat="45.42873" lon="4.06345">
        <ele>924</ele>
        <time>2012-03-26T09:47:49.000Z</time>
      </trkpt>
      <trkpt lat="45.42862" lon="4.06357">
        <ele>924</ele>
        <time>2012-03-26T09:47:51.000Z</time>
      </trkpt>
      <trkpt lat="45.42849" lon="4.06368">
        <ele>923</ele>
        <time>2012-03-26T09:47:53.000Z</time>
      </trkpt>
      <trkpt lat="45.42834" lon="4.0638">
        <ele>922</ele>
        <time>2012-03-26T09:47:55.000Z</time>
      </trkpt>
      <trkpt lat="45.42826" lon="4.06386">
        <ele>921</ele>
        <time>2012-03-26T09:47:56.000Z</time>
      </trkpt>
      <trkpt lat="45.42818" lon="4.06393">
        <ele>921</ele>
        <time>2012-03-26T09:47:57.000Z</time>
      </trkpt>
      <trkpt lat="45.42809" lon="4.06399">
        <ele>921</ele>
        <time>2012-03-26T09:47:58.000Z</time>
      </trkpt>
      <trkpt lat="45.42801" lon="4.06404">
        <ele>921</ele>
        <time>2012-03-26T09:47:59.000Z</time>
      </trkpt>
      <trkpt lat="45.42792" lon="4.0641">
        <ele>920</ele>
        <time>2012-03-26T09:48:00.000Z</time>
      </trkpt>
      <trkpt lat="45.42783" lon="4.06416">
        <ele>922</ele>
        <time>2012-03-26T09:48:01.000Z</time>
      </trkpt>
      <trkpt lat="45.42774" lon="4.06423">
        <ele>921</ele>
        <time>2012-03-26T09:48:02.000Z</time>
      </trkpt>
      <trkpt lat="45.42765" lon="4.0643">
        <ele>920</ele>
        <time>2012-03-26T09:48:03.000Z</time>
      </trkpt>
      <trkpt lat="45.42757" lon="4.06437">
        <ele>920</ele>
        <time>2012-03-26T09:48:04.000Z</time>
      </trkpt>
      <trkpt lat="45.42744" lon="4.06448">
        <ele>917</ele>
        <time>2012-03-26T09:48:06.000Z</time>
      </trkpt>
      <trkpt lat="45.42731" lon="4.06453">
        <ele>918</ele>
        <time>2012-03-26T09:48:09.000Z</time>
      </trkpt>
      <trkpt lat="45.42721" lon="4.06462">
        <ele>916</ele>
        <time>2012-03-26T09:48:12.000Z</time>
      </trkpt>
      <trkpt lat="45.42708" lon="4.06475">
        <ele>916</ele>
        <time>2012-03-26T09:48:16.000Z</time>
      </trkpt>
      <trkpt lat="45.42697" lon="4.06484">
        <ele>913</ele>
        <time>2012-03-26T09:48:18.000Z</time>
      </trkpt>
      <trkpt lat="45.42683" lon="4.06495">
        <ele>912</ele>
        <time>2012-03-26T09:48:20.000Z</time>
      </trkpt>
      <trkpt lat="45.42671" lon="4.06503">
        <ele>910</ele>
        <time>2012-03-26T09:48:22.000Z</time>
      </trkpt>
      <trkpt lat="45.4266" lon="4.06511">
        <ele>911</ele>
        <time>2012-03-26T09:48:24.000Z</time>
      </trkpt>
      <trkpt lat="45.42649" lon="4.06519">
        <ele>909</ele>
        <time>2012-03-26T09:48:26.000Z</time>
      </trkpt>
      <trkpt lat="45.42639" lon="4.06527">
        <ele>909</ele>
        <time>2012-03-26T09:48:28.000Z</time>
      </trkpt>
      <trkpt lat="45.4263" lon="4.06535">
        <ele>909</ele>
        <time>2012-03-26T09:48:30.000Z</time>
      </trkpt>
      <trkpt lat="45.42622" lon="4.0654">
        <ele>908</ele>
        <time>2012-03-26T09:48:32.000Z</time>
      </trkpt>
      <trkpt lat="45.4261" lon="4.06545">
        <ele>910</ele>
        <time>2012-03-26T09:48:34.000Z</time>
      </trkpt>
      <trkpt lat="45.42599" lon="4.06549">
        <ele>912</ele>
        <time>2012-03-26T09:48:36.000Z</time>
      </trkpt>
      <trkpt lat="45.42589" lon="4.06554">
        <ele>913</ele>
        <time>2012-03-26T09:48:38.000Z</time>
      </trkpt>
      <trkpt lat="45.4258" lon="4.0656">
        <ele>913</ele>
        <time>2012-03-26T09:48:40.000Z</time>
      </trkpt>
      <trkpt lat="45.42567" lon="4.06573">
        <ele>914</ele>
        <time>2012-03-26T09:48:44.000Z</time>
      </trkpt>
      <trkpt lat="45.42559" lon="4.06583">
        <ele>916</ele>
        <time>2012-03-26T09:48:46.000Z</time>
      </trkpt>
      <trkpt lat="45.42552" lon="4.06593">
        <ele>917</ele>
        <time>2012-03-26T09:48:48.000Z</time>
      </trkpt>
      <trkpt lat="45.42544" lon="4.06606">
        <ele>915</ele>
        <time>2012-03-26T09:48:51.000Z</time>
      </trkpt>
      <trkpt lat="45.42529" lon="4.06618">
        <ele>917</ele>
        <time>2012-03-26T09:48:55.000Z</time>
      </trkpt>
      <trkpt lat="45.42514" lon="4.06624">
        <ele>917</ele>
        <time>2012-03-26T09:48:59.000Z</time>
      </trkpt>
      <trkpt lat="45.425" lon="4.06626">
        <ele>942</ele>
        <time>2012-03-26T09:49:04.000Z</time>
      </trkpt>
      <trkpt lat="45.42503" lon="4.0664">
        <ele>919</ele>
        <time>2012-03-26T09:49:08.000Z</time>
      </trkpt>
      <trkpt lat="45.42506" lon="4.0666">
        <ele>915</ele>
        <time>2012-03-26T09:49:11.000Z</time>
      </trkpt>
      <trkpt lat="45.42508" lon="4.06682">
        <ele>910</ele>
        <time>2012-03-26T09:49:13.000Z</time>
      </trkpt>
      <trkpt lat="45.4251" lon="4.06703">
        <ele>907</ele>
        <time>2012-03-26T09:49:15.000Z</time>
      </trkpt>
      <trkpt lat="45.42512" lon="4.0672">
        <ele>910</ele>
        <time>2012-03-26T09:49:17.000Z</time>
      </trkpt>
      <trkpt lat="45.42512" lon="4.06737">
        <ele>907</ele>
        <time>2012-03-26T09:49:19.000Z</time>
      </trkpt>
      <trkpt lat="45.4251" lon="4.06757">
        <ele>908</ele>
        <time>2012-03-26T09:49:21.000Z</time>
      </trkpt>
      <trkpt lat="45.42507" lon="4.06777">
        <ele>907</ele>
        <time>2012-03-26T09:49:23.000Z</time>
      </trkpt>
      <trkpt lat="45.42504" lon="4.06796">
        <ele>909</ele>
        <time>2012-03-26T09:49:25.000Z</time>
      </trkpt>
      <trkpt lat="45.42499" lon="4.06813">
        <ele>912</ele>
        <time>2012-03-26T09:49:27.000Z</time>
      </trkpt>
      <trkpt lat="45.42495" lon="4.06826">
        <ele>912</ele>
        <time>2012-03-26T09:49:29.000Z</time>
      </trkpt>
      <trkpt lat="45.42488" lon="4.06842">
        <ele>914</ele>
        <time>2012-03-26T09:49:33.000Z</time>
      </trkpt>
      <trkpt lat="45.42479" lon="4.06852">
        <ele>911</ele>
        <time>2012-03-26T09:49:38.000Z</time>
      </trkpt>
      <trkpt lat="45.42472" lon="4.06862">
        <ele>907</ele>
        <time>2012-03-26T09:49:42.000Z</time>
      </trkpt>
      <trkpt lat="45.42467" lon="4.06877">
        <ele>903</ele>
        <time>2012-03-26T09:49:46.000Z</time>
      </trkpt>
      <trkpt lat="45.42462" lon="4.06891">
        <ele>900</ele>
        <time>2012-03-26T09:49:50.000Z</time>
      </trkpt>
      <trkpt lat="45.42458" lon="4.06906">
        <ele>897</ele>
        <time>2012-03-26T09:49:54.000Z</time>
      </trkpt>
      <trkpt lat="45.42454" lon="4.06926">
        <ele>895</ele>
        <time>2012-03-26T09:49:57.000Z</time>
      </trkpt>
      <trkpt lat="45.42455" lon="4.06942">
        <ele>890</ele>
        <time>2012-03-26T09:49:59.000Z</time>
      </trkpt>
      <trkpt lat="45.42458" lon="4.06959">
        <ele>887</ele>
        <time>2012-03-26T09:50:04.000Z</time>
      </trkpt>
      <trkpt lat="45.42455" lon="4.0698">
        <ele>886</ele>
        <time>2012-03-26T09:50:06.000Z</time>
      </trkpt>
      <trkpt lat="45.42452" lon="4.06996">
        <ele>884</ele>
        <time>2012-03-26T09:50:08.000Z</time>
      </trkpt>
      <trkpt lat="45.42454" lon="4.07015">
        <ele>885</ele>
        <time>2012-03-26T09:50:11.000Z</time>
      </trkpt>
      <trkpt lat="45.42458" lon="4.07035">
        <ele>885</ele>
        <time>2012-03-26T09:50:15.000Z</time>
      </trkpt>
      <trkpt lat="45.42463" lon="4.07059">
        <ele>883</ele>
        <time>2012-03-26T09:50:19.000Z</time>
      </trkpt>
      <trkpt lat="45.42466" lon="4.07072">
        <ele>883</ele>
        <time>2012-03-26T09:50:21.000Z</time>
      </trkpt>
      <trkpt lat="45.4247" lon="4.07084">
        <ele>884</ele>
        <time>2012-03-26T09:50:23.000Z</time>
      </trkpt>
      <trkpt lat="45.42474" lon="4.07101">
        <ele>884</ele>
        <time>2012-03-26T09:50:26.000Z</time>
      </trkpt>
      <trkpt lat="45.42477" lon="4.07115">
        <ele>882</ele>
        <time>2012-03-26T09:50:28.000Z</time>
      </trkpt>
      <trkpt lat="45.4248" lon="4.0713">
        <ele>883</ele>
        <time>2012-03-26T09:50:30.000Z</time>
      </trkpt>
      <trkpt lat="45.42479" lon="4.07148">
        <ele>883</ele>
        <time>2012-03-26T09:50:32.000Z</time>
      </trkpt>
      <trkpt lat="45.42473" lon="4.07166">
        <ele>881</ele>
        <time>2012-03-26T09:50:34.000Z</time>
      </trkpt>
      <trkpt lat="45.42464" lon="4.07184">
        <ele>880</ele>
        <time>2012-03-26T09:50:36.000Z</time>
      </trkpt>
      <trkpt lat="45.42454" lon="4.07204">
        <ele>878</ele>
        <time>2012-03-26T09:50:38.000Z</time>
      </trkpt>
      <trkpt lat="45.42446" lon="4.07224">
        <ele>876</ele>
        <time>2012-03-26T09:50:40.000Z</time>
      </trkpt>
      <trkpt lat="45.42436" lon="4.07242">
        <ele>875</ele>
        <time>2012-03-26T09:50:42.000Z</time>
      </trkpt>
      <trkpt lat="45.42425" lon="4.07261">
        <ele>875</ele>
        <time>2012-03-26T09:50:44.000Z</time>
      </trkpt>
      <trkpt lat="45.42414" lon="4.07279">
        <ele>874</ele>
        <time>2012-03-26T09:50:46.000Z</time>
      </trkpt>
      <trkpt lat="45.42403" lon="4.07296">
        <ele>873</ele>
        <time>2012-03-26T09:50:48.000Z</time>
      </trkpt>
      <trkpt lat="45.42392" lon="4.07314">
        <ele>872</ele>
        <time>2012-03-26T09:50:50.000Z</time>
      </trkpt>
      <trkpt lat="45.42381" lon="4.07333">
        <ele>871</ele>
        <time>2012-03-26T09:50:52.000Z</time>
      </trkpt>
      <trkpt lat="45.42372" lon="4.07351">
        <ele>870</ele>
        <time>2012-03-26T09:50:54.000Z</time>
      </trkpt>
      <trkpt lat="45.42361" lon="4.07371">
        <ele>870</ele>
        <time>2012-03-26T09:50:56.000Z</time>
      </trkpt>
      <trkpt lat="45.4235" lon="4.07388">
        <ele>869</ele>
        <time>2012-03-26T09:50:58.000Z</time>
      </trkpt>
      <trkpt lat="45.42336" lon="4.07401">
        <ele>868</ele>
        <time>2012-03-26T09:51:00.000Z</time>
      </trkpt>
      <trkpt lat="45.42326" lon="4.07421">
        <ele>866</ele>
        <time>2012-03-26T09:51:02.000Z</time>
      </trkpt>
      <trkpt lat="45.42317" lon="4.07443">
        <ele>864</ele>
        <time>2012-03-26T09:51:04.000Z</time>
      </trkpt>
      <trkpt lat="45.42314" lon="4.07455">
        <ele>864</ele>
        <time>2012-03-26T09:51:05.000Z</time>
      </trkpt>
      <trkpt lat="45.42309" lon="4.07468">
        <ele>864</ele>
        <time>2012-03-26T09:51:06.000Z</time>
      </trkpt>
      <trkpt lat="45.42305" lon="4.07482">
        <ele>863</ele>
        <time>2012-03-26T09:51:07.000Z</time>
      </trkpt>
      <trkpt lat="45.42299" lon="4.07495">
        <ele>862</ele>
        <time>2012-03-26T09:51:08.000Z</time>
      </trkpt>
      <trkpt lat="45.42293" lon="4.07508">
        <ele>861</ele>
        <time>2012-03-26T09:51:09.000Z</time>
      </trkpt>
      <trkpt lat="45.42287" lon="4.07522">
        <ele>859</ele>
        <time>2012-03-26T09:51:10.000Z</time>
      </trkpt>
      <trkpt lat="45.42282" lon="4.07536">
        <ele>857</ele>
        <time>2012-03-26T09:51:11.000Z</time>
      </trkpt>
      <trkpt lat="45.4228" lon="4.07551">
        <ele>856</ele>
        <time>2012-03-26T09:51:12.000Z</time>
      </trkpt>
      <trkpt lat="45.42278" lon="4.07564">
        <ele>855</ele>
        <time>2012-03-26T09:51:13.000Z</time>
      </trkpt>
      <trkpt lat="45.42274" lon="4.07581">
        <ele>854</ele>
        <time>2012-03-26T09:51:15.000Z</time>
      </trkpt>
      <trkpt lat="45.42261" lon="4.07591">
        <ele>852</ele>
        <time>2012-03-26T09:51:17.000Z</time>
      </trkpt>
      <trkpt lat="45.42246" lon="4.07599">
        <ele>851</ele>
        <time>2012-03-26T09:51:19.000Z</time>
      </trkpt>
      <trkpt lat="45.42237" lon="4.07604">
        <ele>849</ele>
        <time>2012-03-26T09:51:20.000Z</time>
      </trkpt>
      <trkpt lat="45.42228" lon="4.0761">
        <ele>849</ele>
        <time>2012-03-26T09:51:21.000Z</time>
      </trkpt>
      <trkpt lat="45.42219" lon="4.07617">
        <ele>848</ele>
        <time>2012-03-26T09:51:22.000Z</time>
      </trkpt>
      <trkpt lat="45.42209" lon="4.07624">
        <ele>847</ele>
        <time>2012-03-26T09:51:23.000Z</time>
      </trkpt>
      <trkpt lat="45.422" lon="4.07633">
        <ele>845</ele>
        <time>2012-03-26T09:51:24.000Z</time>
      </trkpt>
      <trkpt lat="45.42191" lon="4.07645">
        <ele>843</ele>
        <time>2012-03-26T09:51:25.000Z</time>
      </trkpt>
      <trkpt lat="45.42184" lon="4.07658">
        <ele>842</ele>
        <time>2012-03-26T09:51:26.000Z</time>
      </trkpt>
      <trkpt lat="45.42178" lon="4.07671">
        <ele>842</ele>
        <time>2012-03-26T09:51:27.000Z</time>
      </trkpt>
      <trkpt lat="45.42171" lon="4.07689">
        <ele>844</ele>
        <time>2012-03-26T09:51:28.000Z</time>
      </trkpt>
      <trkpt lat="45.42166" lon="4.07704">
        <ele>839</ele>
        <time>2012-03-26T09:51:29.000Z</time>
      </trkpt>
      <trkpt lat="45.42162" lon="4.07718">
        <ele>837</ele>
        <time>2012-03-26T09:51:30.000Z</time>
      </trkpt>
      <trkpt lat="45.42158" lon="4.0773">
        <ele>835</ele>
        <time>2012-03-26T09:51:31.000Z</time>
      </trkpt>
      <trkpt lat="45.42149" lon="4.07752">
        <ele>834</ele>
        <time>2012-03-26T09:51:33.000Z</time>
      </trkpt>
      <trkpt lat="45.42144" lon="4.07763">
        <ele>831</ele>
        <time>2012-03-26T09:51:34.000Z</time>
      </trkpt>
      <trkpt lat="45.42137" lon="4.07775">
        <ele>832</ele>
        <time>2012-03-26T09:51:35.000Z</time>
      </trkpt>
      <trkpt lat="45.4213" lon="4.07788">
        <ele>830</ele>
        <time>2012-03-26T09:51:36.000Z</time>
      </trkpt>
      <trkpt lat="45.42123" lon="4.07798">
        <ele>831</ele>
        <time>2012-03-26T09:51:37.000Z</time>
      </trkpt>
      <trkpt lat="45.42114" lon="4.07814">
        <ele>829</ele>
        <time>2012-03-26T09:51:39.000Z</time>
      </trkpt>
      <trkpt lat="45.42107" lon="4.07829">
        <ele>823</ele>
        <time>2012-03-26T09:51:41.000Z</time>
      </trkpt>
      <trkpt lat="45.42102" lon="4.07844">
        <ele>819</ele>
        <time>2012-03-26T09:51:43.000Z</time>
      </trkpt>
      <trkpt lat="45.42101" lon="4.07858">
        <ele>831</ele>
        <time>2012-03-26T09:51:53.000Z</time>
      </trkpt>
      <trkpt lat="45.42109" lon="4.07866">
        <ele>827</ele>
        <time>2012-03-26T09:51:57.000Z</time>
      </trkpt>
      <trkpt lat="45.42112" lon="4.07881">
        <ele>828</ele>
        <time>2012-03-26T09:52:02.000Z</time>
      </trkpt>
      <trkpt lat="45.42112" lon="4.07897">
        <ele>827</ele>
        <time>2012-03-26T09:52:07.000Z</time>
      </trkpt>
      <trkpt lat="45.42111" lon="4.07915">
        <ele>827</ele>
        <time>2012-03-26T09:52:14.000Z</time>
      </trkpt>
      <trkpt lat="45.4211" lon="4.07929">
        <ele>836</ele>
        <time>2012-03-26T09:52:21.000Z</time>
      </trkpt>
      <trkpt lat="45.42109" lon="4.07944">
        <ele>836</ele>
        <time>2012-03-26T09:52:27.000Z</time>
      </trkpt>
      <trkpt lat="45.42102" lon="4.07954">
        <ele>836</ele>
        <time>2012-03-26T09:52:37.000Z</time>
      </trkpt>
      <trkpt lat="45.42091" lon="4.07962">
        <ele>843</ele>
        <time>2012-03-26T09:52:46.000Z</time>
      </trkpt>
      <trkpt lat="45.42082" lon="4.07969">
        <ele>847</ele>
        <time>2012-03-26T09:52:51.000Z</time>
      </trkpt>
      <trkpt lat="45.4207" lon="4.07973">
        <ele>848</ele>
        <time>2012-03-26T09:52:57.000Z</time>
      </trkpt>
      <trkpt lat="45.42059" lon="4.07974">
        <ele>849</ele>
        <time>2012-03-26T09:53:04.000Z</time>
      </trkpt>
      <trkpt lat="45.42047" lon="4.07977">
        <ele>848</ele>
        <time>2012-03-26T09:53:10.000Z</time>
      </trkpt>
      <trkpt lat="45.42035" lon="4.07978">
        <ele>850</ele>
        <time>2012-03-26T09:53:17.000Z</time>
      </trkpt>
      <trkpt lat="45.42023" lon="4.07975">
        <ele>849</ele>
        <time>2012-03-26T09:53:23.000Z</time>
      </trkpt>
      <trkpt lat="45.42012" lon="4.07972">
        <ele>850</ele>
        <time>2012-03-26T09:53:29.000Z</time>
      </trkpt>
      <trkpt lat="45.42001" lon="4.0797">
        <ele>850</ele>
        <time>2012-03-26T09:53:35.000Z</time>
      </trkpt>
      <trkpt lat="45.4199" lon="4.07968">
        <ele>852</ele>
        <time>2012-03-26T09:53:42.000Z</time>
      </trkpt>
      <trkpt lat="45.41978" lon="4.07967">
        <ele>853</ele>
        <time>2012-03-26T09:53:48.000Z</time>
      </trkpt>
      <trkpt lat="45.41968" lon="4.0797">
        <ele>854</ele>
        <time>2012-03-26T09:53:54.000Z</time>
      </trkpt>
      <trkpt lat="45.41958" lon="4.07973">
        <ele>858</ele>
        <time>2012-03-26T09:54:02.000Z</time>
      </trkpt>
      <trkpt lat="45.41948" lon="4.07979">
        <ele>861</ele>
        <time>2012-03-26T09:54:10.000Z</time>
      </trkpt>
      <trkpt lat="45.41933" lon="4.07988">
        <ele>863</ele>
        <time>2012-03-26T09:54:22.000Z</time>
      </trkpt>
      <trkpt lat="45.41923" lon="4.07997">
        <ele>865</ele>
        <time>2012-03-26T09:54:30.000Z</time>
      </trkpt>
      <trkpt lat="45.41914" lon="4.08003">
        <ele>868</ele>
        <time>2012-03-26T09:54:38.000Z</time>
      </trkpt>
      <trkpt lat="45.41904" lon="4.0801">
        <ele>869</ele>
        <time>2012-03-26T09:54:46.000Z</time>
      </trkpt>
      <trkpt lat="45.41894" lon="4.08019">
        <ele>874</ele>
        <time>2012-03-26T09:54:53.000Z</time>
      </trkpt>
      <trkpt lat="45.41884" lon="4.08026">
        <ele>873</ele>
        <time>2012-03-26T09:54:59.000Z</time>
      </trkpt>
      <trkpt lat="45.41873" lon="4.08032">
        <ele>874</ele>
        <time>2012-03-26T09:55:05.000Z</time>
      </trkpt>
      <trkpt lat="45.41864" lon="4.08039">
        <ele>874</ele>
        <time>2012-03-26T09:55:10.000Z</time>
      </trkpt>
      <trkpt lat="45.41852" lon="4.08046">
        <ele>874</ele>
        <time>2012-03-26T09:55:15.000Z</time>
      </trkpt>
      <trkpt lat="45.4184" lon="4.08051">
        <ele>870</ele>
        <time>2012-03-26T09:55:20.000Z</time>
      </trkpt>
      <trkpt lat="45.41829" lon="4.08045">
        <ele>869</ele>
        <time>2012-03-26T09:55:25.000Z</time>
      </trkpt>
      <trkpt lat="45.41816" lon="4.08036">
        <ele>872</ele>
        <time>2012-03-26T09:55:29.000Z</time>
      </trkpt>
      <trkpt lat="45.41804" lon="4.08037">
        <ele>876</ele>
        <time>2012-03-26T09:55:33.000Z</time>
      </trkpt>
      <trkpt lat="45.41797" lon="4.0805">
        <ele>873</ele>
        <time>2012-03-26T09:55:37.000Z</time>
      </trkpt>
      <trkpt lat="45.41793" lon="4.08065">
        <ele>873</ele>
        <time>2012-03-26T09:55:41.000Z</time>
      </trkpt>
      <trkpt lat="45.4179" lon="4.08083">
        <ele>873</ele>
        <time>2012-03-26T09:55:45.000Z</time>
      </trkpt>
      <trkpt lat="45.41787" lon="4.08101">
        <ele>872</ele>
        <time>2012-03-26T09:55:49.000Z</time>
      </trkpt>
      <trkpt lat="45.41786" lon="4.08116">
        <ele>871</ele>
        <time>2012-03-26T09:55:53.000Z</time>
      </trkpt>
      <trkpt lat="45.41781" lon="4.08133">
        <ele>869</ele>
        <time>2012-03-26T09:55:56.000Z</time>
      </trkpt>
      <trkpt lat="45.41776" lon="4.08144">
        <ele>869</ele>
        <time>2012-03-26T09:55:58.000Z</time>
      </trkpt>
      <trkpt lat="45.41767" lon="4.08156">
        <ele>869</ele>
        <time>2012-03-26T09:56:00.000Z</time>
      </trkpt>
      <trkpt lat="45.41757" lon="4.08164">
        <ele>868</ele>
        <time>2012-03-26T09:56:02.000Z</time>
      </trkpt>
      <trkpt lat="45.41746" lon="4.08173">
        <ele>868</ele>
        <time>2012-03-26T09:56:04.000Z</time>
      </trkpt>
      <trkpt lat="45.41733" lon="4.08185">
        <ele>868</ele>
        <time>2012-03-26T09:56:06.000Z</time>
      </trkpt>
      <trkpt lat="45.41719" lon="4.08196">
        <ele>866</ele>
        <time>2012-03-26T09:56:08.000Z</time>
      </trkpt>
      <trkpt lat="45.41704" lon="4.08206">
        <ele>866</ele>
        <time>2012-03-26T09:56:10.000Z</time>
      </trkpt>
      <trkpt lat="45.4169" lon="4.08216">
        <ele>865</ele>
        <time>2012-03-26T09:56:12.000Z</time>
      </trkpt>
      <trkpt lat="45.41678" lon="4.08225">
        <ele>865</ele>
        <time>2012-03-26T09:56:14.000Z</time>
      </trkpt>
      <trkpt lat="45.41668" lon="4.08232">
        <ele>864</ele>
        <time>2012-03-26T09:56:17.000Z</time>
      </trkpt>
      <trkpt lat="45.41657" lon="4.08239">
        <ele>859</ele>
        <time>2012-03-26T09:56:20.000Z</time>
      </trkpt>
      <trkpt lat="45.41648" lon="4.08248">
        <ele>857</ele>
        <time>2012-03-26T09:56:22.000Z</time>
      </trkpt>
      <trkpt lat="45.4164" lon="4.08256">
        <ele>856</ele>
        <time>2012-03-26T09:56:24.000Z</time>
      </trkpt>
      <trkpt lat="45.41632" lon="4.08266">
        <ele>855</ele>
        <time>2012-03-26T09:56:26.000Z</time>
      </trkpt>
      <trkpt lat="45.41622" lon="4.08278">
        <ele>854</ele>
        <time>2012-03-26T09:56:28.000Z</time>
      </trkpt>
      <trkpt lat="45.41612" lon="4.08291">
        <ele>855</ele>
        <time>2012-03-26T09:56:30.000Z</time>
      </trkpt>
      <trkpt lat="45.41604" lon="4.08302">
        <ele>854</ele>
        <time>2012-03-26T09:56:32.000Z</time>
      </trkpt>
      <trkpt lat="45.41598" lon="4.08322">
        <ele>852</ele>
        <time>2012-03-26T09:56:36.000Z</time>
      </trkpt>
      <trkpt lat="45.41583" lon="4.08328">
        <ele>853</ele>
        <time>2012-03-26T09:56:40.000Z</time>
      </trkpt>
      <trkpt lat="45.41569" lon="4.08328">
        <ele>853</ele>
        <time>2012-03-26T09:56:44.000Z</time>
      </trkpt>
      <trkpt lat="45.41559" lon="4.08341">
        <ele>852</ele>
        <time>2012-03-26T09:56:48.000Z</time>
      </trkpt>
      <trkpt lat="45.41548" lon="4.08359">
        <ele>852</ele>
        <time>2012-03-26T09:56:52.000Z</time>
      </trkpt>
      <trkpt lat="45.4154" lon="4.08366">
        <ele>853</ele>
        <time>2012-03-26T09:56:54.000Z</time>
      </trkpt>
      <trkpt lat="45.41532" lon="4.08375">
        <ele>853</ele>
        <time>2012-03-26T09:56:56.000Z</time>
      </trkpt>
      <trkpt lat="45.41524" lon="4.08383">
        <ele>852</ele>
        <time>2012-03-26T09:56:58.000Z</time>
      </trkpt>
      <trkpt lat="45.41508" lon="4.08389">
        <ele>852</ele>
        <time>2012-03-26T09:57:04.000Z</time>
      </trkpt>
      <trkpt lat="45.41494" lon="4.0839">
        <ele>847</ele>
        <time>2012-03-26T09:57:06.000Z</time>
      </trkpt>
      <trkpt lat="45.41484" lon="4.08391">
        <ele>849</ele>
        <time>2012-03-26T09:57:08.000Z</time>
      </trkpt>
      <trkpt lat="45.41473" lon="4.08393">
        <ele>851</ele>
        <time>2012-03-26T09:57:10.000Z</time>
      </trkpt>
      <trkpt lat="45.41464" lon="4.08398">
        <ele>852</ele>
        <time>2012-03-26T09:57:12.000Z</time>
      </trkpt>
      <trkpt lat="45.41453" lon="4.0841">
        <ele>854</ele>
        <time>2012-03-26T09:57:15.000Z</time>
      </trkpt>
      <trkpt lat="45.41445" lon="4.08419">
        <ele>855</ele>
        <time>2012-03-26T09:57:17.000Z</time>
      </trkpt>
      <trkpt lat="45.41437" lon="4.08431">
        <ele>853</ele>
        <time>2012-03-26T09:57:20.000Z</time>
      </trkpt>
      <trkpt lat="45.41429" lon="4.08441">
        <ele>852</ele>
        <time>2012-03-26T09:57:22.000Z</time>
      </trkpt>
      <trkpt lat="45.41418" lon="4.08451">
        <ele>853</ele>
        <time>2012-03-26T09:57:25.000Z</time>
      </trkpt>
      <trkpt lat="45.41404" lon="4.08448">
        <ele>849</ele>
        <time>2012-03-26T09:57:28.000Z</time>
      </trkpt>
      <trkpt lat="45.41392" lon="4.0844">
        <ele>850</ele>
        <time>2012-03-26T09:57:32.000Z</time>
      </trkpt>
      <trkpt lat="45.4138" lon="4.08428">
        <ele>845</ele>
        <time>2012-03-26T09:57:36.000Z</time>
      </trkpt>
      <trkpt lat="45.4137" lon="4.08419">
        <ele>845</ele>
        <time>2012-03-26T09:57:38.000Z</time>
      </trkpt>
      <trkpt lat="45.4136" lon="4.08412">
        <ele>843</ele>
        <time>2012-03-26T09:57:40.000Z</time>
      </trkpt>
      <trkpt lat="45.41347" lon="4.08405">
        <ele>841</ele>
        <time>2012-03-26T09:57:42.000Z</time>
      </trkpt>
      <trkpt lat="45.41335" lon="4.08396">
        <ele>838</ele>
        <time>2012-03-26T09:57:44.000Z</time>
      </trkpt>
      <trkpt lat="45.41323" lon="4.08383">
        <ele>835</ele>
        <time>2012-03-26T09:57:46.000Z</time>
      </trkpt>
      <trkpt lat="45.41311" lon="4.08372">
        <ele>836</ele>
        <time>2012-03-26T09:57:48.000Z</time>
      </trkpt>
      <trkpt lat="45.41295" lon="4.0837">
        <ele>835</ele>
        <time>2012-03-26T09:57:50.000Z</time>
      </trkpt>
      <trkpt lat="45.41277" lon="4.08375">
        <ele>831</ele>
        <time>2012-03-26T09:57:52.000Z</time>
      </trkpt>
      <trkpt lat="45.41268" lon="4.08378">
        <ele>829</ele>
        <time>2012-03-26T09:57:53.000Z</time>
      </trkpt>
      <trkpt lat="45.41258" lon="4.08383">
        <ele>828</ele>
        <time>2012-03-26T09:57:54.000Z</time>
      </trkpt>
      <trkpt lat="45.41249" lon="4.08387">
        <ele>826</ele>
        <time>2012-03-26T09:57:55.000Z</time>
      </trkpt>
      <trkpt lat="45.41233" lon="4.08394">
        <ele>826</ele>
        <time>2012-03-26T09:57:57.000Z</time>
      </trkpt>
      <trkpt lat="45.41225" lon="4.084">
        <ele>826</ele>
        <time>2012-03-26T09:57:58.000Z</time>
      </trkpt>
      <trkpt lat="45.41216" lon="4.08406">
        <ele>825</ele>
        <time>2012-03-26T09:57:59.000Z</time>
      </trkpt>
      <trkpt lat="45.41206" lon="4.08414">
        <ele>820</ele>
        <time>2012-03-26T09:58:00.000Z</time>
      </trkpt>
      <trkpt lat="45.41197" lon="4.08422">
        <ele>819</ele>
        <time>2012-03-26T09:58:01.000Z</time>
      </trkpt>
      <trkpt lat="45.41189" lon="4.0843">
        <ele>818</ele>
        <time>2012-03-26T09:58:02.000Z</time>
      </trkpt>
      <trkpt lat="45.41177" lon="4.08442">
        <ele>816</ele>
        <time>2012-03-26T09:58:04.000Z</time>
      </trkpt>
      <trkpt lat="45.41176" lon="4.08462">
        <ele>817</ele>
        <time>2012-03-26T09:58:07.000Z</time>
      </trkpt>
      <trkpt lat="45.41177" lon="4.08481">
        <ele>819</ele>
        <time>2012-03-26T09:58:10.000Z</time>
      </trkpt>
      <trkpt lat="45.41169" lon="4.085">
        <ele>823</ele>
        <time>2012-03-26T09:58:14.000Z</time>
      </trkpt>
      <trkpt lat="45.4116" lon="4.08509">
        <ele>822</ele>
        <time>2012-03-26T09:58:18.000Z</time>
      </trkpt>
      <trkpt lat="45.4115" lon="4.08518">
        <ele>826</ele>
        <time>2012-03-26T09:58:22.000Z</time>
      </trkpt>
      <trkpt lat="45.41139" lon="4.08529">
        <ele>825</ele>
        <time>2012-03-26T09:58:25.000Z</time>
      </trkpt>
      <trkpt lat="45.41128" lon="4.0854">
        <ele>823</ele>
        <time>2012-03-26T09:58:28.000Z</time>
      </trkpt>
      <trkpt lat="45.4112" lon="4.08549">
        <ele>822</ele>
        <time>2012-03-26T09:58:30.000Z</time>
      </trkpt>
      <trkpt lat="45.41113" lon="4.08559">
        <ele>823</ele>
        <time>2012-03-26T09:58:32.000Z</time>
      </trkpt>
      <trkpt lat="45.41108" lon="4.0857">
        <ele>821</ele>
        <time>2012-03-26T09:58:34.000Z</time>
      </trkpt>
      <trkpt lat="45.411" lon="4.08586">
        <ele>822</ele>
        <time>2012-03-26T09:58:37.000Z</time>
      </trkpt>
      <trkpt lat="45.41095" lon="4.086">
        <ele>821</ele>
        <time>2012-03-26T09:58:39.000Z</time>
      </trkpt>
      <trkpt lat="45.41091" lon="4.08614">
        <ele>820</ele>
        <time>2012-03-26T09:58:41.000Z</time>
      </trkpt>
      <trkpt lat="45.41085" lon="4.08636">
        <ele>819</ele>
        <time>2012-03-26T09:58:45.000Z</time>
      </trkpt>
      <trkpt lat="45.41081" lon="4.08649">
        <ele>820</ele>
        <time>2012-03-26T09:58:47.000Z</time>
      </trkpt>
      <trkpt lat="45.41075" lon="4.08671">
        <ele>819</ele>
        <time>2012-03-26T09:58:51.000Z</time>
      </trkpt>
      <trkpt lat="45.41066" lon="4.08692">
        <ele>820</ele>
        <time>2012-03-26T09:58:55.000Z</time>
      </trkpt>
      <trkpt lat="45.41061" lon="4.08704">
        <ele>820</ele>
        <time>2012-03-26T09:58:57.000Z</time>
      </trkpt>
      <trkpt lat="45.41056" lon="4.08715">
        <ele>820</ele>
        <time>2012-03-26T09:58:59.000Z</time>
      </trkpt>
      <trkpt lat="45.41047" lon="4.08733">
        <ele>820</ele>
        <time>2012-03-26T09:59:03.000Z</time>
      </trkpt>
      <trkpt lat="45.41037" lon="4.08751">
        <ele>821</ele>
        <time>2012-03-26T09:59:07.000Z</time>
      </trkpt>
      <trkpt lat="45.41029" lon="4.08768">
        <ele>823</ele>
        <time>2012-03-26T09:59:11.000Z</time>
      </trkpt>
      <trkpt lat="45.41022" lon="4.08781">
        <ele>823</ele>
        <time>2012-03-26T09:59:14.000Z</time>
      </trkpt>
      <trkpt lat="45.41013" lon="4.08797">
        <ele>825</ele>
        <time>2012-03-26T09:59:18.000Z</time>
      </trkpt>
      <trkpt lat="45.41005" lon="4.0881">
        <ele>827</ele>
        <time>2012-03-26T09:59:22.000Z</time>
      </trkpt>
      <trkpt lat="45.40996" lon="4.0882">
        <ele>826</ele>
        <time>2012-03-26T09:59:27.000Z</time>
      </trkpt>
      <trkpt lat="45.40986" lon="4.0882">
        <ele>827</ele>
        <time>2012-03-26T09:59:31.000Z</time>
      </trkpt>
      <trkpt lat="45.40976" lon="4.08816">
        <ele>826</ele>
        <time>2012-03-26T09:59:35.000Z</time>
      </trkpt>
      <trkpt lat="45.40965" lon="4.08809">
        <ele>827</ele>
        <time>2012-03-26T09:59:39.000Z</time>
      </trkpt>
      <trkpt lat="45.40955" lon="4.08802">
        <ele>827</ele>
        <time>2012-03-26T09:59:43.000Z</time>
      </trkpt>
      <trkpt lat="45.40946" lon="4.08798">
        <ele>828</ele>
        <time>2012-03-26T09:59:47.000Z</time>
      </trkpt>
      <trkpt lat="45.40937" lon="4.08792">
        <ele>830</ele>
        <time>2012-03-26T09:59:51.000Z</time>
      </trkpt>
      <trkpt lat="45.40928" lon="4.08786">
        <ele>831</ele>
        <time>2012-03-26T09:59:55.000Z</time>
      </trkpt>
      <trkpt lat="45.40919" lon="4.0878">
        <ele>832</ele>
        <time>2012-03-26T09:59:59.000Z</time>
      </trkpt>
      <trkpt lat="45.4091" lon="4.08774">
        <ele>831</ele>
        <time>2012-03-26T10:00:03.000Z</time>
      </trkpt>
      <trkpt lat="45.409" lon="4.08768">
        <ele>833</ele>
        <time>2012-03-26T10:00:07.000Z</time>
      </trkpt>
      <trkpt lat="45.40892" lon="4.08762">
        <ele>835</ele>
        <time>2012-03-26T10:00:11.000Z</time>
      </trkpt>
      <trkpt lat="45.4088" lon="4.08753">
        <ele>836</ele>
        <time>2012-03-26T10:00:16.000Z</time>
      </trkpt>
      <trkpt lat="45.4087" lon="4.08744">
        <ele>836</ele>
        <time>2012-03-26T10:00:20.000Z</time>
      </trkpt>
      <trkpt lat="45.4086" lon="4.08736">
        <ele>836</ele>
        <time>2012-03-26T10:00:24.000Z</time>
      </trkpt>
      <trkpt lat="45.40851" lon="4.08728">
        <ele>838</ele>
        <time>2012-03-26T10:00:28.000Z</time>
      </trkpt>
      <trkpt lat="45.40843" lon="4.08721">
        <ele>838</ele>
        <time>2012-03-26T10:01:12.000Z</time>
      </trkpt>
      <trkpt lat="45.40843" lon="4.08721">
        <ele>838</ele>
        <time>2012-03-26T10:01:12.000Z</time>
      </trkpt>
      <trkpt lat="45.40843" lon="4.08721">
        <ele>838</ele>
        <time>2012-03-26T10:02:12.000Z</time>
      </trkpt>
      <trkpt lat="45.40831" lon="4.08713">
        <ele>842</ele>
        <time>2012-03-26T10:03:25.000Z</time>
      </trkpt>
      <trkpt lat="45.40823" lon="4.08704">
        <ele>842</ele>
        <time>2012-03-26T10:03:29.000Z</time>
      </trkpt>
      <trkpt lat="45.40812" lon="4.08693">
        <ele>842</ele>
        <time>2012-03-26T10:03:33.000Z</time>
      </trkpt>
      <trkpt lat="45.40798" lon="4.0868">
        <ele>839</ele>
        <time>2012-03-26T10:03:37.000Z</time>
      </trkpt>
      <trkpt lat="45.40786" lon="4.08666">
        <ele>841</ele>
        <time>2012-03-26T10:03:41.000Z</time>
      </trkpt>
      <trkpt lat="45.40776" lon="4.08656">
        <ele>842</ele>
        <time>2012-03-26T10:03:44.000Z</time>
      </trkpt>
      <trkpt lat="45.40768" lon="4.08649">
        <ele>841</ele>
        <time>2012-03-26T10:03:46.000Z</time>
      </trkpt>
      <trkpt lat="45.4076" lon="4.08642">
        <ele>841</ele>
        <time>2012-03-26T10:03:48.000Z</time>
      </trkpt>
      <trkpt lat="45.40747" lon="4.08634">
        <ele>842</ele>
        <time>2012-03-26T10:03:51.000Z</time>
      </trkpt>
      <trkpt lat="45.40735" lon="4.08626">
        <ele>843</ele>
        <time>2012-03-26T10:03:54.000Z</time>
      </trkpt>
      <trkpt lat="45.40725" lon="4.08621">
        <ele>843</ele>
        <time>2012-03-26T10:03:56.000Z</time>
      </trkpt>
      <trkpt lat="45.40716" lon="4.08616">
        <ele>843</ele>
        <time>2012-03-26T10:03:58.000Z</time>
      </trkpt>
      <trkpt lat="45.40706" lon="4.0861">
        <ele>842</ele>
        <time>2012-03-26T10:04:00.000Z</time>
      </trkpt>
      <trkpt lat="45.40695" lon="4.08603">
        <ele>841</ele>
        <time>2012-03-26T10:04:02.000Z</time>
      </trkpt>
      <trkpt lat="45.40684" lon="4.08598">
        <ele>841</ele>
        <time>2012-03-26T10:04:04.000Z</time>
      </trkpt>
      <trkpt lat="45.40674" lon="4.08592">
        <ele>840</ele>
        <time>2012-03-26T10:04:06.000Z</time>
      </trkpt>
      <trkpt lat="45.40664" lon="4.08585">
        <ele>840</ele>
        <time>2012-03-26T10:04:08.000Z</time>
      </trkpt>
      <trkpt lat="45.40653" lon="4.08579">
        <ele>840</ele>
        <time>2012-03-26T10:04:10.000Z</time>
      </trkpt>
      <trkpt lat="45.40642" lon="4.08572">
        <ele>839</ele>
        <time>2012-03-26T10:04:12.000Z</time>
      </trkpt>
      <trkpt lat="45.4063" lon="4.08564">
        <ele>839</ele>
        <time>2012-03-26T10:04:14.000Z</time>
      </trkpt>
      <trkpt lat="45.4062" lon="4.08556">
        <ele>838</ele>
        <time>2012-03-26T10:04:16.000Z</time>
      </trkpt>
      <trkpt lat="45.4061" lon="4.08547">
        <ele>838</ele>
        <time>2012-03-26T10:04:18.000Z</time>
      </trkpt>
      <trkpt lat="45.406" lon="4.08537">
        <ele>838</ele>
        <time>2012-03-26T10:04:20.000Z</time>
      </trkpt>
      <trkpt lat="45.40589" lon="4.08527">
        <ele>838</ele>
        <time>2012-03-26T10:04:22.000Z</time>
      </trkpt>
      <trkpt lat="45.40579" lon="4.08516">
        <ele>838</ele>
        <time>2012-03-26T10:04:24.000Z</time>
      </trkpt>
      <trkpt lat="45.40569" lon="4.08506">
        <ele>838</ele>
        <time>2012-03-26T10:04:26.000Z</time>
      </trkpt>
      <trkpt lat="45.4056" lon="4.08496">
        <ele>839</ele>
        <time>2012-03-26T10:04:28.000Z</time>
      </trkpt>
      <trkpt lat="45.4055" lon="4.08485">
        <ele>838</ele>
        <time>2012-03-26T10:04:30.000Z</time>
      </trkpt>
      <trkpt lat="45.4054" lon="4.08474">
        <ele>838</ele>
        <time>2012-03-26T10:04:32.000Z</time>
      </trkpt>
      <trkpt lat="45.4053" lon="4.08463">
        <ele>838</ele>
        <time>2012-03-26T10:04:34.000Z</time>
      </trkpt>
      <trkpt lat="45.40521" lon="4.08452">
        <ele>837</ele>
        <time>2012-03-26T10:04:36.000Z</time>
      </trkpt>
      <trkpt lat="45.40511" lon="4.0844">
        <ele>836</ele>
        <time>2012-03-26T10:04:38.000Z</time>
      </trkpt>
      <trkpt lat="45.40501" lon="4.08425">
        <ele>837</ele>
        <time>2012-03-26T10:04:40.000Z</time>
      </trkpt>
      <trkpt lat="45.40493" lon="4.08407">
        <ele>837</ele>
        <time>2012-03-26T10:04:42.000Z</time>
      </trkpt>
      <trkpt lat="45.40488" lon="4.08388">
        <ele>837</ele>
        <time>2012-03-26T10:04:44.000Z</time>
      </trkpt>
      <trkpt lat="45.40486" lon="4.0837">
        <ele>838</ele>
        <time>2012-03-26T10:04:46.000Z</time>
      </trkpt>
      <trkpt lat="45.40483" lon="4.08353">
        <ele>839</ele>
        <time>2012-03-26T10:04:48.000Z</time>
      </trkpt>
      <trkpt lat="45.40477" lon="4.08337">
        <ele>839</ele>
        <time>2012-03-26T10:04:50.000Z</time>
      </trkpt>
      <trkpt lat="45.40471" lon="4.08323">
        <ele>841</ele>
        <time>2012-03-26T10:04:52.000Z</time>
      </trkpt>
      <trkpt lat="45.40466" lon="4.0831">
        <ele>842</ele>
        <time>2012-03-26T10:04:54.000Z</time>
      </trkpt>
      <trkpt lat="45.4046" lon="4.08296">
        <ele>842</ele>
        <time>2012-03-26T10:04:56.000Z</time>
      </trkpt>
      <trkpt lat="45.40456" lon="4.08281">
        <ele>842</ele>
        <time>2012-03-26T10:04:58.000Z</time>
      </trkpt>
      <trkpt lat="45.4045" lon="4.08269">
        <ele>842</ele>
        <time>2012-03-26T10:05:00.000Z</time>
      </trkpt>
      <trkpt lat="45.40445" lon="4.08257">
        <ele>842</ele>
        <time>2012-03-26T10:05:02.000Z</time>
      </trkpt>
      <trkpt lat="45.4044" lon="4.08246">
        <ele>840</ele>
        <time>2012-03-26T10:05:04.000Z</time>
      </trkpt>
      <trkpt lat="45.40435" lon="4.08234">
        <ele>842</ele>
        <time>2012-03-26T10:05:06.000Z</time>
      </trkpt>
      <trkpt lat="45.40428" lon="4.0822">
        <ele>846</ele>
        <time>2012-03-26T10:05:09.000Z</time>
      </trkpt>
      <trkpt lat="45.40421" lon="4.0821">
        <ele>847</ele>
        <time>2012-03-26T10:05:12.000Z</time>
      </trkpt>
      <trkpt lat="45.4041" lon="4.0822">
        <ele>849</ele>
        <time>2012-03-26T10:05:16.000Z</time>
      </trkpt>
      <trkpt lat="45.404" lon="4.08241">
        <ele>850</ele>
        <time>2012-03-26T10:05:20.000Z</time>
      </trkpt>
      <trkpt lat="45.40386" lon="4.08243">
        <ele>847</ele>
        <time>2012-03-26T10:05:25.000Z</time>
      </trkpt>
      <trkpt lat="45.40376" lon="4.0824">
        <ele>847</ele>
        <time>2012-03-26T10:05:27.000Z</time>
      </trkpt>
      <trkpt lat="45.40366" lon="4.08234">
        <ele>845</ele>
        <time>2012-03-26T10:05:29.000Z</time>
      </trkpt>
      <trkpt lat="45.40354" lon="4.08226">
        <ele>849</ele>
        <time>2012-03-26T10:05:31.000Z</time>
      </trkpt>
      <trkpt lat="45.40344" lon="4.0822">
        <ele>847</ele>
        <time>2012-03-26T10:05:33.000Z</time>
      </trkpt>
      <trkpt lat="45.40335" lon="4.08213">
        <ele>846</ele>
        <time>2012-03-26T10:05:36.000Z</time>
      </trkpt>
      <trkpt lat="45.4032" lon="4.08215">
        <ele>844</ele>
        <time>2012-03-26T10:05:40.000Z</time>
      </trkpt>
      <trkpt lat="45.40312" lon="4.08222">
        <ele>844</ele>
        <time>2012-03-26T10:05:42.000Z</time>
      </trkpt>
      <trkpt lat="45.40305" lon="4.08234">
        <ele>846</ele>
        <time>2012-03-26T10:05:44.000Z</time>
      </trkpt>
      <trkpt lat="45.40297" lon="4.08246">
        <ele>848</ele>
        <time>2012-03-26T10:05:46.000Z</time>
      </trkpt>
      <trkpt lat="45.40287" lon="4.08259">
        <ele>847</ele>
        <time>2012-03-26T10:05:48.000Z</time>
      </trkpt>
      <trkpt lat="45.40277" lon="4.08272">
        <ele>845</ele>
        <time>2012-03-26T10:05:50.000Z</time>
      </trkpt>
      <trkpt lat="45.40266" lon="4.08287">
        <ele>844</ele>
        <time>2012-03-26T10:05:52.000Z</time>
      </trkpt>
      <trkpt lat="45.40256" lon="4.08303">
        <ele>843</ele>
        <time>2012-03-26T10:05:54.000Z</time>
      </trkpt>
      <trkpt lat="45.40247" lon="4.08321">
        <ele>842</ele>
        <time>2012-03-26T10:05:56.000Z</time>
      </trkpt>
      <trkpt lat="45.4024" lon="4.08341">
        <ele>841</ele>
        <time>2012-03-26T10:05:58.000Z</time>
      </trkpt>
      <trkpt lat="45.40233" lon="4.08359">
        <ele>841</ele>
        <time>2012-03-26T10:06:00.000Z</time>
      </trkpt>
      <trkpt lat="45.40227" lon="4.08378">
        <ele>841</ele>
        <time>2012-03-26T10:06:02.000Z</time>
      </trkpt>
      <trkpt lat="45.40219" lon="4.08396">
        <ele>842</ele>
        <time>2012-03-26T10:06:04.000Z</time>
      </trkpt>
      <trkpt lat="45.40209" lon="4.08411">
        <ele>840</ele>
        <time>2012-03-26T10:06:06.000Z</time>
      </trkpt>
      <trkpt lat="45.40199" lon="4.08425">
        <ele>841</ele>
        <time>2012-03-26T10:06:08.000Z</time>
      </trkpt>
      <trkpt lat="45.4019" lon="4.08438">
        <ele>841</ele>
        <time>2012-03-26T10:06:10.000Z</time>
      </trkpt>
      <trkpt lat="45.4018" lon="4.08449">
        <ele>841</ele>
        <time>2012-03-26T10:06:12.000Z</time>
      </trkpt>
      <trkpt lat="45.4017" lon="4.08456">
        <ele>841</ele>
        <time>2012-03-26T10:06:14.000Z</time>
      </trkpt>
      <trkpt lat="45.40159" lon="4.08463">
        <ele>842</ele>
        <time>2012-03-26T10:06:16.000Z</time>
      </trkpt>
      <trkpt lat="45.40147" lon="4.08471">
        <ele>844</ele>
        <time>2012-03-26T10:06:18.000Z</time>
      </trkpt>
      <trkpt lat="45.40136" lon="4.08478">
        <ele>846</ele>
        <time>2012-03-26T10:06:20.000Z</time>
      </trkpt>
      <trkpt lat="45.40126" lon="4.08486">
        <ele>845</ele>
        <time>2012-03-26T10:06:22.000Z</time>
      </trkpt>
      <trkpt lat="45.40117" lon="4.08493">
        <ele>844</ele>
        <time>2012-03-26T10:06:24.000Z</time>
      </trkpt>
      <trkpt lat="45.40108" lon="4.08501">
        <ele>844</ele>
        <time>2012-03-26T10:06:26.000Z</time>
      </trkpt>
      <trkpt lat="45.40099" lon="4.0851">
        <ele>844</ele>
        <time>2012-03-26T10:06:28.000Z</time>
      </trkpt>
      <trkpt lat="45.40089" lon="4.0852">
        <ele>845</ele>
        <time>2012-03-26T10:06:30.000Z</time>
      </trkpt>
      <trkpt lat="45.40078" lon="4.08532">
        <ele>845</ele>
        <time>2012-03-26T10:06:32.000Z</time>
      </trkpt>
      <trkpt lat="45.40068" lon="4.08543">
        <ele>846</ele>
        <time>2012-03-26T10:06:34.000Z</time>
      </trkpt>
      <trkpt lat="45.40056" lon="4.08556">
        <ele>842</ele>
        <time>2012-03-26T10:06:36.000Z</time>
      </trkpt>
      <trkpt lat="45.40043" lon="4.08573">
        <ele>840</ele>
        <time>2012-03-26T10:06:38.000Z</time>
      </trkpt>
      <trkpt lat="45.40032" lon="4.08591">
        <ele>837</ele>
        <time>2012-03-26T10:06:40.000Z</time>
      </trkpt>
      <trkpt lat="45.40026" lon="4.08602">
        <ele>836</ele>
        <time>2012-03-26T10:06:41.000Z</time>
      </trkpt>
      <trkpt lat="45.4002" lon="4.08614">
        <ele>835</ele>
        <time>2012-03-26T10:06:42.000Z</time>
      </trkpt>
      <trkpt lat="45.40014" lon="4.08628">
        <ele>833</ele>
        <time>2012-03-26T10:06:43.000Z</time>
      </trkpt>
      <trkpt lat="45.40007" lon="4.08642">
        <ele>833</ele>
        <time>2012-03-26T10:06:44.000Z</time>
      </trkpt>
      <trkpt lat="45.40001" lon="4.08654">
        <ele>834</ele>
        <time>2012-03-26T10:06:45.000Z</time>
      </trkpt>
      <trkpt lat="45.39995" lon="4.08668">
        <ele>833</ele>
        <time>2012-03-26T10:06:46.000Z</time>
      </trkpt>
      <trkpt lat="45.39989" lon="4.08682">
        <ele>834</ele>
        <time>2012-03-26T10:06:47.000Z</time>
      </trkpt>
      <trkpt lat="45.39984" lon="4.08696">
        <ele>831</ele>
        <time>2012-03-26T10:06:48.000Z</time>
      </trkpt>
      <trkpt lat="45.39978" lon="4.0871">
        <ele>828</ele>
        <time>2012-03-26T10:06:49.000Z</time>
      </trkpt>
      <trkpt lat="45.39973" lon="4.08724">
        <ele>826</ele>
        <time>2012-03-26T10:06:50.000Z</time>
      </trkpt>
      <trkpt lat="45.39968" lon="4.08737">
        <ele>823</ele>
        <time>2012-03-26T10:06:51.000Z</time>
      </trkpt>
      <trkpt lat="45.39963" lon="4.08749">
        <ele>821</ele>
        <time>2012-03-26T10:06:52.000Z</time>
      </trkpt>
      <trkpt lat="45.39958" lon="4.0876">
        <ele>820</ele>
        <time>2012-03-26T10:06:53.000Z</time>
      </trkpt>
      <trkpt lat="45.39953" lon="4.08772">
        <ele>818</ele>
        <time>2012-03-26T10:06:54.000Z</time>
      </trkpt>
      <trkpt lat="45.39944" lon="4.08792">
        <ele>818</ele>
        <time>2012-03-26T10:06:56.000Z</time>
      </trkpt>
      <trkpt lat="45.39935" lon="4.08804">
        <ele>815</ele>
        <time>2012-03-26T10:06:58.000Z</time>
      </trkpt>
      <trkpt lat="45.39922" lon="4.08812">
        <ele>812</ele>
        <time>2012-03-26T10:07:01.000Z</time>
      </trkpt>
      <trkpt lat="45.3991" lon="4.08809">
        <ele>807</ele>
        <time>2012-03-26T10:07:03.000Z</time>
      </trkpt>
      <trkpt lat="45.39896" lon="4.08804">
        <ele>805</ele>
        <time>2012-03-26T10:07:05.000Z</time>
      </trkpt>
      <trkpt lat="45.39879" lon="4.08797">
        <ele>805</ele>
        <time>2012-03-26T10:07:07.000Z</time>
      </trkpt>
      <trkpt lat="45.39869" lon="4.08794">
        <ele>803</ele>
        <time>2012-03-26T10:07:08.000Z</time>
      </trkpt>
      <trkpt lat="45.3986" lon="4.08794">
        <ele>802</ele>
        <time>2012-03-26T10:07:09.000Z</time>
      </trkpt>
      <trkpt lat="45.39844" lon="4.08796">
        <ele>800</ele>
        <time>2012-03-26T10:07:11.000Z</time>
      </trkpt>
      <trkpt lat="45.39833" lon="4.08808">
        <ele>799</ele>
        <time>2012-03-26T10:07:13.000Z</time>
      </trkpt>
      <trkpt lat="45.39829" lon="4.08827">
        <ele>796</ele>
        <time>2012-03-26T10:07:15.000Z</time>
      </trkpt>
      <trkpt lat="45.39826" lon="4.08844">
        <ele>795</ele>
        <time>2012-03-26T10:07:17.000Z</time>
      </trkpt>
      <trkpt lat="45.39826" lon="4.08864">
        <ele>795</ele>
        <time>2012-03-26T10:07:19.000Z</time>
      </trkpt>
      <trkpt lat="45.39829" lon="4.08887">
        <ele>797</ele>
        <time>2012-03-26T10:07:21.000Z</time>
      </trkpt>
      <trkpt lat="45.3983" lon="4.089">
        <ele>797</ele>
        <time>2012-03-26T10:07:22.000Z</time>
      </trkpt>
      <trkpt lat="45.39833" lon="4.08925">
        <ele>796</ele>
        <time>2012-03-26T10:07:24.000Z</time>
      </trkpt>
      <trkpt lat="45.39836" lon="4.08948">
        <ele>795</ele>
        <time>2012-03-26T10:07:26.000Z</time>
      </trkpt>
      <trkpt lat="45.39838" lon="4.08969">
        <ele>795</ele>
        <time>2012-03-26T10:07:28.000Z</time>
      </trkpt>
      <trkpt lat="45.3984" lon="4.08986">
        <ele>796</ele>
        <time>2012-03-26T10:07:30.000Z</time>
      </trkpt>
      <trkpt lat="45.39842" lon="4.09001">
        <ele>796</ele>
        <time>2012-03-26T10:07:32.000Z</time>
      </trkpt>
      <trkpt lat="45.39843" lon="4.09019">
        <ele>797</ele>
        <time>2012-03-26T10:07:35.000Z</time>
      </trkpt>
      <trkpt lat="45.39846" lon="4.0904">
        <ele>799</ele>
        <time>2012-03-26T10:07:39.000Z</time>
      </trkpt>
      <trkpt lat="45.39846" lon="4.09058">
        <ele>801</ele>
        <time>2012-03-26T10:07:43.000Z</time>
      </trkpt>
      <trkpt lat="45.39843" lon="4.09076">
        <ele>802</ele>
        <time>2012-03-26T10:07:47.000Z</time>
      </trkpt>
      <trkpt lat="45.39841" lon="4.09096">
        <ele>801</ele>
        <time>2012-03-26T10:07:51.000Z</time>
      </trkpt>
      <trkpt lat="45.3984" lon="4.09111">
        <ele>801</ele>
        <time>2012-03-26T10:07:55.000Z</time>
      </trkpt>
      <trkpt lat="45.3984" lon="4.09127">
        <ele>805</ele>
        <time>2012-03-26T10:07:59.000Z</time>
      </trkpt>
      <trkpt lat="45.39842" lon="4.09142">
        <ele>807</ele>
        <time>2012-03-26T10:08:03.000Z</time>
      </trkpt>
      <trkpt lat="45.39846" lon="4.09156">
        <ele>808</ele>
        <time>2012-03-26T10:08:07.000Z</time>
      </trkpt>
      <trkpt lat="45.39851" lon="4.09171">
        <ele>808</ele>
        <time>2012-03-26T10:08:11.000Z</time>
      </trkpt>
      <trkpt lat="45.39858" lon="4.09189">
        <ele>808</ele>
        <time>2012-03-26T10:08:16.000Z</time>
      </trkpt>
      <trkpt lat="45.39863" lon="4.09203">
        <ele>809</ele>
        <time>2012-03-26T10:08:20.000Z</time>
      </trkpt>
      <trkpt lat="45.39866" lon="4.09217">
        <ele>809</ele>
        <time>2012-03-26T10:08:24.000Z</time>
      </trkpt>
      <trkpt lat="45.39867" lon="4.09231">
        <ele>811</ele>
        <time>2012-03-26T10:08:28.000Z</time>
      </trkpt>
      <trkpt lat="45.3987" lon="4.09246">
        <ele>811</ele>
        <time>2012-03-26T10:08:32.000Z</time>
      </trkpt>
      <trkpt lat="45.39873" lon="4.09262">
        <ele>809</ele>
        <time>2012-03-26T10:08:36.000Z</time>
      </trkpt>
      <trkpt lat="45.39875" lon="4.09276">
        <ele>808</ele>
        <time>2012-03-26T10:08:40.000Z</time>
      </trkpt>
      <trkpt lat="45.39877" lon="4.0929">
        <ele>809</ele>
        <time>2012-03-26T10:08:44.000Z</time>
      </trkpt>
      <trkpt lat="45.39878" lon="4.09304">
        <ele>813</ele>
        <time>2012-03-26T10:08:48.000Z</time>
      </trkpt>
      <trkpt lat="45.39878" lon="4.09322">
        <ele>820</ele>
        <time>2012-03-26T10:08:54.000Z</time>
      </trkpt>
      <trkpt lat="45.39877" lon="4.09337">
        <ele>820</ele>
        <time>2012-03-26T10:08:58.000Z</time>
      </trkpt>
      <trkpt lat="45.39875" lon="4.09353">
        <ele>821</ele>
        <time>2012-03-26T10:09:02.000Z</time>
      </trkpt>
      <trkpt lat="45.39873" lon="4.09366">
        <ele>822</ele>
        <time>2012-03-26T10:09:06.000Z</time>
      </trkpt>
      <trkpt lat="45.3987" lon="4.09379">
        <ele>822</ele>
        <time>2012-03-26T10:09:10.000Z</time>
      </trkpt>
      <trkpt lat="45.39867" lon="4.09391">
        <ele>821</ele>
        <time>2012-03-26T10:09:14.000Z</time>
      </trkpt>
      <trkpt lat="45.39861" lon="4.09406">
        <ele>825</ele>
        <time>2012-03-26T10:09:18.000Z</time>
      </trkpt>
      <trkpt lat="45.39853" lon="4.09419">
        <ele>828</ele>
        <time>2012-03-26T10:09:22.000Z</time>
      </trkpt>
      <trkpt lat="45.39845" lon="4.09433">
        <ele>824</ele>
        <time>2012-03-26T10:09:26.000Z</time>
      </trkpt>
      <trkpt lat="45.39839" lon="4.09443">
        <ele>831</ele>
        <time>2012-03-26T10:09:30.000Z</time>
      </trkpt>
      <trkpt lat="45.39834" lon="4.09454">
        <ele>831</ele>
        <time>2012-03-26T10:09:34.000Z</time>
      </trkpt>
      <trkpt lat="45.39822" lon="4.09468">
        <ele>826</ele>
        <time>2012-03-26T10:09:40.000Z</time>
      </trkpt>
      <trkpt lat="45.3981" lon="4.0948">
        <ele>835</ele>
        <time>2012-03-26T10:09:47.000Z</time>
      </trkpt>
      <trkpt lat="45.39794" lon="4.09492">
        <ele>855</ele>
        <time>2012-03-26T10:09:55.000Z</time>
      </trkpt>
      <trkpt lat="45.39781" lon="4.09504">
        <ele>842</ele>
        <time>2012-03-26T10:09:59.000Z</time>
      </trkpt>
      <trkpt lat="45.39768" lon="4.09517">
        <ele>830</ele>
        <time>2012-03-26T10:10:03.000Z</time>
      </trkpt>
      <trkpt lat="45.39758" lon="4.09526">
        <ele>825</ele>
        <time>2012-03-26T10:10:06.000Z</time>
      </trkpt>
      <trkpt lat="45.39749" lon="4.09534">
        <ele>832</ele>
        <time>2012-03-26T10:10:10.000Z</time>
      </trkpt>
      <trkpt lat="45.39738" lon="4.09542">
        <ele>827</ele>
        <time>2012-03-26T10:10:15.000Z</time>
      </trkpt>
      <trkpt lat="45.39732" lon="4.09564">
        <ele>825</ele>
        <time>2012-03-26T10:10:22.000Z</time>
      </trkpt>
      <trkpt lat="45.39728" lon="4.09577">
        <ele>824</ele>
        <time>2012-03-26T10:10:26.000Z</time>
      </trkpt>
      <trkpt lat="45.39718" lon="4.09585">
        <ele>822</ele>
        <time>2012-03-26T10:10:30.000Z</time>
      </trkpt>
      <trkpt lat="45.39702" lon="4.09593">
        <ele>832</ele>
        <time>2012-03-26T10:10:34.000Z</time>
      </trkpt>
      <trkpt lat="45.39689" lon="4.09598">
        <ele>837</ele>
        <time>2012-03-26T10:10:37.000Z</time>
      </trkpt>
      <trkpt lat="45.39673" lon="4.09601">
        <ele>833</ele>
        <time>2012-03-26T10:10:41.000Z</time>
      </trkpt>
      <trkpt lat="45.39659" lon="4.09599">
        <ele>832</ele>
        <time>2012-03-26T10:10:45.000Z</time>
      </trkpt>
      <trkpt lat="45.39649" lon="4.09597">
        <ele>834</ele>
        <time>2012-03-26T10:10:47.000Z</time>
      </trkpt>
      <trkpt lat="45.39639" lon="4.09595">
        <ele>834</ele>
        <time>2012-03-26T10:10:49.000Z</time>
      </trkpt>
      <trkpt lat="45.39622" lon="4.09591">
        <ele>833</ele>
        <time>2012-03-26T10:10:53.000Z</time>
      </trkpt>
      <trkpt lat="45.3961" lon="4.09588">
        <ele>833</ele>
        <time>2012-03-26T10:10:57.000Z</time>
      </trkpt>
      <trkpt lat="45.39598" lon="4.09586">
        <ele>835</ele>
        <time>2012-03-26T10:11:01.000Z</time>
      </trkpt>
      <trkpt lat="45.39586" lon="4.09585">
        <ele>835</ele>
        <time>2012-03-26T10:11:05.000Z</time>
      </trkpt>
      <trkpt lat="45.39574" lon="4.09587">
        <ele>834</ele>
        <time>2012-03-26T10:11:09.000Z</time>
      </trkpt>
      <trkpt lat="45.39559" lon="4.0959">
        <ele>835</ele>
        <time>2012-03-26T10:11:14.000Z</time>
      </trkpt>
      <trkpt lat="45.39548" lon="4.09594">
        <ele>836</ele>
        <time>2012-03-26T10:11:18.000Z</time>
      </trkpt>
      <trkpt lat="45.39535" lon="4.09597">
        <ele>834</ele>
        <time>2012-03-26T10:11:22.000Z</time>
      </trkpt>
      <trkpt lat="45.39522" lon="4.09601">
        <ele>837</ele>
        <time>2012-03-26T10:11:26.000Z</time>
      </trkpt>
      <trkpt lat="45.3951" lon="4.09605">
        <ele>838</ele>
        <time>2012-03-26T10:11:30.000Z</time>
      </trkpt>
      <trkpt lat="45.39498" lon="4.09608">
        <ele>838</ele>
        <time>2012-03-26T10:11:34.000Z</time>
      </trkpt>
      <trkpt lat="45.39486" lon="4.09612">
        <ele>837</ele>
        <time>2012-03-26T10:11:38.000Z</time>
      </trkpt>
      <trkpt lat="45.39476" lon="4.09615">
        <ele>838</ele>
        <time>2012-03-26T10:11:42.000Z</time>
      </trkpt>
      <trkpt lat="45.39464" lon="4.09618">
        <ele>838</ele>
        <time>2012-03-26T10:11:46.000Z</time>
      </trkpt>
      <trkpt lat="45.39452" lon="4.09623">
        <ele>840</ele>
        <time>2012-03-26T10:11:50.000Z</time>
      </trkpt>
      <trkpt lat="45.39441" lon="4.09628">
        <ele>844</ele>
        <time>2012-03-26T10:11:54.000Z</time>
      </trkpt>
      <trkpt lat="45.3943" lon="4.09633">
        <ele>844</ele>
        <time>2012-03-26T10:11:59.000Z</time>
      </trkpt>
      <trkpt lat="45.39421" lon="4.09639">
        <ele>846</ele>
        <time>2012-03-26T10:12:03.000Z</time>
      </trkpt>
      <trkpt lat="45.39413" lon="4.09652">
        <ele>853</ele>
        <time>2012-03-26T10:12:08.000Z</time>
      </trkpt>
      <trkpt lat="45.39407" lon="4.09665">
        <ele>852</ele>
        <time>2012-03-26T10:12:12.000Z</time>
      </trkpt>
      <trkpt lat="45.39401" lon="4.09677">
        <ele>853</ele>
        <time>2012-03-26T10:12:16.000Z</time>
      </trkpt>
      <trkpt lat="45.39394" lon="4.09692">
        <ele>853</ele>
        <time>2012-03-26T10:12:20.000Z</time>
      </trkpt>
      <trkpt lat="45.39388" lon="4.09708">
        <ele>852</ele>
        <time>2012-03-26T10:12:24.000Z</time>
      </trkpt>
      <trkpt lat="45.39382" lon="4.09723">
        <ele>853</ele>
        <time>2012-03-26T10:12:28.000Z</time>
      </trkpt>
      <trkpt lat="45.39376" lon="4.09737">
        <ele>853</ele>
        <time>2012-03-26T10:12:32.000Z</time>
      </trkpt>
      <trkpt lat="45.39371" lon="4.09751">
        <ele>856</ele>
        <time>2012-03-26T10:12:36.000Z</time>
      </trkpt>
      <trkpt lat="45.39365" lon="4.09766">
        <ele>855</ele>
        <time>2012-03-26T10:12:40.000Z</time>
      </trkpt>
      <trkpt lat="45.39358" lon="4.09778">
        <ele>856</ele>
        <time>2012-03-26T10:12:44.000Z</time>
      </trkpt>
      <trkpt lat="45.39349" lon="4.09788">
        <ele>857</ele>
        <time>2012-03-26T10:12:48.000Z</time>
      </trkpt>
      <trkpt lat="45.39339" lon="4.09801">
        <ele>857</ele>
        <time>2012-03-26T10:12:52.000Z</time>
      </trkpt>
      <trkpt lat="45.39329" lon="4.09812">
        <ele>858</ele>
        <time>2012-03-26T10:12:56.000Z</time>
      </trkpt>
      <trkpt lat="45.39319" lon="4.09824">
        <ele>859</ele>
        <time>2012-03-26T10:13:00.000Z</time>
      </trkpt>
      <trkpt lat="45.39309" lon="4.09837">
        <ele>856</ele>
        <time>2012-03-26T10:13:04.000Z</time>
      </trkpt>
      <trkpt lat="45.393" lon="4.09847">
        <ele>856</ele>
        <time>2012-03-26T10:13:09.000Z</time>
      </trkpt>
      <trkpt lat="45.39285" lon="4.09863">
        <ele>856</ele>
        <time>2012-03-26T10:13:16.000Z</time>
      </trkpt>
      <trkpt lat="45.39273" lon="4.09875">
        <ele>857</ele>
        <time>2012-03-26T10:13:18.000Z</time>
      </trkpt>
      <trkpt lat="45.39256" lon="4.09884">
        <ele>856</ele>
        <time>2012-03-26T10:13:20.000Z</time>
      </trkpt>
      <trkpt lat="45.39248" lon="4.09889">
        <ele>854</ele>
        <time>2012-03-26T10:13:21.000Z</time>
      </trkpt>
      <trkpt lat="45.39239" lon="4.09894">
        <ele>852</ele>
        <time>2012-03-26T10:13:22.000Z</time>
      </trkpt>
      <trkpt lat="45.39229" lon="4.099">
        <ele>850</ele>
        <time>2012-03-26T10:13:23.000Z</time>
      </trkpt>
      <trkpt lat="45.39213" lon="4.09911">
        <ele>848</ele>
        <time>2012-03-26T10:13:25.000Z</time>
      </trkpt>
      <trkpt lat="45.39198" lon="4.09921">
        <ele>849</ele>
        <time>2012-03-26T10:13:27.000Z</time>
      </trkpt>
      <trkpt lat="45.39184" lon="4.09931">
        <ele>848</ele>
        <time>2012-03-26T10:13:29.000Z</time>
      </trkpt>
      <trkpt lat="45.39171" lon="4.09939">
        <ele>848</ele>
        <time>2012-03-26T10:13:31.000Z</time>
      </trkpt>
      <trkpt lat="45.39154" lon="4.09946">
        <ele>845</ele>
        <time>2012-03-26T10:13:33.000Z</time>
      </trkpt>
      <trkpt lat="45.39141" lon="4.09954">
        <ele>847</ele>
        <time>2012-03-26T10:13:35.000Z</time>
      </trkpt>
      <trkpt lat="45.39131" lon="4.09967">
        <ele>844</ele>
        <time>2012-03-26T10:13:37.000Z</time>
      </trkpt>
      <trkpt lat="45.39124" lon="4.09978">
        <ele>845</ele>
        <time>2012-03-26T10:13:39.000Z</time>
      </trkpt>
      <trkpt lat="45.39116" lon="4.09985">
        <ele>847</ele>
        <time>2012-03-26T10:13:41.000Z</time>
      </trkpt>
      <trkpt lat="45.39108" lon="4.0999">
        <ele>847</ele>
        <time>2012-03-26T10:13:43.000Z</time>
      </trkpt>
      <trkpt lat="45.39095" lon="4.09996">
        <ele>848</ele>
        <time>2012-03-26T10:13:46.000Z</time>
      </trkpt>
      <trkpt lat="45.39079" lon="4.10001">
        <ele>848</ele>
        <time>2012-03-26T10:13:50.000Z</time>
      </trkpt>
      <trkpt lat="45.39066" lon="4.10004">
        <ele>850</ele>
        <time>2012-03-26T10:13:54.000Z</time>
      </trkpt>
      <trkpt lat="45.39054" lon="4.10006">
        <ele>851</ele>
        <time>2012-03-26T10:13:58.000Z</time>
      </trkpt>
      <trkpt lat="45.39041" lon="4.10008">
        <ele>850</ele>
        <time>2012-03-26T10:14:02.000Z</time>
      </trkpt>
      <trkpt lat="45.39029" lon="4.10013">
        <ele>853</ele>
        <time>2012-03-26T10:14:07.000Z</time>
      </trkpt>
      <trkpt lat="45.39017" lon="4.10017">
        <ele>851</ele>
        <time>2012-03-26T10:14:11.000Z</time>
      </trkpt>
      <trkpt lat="45.39007" lon="4.10021">
        <ele>854</ele>
        <time>2012-03-26T10:14:14.000Z</time>
      </trkpt>
      <trkpt lat="45.38996" lon="4.10027">
        <ele>860</ele>
        <time>2012-03-26T10:14:18.000Z</time>
      </trkpt>
      <trkpt lat="45.38988" lon="4.10035">
        <ele>855</ele>
        <time>2012-03-26T10:14:22.000Z</time>
      </trkpt>
      <trkpt lat="45.38978" lon="4.10051">
        <ele>855</ele>
        <time>2012-03-26T10:14:29.000Z</time>
      </trkpt>
      <trkpt lat="45.38969" lon="4.10058">
        <ele>856</ele>
        <time>2012-03-26T10:14:33.000Z</time>
      </trkpt>
      <trkpt lat="45.38961" lon="4.10069">
        <ele>856</ele>
        <time>2012-03-26T10:14:37.000Z</time>
      </trkpt>
      <trkpt lat="45.38954" lon="4.10079">
        <ele>855</ele>
        <time>2012-03-26T10:14:41.000Z</time>
      </trkpt>
      <trkpt lat="45.38947" lon="4.10091">
        <ele>855</ele>
        <time>2012-03-26T10:14:45.000Z</time>
      </trkpt>
      <trkpt lat="45.3894" lon="4.10101">
        <ele>854</ele>
        <time>2012-03-26T10:14:49.000Z</time>
      </trkpt>
      <trkpt lat="45.38931" lon="4.10113">
        <ele>855</ele>
        <time>2012-03-26T10:14:54.000Z</time>
      </trkpt>
      <trkpt lat="45.38924" lon="4.10126">
        <ele>857</ele>
        <time>2012-03-26T10:14:59.000Z</time>
      </trkpt>
      <trkpt lat="45.38919" lon="4.10139">
        <ele>857</ele>
        <time>2012-03-26T10:15:03.000Z</time>
      </trkpt>
      <trkpt lat="45.38914" lon="4.10152">
        <ele>857</ele>
        <time>2012-03-26T10:15:07.000Z</time>
      </trkpt>
      <trkpt lat="45.3891" lon="4.10165">
        <ele>858</ele>
        <time>2012-03-26T10:15:11.000Z</time>
      </trkpt>
      <trkpt lat="45.38907" lon="4.10182">
        <ele>862</ele>
        <time>2012-03-26T10:15:16.000Z</time>
      </trkpt>
      <trkpt lat="45.38905" lon="4.10204">
        <ele>862</ele>
        <time>2012-03-26T10:15:20.000Z</time>
      </trkpt>
      <trkpt lat="45.38902" lon="4.10222">
        <ele>863</ele>
        <time>2012-03-26T10:15:23.000Z</time>
      </trkpt>
      <trkpt lat="45.38899" lon="4.10237">
        <ele>862</ele>
        <time>2012-03-26T10:15:25.000Z</time>
      </trkpt>
      <trkpt lat="45.38896" lon="4.10254">
        <ele>861</ele>
        <time>2012-03-26T10:15:27.000Z</time>
      </trkpt>
      <trkpt lat="45.38895" lon="4.10271">
        <ele>859</ele>
        <time>2012-03-26T10:15:29.000Z</time>
      </trkpt>
      <trkpt lat="45.38894" lon="4.10286">
        <ele>859</ele>
        <time>2012-03-26T10:15:31.000Z</time>
      </trkpt>
      <trkpt lat="45.38894" lon="4.10302">
        <ele>859</ele>
        <time>2012-03-26T10:15:33.000Z</time>
      </trkpt>
      <trkpt lat="45.38893" lon="4.10319">
        <ele>858</ele>
        <time>2012-03-26T10:15:35.000Z</time>
      </trkpt>
      <trkpt lat="45.38892" lon="4.10335">
        <ele>857</ele>
        <time>2012-03-26T10:15:37.000Z</time>
      </trkpt>
      <trkpt lat="45.38893" lon="4.10351">
        <ele>857</ele>
        <time>2012-03-26T10:15:39.000Z</time>
      </trkpt>
      <trkpt lat="45.38894" lon="4.10367">
        <ele>856</ele>
        <time>2012-03-26T10:15:41.000Z</time>
      </trkpt>
      <trkpt lat="45.38895" lon="4.10383">
        <ele>857</ele>
        <time>2012-03-26T10:15:43.000Z</time>
      </trkpt>
      <trkpt lat="45.38896" lon="4.10398">
        <ele>858</ele>
        <time>2012-03-26T10:15:45.000Z</time>
      </trkpt>
      <trkpt lat="45.38898" lon="4.10414">
        <ele>859</ele>
        <time>2012-03-26T10:15:47.000Z</time>
      </trkpt>
      <trkpt lat="45.389" lon="4.1043">
        <ele>859</ele>
        <time>2012-03-26T10:15:49.000Z</time>
      </trkpt>
      <trkpt lat="45.38903" lon="4.10444">
        <ele>860</ele>
        <time>2012-03-26T10:15:51.000Z</time>
      </trkpt>
      <trkpt lat="45.38906" lon="4.10457">
        <ele>856</ele>
        <time>2012-03-26T10:15:53.000Z</time>
      </trkpt>
      <trkpt lat="45.38908" lon="4.10471">
        <ele>857</ele>
        <time>2012-03-26T10:15:55.000Z</time>
      </trkpt>
      <trkpt lat="45.3891" lon="4.10487">
        <ele>858</ele>
        <time>2012-03-26T10:15:57.000Z</time>
      </trkpt>
      <trkpt lat="45.3891" lon="4.10502">
        <ele>858</ele>
        <time>2012-03-26T10:15:59.000Z</time>
      </trkpt>
      <trkpt lat="45.3891" lon="4.10517">
        <ele>856</ele>
        <time>2012-03-26T10:16:01.000Z</time>
      </trkpt>
      <trkpt lat="45.38909" lon="4.10534">
        <ele>857</ele>
        <time>2012-03-26T10:16:03.000Z</time>
      </trkpt>
      <trkpt lat="45.38906" lon="4.10552">
        <ele>855</ele>
        <time>2012-03-26T10:16:05.000Z</time>
      </trkpt>
      <trkpt lat="45.38903" lon="4.1057">
        <ele>855</ele>
        <time>2012-03-26T10:16:07.000Z</time>
      </trkpt>
      <trkpt lat="45.38903" lon="4.10587">
        <ele>855</ele>
        <time>2012-03-26T10:16:09.000Z</time>
      </trkpt>
      <trkpt lat="45.38904" lon="4.10606">
        <ele>854</ele>
        <time>2012-03-26T10:16:11.000Z</time>
      </trkpt>
      <trkpt lat="45.38907" lon="4.10625">
        <ele>853</ele>
        <time>2012-03-26T10:16:13.000Z</time>
      </trkpt>
      <trkpt lat="45.3891" lon="4.10645">
        <ele>854</ele>
        <time>2012-03-26T10:16:15.000Z</time>
      </trkpt>
      <trkpt lat="45.38909" lon="4.10669">
        <ele>853</ele>
        <time>2012-03-26T10:16:17.000Z</time>
      </trkpt>
      <trkpt lat="45.38907" lon="4.10692">
        <ele>850</ele>
        <time>2012-03-26T10:16:19.000Z</time>
      </trkpt>
      <trkpt lat="45.38903" lon="4.10714">
        <ele>847</ele>
        <time>2012-03-26T10:16:21.000Z</time>
      </trkpt>
      <trkpt lat="45.38898" lon="4.10733">
        <ele>848</ele>
        <time>2012-03-26T10:16:23.000Z</time>
      </trkpt>
      <trkpt lat="45.38891" lon="4.10751">
        <ele>848</ele>
        <time>2012-03-26T10:16:25.000Z</time>
      </trkpt>
      <trkpt lat="45.38883" lon="4.10768">
        <ele>849</ele>
        <time>2012-03-26T10:16:27.000Z</time>
      </trkpt>
      <trkpt lat="45.38875" lon="4.10785">
        <ele>846</ele>
        <time>2012-03-26T10:16:29.000Z</time>
      </trkpt>
      <trkpt lat="45.38866" lon="4.10802">
        <ele>845</ele>
        <time>2012-03-26T10:16:31.000Z</time>
      </trkpt>
      <trkpt lat="45.3886" lon="4.10813">
        <ele>846</ele>
        <time>2012-03-26T10:16:32.000Z</time>
      </trkpt>
      <trkpt lat="45.38854" lon="4.10823">
        <ele>844</ele>
        <time>2012-03-26T10:16:33.000Z</time>
      </trkpt>
      <trkpt lat="45.38848" lon="4.10833">
        <ele>844</ele>
        <time>2012-03-26T10:16:34.000Z</time>
      </trkpt>
      <trkpt lat="45.38842" lon="4.10844">
        <ele>842</ele>
        <time>2012-03-26T10:16:35.000Z</time>
      </trkpt>
      <trkpt lat="45.38836" lon="4.10855">
        <ele>843</ele>
        <time>2012-03-26T10:16:36.000Z</time>
      </trkpt>
      <trkpt lat="45.3883" lon="4.10866">
        <ele>842</ele>
        <time>2012-03-26T10:16:37.000Z</time>
      </trkpt>
      <trkpt lat="45.38823" lon="4.10877">
        <ele>840</ele>
        <time>2012-03-26T10:16:38.000Z</time>
      </trkpt>
      <trkpt lat="45.38817" lon="4.10889">
        <ele>839</ele>
        <time>2012-03-26T10:16:39.000Z</time>
      </trkpt>
      <trkpt lat="45.38811" lon="4.109">
        <ele>837</ele>
        <time>2012-03-26T10:16:40.000Z</time>
      </trkpt>
      <trkpt lat="45.38806" lon="4.10912">
        <ele>836</ele>
        <time>2012-03-26T10:16:41.000Z</time>
      </trkpt>
      <trkpt lat="45.38801" lon="4.10923">
        <ele>835</ele>
        <time>2012-03-26T10:16:42.000Z</time>
      </trkpt>
      <trkpt lat="45.38796" lon="4.10934">
        <ele>834</ele>
        <time>2012-03-26T10:16:43.000Z</time>
      </trkpt>
      <trkpt lat="45.3879" lon="4.10946">
        <ele>833</ele>
        <time>2012-03-26T10:16:44.000Z</time>
      </trkpt>
      <trkpt lat="45.38785" lon="4.10958">
        <ele>831</ele>
        <time>2012-03-26T10:16:45.000Z</time>
      </trkpt>
      <trkpt lat="45.38779" lon="4.1097">
        <ele>830</ele>
        <time>2012-03-26T10:16:46.000Z</time>
      </trkpt>
      <trkpt lat="45.38774" lon="4.10982">
        <ele>829</ele>
        <time>2012-03-26T10:16:47.000Z</time>
      </trkpt>
      <trkpt lat="45.38768" lon="4.10993">
        <ele>828</ele>
        <time>2012-03-26T10:16:48.000Z</time>
      </trkpt>
      <trkpt lat="45.38763" lon="4.11005">
        <ele>828</ele>
        <time>2012-03-26T10:16:49.000Z</time>
      </trkpt>
      <trkpt lat="45.38758" lon="4.11017">
        <ele>827</ele>
        <time>2012-03-26T10:16:50.000Z</time>
      </trkpt>
      <trkpt lat="45.38753" lon="4.11028">
        <ele>827</ele>
        <time>2012-03-26T10:16:51.000Z</time>
      </trkpt>
      <trkpt lat="45.38751" lon="4.11041">
        <ele>827</ele>
        <time>2012-03-26T10:16:52.000Z</time>
      </trkpt>
      <trkpt lat="45.38749" lon="4.11066">
        <ele>826</ele>
        <time>2012-03-26T10:16:54.000Z</time>
      </trkpt>
      <trkpt lat="45.38749" lon="4.11092">
        <ele>824</ele>
        <time>2012-03-26T10:16:56.000Z</time>
      </trkpt>
      <trkpt lat="45.38748" lon="4.11106">
        <ele>824</ele>
        <time>2012-03-26T10:16:57.000Z</time>
      </trkpt>
      <trkpt lat="45.38747" lon="4.1112">
        <ele>823</ele>
        <time>2012-03-26T10:16:58.000Z</time>
      </trkpt>
      <trkpt lat="45.38745" lon="4.11144">
        <ele>821</ele>
        <time>2012-03-26T10:17:00.000Z</time>
      </trkpt>
      <trkpt lat="45.38743" lon="4.11166">
        <ele>819</ele>
        <time>2012-03-26T10:17:02.000Z</time>
      </trkpt>
      <trkpt lat="45.38742" lon="4.11185">
        <ele>820</ele>
        <time>2012-03-26T10:17:04.000Z</time>
      </trkpt>
      <trkpt lat="45.38744" lon="4.112">
        <ele>822</ele>
        <time>2012-03-26T10:17:06.000Z</time>
      </trkpt>
      <trkpt lat="45.38746" lon="4.11213">
        <ele>815</ele>
        <time>2012-03-26T10:17:09.000Z</time>
      </trkpt>
      <trkpt lat="45.38749" lon="4.1123">
        <ele>824</ele>
        <time>2012-03-26T10:17:14.000Z</time>
      </trkpt>
      <trkpt lat="45.3875" lon="4.11245">
        <ele>825</ele>
        <time>2012-03-26T10:17:18.000Z</time>
      </trkpt>
      <trkpt lat="45.3875" lon="4.11263">
        <ele>830</ele>
        <time>2012-03-26T10:17:24.000Z</time>
      </trkpt>
      <trkpt lat="45.3875" lon="4.11277">
        <ele>829</ele>
        <time>2012-03-26T10:17:28.000Z</time>
      </trkpt>
      <trkpt lat="45.38748" lon="4.11291">
        <ele>831</ele>
        <time>2012-03-26T10:17:32.000Z</time>
      </trkpt>
      <trkpt lat="45.38746" lon="4.11306">
        <ele>831</ele>
        <time>2012-03-26T10:17:36.000Z</time>
      </trkpt>
      <trkpt lat="45.38744" lon="4.11321">
        <ele>831</ele>
        <time>2012-03-26T10:17:40.000Z</time>
      </trkpt>
      <trkpt lat="45.38741" lon="4.11336">
        <ele>831</ele>
        <time>2012-03-26T10:17:44.000Z</time>
      </trkpt>
      <trkpt lat="45.38738" lon="4.11351">
        <ele>833</ele>
        <time>2012-03-26T10:17:48.000Z</time>
      </trkpt>
      <trkpt lat="45.38734" lon="4.11365">
        <ele>830</ele>
        <time>2012-03-26T10:17:52.000Z</time>
      </trkpt>
      <trkpt lat="45.38729" lon="4.1138">
        <ele>832</ele>
        <time>2012-03-26T10:17:56.000Z</time>
      </trkpt>
      <trkpt lat="45.38725" lon="4.11397">
        <ele>831</ele>
        <time>2012-03-26T10:18:00.000Z</time>
      </trkpt>
      <trkpt lat="45.38721" lon="4.11418">
        <ele>836</ele>
        <time>2012-03-26T10:18:04.000Z</time>
      </trkpt>
      <trkpt lat="45.38716" lon="4.11436">
        <ele>829</ele>
        <time>2012-03-26T10:18:08.000Z</time>
      </trkpt>
      <trkpt lat="45.38711" lon="4.11448">
        <ele>831</ele>
        <time>2012-03-26T10:18:12.000Z</time>
      </trkpt>
      <trkpt lat="45.38707" lon="4.11469">
        <ele>837</ele>
        <time>2012-03-26T10:18:16.000Z</time>
      </trkpt>
      <trkpt lat="45.38701" lon="4.11491">
        <ele>837</ele>
        <time>2012-03-26T10:18:20.000Z</time>
      </trkpt>
      <trkpt lat="45.38696" lon="4.11509">
        <ele>840</ele>
        <time>2012-03-26T10:18:24.000Z</time>
      </trkpt>
      <trkpt lat="45.38683" lon="4.11522">
        <ele>832</ele>
        <time>2012-03-26T10:18:28.000Z</time>
      </trkpt>
      <trkpt lat="45.38671" lon="4.11517">
        <ele>835</ele>
        <time>2012-03-26T10:18:32.000Z</time>
      </trkpt>
      <trkpt lat="45.38657" lon="4.11514">
        <ele>835</ele>
        <time>2012-03-26T10:18:36.000Z</time>
      </trkpt>
      <trkpt lat="45.38645" lon="4.11517">
        <ele>835</ele>
        <time>2012-03-26T10:18:40.000Z</time>
      </trkpt>
      <trkpt lat="45.38635" lon="4.11521">
        <ele>837</ele>
        <time>2012-03-26T10:18:44.000Z</time>
      </trkpt>
      <trkpt lat="45.38625" lon="4.11528">
        <ele>839</ele>
        <time>2012-03-26T10:18:48.000Z</time>
      </trkpt>
      <trkpt lat="45.38614" lon="4.11532">
        <ele>839</ele>
        <time>2012-03-26T10:18:52.000Z</time>
      </trkpt>
      <trkpt lat="45.38604" lon="4.11536">
        <ele>839</ele>
        <time>2012-03-26T10:18:56.000Z</time>
      </trkpt>
      <trkpt lat="45.38594" lon="4.1154">
        <ele>840</ele>
        <time>2012-03-26T10:19:00.000Z</time>
      </trkpt>
      <trkpt lat="45.38582" lon="4.11542">
        <ele>844</ele>
        <time>2012-03-26T10:19:04.000Z</time>
      </trkpt>
      <trkpt lat="45.38569" lon="4.11544">
        <ele>842</ele>
        <time>2012-03-26T10:19:09.000Z</time>
      </trkpt>
      <trkpt lat="45.38554" lon="4.11552">
        <ele>842</ele>
        <time>2012-03-26T10:19:16.000Z</time>
      </trkpt>
      <trkpt lat="45.3854" lon="4.11556">
        <ele>841</ele>
        <time>2012-03-26T10:19:20.000Z</time>
      </trkpt>
      <trkpt lat="45.38529" lon="4.11559">
        <ele>842</ele>
        <time>2012-03-26T10:19:24.000Z</time>
      </trkpt>
      <trkpt lat="45.38516" lon="4.11562">
        <ele>845</ele>
        <time>2012-03-26T10:19:28.000Z</time>
      </trkpt>
      <trkpt lat="45.38502" lon="4.11564">
        <ele>844</ele>
        <time>2012-03-26T10:19:32.000Z</time>
      </trkpt>
      <trkpt lat="45.3849" lon="4.11565">
        <ele>845</ele>
        <time>2012-03-26T10:19:36.000Z</time>
      </trkpt>
      <trkpt lat="45.38476" lon="4.11564">
        <ele>847</ele>
        <time>2012-03-26T10:19:40.000Z</time>
      </trkpt>
      <trkpt lat="45.38462" lon="4.11563">
        <ele>846</ele>
        <time>2012-03-26T10:19:44.000Z</time>
      </trkpt>
      <trkpt lat="45.3845" lon="4.11562">
        <ele>845</ele>
        <time>2012-03-26T10:19:48.000Z</time>
      </trkpt>
      <trkpt lat="45.38436" lon="4.11561">
        <ele>845</ele>
        <time>2012-03-26T10:19:52.000Z</time>
      </trkpt>
      <trkpt lat="45.38421" lon="4.11559">
        <ele>846</ele>
        <time>2012-03-26T10:19:56.000Z</time>
      </trkpt>
      <trkpt lat="45.38403" lon="4.11556">
        <ele>845</ele>
        <time>2012-03-26T10:20:00.000Z</time>
      </trkpt>
      <trkpt lat="45.38393" lon="4.11554">
        <ele>844</ele>
        <time>2012-03-26T10:20:02.000Z</time>
      </trkpt>
      <trkpt lat="45.38382" lon="4.11551">
        <ele>843</ele>
        <time>2012-03-26T10:20:04.000Z</time>
      </trkpt>
      <trkpt lat="45.38371" lon="4.11548">
        <ele>843</ele>
        <time>2012-03-26T10:20:06.000Z</time>
      </trkpt>
      <trkpt lat="45.3836" lon="4.11544">
        <ele>844</ele>
        <time>2012-03-26T10:20:08.000Z</time>
      </trkpt>
      <trkpt lat="45.38349" lon="4.11539">
        <ele>844</ele>
        <time>2012-03-26T10:20:10.000Z</time>
      </trkpt>
      <trkpt lat="45.38339" lon="4.11535">
        <ele>843</ele>
        <time>2012-03-26T10:20:12.000Z</time>
      </trkpt>
      <trkpt lat="45.38328" lon="4.11531">
        <ele>844</ele>
        <time>2012-03-26T10:20:14.000Z</time>
      </trkpt>
      <trkpt lat="45.38318" lon="4.11528">
        <ele>844</ele>
        <time>2012-03-26T10:20:16.000Z</time>
      </trkpt>
      <trkpt lat="45.38307" lon="4.11527">
        <ele>842</ele>
        <time>2012-03-26T10:20:18.000Z</time>
      </trkpt>
      <trkpt lat="45.38296" lon="4.11526">
        <ele>841</ele>
        <time>2012-03-26T10:20:20.000Z</time>
      </trkpt>
      <trkpt lat="45.38284" lon="4.11526">
        <ele>841</ele>
        <time>2012-03-26T10:20:22.000Z</time>
      </trkpt>
      <trkpt lat="45.38273" lon="4.11528">
        <ele>840</ele>
        <time>2012-03-26T10:20:24.000Z</time>
      </trkpt>
      <trkpt lat="45.38262" lon="4.1153">
        <ele>840</ele>
        <time>2012-03-26T10:20:26.000Z</time>
      </trkpt>
      <trkpt lat="45.38251" lon="4.11534">
        <ele>841</ele>
        <time>2012-03-26T10:20:28.000Z</time>
      </trkpt>
      <trkpt lat="45.3824" lon="4.11538">
        <ele>843</ele>
        <time>2012-03-26T10:20:30.000Z</time>
      </trkpt>
      <trkpt lat="45.38232" lon="4.11544">
        <ele>843</ele>
        <time>2012-03-26T10:20:32.000Z</time>
      </trkpt>
      <trkpt lat="45.38223" lon="4.11551">
        <ele>843</ele>
        <time>2012-03-26T10:20:34.000Z</time>
      </trkpt>
      <trkpt lat="45.38212" lon="4.1156">
        <ele>844</ele>
        <time>2012-03-26T10:20:37.000Z</time>
      </trkpt>
      <trkpt lat="45.38202" lon="4.11566">
        <ele>841</ele>
        <time>2012-03-26T10:20:39.000Z</time>
      </trkpt>
      <trkpt lat="45.38187" lon="4.11574">
        <ele>843</ele>
        <time>2012-03-26T10:20:43.000Z</time>
      </trkpt>
      <trkpt lat="45.38173" lon="4.11577">
        <ele>844</ele>
        <time>2012-03-26T10:20:47.000Z</time>
      </trkpt>
      <trkpt lat="45.3816" lon="4.11581">
        <ele>845</ele>
        <time>2012-03-26T10:20:50.000Z</time>
      </trkpt>
      <trkpt lat="45.38146" lon="4.11586">
        <ele>844</ele>
        <time>2012-03-26T10:20:53.000Z</time>
      </trkpt>
      <trkpt lat="45.38133" lon="4.1159">
        <ele>844</ele>
        <time>2012-03-26T10:20:56.000Z</time>
      </trkpt>
      <trkpt lat="45.38119" lon="4.11592">
        <ele>845</ele>
        <time>2012-03-26T10:20:59.000Z</time>
      </trkpt>
      <trkpt lat="45.38109" lon="4.11593">
        <ele>844</ele>
        <time>2012-03-26T10:21:01.000Z</time>
      </trkpt>
      <trkpt lat="45.38099" lon="4.11594">
        <ele>843</ele>
        <time>2012-03-26T10:21:03.000Z</time>
      </trkpt>
      <trkpt lat="45.3809" lon="4.11595">
        <ele>843</ele>
        <time>2012-03-26T10:21:05.000Z</time>
      </trkpt>
      <trkpt lat="45.3808" lon="4.11597">
        <ele>844</ele>
        <time>2012-03-26T10:21:07.000Z</time>
      </trkpt>
      <trkpt lat="45.38071" lon="4.116">
        <ele>844</ele>
        <time>2012-03-26T10:21:09.000Z</time>
      </trkpt>
      <trkpt lat="45.38058" lon="4.11606">
        <ele>844</ele>
        <time>2012-03-26T10:21:12.000Z</time>
      </trkpt>
      <trkpt lat="45.38045" lon="4.11616">
        <ele>845</ele>
        <time>2012-03-26T10:21:16.000Z</time>
      </trkpt>
      <trkpt lat="45.38037" lon="4.11626">
        <ele>846</ele>
        <time>2012-03-26T10:21:20.000Z</time>
      </trkpt>
      <trkpt lat="45.3803" lon="4.11636">
        <ele>848</ele>
        <time>2012-03-26T10:21:24.000Z</time>
      </trkpt>
      <trkpt lat="45.38018" lon="4.11642">
        <ele>846</ele>
        <time>2012-03-26T10:21:29.000Z</time>
      </trkpt>
      <trkpt lat="45.38012" lon="4.11654">
        <ele>849</ele>
        <time>2012-03-26T10:21:34.000Z</time>
      </trkpt>
      <trkpt lat="45.3801" lon="4.11672">
        <ele>849</ele>
        <time>2012-03-26T10:21:38.000Z</time>
      </trkpt>
      <trkpt lat="45.38009" lon="4.11691">
        <ele>849</ele>
        <time>2012-03-26T10:21:42.000Z</time>
      </trkpt>
      <trkpt lat="45.38007" lon="4.11712">
        <ele>848</ele>
        <time>2012-03-26T10:21:46.000Z</time>
      </trkpt>
      <trkpt lat="45.38004" lon="4.11734">
        <ele>847</ele>
        <time>2012-03-26T10:21:50.000Z</time>
      </trkpt>
      <trkpt lat="45.38002" lon="4.11755">
        <ele>846</ele>
        <time>2012-03-26T10:21:54.000Z</time>
      </trkpt>
      <trkpt lat="45.38002" lon="4.11776">
        <ele>847</ele>
        <time>2012-03-26T10:21:58.000Z</time>
      </trkpt>
      <trkpt lat="45.38002" lon="4.11796">
        <ele>848</ele>
        <time>2012-03-26T10:22:02.000Z</time>
      </trkpt>
      <trkpt lat="45.38001" lon="4.11816">
        <ele>849</ele>
        <time>2012-03-26T10:22:06.000Z</time>
      </trkpt>
      <trkpt lat="45.38" lon="4.11837">
        <ele>849</ele>
        <time>2012-03-26T10:22:10.000Z</time>
      </trkpt>
      <trkpt lat="45.37999" lon="4.11858">
        <ele>850</ele>
        <time>2012-03-26T10:22:14.000Z</time>
      </trkpt>
      <trkpt lat="45.37998" lon="4.11878">
        <ele>851</ele>
        <time>2012-03-26T10:22:18.000Z</time>
      </trkpt>
      <trkpt lat="45.37996" lon="4.11899">
        <ele>851</ele>
        <time>2012-03-26T10:22:22.000Z</time>
      </trkpt>
      <trkpt lat="45.37995" lon="4.11919">
        <ele>852</ele>
        <time>2012-03-26T10:22:26.000Z</time>
      </trkpt>
      <trkpt lat="45.37993" lon="4.11937">
        <ele>852</ele>
        <time>2012-03-26T10:22:30.000Z</time>
      </trkpt>
      <trkpt lat="45.37992" lon="4.11953">
        <ele>854</ele>
        <time>2012-03-26T10:22:34.000Z</time>
      </trkpt>
      <trkpt lat="45.37988" lon="4.11967">
        <ele>856</ele>
        <time>2012-03-26T10:22:39.000Z</time>
      </trkpt>
      <trkpt lat="45.37988" lon="4.11981">
        <ele>847</ele>
        <time>2012-03-26T10:24:53.000Z</time>
      </trkpt>
      <trkpt lat="45.37992" lon="4.11998">
        <ele>851</ele>
        <time>2012-03-26T10:24:59.000Z</time>
      </trkpt>
      <trkpt lat="45.37992" lon="4.12015">
        <ele>851</ele>
        <time>2012-03-26T10:25:03.000Z</time>
      </trkpt>
      <trkpt lat="45.37994" lon="4.12033">
        <ele>852</ele>
        <time>2012-03-26T10:25:07.000Z</time>
      </trkpt>
      <trkpt lat="45.37995" lon="4.12055">
        <ele>853</ele>
        <time>2012-03-26T10:25:11.000Z</time>
      </trkpt>
      <trkpt lat="45.37996" lon="4.12072">
        <ele>852</ele>
        <time>2012-03-26T10:25:14.000Z</time>
      </trkpt>
      <trkpt lat="45.37997" lon="4.12096">
        <ele>853</ele>
        <time>2012-03-26T10:25:18.000Z</time>
      </trkpt>
      <trkpt lat="45.37999" lon="4.12114">
        <ele>853</ele>
        <time>2012-03-26T10:25:21.000Z</time>
      </trkpt>
      <trkpt lat="45.38" lon="4.12133">
        <ele>853</ele>
        <time>2012-03-26T10:25:24.000Z</time>
      </trkpt>
      <trkpt lat="45.38001" lon="4.12157">
        <ele>855</ele>
        <time>2012-03-26T10:25:28.000Z</time>
      </trkpt>
      <trkpt lat="45.38002" lon="4.1217">
        <ele>855</ele>
        <time>2012-03-26T10:25:30.000Z</time>
      </trkpt>
      <trkpt lat="45.38003" lon="4.12189">
        <ele>856</ele>
        <time>2012-03-26T10:25:33.000Z</time>
      </trkpt>
      <trkpt lat="45.38004" lon="4.12202">
        <ele>856</ele>
        <time>2012-03-26T10:25:35.000Z</time>
      </trkpt>
      <trkpt lat="45.38005" lon="4.12215">
        <ele>858</ele>
        <time>2012-03-26T10:25:37.000Z</time>
      </trkpt>
      <trkpt lat="45.38007" lon="4.12234">
        <ele>857</ele>
        <time>2012-03-26T10:25:40.000Z</time>
      </trkpt>
      <trkpt lat="45.38009" lon="4.12247">
        <ele>858</ele>
        <time>2012-03-26T10:25:42.000Z</time>
      </trkpt>
      <trkpt lat="45.38012" lon="4.12259">
        <ele>858</ele>
        <time>2012-03-26T10:25:44.000Z</time>
      </trkpt>
      <trkpt lat="45.38016" lon="4.12271">
        <ele>858</ele>
        <time>2012-03-26T10:25:46.000Z</time>
      </trkpt>
      <trkpt lat="45.38021" lon="4.12283">
        <ele>858</ele>
        <time>2012-03-26T10:25:48.000Z</time>
      </trkpt>
      <trkpt lat="45.38026" lon="4.12294">
        <ele>858</ele>
        <time>2012-03-26T10:25:50.000Z</time>
      </trkpt>
      <trkpt lat="45.38037" lon="4.12312">
        <ele>860</ele>
        <time>2012-03-26T10:25:54.000Z</time>
      </trkpt>
      <trkpt lat="45.3805" lon="4.12327">
        <ele>861</ele>
        <time>2012-03-26T10:25:58.000Z</time>
      </trkpt>
      <trkpt lat="45.38065" lon="4.12339">
        <ele>861</ele>
        <time>2012-03-26T10:26:02.000Z</time>
      </trkpt>
      <trkpt lat="45.38073" lon="4.12344">
        <ele>861</ele>
        <time>2012-03-26T10:26:04.000Z</time>
      </trkpt>
      <trkpt lat="45.38082" lon="4.12348">
        <ele>861</ele>
        <time>2012-03-26T10:26:06.000Z</time>
      </trkpt>
      <trkpt lat="45.38095" lon="4.12352">
        <ele>861</ele>
        <time>2012-03-26T10:26:09.000Z</time>
      </trkpt>
      <trkpt lat="45.38108" lon="4.12354">
        <ele>861</ele>
        <time>2012-03-26T10:26:12.000Z</time>
      </trkpt>
      <trkpt lat="45.38117" lon="4.12354">
        <ele>862</ele>
        <time>2012-03-26T10:26:14.000Z</time>
      </trkpt>
      <trkpt lat="45.38131" lon="4.12354">
        <ele>862</ele>
        <time>2012-03-26T10:26:17.000Z</time>
      </trkpt>
      <trkpt lat="45.3814" lon="4.12354">
        <ele>861</ele>
        <time>2012-03-26T10:26:19.000Z</time>
      </trkpt>
      <trkpt lat="45.3815" lon="4.12353">
        <ele>861</ele>
        <time>2012-03-26T10:26:20.999Z</time>
      </trkpt>
      <trkpt lat="45.38163" lon="4.12351">
        <ele>865</ele>
        <time>2012-03-26T10:26:24.000Z</time>
      </trkpt>
      <trkpt lat="45.38172" lon="4.1235">
        <ele>862</ele>
        <time>2012-03-26T10:26:26.000Z</time>
      </trkpt>
      <trkpt lat="45.38182" lon="4.12348">
        <ele>863</ele>
        <time>2012-03-26T10:26:28.000Z</time>
      </trkpt>
      <trkpt lat="45.38192" lon="4.12346">
        <ele>863</ele>
        <time>2012-03-26T10:26:30.000Z</time>
      </trkpt>
      <trkpt lat="45.38202" lon="4.12344">
        <ele>862</ele>
        <time>2012-03-26T10:26:32.000Z</time>
      </trkpt>
      <trkpt lat="45.38212" lon="4.12342">
        <ele>861</ele>
        <time>2012-03-26T10:26:34.000Z</time>
      </trkpt>
      <trkpt lat="45.38223" lon="4.12339">
        <ele>861</ele>
        <time>2012-03-26T10:26:36.000Z</time>
      </trkpt>
      <trkpt lat="45.38233" lon="4.12338">
        <ele>860</ele>
        <time>2012-03-26T10:26:38.000Z</time>
      </trkpt>
      <trkpt lat="45.38243" lon="4.12337">
        <ele>860</ele>
        <time>2012-03-26T10:26:40.000Z</time>
      </trkpt>
      <trkpt lat="45.38253" lon="4.12337">
        <ele>859</ele>
        <time>2012-03-26T10:26:42.000Z</time>
      </trkpt>
      <trkpt lat="45.38264" lon="4.12339">
        <ele>859</ele>
        <time>2012-03-26T10:26:44.000Z</time>
      </trkpt>
      <trkpt lat="45.38277" lon="4.12342">
        <ele>857</ele>
        <time>2012-03-26T10:26:46.000Z</time>
      </trkpt>
      <trkpt lat="45.38288" lon="4.12348">
        <ele>858</ele>
        <time>2012-03-26T10:26:48.000Z</time>
      </trkpt>
      <trkpt lat="45.38298" lon="4.12356">
        <ele>858</ele>
        <time>2012-03-26T10:26:50.000Z</time>
      </trkpt>
      <trkpt lat="45.38307" lon="4.12367">
        <ele>859</ele>
        <time>2012-03-26T10:26:52.000Z</time>
      </trkpt>
      <trkpt lat="45.38316" lon="4.12381">
        <ele>858</ele>
        <time>2012-03-26T10:26:54.000Z</time>
      </trkpt>
      <trkpt lat="45.38322" lon="4.12397">
        <ele>858</ele>
        <time>2012-03-26T10:26:56.000Z</time>
      </trkpt>
      <trkpt lat="45.38328" lon="4.12415">
        <ele>858</ele>
        <time>2012-03-26T10:26:58.000Z</time>
      </trkpt>
      <trkpt lat="45.38331" lon="4.12434">
        <ele>858</ele>
        <time>2012-03-26T10:27:00.000Z</time>
      </trkpt>
      <trkpt lat="45.38333" lon="4.12452">
        <ele>858</ele>
        <time>2012-03-26T10:27:02.000Z</time>
      </trkpt>
      <trkpt lat="45.38334" lon="4.1247">
        <ele>858</ele>
        <time>2012-03-26T10:27:04.000Z</time>
      </trkpt>
      <trkpt lat="45.38335" lon="4.12487">
        <ele>858</ele>
        <time>2012-03-26T10:27:06.000Z</time>
      </trkpt>
      <trkpt lat="45.38335" lon="4.12505">
        <ele>859</ele>
        <time>2012-03-26T10:27:08.000Z</time>
      </trkpt>
      <trkpt lat="45.38335" lon="4.12522">
        <ele>859</ele>
        <time>2012-03-26T10:27:10.000Z</time>
      </trkpt>
      <trkpt lat="45.38335" lon="4.12539">
        <ele>859</ele>
        <time>2012-03-26T10:27:12.000Z</time>
      </trkpt>
      <trkpt lat="45.38335" lon="4.12556">
        <ele>858</ele>
        <time>2012-03-26T10:27:14.000Z</time>
      </trkpt>
      <trkpt lat="45.38334" lon="4.12574">
        <ele>858</ele>
        <time>2012-03-26T10:27:16.000Z</time>
      </trkpt>
      <trkpt lat="45.38334" lon="4.12591">
        <ele>859</ele>
        <time>2012-03-26T10:27:18.000Z</time>
      </trkpt>
      <trkpt lat="45.38335" lon="4.12607">
        <ele>859</ele>
        <time>2012-03-26T10:27:20.000Z</time>
      </trkpt>
      <trkpt lat="45.38335" lon="4.12624">
        <ele>859</ele>
        <time>2012-03-26T10:27:22.000Z</time>
      </trkpt>
      <trkpt lat="45.38335" lon="4.12641">
        <ele>859</ele>
        <time>2012-03-26T10:27:24.000Z</time>
      </trkpt>
      <trkpt lat="45.38335" lon="4.12658">
        <ele>859</ele>
        <time>2012-03-26T10:27:26.000Z</time>
      </trkpt>
      <trkpt lat="45.38335" lon="4.12674">
        <ele>859</ele>
        <time>2012-03-26T10:27:28.000Z</time>
      </trkpt>
      <trkpt lat="45.38335" lon="4.1269">
        <ele>859</ele>
        <time>2012-03-26T10:27:30.000Z</time>
      </trkpt>
      <trkpt lat="45.38335" lon="4.12705">
        <ele>859</ele>
        <time>2012-03-26T10:27:32.000Z</time>
      </trkpt>
      <trkpt lat="45.38336" lon="4.1272">
        <ele>859</ele>
        <time>2012-03-26T10:27:34.000Z</time>
      </trkpt>
      <trkpt lat="45.38337" lon="4.12735">
        <ele>860</ele>
        <time>2012-03-26T10:27:36.000Z</time>
      </trkpt>
      <trkpt lat="45.38339" lon="4.12749">
        <ele>860</ele>
        <time>2012-03-26T10:27:38.000Z</time>
      </trkpt>
      <trkpt lat="45.38341" lon="4.12763">
        <ele>860</ele>
        <time>2012-03-26T10:27:40.000Z</time>
      </trkpt>
      <trkpt lat="45.38344" lon="4.12775">
        <ele>860</ele>
        <time>2012-03-26T10:27:42.000Z</time>
      </trkpt>
      <trkpt lat="45.38351" lon="4.12797">
        <ele>861</ele>
        <time>2012-03-26T10:27:46.000Z</time>
      </trkpt>
      <trkpt lat="45.38361" lon="4.12817">
        <ele>863</ele>
        <time>2012-03-26T10:27:50.000Z</time>
      </trkpt>
      <trkpt lat="45.38368" lon="4.12831">
        <ele>863</ele>
        <time>2012-03-26T10:27:53.000Z</time>
      </trkpt>
      <trkpt lat="45.38378" lon="4.12844">
        <ele>863</ele>
        <time>2012-03-26T10:27:57.000Z</time>
      </trkpt>
      <trkpt lat="45.38388" lon="4.12853">
        <ele>864</ele>
        <time>2012-03-26T10:28:01.000Z</time>
      </trkpt>
      <trkpt lat="45.38398" lon="4.12866">
        <ele>865</ele>
        <time>2012-03-26T10:28:05.000Z</time>
      </trkpt>
      <trkpt lat="45.38405" lon="4.12877">
        <ele>866</ele>
        <time>2012-03-26T10:28:07.000Z</time>
      </trkpt>
      <trkpt lat="45.38412" lon="4.12891">
        <ele>865</ele>
        <time>2012-03-26T10:28:10.000Z</time>
      </trkpt>
      <trkpt lat="45.38421" lon="4.12909">
        <ele>867</ele>
        <time>2012-03-26T10:28:14.000Z</time>
      </trkpt>
      <trkpt lat="45.38428" lon="4.12929">
        <ele>865</ele>
        <time>2012-03-26T10:28:18.000Z</time>
      </trkpt>
      <trkpt lat="45.38435" lon="4.1295">
        <ele>866</ele>
        <time>2012-03-26T10:28:22.000Z</time>
      </trkpt>
      <trkpt lat="45.38437" lon="4.12975">
        <ele>865</ele>
        <time>2012-03-26T10:28:26.000Z</time>
      </trkpt>
      <trkpt lat="45.38437" lon="4.12988">
        <ele>865</ele>
        <time>2012-03-26T10:28:28.000Z</time>
      </trkpt>
      <trkpt lat="45.38437" lon="4.13002">
        <ele>866</ele>
        <time>2012-03-26T10:28:30.000Z</time>
      </trkpt>
      <trkpt lat="45.38437" lon="4.13016">
        <ele>865</ele>
        <time>2012-03-26T10:28:32.000Z</time>
      </trkpt>
      <trkpt lat="45.38437" lon="4.13031">
        <ele>865</ele>
        <time>2012-03-26T10:28:34.000Z</time>
      </trkpt>
      <trkpt lat="45.38436" lon="4.13046">
        <ele>866</ele>
        <time>2012-03-26T10:28:36.000Z</time>
      </trkpt>
      <trkpt lat="45.38435" lon="4.1306">
        <ele>866</ele>
        <time>2012-03-26T10:28:38.000Z</time>
      </trkpt>
      <trkpt lat="45.38435" lon="4.13074">
        <ele>866</ele>
        <time>2012-03-26T10:28:40.000Z</time>
      </trkpt>
      <trkpt lat="45.38434" lon="4.1309">
        <ele>864</ele>
        <time>2012-03-26T10:28:42.000Z</time>
      </trkpt>
      <trkpt lat="45.38434" lon="4.13105">
        <ele>862</ele>
        <time>2012-03-26T10:28:44.000Z</time>
      </trkpt>
      <trkpt lat="45.38434" lon="4.1312">
        <ele>863</ele>
        <time>2012-03-26T10:28:46.000Z</time>
      </trkpt>
      <trkpt lat="45.38436" lon="4.13134">
        <ele>865</ele>
        <time>2012-03-26T10:28:48.000Z</time>
      </trkpt>
      <trkpt lat="45.38437" lon="4.13148">
        <ele>865</ele>
        <time>2012-03-26T10:28:50.000Z</time>
      </trkpt>
      <trkpt lat="45.38438" lon="4.1316">
        <ele>865</ele>
        <time>2012-03-26T10:28:52.000Z</time>
      </trkpt>
      <trkpt lat="45.3844" lon="4.13179">
        <ele>864</ele>
        <time>2012-03-26T10:28:55.000Z</time>
      </trkpt>
      <trkpt lat="45.38443" lon="4.13203">
        <ele>865</ele>
        <time>2012-03-26T10:28:59.000Z</time>
      </trkpt>
      <trkpt lat="45.38446" lon="4.13227">
        <ele>864</ele>
        <time>2012-03-26T10:29:03.000Z</time>
      </trkpt>
      <trkpt lat="45.38448" lon="4.1324">
        <ele>863</ele>
        <time>2012-03-26T10:29:05.000Z</time>
      </trkpt>
      <trkpt lat="45.38449" lon="4.13254">
        <ele>864</ele>
        <time>2012-03-26T10:29:07.000Z</time>
      </trkpt>
      <trkpt lat="45.3845" lon="4.13268">
        <ele>865</ele>
        <time>2012-03-26T10:29:09.000Z</time>
      </trkpt>
      <trkpt lat="45.38451" lon="4.13281">
        <ele>865</ele>
        <time>2012-03-26T10:29:11.000Z</time>
      </trkpt>
      <trkpt lat="45.38453" lon="4.13295">
        <ele>866</ele>
        <time>2012-03-26T10:29:13.000Z</time>
      </trkpt>
      <trkpt lat="45.38455" lon="4.13309">
        <ele>867</ele>
        <time>2012-03-26T10:29:15.000Z</time>
      </trkpt>
      <trkpt lat="45.38458" lon="4.13323">
        <ele>867</ele>
        <time>2012-03-26T10:29:17.000Z</time>
      </trkpt>
      <trkpt lat="45.3846" lon="4.13338">
        <ele>869</ele>
        <time>2012-03-26T10:29:19.000Z</time>
      </trkpt>
      <trkpt lat="45.38462" lon="4.13353">
        <ele>872</ele>
        <time>2012-03-26T10:29:21.000Z</time>
      </trkpt>
      <trkpt lat="45.38464" lon="4.13369">
        <ele>871</ele>
        <time>2012-03-26T10:29:23.000Z</time>
      </trkpt>
      <trkpt lat="45.38466" lon="4.13386">
        <ele>870</ele>
        <time>2012-03-26T10:29:25.000Z</time>
      </trkpt>
      <trkpt lat="45.38468" lon="4.13403">
        <ele>872</ele>
        <time>2012-03-26T10:29:27.000Z</time>
      </trkpt>
      <trkpt lat="45.38469" lon="4.1342">
        <ele>872</ele>
        <time>2012-03-26T10:29:29.000Z</time>
      </trkpt>
      <trkpt lat="45.38469" lon="4.13437">
        <ele>871</ele>
        <time>2012-03-26T10:29:31.000Z</time>
      </trkpt>
      <trkpt lat="45.38469" lon="4.13454">
        <ele>872</ele>
        <time>2012-03-26T10:29:33.000Z</time>
      </trkpt>
      <trkpt lat="45.38469" lon="4.13472">
        <ele>874</ele>
        <time>2012-03-26T10:29:35.000Z</time>
      </trkpt>
      <trkpt lat="45.3847" lon="4.1349">
        <ele>875</ele>
        <time>2012-03-26T10:29:37.000Z</time>
      </trkpt>
      <trkpt lat="45.38469" lon="4.13508">
        <ele>869</ele>
        <time>2012-03-26T10:29:39.000Z</time>
      </trkpt>
      <trkpt lat="45.38468" lon="4.13527">
        <ele>871</ele>
        <time>2012-03-26T10:29:41.000Z</time>
      </trkpt>
      <trkpt lat="45.38468" lon="4.13545">
        <ele>870</ele>
        <time>2012-03-26T10:29:43.000Z</time>
      </trkpt>
      <trkpt lat="45.38468" lon="4.13564">
        <ele>867</ele>
        <time>2012-03-26T10:29:45.000Z</time>
      </trkpt>
      <trkpt lat="45.38467" lon="4.13583">
        <ele>866</ele>
        <time>2012-03-26T10:29:47.000Z</time>
      </trkpt>
      <trkpt lat="45.38465" lon="4.13603">
        <ele>861</ele>
        <time>2012-03-26T10:29:49.000Z</time>
      </trkpt>
      <trkpt lat="45.38462" lon="4.13621">
        <ele>861</ele>
        <time>2012-03-26T10:29:51.000Z</time>
      </trkpt>
      <trkpt lat="45.38461" lon="4.1364">
        <ele>860</ele>
        <time>2012-03-26T10:29:53.000Z</time>
      </trkpt>
      <trkpt lat="45.3846" lon="4.13658">
        <ele>860</ele>
        <time>2012-03-26T10:29:55.000Z</time>
      </trkpt>
      <trkpt lat="45.38459" lon="4.13677">
        <ele>862</ele>
        <time>2012-03-26T10:29:57.000Z</time>
      </trkpt>
      <trkpt lat="45.38459" lon="4.13695">
        <ele>862</ele>
        <time>2012-03-26T10:29:59.000Z</time>
      </trkpt>
      <trkpt lat="45.3846" lon="4.13712">
        <ele>862</ele>
        <time>2012-03-26T10:30:01.000Z</time>
      </trkpt>
      <trkpt lat="45.3846" lon="4.1373">
        <ele>862</ele>
        <time>2012-03-26T10:30:03.000Z</time>
      </trkpt>
      <trkpt lat="45.38461" lon="4.13748">
        <ele>862</ele>
        <time>2012-03-26T10:30:05.000Z</time>
      </trkpt>
      <trkpt lat="45.38461" lon="4.13765">
        <ele>863</ele>
        <time>2012-03-26T10:30:07.000Z</time>
      </trkpt>
      <trkpt lat="45.38462" lon="4.13782">
        <ele>862</ele>
        <time>2012-03-26T10:30:09.000Z</time>
      </trkpt>
      <trkpt lat="45.38462" lon="4.13798">
        <ele>862</ele>
        <time>2012-03-26T10:30:11.000Z</time>
      </trkpt>
      <trkpt lat="45.38462" lon="4.13814">
        <ele>865</ele>
        <time>2012-03-26T10:30:13.000Z</time>
      </trkpt>
      <trkpt lat="45.38462" lon="4.1383">
        <ele>866</ele>
        <time>2012-03-26T10:30:15.000Z</time>
      </trkpt>
      <trkpt lat="45.38462" lon="4.13845">
        <ele>862</ele>
        <time>2012-03-26T10:30:17.000Z</time>
      </trkpt>
      <trkpt lat="45.38461" lon="4.1386">
        <ele>861</ele>
        <time>2012-03-26T10:30:19.000Z</time>
      </trkpt>
      <trkpt lat="45.38459" lon="4.13875">
        <ele>861</ele>
        <time>2012-03-26T10:30:21.000Z</time>
      </trkpt>
      <trkpt lat="45.38456" lon="4.13889">
        <ele>861</ele>
        <time>2012-03-26T10:30:23.000Z</time>
      </trkpt>
      <trkpt lat="45.38453" lon="4.13904">
        <ele>860</ele>
        <time>2012-03-26T10:30:25.000Z</time>
      </trkpt>
      <trkpt lat="45.3845" lon="4.13918">
        <ele>860</ele>
        <time>2012-03-26T10:30:27.000Z</time>
      </trkpt>
      <trkpt lat="45.38446" lon="4.13932">
        <ele>860</ele>
        <time>2012-03-26T10:30:29.000Z</time>
      </trkpt>
      <trkpt lat="45.38443" lon="4.13945">
        <ele>861</ele>
        <time>2012-03-26T10:30:31.000Z</time>
      </trkpt>
      <trkpt lat="45.3844" lon="4.13959">
        <ele>862</ele>
        <time>2012-03-26T10:30:33.000Z</time>
      </trkpt>
      <trkpt lat="45.38438" lon="4.13972">
        <ele>863</ele>
        <time>2012-03-26T10:30:35.000Z</time>
      </trkpt>
      <trkpt lat="45.38436" lon="4.13985">
        <ele>863</ele>
        <time>2012-03-26T10:30:37.000Z</time>
      </trkpt>
      <trkpt lat="45.38434" lon="4.13997">
        <ele>863</ele>
        <time>2012-03-26T10:30:39.000Z</time>
      </trkpt>
      <trkpt lat="45.38431" lon="4.14022">
        <ele>863</ele>
        <time>2012-03-26T10:30:43.000Z</time>
      </trkpt>
      <trkpt lat="45.3843" lon="4.14046">
        <ele>864</ele>
        <time>2012-03-26T10:30:47.000Z</time>
      </trkpt>
      <trkpt lat="45.38429" lon="4.1406">
        <ele>864</ele>
        <time>2012-03-26T10:30:49.000Z</time>
      </trkpt>
      <trkpt lat="45.38428" lon="4.14079">
        <ele>864</ele>
        <time>2012-03-26T10:30:52.000Z</time>
      </trkpt>
      <trkpt lat="45.38427" lon="4.14098">
        <ele>864</ele>
        <time>2012-03-26T10:30:55.000Z</time>
      </trkpt>
      <trkpt lat="45.38425" lon="4.14122">
        <ele>863</ele>
        <time>2012-03-26T10:30:59.000Z</time>
      </trkpt>
      <trkpt lat="45.38422" lon="4.14147">
        <ele>865</ele>
        <time>2012-03-26T10:31:03.000Z</time>
      </trkpt>
      <trkpt lat="45.38419" lon="4.1417">
        <ele>867</ele>
        <time>2012-03-26T10:31:07.000Z</time>
      </trkpt>
      <trkpt lat="45.38415" lon="4.14193">
        <ele>867</ele>
        <time>2012-03-26T10:31:11.000Z</time>
      </trkpt>
      <trkpt lat="45.38413" lon="4.1421">
        <ele>868</ele>
        <time>2012-03-26T10:31:14.000Z</time>
      </trkpt>
      <trkpt lat="45.3841" lon="4.1423">
        <ele>870</ele>
        <time>2012-03-26T10:31:18.000Z</time>
      </trkpt>
      <trkpt lat="45.38409" lon="4.14251">
        <ele>868</ele>
        <time>2012-03-26T10:31:22.000Z</time>
      </trkpt>
      <trkpt lat="45.3841" lon="4.14271">
        <ele>869</ele>
        <time>2012-03-26T10:31:26.000Z</time>
      </trkpt>
      <trkpt lat="45.38411" lon="4.14292">
        <ele>871</ele>
        <time>2012-03-26T10:31:30.000Z</time>
      </trkpt>
      <trkpt lat="45.38413" lon="4.14313">
        <ele>869</ele>
        <time>2012-03-26T10:31:34.000Z</time>
      </trkpt>
      <trkpt lat="45.38416" lon="4.14334">
        <ele>871</ele>
        <time>2012-03-26T10:31:38.000Z</time>
      </trkpt>
      <trkpt lat="45.38419" lon="4.14355">
        <ele>874</ele>
        <time>2012-03-26T10:31:42.000Z</time>
      </trkpt>
      <trkpt lat="45.38421" lon="4.14375">
        <ele>876</ele>
        <time>2012-03-26T10:31:46.000Z</time>
      </trkpt>
      <trkpt lat="45.38416" lon="4.14393">
        <ele>880</ele>
        <time>2012-03-26T10:31:50.000Z</time>
      </trkpt>
      <trkpt lat="45.38412" lon="4.1441">
        <ele>879</ele>
        <time>2012-03-26T10:31:54.000Z</time>
      </trkpt>
      <trkpt lat="45.38409" lon="4.14428">
        <ele>879</ele>
        <time>2012-03-26T10:31:58.000Z</time>
      </trkpt>
      <trkpt lat="45.38406" lon="4.14447">
        <ele>878</ele>
        <time>2012-03-26T10:32:02.000Z</time>
      </trkpt>
      <trkpt lat="45.38402" lon="4.14465">
        <ele>876</ele>
        <time>2012-03-26T10:32:06.000Z</time>
      </trkpt>
      <trkpt lat="45.38397" lon="4.14483">
        <ele>873</ele>
        <time>2012-03-26T10:32:10.000Z</time>
      </trkpt>
      <trkpt lat="45.38392" lon="4.14499">
        <ele>872</ele>
        <time>2012-03-26T10:32:14.000Z</time>
      </trkpt>
    </trkseg>
  </trk>
</gpx>